# Wetter Temperatur Luftdruck Luftfeuchtigkeit Sichtweite Windgeschwindigkeit Windrichtung Zeit
1 Rain 10 998 73 0 0.98 92 20:42 02.04.2020
2 Clouds 10 1011 66 10000 5.1 70 20:22 02.04.2020
3 Clouds 11 1011 66 10000 5.1 70 19:55 02.04.2020
4 Clouds 11 1011 66 10000 5.1 70 19:37 02.04.2020
5 Clouds 11 1011 66 10000 5.1 70 19:18 02.04.2020
6 Clouds 11 1011 66 10000 5.7 70 18:41 02.04.2020
7 Clouds 12 1010 66 10000 7.7 60 18:21 02.04.2020
8 Clouds 12 1010 66 10000 7.7 60 18:21 02.04.2020
9 Clouds 12 1010 66 10000 7.7 70 17:57 02.04.2020
10 Clouds 12 1010 66 10000 7.7 70 17:39 02.04.2020
11 Clouds 12 1011 66 10000 5.7 60 17:20 02.04.2020
12 Clouds 12 1011 66 10000 5.7 60 16:56 02.04.2020
13 Rain 11 1011 71 10000 5.1 70 16:38 02.04.2020
14 Rain 12 1011 71 10000 6.7 70 16:20 02.04.2020
15 Rain 12 1011 71 10000 6.7 70 15:54 02.04.2020
16 Clouds 13 1011 62 10000 7.7 60 15:36 02.04.2020
17 Clouds 13 1011 58 10000 8.7 60 15:18 02.04.2020
18 Clouds 13 1011 62 10000 9.3 60 14:40 02.04.2020
19 Clouds 13 1011 62 10000 7.2 60 14:21 02.04.2020
20 Clouds 14 1011 62 10000 7.2 60 13:58 02.04.2020
21 Clouds 13 1012 62 10000 4.6 60 13:39 02.04.2020
22 Clouds 12 1012 66 10000 2.6 0 13:21 02.04.2020
23 Clouds 12 1013 66 10000 3.1 30 12:56 02.04.2020
24 Clouds 12 1013 66 10000 3.1 30 12:38 02.04.2020
25 Clouds 12 1013 66 10000 3.6 0 12:19 02.04.2020
26 Clouds 12 1013 66 10000 3.6 0 12:19 02.04.2020
27 Clouds 12 1013 66 10000 3.6 0 11:57 02.04.2020
28 Clouds 12 1013 66 10000 1 0 11:38 02.04.2020
29 Clouds 11 1013 66 10000 1 0 11:19 02.04.2020
30 Clouds 11 1013 66 10000 2.1 270 10:55 02.04.2020
31 Clouds 11 1013 66 10000 3.1 60 10:37 02.04.2020
32 Clouds 11 1013 66 10000 3.1 60 10:37 02.04.2020
33 Clouds 11 1013 66 10000 3.1 70 10:19 02.04.2020
34 Clouds 10 1012 71 10000 6.2 70 09:43 02.04.2020
35 Clouds 10 1012 71 10000 6.2 70 09:25 02.04.2020
36 Rain 9 1000 88 0 2.42 109 08:59 02.04.2020
37 Rain 9 1000 90 0 2.42 109 08:40 02.04.2020
38 Rain 9 1000 91 0 2.42 109 08:22 02.04.2020
39 Rain 9 1001 91 0 2.42 109 07:45 02.04.2020
40 Rain 8 1000 90 0 2.42 109 07:20 02.04.2020
41 Rain 8 1000 90 0 2.42 109 06:58 02.04.2020
42 Rain 8 1000 86 0 1.95 83 06:21 02.04.2020
43 Clouds 8 1000 81 0 1.95 83 05:45 02.04.2020
44 Clouds 9 1001 73 0 1.95 83 04:33 02.04.2020
45 Clouds 9 1001 71 0 1.24 102 01:35 02.04.2020
46 Clouds 9 1002 70 0 1.24 102 00:48 02.04.2020
47 Clouds 9 1002 70 0 1.24 102 00:27 02.04.2020
48 Clouds 8 1002 70 0 1.62 96 23:55 01.04.2020
49 Clouds 8 1002 69 0 1.62 96 23:37 01.04.2020
50 Clouds 8 1002 69 0 1.62 96 23:18 01.04.2020
51 Clouds 9 1002 67 0 1.62 96 22:40 01.04.2020
52 Clouds 9 1002 67 0 1.62 96 22:22 01.04.2020
53 Clouds 9 1002 67 0 1.62 96 21:55 01.04.2020
54 Clouds 9 1002 67 0 2.27 101 21:37 01.04.2020
55 Clouds 9 1002 67 0 3.26 48 21:18 01.04.2020
56 Clouds 9 1002 67 0 3.76 51 20:54 01.04.2020
57 Clouds 9 1002 67 0 3.76 51 20:54 01.04.2020
58 Clouds 9 1002 68 0 3.76 51 20:36 01.04.2020
59 Clouds 10 1014 66 10000 8.7 70 20:18 01.04.2020
60 Clouds 10 1014 66 10000 8.7 70 19:42 01.04.2020
61 Clouds 10 1014 66 10000 8.7 70 19:22 01.04.2020
62 Clouds 11 1014 66 10000 8.7 70 18:56 01.04.2020
63 Clouds 11 1014 66 10000 8.7 70 18:56 01.04.2020
64 Clouds 11 1014 62 10000 6.7 60 18:38 01.04.2020
65 Clouds 12 1014 58 10000 4.6 30 18:19 01.04.2020
66 Clouds 11 1014 58 10000 4.1 30 17:55 01.04.2020
67 Clouds 12 1014 58 10000 4.1 30 17:36 01.04.2020
68 Clouds 12 1014 54 10000 3.6 40 17:18 01.04.2020
69 Clouds 12 1015 50 10000 3.6 30 16:42 01.04.2020
70 Clouds 13 1015 54 10000 3.6 360 16:24 01.04.2020
71 Clouds 13 1015 54 10000 3.6 360 15:58 01.04.2020
72 Clouds 13 1015 54 10000 3.6 10 15:40 01.04.2020
73 Clouds 13 1015 54 10000 3.6 10 15:21 01.04.2020
74 Clouds 13 1015 54 10000 3.1 340 14:57 01.04.2020
75 Clouds 13 1015 54 10000 3.1 340 14:57 01.04.2020
76 Clouds 13 1015 54 10000 3.6 330 14:38 01.04.2020
77 Clouds 13 1015 62 10000 4.1 340 14:19 01.04.2020
78 Clouds 13 1015 62 10000 4.1 340 13:58 01.04.2020
79 Clouds 13 1015 62 10000 5.1 360 13:37 01.04.2020
80 Clouds 13 1015 62 10000 5.7 360 13:19 01.04.2020
81 Clouds 13 1015 58 10000 5.1 360 12:55 01.04.2020
82 Clouds 13 1015 58 10000 5.1 360 12:36 01.04.2020
83 Clouds 12 1016 54 10000 3.6 350 12:18 01.04.2020
84 Clouds 12 1016 54 10000 4.6 360 11:42 01.04.2020
85 Clouds 12 1016 54 10000 4.6 360 11:23 01.04.2020
86 Clouds 12 1015 58 10000 5.7 10 10:58 01.04.2020
87 Clouds 12 1015 58 10000 5.7 10 10:38 01.04.2020
88 Clouds 12 1015 66 10000 5.1 10 10:19 01.04.2020
89 Rain 12 1015 66 10000 5.1 10 09:57 01.04.2020
90 Rain 12 1015 66 10000 5.1 10 09:57 01.04.2020
91 Rain 12 1015 71 10000 6.2 360 09:38 01.04.2020
92 Rain 12 1014 82 10000 7.2 360 09:18 01.04.2020
93 Rain 12 1001 99 0 0.45 347 08:41 01.04.2020
94 Rain 12 1001 99 0 3.26 316 08:18 01.04.2020
95 Rain 12 1000 97 0 3.26 316 07:44 01.04.2020
96 Rain 11 1000 97 0 3.26 316 07:21 01.04.2020
97 Rain 11 1000 98 0 3.26 316 06:48 01.04.2020
98 Rain 11 1000 98 0 3.26 316 06:26 01.04.2020
99 Rain 11 1000 97 0 2.65 241 05:56 01.04.2020
100 Rain 11 1000 93 0 2.65 241 04:33 01.04.2020
101 Rain 11 1001 83 0 2.65 241 03:32 01.04.2020
102 Clouds 11 1001 83 0 2.14 232 02:56 01.04.2020
103 Clouds 11 1001 81 0 2.15 238 01:59 01.04.2020
104 Clouds 11 1001 81 0 2.15 238 01:39 01.04.2020
105 Clouds 11 1001 80 0 2.15 238 01:18 01.04.2020
106 Clouds 11 1001 80 0 2.15 238 00:46 01.04.2020
107 Clouds 11 1001 80 0 2.15 238 00:21 01.04.2020
108 Clouds 11 1002 78 0 1.75 197 23:42 31.03.2020
109 Clouds 11 1001 78 0 1.75 197 23:23 31.03.2020
110 Clouds 11 1002 77 0 1.75 197 22:58 31.03.2020
111 Clouds 11 1002 77 0 1.75 197 22:37 31.03.2020
112 Clouds 11 1002 76 0 1.75 197 22:19 31.03.2020
113 Clouds 11 1002 75 0 1.75 197 21:56 31.03.2020
114 Clouds 11 1002 74 0 1.75 197 21:38 31.03.2020
115 Clouds 11 1002 74 0 0.95 163 21:19 31.03.2020
116 Clouds 12 1002 72 0 0.95 163 20:55 31.03.2020
117 Clouds 12 1002 71 0 0.95 163 20:36 31.03.2020
118 Clouds 12 1002 71 0 0.95 163 20:36 31.03.2020
119 Clouds 12 1014 62 10000 2.6 60 20:18 31.03.2020
120 Clouds 13 1014 62 10000 2.6 60 19:42 31.03.2020
121 Clouds 13 1014 62 10000 2.6 60 19:42 31.03.2020
122 Clouds 13 1014 62 10000 2.6 60 19:42 31.03.2020
123 Clouds 14 1014 62 10000 2.6 60 19:23 31.03.2020
124 Clouds 14 1015 59 10000 3.6 50 18:59 31.03.2020
125 Clouds 14 1015 59 10000 3.6 50 18:40 31.03.2020
126 Clouds 15 1014 59 10000 2.6 60 18:19 31.03.2020
127 Clouds 15 1015 55 10000 2.6 50 17:55 31.03.2020
128 Clouds 16 1015 55 10000 2.6 50 17:37 31.03.2020
129 Clouds 16 1015 55 10000 2.6 40 17:19 31.03.2020
130 Clouds 16 1015 55 10000 3.1 50 16:41 31.03.2020
131 Clouds 16 1015 59 10000 3.6 40 16:20 31.03.2020
132 Clouds 16 1015 59 10000 3.6 40 15:58 31.03.2020
133 Clouds 16 1015 58 10000 3.6 40 15:40 31.03.2020
134 Clouds 17 1015 59 10000 3.6 30 15:22 31.03.2020
135 Clouds 16 1015 59 10000 3.6 30 14:58 31.03.2020
136 Clouds 16 1015 67 10000 3.6 30 14:39 31.03.2020
137 Clouds 16 1015 67 10000 3.6 30 14:21 31.03.2020
138 Clouds 16 1016 62 10000 2.1 10 13:43 31.03.2020
139 Clouds 16 1016 62 10000 2.1 360 13:20 31.03.2020
140 Clouds 16 1016 62 10000 2.1 360 12:59 31.03.2020
141 Clouds 16 1016 62 10000 2.1 360 12:40 31.03.2020
142 Clouds 15 1016 58 10000 1.5 330 12:19 31.03.2020
143 Clouds 15 1016 58 10000 1.5 300 11:41 31.03.2020
144 Clouds 15 1016 67 10000 1.5 260 11:20 31.03.2020
145 Clouds 15 1016 67 10000 1.5 260 10:59 31.03.2020
146 Clouds 15 1016 71 10000 2.6 260 10:40 31.03.2020
147 Clouds 15 1015 71 10000 1.5 260 10:22 31.03.2020
148 Clouds 14 1015 71 10000 1.5 260 09:59 31.03.2020
149 Clouds 14 1015 71 10000 2.1 230 09:40 31.03.2020
150 Clear 13 1015 76 10000 1.5 220 09:22 31.03.2020
151 Clear 13 1015 76 10000 1.5 220 08:57 31.03.2020
152 Clear 12 1002 89 0 1.94 190 08:38 31.03.2020
153 Clear 10 1002 91 0 1.94 190 08:19 31.03.2020
154 Clear 10 1002 91 0 1.94 190 08:19 31.03.2020
155 Clear 9 1002 91 0 1.94 190 07:56 31.03.2020
156 Clear 9 1002 91 0 1.94 190 07:38 31.03.2020
157 Clear 9 1002 89 0 1.94 190 07:19 31.03.2020
158 Clear 9 1002 91 0 1.94 190 06:46 31.03.2020
159 Clear 8 1002 92 0 1.09 215 06:20 31.03.2020
160 Clear 8 1002 92 0 1.09 215 05:39 31.03.2020
161 Clear 8 1021 82 0 1.09 215 03:34 31.03.2020
162 Clouds 8 1018 79 0 1.79 270 02:18 31.03.2020
163 Clouds 7 1022 82 0 1.44 230 01:45 31.03.2020
164 Clouds 8 1022 83 0 1.44 230 00:49 31.03.2020
165 Clouds 8 1022 83 0 1.44 230 00:25 31.03.2020
166 Clouds 8 1022 83 0 1 263 23:57 30.03.2020
167 Clouds 8 1022 83 0 1 263 23:37 30.03.2020
168 Clouds 8 1022 83 0 1 263 23:18 30.03.2020
169 Clouds 8 1001 88 0 1 263 22:55 30.03.2020
170 Clouds 9 1001 88 0 1 263 22:36 30.03.2020
171 Clouds 9 1001 88 0 1 263 22:18 30.03.2020
172 Clouds 9 1001 87 0 1 263 21:54 30.03.2020
173 Clouds 9 1001 86 0 1 263 21:36 30.03.2020
174 Clouds 9 1001 86 0 1 263 21:36 30.03.2020
175 Rain 9 1001 86 0 0.98 327 21:18 30.03.2020
176 Rain 10 1000 84 0 0.98 327 20:40 30.03.2020
177 Clouds 10 1012 76 10000 3.1 40 20:22 30.03.2020
178 Clouds 10 1012 76 10000 3.1 40 19:59 30.03.2020
179 Clouds 11 1012 76 10000 3.1 40 19:40 30.03.2020
180 Clouds 11 1012 76 10000 3.1 40 19:21 30.03.2020
181 Clouds 12 1012 76 10000 3.1 40 18:56 30.03.2020
182 Clouds 12 1012 71 10000 3.6 40 18:38 30.03.2020
183 Clouds 12 1012 71 10000 3.6 40 18:19 30.03.2020
184 Clouds 12 1012 71 10000 3.6 40 17:56 30.03.2020
185 Clouds 12 1012 71 10000 3.6 40 17:56 30.03.2020
186 Clouds 12 1012 71 10000 4.1 50 17:37 30.03.2020
187 Clouds 12 1012 71 10000 3.6 40 17:18 30.03.2020
188 Clouds 12 1012 71 10000 3.6 40 16:54 30.03.2020
189 Clouds 12 1012 71 10000 3.6 40 16:36 30.03.2020
190 Clouds 13 1012 71 10000 3.6 20 16:18 30.03.2020
191 Clouds 13 1012 71 10000 2.1 30 15:41 30.03.2020
192 Clouds 13 1013 71 10000 2.1 50 15:22 30.03.2020
193 Clouds 12 1013 71 10000 2.1 50 14:59 30.03.2020
194 Clouds 12 1013 71 10000 2.1 30 14:39 30.03.2020
195 Clouds 12 1013 76 10000 1.5 20 14:19 30.03.2020
196 Clouds 11 1013 76 10000 1.5 20 13:58 30.03.2020
197 Clouds 12 1013 71 10000 1 0 13:40 30.03.2020
198 Clouds 11 1013 76 10000 1.5 10 13:20 30.03.2020
199 Clouds 11 1013 71 10000 1.5 310 12:54 30.03.2020
200 Clouds 12 1013 71 10000 1.5 310 12:36 30.03.2020
201 Clouds 12 1013 71 10000 1 0 12:18 30.03.2020
202 Clouds 12 1013 71 10000 1.5 350 11:42 30.03.2020
203 Clouds 12 1013 71 10000 1.5 350 11:23 30.03.2020
204 Clouds 11 1013 71 10000 1.5 20 10:57 30.03.2020
205 Clouds 11 1012 81 10000 1 0 10:38 30.03.2020
206 Clouds 11 1012 81 10000 0.5 0 10:20 30.03.2020
207 Clouds 10 1012 81 10000 0.5 0 09:54 30.03.2020
208 Clouds 10 1012 81 10000 0.5 0 09:36 30.03.2020
209 Rain 9 999 99 0 0.7 0 09:18 30.03.2020
210 Rain 9 999 99 0 0.7 0 08:39 30.03.2020
211 Rain 9 999 99 0 0.7 0 08:20 30.03.2020
212 Rain 9 999 99 0 0.7 0 07:45 30.03.2020
213 Rain 9 998 99 0 0.7 0 07:23 30.03.2020
214 Rain 9 998 99 0 0.7 0 06:47 30.03.2020
215 Rain 9 998 99 0 0.7 0 06:27 30.03.2020
216 Rain 9 998 99 0 0.53 285 05:46 30.03.2020
217 Rain 9 998 99 0 0.53 285 04:40 30.03.2020
218 Rain 9 998 99 0 0.53 285 04:20 30.03.2020
219 Rain 10 999 99 0 0.66 209 02:52 30.03.2020
220 Rain 10 999 99 0 0.78 264 01:59 30.03.2020
221 Rain 10 999 99 0 0.78 264 01:24 30.03.2020
222 Rain 10 999 99 0 0.78 264 00:30 30.03.2020
223 Rain 10 999 98 0 0.64 212 23:59 29.03.2020
224 Rain 11 999 97 0 0.64 212 23:40 29.03.2020
225 Rain 11 999 95 0 0.64 212 23:21 29.03.2020
226 Rain 10 999 94 0 0.64 212 22:55 29.03.2020
227 Rain 11 999 94 0 0.64 212 22:37 29.03.2020
228 Rain 11 999 93 0 0.64 212 22:18 29.03.2020
229 Rain 11 999 88 0 0.64 212 21:40 29.03.2020
230 Rain 11 999 85 0 0.89 215 21:21 29.03.2020
231 Clouds 11 999 78 0 1.52 39 20:56 29.03.2020
232 Clouds 12 999 75 0 1.52 39 20:38 29.03.2020
233 Clouds 12 1012 71 10000 5.1 50 20:19 29.03.2020
234 Clouds 12 1012 71 10000 5.1 50 20:19 29.03.2020
235 Clouds 12 1012 71 10000 5.1 50 19:59 29.03.2020
236 Clouds 12 1012 71 10000 5.1 50 19:41 29.03.2020
237 Clouds 12 1012 71 10000 5.1 50 19:23 29.03.2020
238 Clouds 13 1012 71 10000 5.7 50 18:57 29.03.2020
239 Clouds 13 1012 71 10000 5.7 50 18:39 29.03.2020
240 Clouds 13 1012 67 10000 5.1 50 18:20 29.03.2020
241 Clouds 14 1012 71 10000 5.7 50 17:56 29.03.2020
242 Clouds 14 1012 71 10000 5.7 50 17:38 29.03.2020
243 Clouds 13 1012 62 10000 5.7 40 17:19 29.03.2020
244 Clouds 14 1012 62 10000 5.7 40 16:57 29.03.2020
245 Clouds 14 1012 67 10000 6.7 40 16:38 29.03.2020
246 Clouds 14 1012 62 10000 6.7 40 16:19 29.03.2020
247 Clouds 14 1012 67 10000 5.7 40 15:42 29.03.2020
248 Clouds 14 1012 67 10000 5.7 40 15:42 29.03.2020
249 Clouds 14 1012 67 10000 5.7 40 15:42 29.03.2020
250 Clouds 14 1012 67 10000 5.7 40 15:24 29.03.2020
251 Clouds 15 1012 67 10000 5.1 40 14:59 29.03.2020
252 Clouds 14 1013 67 10000 4.6 40 14:40 29.03.2020
253 Clouds 14 1013 67 10000 4.6 40 14:40 29.03.2020
254 Clouds 14 1013 62 10000 4.6 40 14:20 29.03.2020
255 Clouds 14 1013 62 10000 4.6 40 13:58 29.03.2020
256 Clouds 14 1013 62 10000 4.6 40 13:40 29.03.2020
257 Clouds 14 1013 67 10000 4.6 40 13:20 29.03.2020
258 Clouds 15 1013 67 10000 4.6 30 12:57 29.03.2020
259 Clouds 15 1013 67 10000 4.6 30 12:38 29.03.2020
260 Clouds 14 1014 76 10000 3.1 360 12:19 29.03.2020
261 Clouds 14 1014 76 10000 3.1 360 12:19 29.03.2020
262 Clouds 14 1014 71 10000 2.1 360 11:55 29.03.2020
263 Clouds 14 1014 71 10000 2.1 360 11:37 29.03.2020
264 Clouds 13 1014 76 10000 1 320 11:19 29.03.2020
265 Clouds 13 1014 76 10000 1 320 11:19 29.03.2020
266 Clouds 13 1014 76 10000 1.5 260 10:38 29.03.2020
267 Clouds 13 1014 82 10000 1 0 10:19 29.03.2020
268 Clouds 12 1014 81 10000 2.1 220 09:42 29.03.2020
269 Clear 12 1001 91 0 0.4 307 09:23 29.03.2020
270 Clear 11 1001 93 0 0.4 307 08:57 29.03.2020
271 Clear 10 1001 95 0 0.4 307 08:39 29.03.2020
272 Clear 10 1001 97 0 0.4 307 08:20 29.03.2020
273 Clear 9 1001 96 0 0.4 307 07:44 29.03.2020
274 Clear 9 1001 95 0 0.4 307 07:22 29.03.2020
275 Clear 9 1001 97 0 0.89 289 05:59 29.03.2020
276 Clear 8 1021 85 0 0.89 289 04:56 29.03.2020
277 Clear 8 1022 85 0 0.89 289 03:37 29.03.2020
278 Clouds 9 1002 94 0 1.08 250 01:57 29.03.2020
279 Clouds 9 1002 94 0 1.08 250 01:37 29.03.2020
280 Clouds 9 1002 95 0 0.97 242 01:19 29.03.2020
281 Clouds 9 1002 94 0 0.97 242 00:39 29.03.2020
282 Clouds 9 1002 93 0 0.97 242 00:18 29.03.2020
283 Clouds 9 1002 91 0 0.97 242 23:40 28.03.2020
284 Clouds 10 1002 90 0 0.81 223 23:22 28.03.2020
285 Clouds 10 1002 89 0 0.81 223 22:43 28.03.2020
286 Clouds 9 1002 89 0 0.81 223 22:22 28.03.2020
287 Clouds 9 1002 87 0 0.81 223 21:57 28.03.2020
288 Clouds 9 1002 86 0 0.81 223 21:39 28.03.2020
289 Clouds 10 1002 85 0 0.81 223 21:19 28.03.2020
290 Clouds 10 1002 85 0 0.81 223 20:56 28.03.2020
291 Clouds 10 1002 84 0 0.81 223 20:37 28.03.2020
292 Clouds 11 1014 71 10000 2.1 20 20:19 28.03.2020
293 Clouds 11 1014 71 10000 2.1 20 19:55 28.03.2020
294 Clouds 11 1014 71 10000 2.1 20 19:36 28.03.2020
295 Clouds 11 1014 71 10000 2.1 20 19:18 28.03.2020
296 Clouds 12 1014 71 10000 2.6 10 18:39 28.03.2020
297 Clouds 12 1013 71 10000 2.6 330 18:20 28.03.2020
298 Clouds 13 1013 72 10000 3.6 310 17:42 28.03.2020
299 Clouds 13 1013 76 10000 4.6 270 17:22 28.03.2020
300 Clouds 13 1013 76 10000 4.6 270 16:59 28.03.2020
301 Clouds 14 1013 76 10000 5.1 280 16:39 28.03.2020
302 Clouds 14 1013 76 10000 6.7 290 16:18 28.03.2020
303 Clouds 14 1013 76 10000 7.2 280 15:40 28.03.2020
304 Clouds 14 1013 76 10000 8.2 270 15:21 28.03.2020
305 Clouds 14 1013 76 10000 8.2 270 14:59 28.03.2020
306 Clouds 13 1013 76 10000 7.7 270 14:40 28.03.2020
307 Clouds 14 1013 76 10000 7.7 270 14:21 28.03.2020
308 Clouds 14 1013 76 10000 8.2 270 13:43 28.03.2020
309 Clouds 14 1013 76 10000 8.2 270 13:23 28.03.2020
310 Rain 14 1013 71 10000 7.7 270 12:41 28.03.2020
311 Rain 13 1013 82 10000 4.6 220 12:23 28.03.2020
312 Rain 13 1013 82 10000 4.6 220 11:59 28.03.2020
313 Rain 13 1013 71 10000 4.1 270 11:41 28.03.2020
314 Rain 13 1013 82 9000 3.6 300 11:20 28.03.2020
315 Rain 13 1013 76 10000 5.1 210 10:40 28.03.2020
316 Clouds 13 1013 71 10000 5.7 210 10:22 28.03.2020
317 Clouds 13 1013 76 10000 3.1 190 09:43 28.03.2020
318 Rain 12 1000 85 0 3.54 241 09:24 28.03.2020
319 Rain 12 1000 90 0 3.54 241 08:59 28.03.2020
320 Rain 11 1000 92 0 3.54 241 08:41 28.03.2020
321 Rain 11 1000 92 0 0.45 2 08:22 28.03.2020
322 Rain 11 999 93 0 2.81 195 07:46 28.03.2020
323 Rain 11 999 93 0 0.89 355 07:28 28.03.2020
324 Rain 10 999 95 0 2.81 195 06:37 28.03.2020
325 Rain 9 999 97 0 2.81 195 06:18 28.03.2020
326 Rain 9 998 95 0 2.81 195 05:23 28.03.2020
327 Rain 9 998 95 0 3.04 172 04:42 28.03.2020
328 Rain 9 999 95 0 3.04 172 04:20 28.03.2020
329 Rain 9 999 94 0 3.04 172 02:33 28.03.2020
330 Clouds 8 999 95 0 2.88 186 01:45 28.03.2020
331 Clouds 8 999 95 0 2.74 181 01:20 28.03.2020
332 Clouds 8 999 94 0 2.74 181 00:47 28.03.2020
333 Clouds 8 999 93 0 2.74 181 00:20 28.03.2020
334 Clouds 8 999 92 0 2.74 181 23:43 27.03.2020
335 Clouds 8 999 91 0 2.74 181 23:23 27.03.2020
336 Clouds 9 999 89 0 2.73 187 22:56 27.03.2020
337 Clouds 9 999 88 0 2.73 187 22:38 27.03.2020
338 Clouds 9 1012 66 10000 3.1 200 22:20 27.03.2020
339 Clouds 9 1012 66 10000 3.1 200 21:55 27.03.2020
340 Clouds 9 1012 66 10000 3.1 200 21:37 27.03.2020
341 Clouds 9 1012 66 10000 3.1 200 21:19 27.03.2020
342 Clouds 9 1011 66 10000 4.1 210 20:42 27.03.2020
343 Clouds 9 1011 71 10000 4.6 210 20:21 27.03.2020
344 Clouds 9 1011 71 10000 4.6 210 19:59 27.03.2020
345 Clouds 9 1011 76 10000 3.6 210 19:41 27.03.2020
346 Rain 9 1010 76 10000 4.1 200 19:22 27.03.2020
347 Rain 9 1010 76 10000 4.1 200 18:56 27.03.2020
348 Rain 10 1010 76 10000 3.6 220 18:38 27.03.2020
349 Rain 10 1010 71 10000 4.6 230 18:19 27.03.2020
350 Rain 11 1010 71 10000 4.6 230 18:19 27.03.2020
351 Rain 11 1009 71 10000 3.6 230 17:40 27.03.2020
352 Rain 11 1009 71 10000 3.6 250 17:20 27.03.2020
353 Rain 11 1009 71 10000 3.6 250 17:20 27.03.2020
354 Clouds 12 1009 71 10000 3.6 260 16:54 27.03.2020
355 Clouds 11 1009 71 10000 3.6 260 16:36 27.03.2020
356 Clouds 11 1009 76 10000 2.6 270 16:18 27.03.2020
357 Clouds 11 1009 76 10000 4.1 280 15:41 27.03.2020
358 Rain 11 996 92 0 0.97 134 15:23 27.03.2020
359 Rain 11 996 86 0 0.97 134 14:46 27.03.2020
360 Rain 11 995 83 0 0.97 134 14:25 27.03.2020
361 Rain 12 995 81 0 4.15 151 13:56 27.03.2020
362 Rain 12 995 84 0 4.15 151 13:37 27.03.2020
363 Rain 12 995 82 0 4.15 151 13:37 27.03.2020
364 Rain 12 995 85 0 4.15 151 13:19 27.03.2020
365 Rain 11 995 89 0 4.13 155 12:51 27.03.2020
366 Rain 11 996 95 0 4.13 155 12:21 27.03.2020
367 Rain 10 996 95 0 4.13 155 11:59 27.03.2020
368 Rain 10 996 94 0 4.13 155 11:41 27.03.2020
369 Rain 9 996 92 0 4.6 181 11:22 27.03.2020
370 Rain 9 996 90 0 4.6 181 10:54 27.03.2020
371 Rain 10 996 88 0 4.6 181 10:36 27.03.2020
372 Rain 10 996 84 0 4.6 181 10:18 27.03.2020
373 Rain 11 996 78 0 0.89 229 09:56 27.03.2020
374 Rain 11 995 73 0 0.45 235 09:37 27.03.2020
375 Rain 12 994 69 0 4.6 181 09:18 27.03.2020
376 Rain 13 994 67 0 4.6 181 08:55 27.03.2020
377 Rain 12 994 71 0 4.6 181 08:37 27.03.2020
378 Clouds 12 994 72 0 4.45 187 08:18 27.03.2020
379 Clouds 12 994 77 0 4.35 180 07:49 27.03.2020
380 Clouds 11 994 78 0 4.35 180 07:22 27.03.2020
381 Clouds 10 994 83 0 4.35 180 06:46 27.03.2020
382 Clouds 11 1013 67 0 4.92 218 06:27 27.03.2020
383 Clouds 10 993 84 0 5.18 209 04:21 27.03.2020
384 Clouds 10 994 77 0 5.18 209 02:25 27.03.2020
385 Clouds 9 994 81 0 4.67 224 01:23 27.03.2020
386 Clouds 9 994 78 0 4.28 221 00:48 27.03.2020
387 Clouds 9 994 79 0 4.28 221 00:23 27.03.2020
388 Clouds 9 994 82 0 0.45 254 23:43 26.03.2020
389 Rain 10 1014 69 0 3.13 200 23:21 26.03.2020
390 Rain 9 1014 71 0 2.68 200 22:58 26.03.2020
391 Rain 9 1014 73 0 2.24 200 22:37 26.03.2020
392 Rain 9 1014 75 0 1.79 224 22:19 26.03.2020
393 Rain 7 1008 76 0 4.82 235 21:55 26.03.2020
394 Rain 7 1008 76 0 4.82 235 21:37 26.03.2020
395 Rain 9 994 92 0 4.82 235 21:18 26.03.2020
396 Rain 9 1014 75 0 2.24 222 20:41 26.03.2020
397 Rain 7 994 99 0 5.31 247 20:23 26.03.2020
398 Rain 7 993 99 0 5.05 236 19:58 26.03.2020
399 Rain 6 993 99 0 5.05 236 19:40 26.03.2020
400 Rain 7 994 99 0 0.45 137 19:22 26.03.2020
401 Rain 7 993 98 0 1.79 333 18:59 26.03.2020
402 Rain 8 993 96 0 5.05 236 18:41 26.03.2020
403 Rain 7 993 95 0 0.45 285 18:23 26.03.2020
404 Rain 8 992 89 0 0.89 285 17:45 26.03.2020
405 Rain 9 992 83 0 1.34 297 17:21 26.03.2020
406 Rain 10 991 76 0 2.24 288 16:59 26.03.2020
407 Rain 11 991 69 0 8.49 258 16:39 26.03.2020
408 Rain 11 991 72 0 0.89 213 16:21 26.03.2020
409 Rain 11 991 75 0 8.49 258 15:57 26.03.2020
410 Rain 11 991 80 0 8.49 258 15:38 26.03.2020
411 Rain 11 991 75 0 8.49 258 15:20 26.03.2020
412 Rain 11 991 68 0 8.49 258 14:55 26.03.2020
413 Rain 11 1004 56 0 6.26 302 14:36 26.03.2020
414 Rain 12 990 62 0 0.89 187 14:18 26.03.2020
415 Rain 10 1005 82 0 9.49 267 13:41 26.03.2020
416 Rain 11 990 79 0 0.89 30 13:22 26.03.2020
417 Rain 9 990 73 0 1.34 302 12:55 26.03.2020
418 Rain 11 989 72 0 2.24 65 12:37 26.03.2020
419 Rain 11 989 79 0 8.31 267 12:18 26.03.2020
420 Rain 9 989 85 0 1.34 207 11:44 26.03.2020
421 Rain 10 989 90 0 1.34 26 11:20 26.03.2020
422 Rain 9 988 85 0 2.68 30 10:42 26.03.2020
423 Rain 9 988 84 0 1.34 215 10:20 26.03.2020
424 Rain 7 988 91 0 1.34 350 09:59 26.03.2020
425 Rain 7 988 92 0 1.34 8 09:41 26.03.2020
426 Rain 9 988 77 0 2.68 334 09:19 26.03.2020
427 Rain 10 988 80 0 1.34 255 08:44 26.03.2020
428 Rain 10 987 83 0 1.34 295 08:26 26.03.2020
429 Rain 10 987 83 0 1.34 295 08:26 26.03.2020
430 Rain 9 987 86 0 1.34 340 07:57 26.03.2020
431 Rain 9 987 86 0 1.34 340 07:57 26.03.2020
432 Rain 8 987 87 0 0.89 321 07:38 26.03.2020
433 Rain 7 987 88 0 2.24 308 07:20 26.03.2020
434 Rain 7 987 97 0 2.68 331 06:38 26.03.2020
435 Rain 6 987 99 0 0.89 1 05:51 26.03.2020
436 Rain 7 986 99 0 1.34 17 03:48 26.03.2020
437 Rain 8 987 99 0 9.26 298 03:26 26.03.2020
438 Rain 9 987 99 0 0.89 316 02:52 26.03.2020
439 Rain 9 986 99 0 2.68 152 01:20 26.03.2020
440 Rain 9 986 99 0 0.89 20 00:33 26.03.2020
441 Rain 9 987 99 0 0.89 111 23:44 25.03.2020
442 Rain 9 987 99 0 1.34 333 23:26 25.03.2020
443 Rain 9 987 99 0 1.34 139 22:56 25.03.2020
444 Rain 9 987 99 0 1.79 6 22:38 25.03.2020
445 Rain 10 987 99 0 1.79 356 22:19 25.03.2020
446 Rain 9 987 99 0 2.24 349 21:54 25.03.2020
447 Rain 9 987 99 0 4.02 358 21:36 25.03.2020
448 Rain 10 988 99 0 1.34 347 21:18 25.03.2020
449 Rain 10 988 99 0 2.68 14 20:39 25.03.2020
450 Rain 9 988 99 0 1.34 354 20:20 25.03.2020
451 Rain 9 988 99 0 0.89 358 19:57 25.03.2020
452 Rain 9 988 99 0 2.24 357 19:38 25.03.2020
453 Rain 10 988 99 0 0.45 354 19:20 25.03.2020
454 Rain 10 988 99 0 8.04 56 18:54 25.03.2020
455 Rain 10 988 99 0 0.89 4 18:36 25.03.2020
456 Rain 10 987 99 0 0.89 345 18:18 25.03.2020
457 Rain 10 988 99 0 1.34 355 17:41 25.03.2020
458 Rain 10 988 99 0 0.45 337 17:23 25.03.2020
459 Rain 10 988 99 0 0.45 7 16:59 25.03.2020
460 Rain 10 988 99 0 6.06 60 16:41 25.03.2020
461 Rain 10 988 99 0 0.45 355 16:21 25.03.2020
462 Rain 10 988 99 0 1.79 2 15:44 25.03.2020
463 Rain 10 989 99 0 0.45 258 15:21 25.03.2020
464 Rain 10 989 99 0 1.34 347 14:59 25.03.2020
465 Rain 10 989 99 0 0.89 301 14:40 25.03.2020
466 Rain 10 989 99 0 6.06 60 14:21 25.03.2020
467 Rain 10 990 99 0 0.89 347 13:46 25.03.2020
468 Rain 10 990 99 0 1.34 338 13:25 25.03.2020
469 Rain 9 991 99 0 6.41 65 12:55 25.03.2020
470 Rain 9 991 99 0 6.35 65 12:37 25.03.2020
471 Rain 9 991 99 0 0.89 274 12:18 25.03.2020
472 Rain 9 992 99 0 0.89 359 11:41 25.03.2020
473 Rain 9 992 99 0 6.41 65 11:21 25.03.2020
474 Rain 9 993 99 0 5.93 63 10:59 25.03.2020
475 Rain 9 993 99 0 5.93 63 10:40 25.03.2020
476 Rain 9 993 99 0 5.93 63 10:19 25.03.2020
477 Rain 9 993 99 0 5.93 63 10:19 25.03.2020
478 Rain 9 993 99 0 5.93 63 09:59 25.03.2020
479 Rain 9 994 99 0 5.93 63 09:40 25.03.2020
480 Rain 9 994 99 0 5.93 63 09:22 25.03.2020
481 Rain 8 994 99 0 5.93 63 08:54 25.03.2020
482 Rain 8 995 99 0 5.93 63 08:36 25.03.2020
483 Rain 8 995 99 0 6.3 57 08:18 25.03.2020
484 Rain 8 995 99 0 6.3 57 07:39 25.03.2020
485 Rain 8 995 99 0 6.3 57 07:19 25.03.2020
486 Rain 7 996 99 0 1.34 343 06:45 25.03.2020
487 Rain 7 996 99 0 6.3 57 06:25 25.03.2020
488 Rain 8 996 99 0 6.3 57 05:50 25.03.2020
489 Rain 7 997 99 0 5.54 48 04:59 25.03.2020
490 Rain 7 997 99 0 5.54 48 04:36 25.03.2020
491 Rain 7 998 98 0 5.54 48 03:34 25.03.2020
492 Rain 8 999 89 0 0.45 231 01:56 25.03.2020
493 Rain 9 1000 86 0 3.26 75 01:20 25.03.2020
494 Rain 9 1000 83 0 3.26 75 00:43 25.03.2020
495 Rain 9 1001 80 0 3.26 75 00:19 25.03.2020
496 Rain 10 1001 72 0 3.26 75 23:44 24.03.2020
497 Rain 10 1001 64 0 0.45 350 23:25 24.03.2020
498 Clouds 10 1002 66 0 0.45 355 22:55 24.03.2020
499 Clouds 10 1002 63 0 3.81 71 22:37 24.03.2020
500 Clouds 10 1002 61 0 0.45 346 22:19 24.03.2020
501 Clouds 10 1002 62 0 3.81 71 21:55 24.03.2020
502 Clouds 10 1002 60 0 3.81 71 21:36 24.03.2020
503 Clouds 10 1002 59 0 3.81 71 21:18 24.03.2020
504 Clouds 10 1002 60 0 3.81 71 20:42 24.03.2020
505 Clouds 10 1002 60 0 3.56 71 20:23 24.03.2020
506 Clouds 10 1003 59 0 3.73 63 19:56 24.03.2020
507 Clouds 10 1003 59 0 3.73 63 19:56 24.03.2020
508 Clouds 10 1002 59 0 3.73 63 19:38 24.03.2020
509 Clouds 10 1002 58 0 3.73 63 19:18 24.03.2020
510 Clouds 10 1003 58 0 3.73 63 18:55 24.03.2020
511 Clouds 10 1003 56 0 0.45 350 18:36 24.03.2020
512 Clouds 10 1003 57 0 3.73 63 18:18 24.03.2020
513 Clouds 11 1003 56 0 3.73 63 17:41 24.03.2020
514 Clouds 11 1003 56 0 4.29 51 17:22 24.03.2020
515 Clouds 9 1015 46 10000 9.3 60 16:58 24.03.2020
516 Clouds 9 1015 46 10000 9.3 70 16:39 24.03.2020
517 Clouds 9 1016 46 10000 9.8 70 16:20 24.03.2020
518 Clouds 10 1016 46 10000 9.8 70 15:57 24.03.2020
519 Clouds 9 1016 46 10000 9.8 70 15:37 24.03.2020
520 Clouds 9 1016 46 10000 9.3 70 15:19 24.03.2020
521 Clouds 10 1016 50 10000 9.8 60 14:42 24.03.2020
522 Clouds 11 1004 59 0 4.17 35 14:19 24.03.2020
523 Clouds 12 1005 60 0 4.17 35 13:42 24.03.2020
524 Rain 12 1005 61 0 4.45 40 13:24 24.03.2020
525 Rain 12 1005 62 0 4.45 40 12:55 24.03.2020
526 Rain 12 1005 62 0 4.45 40 12:37 24.03.2020
527 Rain 11 1005 65 0 4.45 40 12:18 24.03.2020
528 Rain 11 1005 68 0 4.45 40 11:39 24.03.2020
529 Clouds 10 1017 58 10000 9.3 60 11:20 24.03.2020
530 Clouds 10 1017 58 10000 8.7 60 10:43 24.03.2020
531 Clouds 10 1017 54 10000 7.7 60 10:20 24.03.2020
532 Clouds 10 1017 54 10000 7.7 60 09:59 24.03.2020
533 Clouds 10 1017 58 10000 7.7 60 09:40 24.03.2020
534 Clouds 10 1017 62 10000 7.7 60 09:22 24.03.2020
535 Clouds 10 1017 66 10000 7.7 60 08:39 24.03.2020
536 Clouds 10 1017 66 10000 7.7 60 08:20 24.03.2020
537 Clouds 10 1016 71 10000 5.7 70 07:48 24.03.2020
538 Rain 9 1004 81 0 0.89 356 07:25 24.03.2020
539 Rain 9 1003 81 0 0.45 5 06:58 24.03.2020
540 Rain 9 1003 82 0 2.52 51 06:31 24.03.2020
541 Rain 9 1003 82 0 0.45 318 05:27 24.03.2020
542 Clouds 10 1004 82 0 1.68 35 04:31 24.03.2020
543 Clouds 10 1004 83 0 1.68 35 03:18 24.03.2020
544 Rain 9 1004 83 0 0.76 340 01:50 24.03.2020
545 Rain 9 1020 88 0 0.89 270 00:51 24.03.2020
546 Rain 10 1005 82 0 0.48 343 00:26 24.03.2020
547 Clouds 10 1018 71 10000 5.7 30 23:49 23.03.2020
548 Clouds 11 1018 71 10000 5.7 30 23:27 23.03.2020
549 Clouds 11 1018 71 10000 5.7 30 22:58 23.03.2020
550 Clouds 11 1018 82 10000 5.1 30 22:39 23.03.2020
551 Clouds 11 1018 76 10000 5.1 20 22:21 23.03.2020
552 Clouds 11 1018 76 10000 3.6 50 21:44 23.03.2020
553 Rain 11 1017 76 10000 3.1 60 21:21 23.03.2020
554 Clouds 11 1017 76 10000 3.6 50 20:59 23.03.2020
555 Clouds 11 1017 76 10000 3.6 50 20:41 23.03.2020
556 Clouds 11 1017 76 10000 4.1 50 20:23 23.03.2020
557 Clouds 11 1017 76 10000 4.1 50 19:55 23.03.2020
558 Clouds 11 1017 76 10000 5.1 50 19:37 23.03.2020
559 Clouds 11 1016 76 10000 5.1 50 19:18 23.03.2020
560 Clouds 11 1016 76 10000 5.1 50 18:43 23.03.2020
561 Clouds 12 1016 72 10000 5.7 50 18:24 23.03.2020
562 Clouds 13 1016 72 10000 5.1 50 17:57 23.03.2020
563 Clouds 13 1016 77 10000 5.7 40 17:38 23.03.2020
564 Clouds 13 1016 77 10000 5.7 40 17:19 23.03.2020
565 Clouds 13 1016 77 10000 6.2 30 16:43 23.03.2020
566 Clouds 14 1016 77 10000 6.2 30 16:25 23.03.2020
567 Clouds 14 1016 67 10000 4.6 20 15:44 23.03.2020
568 Clouds 14 1016 67 10000 4.6 20 15:21 23.03.2020
569 Clouds 14 1016 67 10000 4.6 20 14:57 23.03.2020
570 Clouds 15 1016 72 10000 4.1 30 14:37 23.03.2020
571 Rain 14 1016 72 10000 4.1 30 14:18 23.03.2020
572 Rain 15 1016 72 10000 4.1 30 13:54 23.03.2020
573 Rain 15 1016 72 10000 4.1 30 13:54 23.03.2020
574 Rain 15 1016 77 10000 4.1 30 13:36 23.03.2020
575 Rain 15 1016 77 10000 4.1 30 13:36 23.03.2020
576 Rain 15 1016 72 10000 4.6 30 13:18 23.03.2020
577 Rain 15 1016 77 10000 4.6 30 12:41 23.03.2020
578 Rain 14 1016 77 10000 4.6 40 12:22 23.03.2020
579 Rain 14 1016 72 10000 4.6 40 11:55 23.03.2020
580 Rain 14 1016 72 10000 4.6 40 11:37 23.03.2020
581 Clouds 15 1016 72 10000 4.6 50 11:18 23.03.2020
582 Clouds 13 1016 77 10000 5.1 40 10:40 23.03.2020
583 Clouds 14 1016 77 10000 5.1 40 10:40 23.03.2020
584 Clouds 14 1016 77 10000 5.1 40 10:22 23.03.2020
585 Clouds 13 1016 77 10000 5.1 40 09:58 23.03.2020
586 Clouds 13 1016 77 10000 5.1 60 09:40 23.03.2020
587 Clouds 13 1015 77 10000 5.7 50 09:19 23.03.2020
588 Clouds 12 1015 76 10000 5.1 50 08:38 23.03.2020
589 Clouds 12 1015 77 10000 5.7 40 08:19 23.03.2020
590 Clouds 12 1015 77 10000 5.7 40 07:51 23.03.2020
591 Rain 11 1018 89 0 0.89 270 07:32 23.03.2020
592 Rain 11 1002 98 0 2.63 1 06:55 23.03.2020
593 Rain 11 1002 99 0 2.63 1 06:32 23.03.2020
594 Rain 12 1001 99 0 2.63 1 05:43 23.03.2020
595 Rain 11 1017 99 0 0.89 270 03:54 23.03.2020
596 Rain 12 1001 99 0 0.79 293 02:44 23.03.2020
597 Rain 12 1001 99 0 0.92 1 01:42 23.03.2020
598 Rain 12 1001 99 0 1.31 18 00:46 23.03.2020
599 Rain 12 1001 99 0 1.31 18 00:26 23.03.2020
600 Clouds 12 1014 77 10000 4.6 60 23:42 22.03.2020
601 Clouds 12 1014 77 10000 4.6 60 23:24 22.03.2020
602 Clouds 12 1014 82 10000 4.6 60 22:41 22.03.2020
603 Clouds 13 1014 77 10000 5.1 70 22:20 22.03.2020
604 Clouds 13 1014 77 10000 5.1 60 21:41 22.03.2020
605 Rain 12 1014 77 10000 5.1 60 21:23 22.03.2020
606 Rain 12 1013 87 10000 5.1 70 20:58 22.03.2020
607 Rain 13 1013 87 10000 5.1 70 20:40 22.03.2020
608 Clouds 13 1013 82 10000 5.1 70 20:22 22.03.2020
609 Clouds 13 1013 77 10000 5.1 60 19:56 22.03.2020
610 Clouds 13 1013 77 10000 5.1 60 19:38 22.03.2020
611 Clouds 13 1012 77 10000 6.2 60 19:19 22.03.2020
612 Clouds 13 1012 77 10000 6.2 60 18:57 22.03.2020
613 Clouds 13 1012 77 10000 6.2 60 18:39 22.03.2020
614 Clouds 13 1012 82 10000 5.7 60 18:19 22.03.2020
615 Clouds 13 1011 82 10000 6.2 70 17:56 22.03.2020
616 Clouds 13 1011 82 10000 6.2 70 17:37 22.03.2020
617 Clouds 14 1011 82 10000 6.2 50 17:19 22.03.2020
618 Clouds 14 1011 82 10000 6.7 60 16:55 22.03.2020
619 Clouds 14 1011 82 10000 6.7 60 16:37 22.03.2020
620 Clouds 14 1011 77 10000 7.2 60 16:19 22.03.2020
621 Clouds 15 1011 77 10000 6.7 50 15:39 22.03.2020
622 Clouds 15 1011 82 10000 6.2 40 15:19 22.03.2020
623 Rain 15 1011 77 10000 4.1 40 14:46 22.03.2020
624 Rain 16 1011 72 10000 1 350 14:18 22.03.2020
625 Rain 16 1011 77 10000 2.6 320 13:42 22.03.2020
626 Rain 16 1011 72 10000 2.6 310 13:20 22.03.2020
627 Rain 16 1011 67 10000 3.1 290 12:57 22.03.2020
628 Rain 16 1011 67 10000 3.1 290 12:38 22.03.2020
629 Rain 15 1011 67 10000 2.6 270 12:18 22.03.2020
630 Rain 15 1011 72 10000 3.1 290 11:43 22.03.2020
631 Rain 15 1011 72 10000 3.6 270 11:24 22.03.2020
632 Clouds 14 1011 67 10000 2.1 270 10:58 22.03.2020
633 Clouds 14 1011 67 10000 2.1 270 10:39 22.03.2020
634 Clouds 14 1011 72 10000 2.6 260 10:21 22.03.2020
635 Clouds 13 1011 67 10000 2.1 280 09:43 22.03.2020
636 Clouds 13 1011 67 10000 2.1 280 09:43 22.03.2020
637 Clouds 14 1011 67 10000 2.1 280 09:24 22.03.2020
638 Clouds 13 1010 62 10000 2.6 260 08:48 22.03.2020
639 Clouds 13 1010 62 10000 2.6 260 08:48 22.03.2020
640 Clouds 12 1010 62 10000 2.6 260 08:29 22.03.2020
641 Clouds 11 1010 62 10000 5.1 110 07:53 22.03.2020
642 Clouds 11 1010 62 10000 5.1 110 07:32 22.03.2020
643 Clouds 10 998 93 0 1.05 195 06:40 22.03.2020
644 Clouds 9 998 92 0 1.05 195 05:41 22.03.2020
645 Clouds 10 998 92 0 0.45 226 04:34 22.03.2020
646 Rain 10 999 99 0 2.35 194 01:36 22.03.2020
647 Clouds 10 1018 88 0 2.57 195 00:49 22.03.2020
648 Clouds 10 1019 88 0 2.57 195 00:30 22.03.2020
649 Rain 11 1012 82 7000 6.2 50 23:45 21.03.2020
650 Rain 11 1012 82 7000 6.2 50 23:21 21.03.2020
651 Rain 11 1012 82 7000 6.2 50 22:58 21.03.2020
652 Clouds 11 1011 82 10000 6.2 60 22:37 21.03.2020
653 Rain 11 1011 87 10000 5.7 60 22:19 21.03.2020
654 Rain 11 1011 87 10000 5.7 60 21:57 21.03.2020
655 Rain 12 1011 76 10000 4.6 80 21:38 21.03.2020
656 Rain 11 1011 76 10000 4.1 60 21:19 21.03.2020
657 Rain 11 1011 71 10000 9.3 80 20:42 21.03.2020
658 Rain 11 1011 76 10000 3.6 0 20:22 21.03.2020
659 Rain 11 1011 76 10000 4.1 290 19:55 21.03.2020
660 Rain 11 1011 76 10000 4.1 290 19:36 21.03.2020
661 Rain 11 1012 71 8000 2.6 30 19:18 21.03.2020
662 Rain 11 1012 71 8000 2.6 30 19:18 21.03.2020
663 Rain 12 1012 66 8000 1 0 18:41 21.03.2020
664 Rain 12 1012 76 8000 1.5 20 18:20 21.03.2020
665 Rain 12 1012 76 8000 1.5 20 17:58 21.03.2020
666 Drizzle 13 1011 67 10000 1.5 300 17:40 21.03.2020
667 Drizzle 13 1011 62 10000 2.6 260 17:22 21.03.2020
668 Drizzle 14 1011 72 10000 4.6 230 16:42 21.03.2020
669 Clouds 14 1011 55 10000 1 0 16:23 21.03.2020
670 Clouds 15 1011 55 10000 1 0 15:58 21.03.2020
671 Clouds 14 1011 54 10000 1 60 15:40 21.03.2020
672 Clouds 15 1011 54 10000 1 60 15:21 21.03.2020
673 Clouds 15 1012 62 10000 4.1 70 14:56 21.03.2020
674 Clouds 15 1012 62 10000 4.1 70 14:37 21.03.2020
675 Clouds 16 1012 54 10000 2.1 40 14:19 21.03.2020
676 Clouds 16 1013 62 10000 2.6 340 13:57 21.03.2020
677 Clouds 15 1012 54 10000 2.1 40 13:57 21.03.2020
678 Clouds 15 1013 62 10000 2.6 340 13:38 21.03.2020
679 Clouds 15 1012 63 10000 3.1 360 13:20 21.03.2020
680 Clouds 15 1012 63 10000 3.1 360 12:54 21.03.2020
681 Clouds 15 1013 67 10000 1.5 320 12:36 21.03.2020
682 Clouds 15 1013 67 10000 2.1 280 12:18 21.03.2020
683 Clouds 15 1014 71 10000 2.6 240 11:54 21.03.2020
684 Clouds 15 1014 71 10000 2.6 240 11:36 21.03.2020
685 Clouds 15 1014 71 10000 2.6 240 11:18 21.03.2020
686 Clouds 15 1014 71 10000 3.1 250 10:55 21.03.2020
687 Clouds 14 1014 71 10000 3.1 250 10:37 21.03.2020
688 Clouds 14 1014 67 10000 2.6 230 10:18 21.03.2020
689 Clouds 13 1014 71 10000 2.6 270 09:40 21.03.2020
690 Clouds 13 1014 67 10000 2.1 200 09:21 21.03.2020
691 Clouds 13 1014 67 10000 2.1 200 08:56 21.03.2020
692 Clouds 12 1015 71 10000 3.1 220 08:38 21.03.2020
693 Clouds 11 1015 71 10000 3.1 220 08:20 21.03.2020
694 Clouds 11 1015 87 10000 3.6 200 07:39 21.03.2020
695 Clouds 10 1002 64 0 2.52 184 07:20 21.03.2020
696 Clouds 10 1002 64 0 2.52 184 07:20 21.03.2020
697 Clouds 9 1002 65 0 2.52 184 06:45 21.03.2020
698 Clouds 9 1018 40 0 1.34 45 06:25 21.03.2020
699 Clouds 9 1002 64 0 2.52 184 05:41 21.03.2020
700 Clouds 9 1003 63 0 2.65 191 04:34 21.03.2020
701 Clouds 9 1004 76 0 2.65 191 02:38 21.03.2020
702 Clear 9 1005 79 0 2.92 189 01:49 21.03.2020
703 Clear 9 1005 80 0 2.92 189 01:26 21.03.2020
704 Clear 10 1005 83 0 2.96 195 00:43 21.03.2020
705 Clear 10 1019 76 10000 2.1 190 00:24 21.03.2020
706 Clear 11 1019 76 10000 2.1 190 23:45 20.03.2020
707 Clear 11 1019 76 10000 2.1 190 23:22 20.03.2020
708 Clear 12 1019 76 10000 2.6 190 22:44 20.03.2020
709 Clear 12 1019 71 10000 2.6 200 22:25 20.03.2020
710 Clear 12 1019 71 10000 2.6 200 21:59 20.03.2020
711 Clear 12 1019 71 10000 2.1 190 21:41 20.03.2020
712 Clear 12 1019 76 10000 1.5 170 21:20 20.03.2020
713 Clear 12 1019 76 10000 1.5 170 20:59 20.03.2020
714 Clear 12 1019 76 10000 2.6 200 20:41 20.03.2020
715 Clear 12 1019 76 10000 2.6 200 20:20 20.03.2020
716 Clear 13 1019 72 10000 3.6 220 19:49 20.03.2020
717 Clear 13 1019 72 10000 2.1 240 19:22 20.03.2020
718 Clear 13 1019 72 10000 2.1 240 18:59 20.03.2020
719 Clear 13 1019 63 10000 2.1 100 18:39 20.03.2020
720 Clear 14 1019 67 10000 5.7 80 18:20 20.03.2020
721 Clear 14 1019 67 10000 7.2 70 17:56 20.03.2020
722 Clear 14 1019 67 10000 7.2 70 17:38 20.03.2020
723 Clear 15 1019 63 10000 7.2 70 17:19 20.03.2020
724 Clear 15 1019 63 10000 7.2 70 17:19 20.03.2020
725 Clear 15 1020 59 10000 7.2 60 16:43 20.03.2020
726 Clear 15 1020 59 10000 7.2 60 16:21 20.03.2020
727 Clear 16 1020 59 10000 8.2 60 15:58 20.03.2020
728 Clear 16 1020 59 10000 7.7 70 15:39 20.03.2020
729 Clear 16 1020 59 10000 7.2 70 15:20 20.03.2020
730 Clear 16 1021 59 10000 6.2 60 14:42 20.03.2020
731 Clear 16 1021 55 10000 6.2 50 14:21 20.03.2020
732 Clear 16 1021 55 10000 6.2 50 14:21 20.03.2020
733 Clear 16 1021 67 10000 4.6 40 13:51 20.03.2020
734 Clear 17 1021 67 10000 4.6 40 13:26 20.03.2020
735 Clear 16 1022 67 10000 3.6 30 12:59 20.03.2020
736 Clear 16 1022 67 10000 3.6 30 12:38 20.03.2020
737 Clear 16 1022 67 10000 3.6 30 12:20 20.03.2020
738 Clear 16 1023 72 10000 3.1 20 11:41 20.03.2020
739 Clouds 15 1023 72 10000 2.6 20 11:21 20.03.2020
740 Clouds 15 1023 72 10000 2.6 20 10:59 20.03.2020
741 Clear 15 1023 72 10000 2.6 30 10:41 20.03.2020
742 Clear 15 1023 72 10000 2.6 30 10:20 20.03.2020
743 Clear 15 1023 72 10000 3.1 40 09:47 20.03.2020
744 Clear 14 1023 71 10000 1 0 09:21 20.03.2020
745 Clear 13 1023 71 10000 1 0 08:59 20.03.2020
746 Clear 13 1023 71 10000 1 280 08:40 20.03.2020
747 Clear 12 1023 76 10000 1 140 08:19 20.03.2020
748 Clear 10 1023 76 10000 1.5 160 07:46 20.03.2020
749 Clear 10 1023 76 10000 1.5 160 07:26 20.03.2020
750 Clear 10 1010 87 0 2.34 195 06:49 20.03.2020
751 Clear 9 1010 87 0 2.34 195 06:31 20.03.2020
752 Clear 10 1010 87 0 2.42 198 04:49 20.03.2020
753 Clear 9 1010 85 0 2.42 198 03:19 20.03.2020
754 Clear 9 1010 86 0 1.95 195 01:51 20.03.2020
755 Clear 9 1010 86 0 1.97 193 00:46 20.03.2020
756 Clear 10 1011 86 0 1.97 193 00:26 20.03.2020
757 Clear 10 1024 71 10000 2.1 150 23:45 19.03.2020
758 Clear 11 1024 71 10000 2.1 150 23:26 19.03.2020
759 Clear 11 1024 71 10000 2.1 160 22:56 19.03.2020
760 Clear 12 1024 71 10000 2.1 160 22:38 19.03.2020
761 Clear 12 1024 67 10000 1.5 190 22:18 19.03.2020
762 Clear 12 1024 76 10000 2.1 200 21:41 19.03.2020
763 Clouds 11 1024 76 10000 2.6 190 21:20 19.03.2020
764 Clouds 12 1024 76 10000 2.6 190 20:58 19.03.2020
765 Clear 12 1023 71 10000 1 0 20:39 19.03.2020
766 Clear 12 1023 71 10000 2.6 50 20:20 19.03.2020
767 Clear 12 1023 71 10000 3.6 70 19:55 19.03.2020
768 Clear 12 1023 71 10000 3.6 70 19:37 19.03.2020
769 Clear 12 1023 72 10000 3.1 50 19:18 19.03.2020
770 Clouds 13 1022 67 10000 3.6 60 18:42 19.03.2020
771 Clouds 13 1022 72 10000 4.1 40 18:22 19.03.2020
772 Clear 14 1022 63 10000 5.1 60 17:58 19.03.2020
773 Clear 14 1022 63 10000 5.1 60 17:39 19.03.2020
774 Clouds 14 1022 67 10000 6.2 60 17:18 19.03.2020
775 Clear 15 1022 67 10000 6.7 60 16:43 19.03.2020
776 Clear 15 1022 63 10000 6.2 60 16:22 19.03.2020
777 Clear 16 1022 59 10000 6.2 60 15:45 19.03.2020
778 Clear 16 1022 59 10000 6.2 60 15:26 19.03.2020
779 Clear 16 1023 59 10000 5.7 60 14:55 19.03.2020
780 Clear 16 1023 63 10000 5.7 40 14:37 19.03.2020
781 Clear 16 1023 67 10000 4.6 40 14:18 19.03.2020
782 Clear 16 1023 63 10000 4.6 40 13:39 19.03.2020
783 Clear 16 1023 59 10000 4.1 50 13:19 19.03.2020
784 Clear 16 1024 59 10000 4.1 40 12:55 19.03.2020
785 Clear 16 1024 59 10000 4.1 40 12:37 19.03.2020
786 Clear 16 1024 55 10000 4.1 40 12:18 19.03.2020
787 Clear 16 1024 72 10000 3.1 250 11:41 19.03.2020
788 Clear 15 1024 72 10000 3.1 250 11:23 19.03.2020
789 Clear 15 1025 67 10000 2.6 250 10:56 19.03.2020
790 Clear 15 1025 67 10000 2.6 250 10:36 19.03.2020
791 Clear 15 1024 59 10000 2.1 0 10:18 19.03.2020
792 Clear 14 1024 67 10000 3.1 10 09:44 19.03.2020
793 Clear 14 1024 67 10000 2.1 40 09:25 19.03.2020
794 Clear 13 1024 67 10000 1.5 70 08:48 19.03.2020
795 Clear 13 1024 67 10000 1.5 70 08:23 19.03.2020
796 Clear 11 1024 76 10000 1 0 08:23 19.03.2020
797 Clear 12 1024 76 10000 1 0 07:59 19.03.2020
798 Clear 10 1024 81 10000 1 0 07:38 19.03.2020
799 Clear 9 1011 88 0 1.36 200 07:19 19.03.2020
800 Clear 9 1011 91 0 1.36 200 06:27 19.03.2020
801 Clear 9 1010 90 0 1.36 200 05:25 19.03.2020
802 Clear 9 1010 91 0 2.08 201 04:51 19.03.2020
803 Clear 9 1010 91 0 2.08 201 04:21 19.03.2020
804 Clear 8 1011 91 0 1.75 199 01:58 19.03.2020
805 Clear 9 1011 89 0 1.78 202 00:53 19.03.2020
806 Clear 9 1024 81 10000 1 0 00:20 19.03.2020
807 Clear 9 1024 81 10000 1 0 23:44 18.03.2020
808 Clear 10 1024 81 10000 1 0 23:26 18.03.2020
809 Clear 10 1024 76 10000 1 0 22:43 18.03.2020
810 Clear 11 1024 76 10000 3.6 70 22:23 18.03.2020
811 Clear 11 1024 76 10000 3.6 70 21:58 18.03.2020
812 Clear 11 1024 76 10000 4.1 80 21:40 18.03.2020
813 Clouds 11 1023 76 10000 4.1 70 21:20 18.03.2020
814 Clouds 11 1023 76 10000 4.1 70 20:56 18.03.2020
815 Clouds 11 1023 76 10000 4.6 60 20:38 18.03.2020
816 Clouds 11 1023 71 10000 5.1 60 20:19 18.03.2020
817 Clouds 11 1023 71 10000 4.6 60 19:42 18.03.2020
818 Clouds 11 1023 71 10000 4.6 60 19:21 18.03.2020
819 Clouds 12 1023 71 10000 4.6 60 18:59 18.03.2020
820 Clouds 12 1023 71 10000 5.1 50 18:40 18.03.2020
821 Clouds 12 1023 67 10000 5.1 50 18:19 18.03.2020
822 Clouds 12 1023 67 10000 5.7 50 17:57 18.03.2020
823 Clouds 13 1023 67 10000 5.7 50 17:39 18.03.2020
824 Clouds 13 1023 67 10000 5.7 50 17:19 18.03.2020
825 Clouds 13 1023 67 10000 5.7 50 16:43 18.03.2020
826 Clouds 14 1023 67 10000 5.7 50 16:21 18.03.2020
827 Clouds 13 1023 72 10000 6.2 40 15:59 18.03.2020
828 Clouds 13 1023 72 10000 6.2 40 15:39 18.03.2020
829 Clouds 14 1023 72 10000 5.7 40 15:20 18.03.2020
830 Clouds 13 1024 72 10000 5.1 40 14:44 18.03.2020
831 Clouds 14 1024 72 10000 5.1 40 14:21 18.03.2020
832 Clouds 15 1024 67 10000 5.1 40 13:42 18.03.2020
833 Clouds 15 1025 72 10000 5.1 40 13:20 18.03.2020
834 Clouds 15 1025 72 10000 5.1 40 12:58 18.03.2020
835 Clouds 16 1025 67 10000 5.1 40 12:39 18.03.2020
836 Clouds 15 1025 67 10000 5.7 40 12:19 18.03.2020
837 Clouds 15 1025 67 10000 5.1 40 11:39 18.03.2020
838 Clear 15 1025 67 10000 4.6 40 11:19 18.03.2020
839 Clear 15 1026 72 10000 4.6 40 10:58 18.03.2020
840 Clear 14 1026 72 10000 4.6 40 10:38 18.03.2020
841 Clear 14 1026 72 10000 4.1 40 10:19 18.03.2020
842 Clear 14 1026 72 10000 3.6 40 09:43 18.03.2020
843 Clear 14 1026 72 10000 3.6 40 09:25 18.03.2020
844 Clear 13 1026 72 10000 3.6 50 08:56 18.03.2020
845 Clear 12 1026 67 10000 1 0 08:38 18.03.2020
846 Clouds 11 1026 82 10000 1.5 120 08:20 18.03.2020
847 Clouds 11 1026 81 10000 2.6 60 07:44 18.03.2020
848 Clouds 11 1013 91 0 0.51 235 07:26 18.03.2020
849 Clouds 10 1013 90 0 0.51 235 06:44 18.03.2020
850 Clouds 11 1013 90 0 0.51 235 06:20 18.03.2020
851 Clouds 11 1013 89 0 0.51 235 05:34 18.03.2020
852 Clouds 10 1013 87 0 0.96 250 04:24 18.03.2020
853 Clouds 10 1014 88 0 0.96 250 02:43 18.03.2020
854 Clouds 11 1014 88 0 0.92 273 01:48 18.03.2020
855 Clear 10 1014 88 0 1.07 248 01:26 18.03.2020
856 Clouds 11 1015 87 0 0.98 262 00:24 18.03.2020
857 Clouds 12 1028 76 10000 1.5 160 23:48 17.03.2020
858 Clouds 12 1028 76 10000 1.5 160 23:27 17.03.2020
859 Clouds 12 1028 82 10000 2.1 170 22:57 17.03.2020
860 Clouds 12 1028 82 10000 2.1 170 22:37 17.03.2020
861 Clouds 12 1028 76 10000 2.1 180 22:19 17.03.2020
862 Clouds 12 1028 76 10000 1 0 21:39 17.03.2020
863 Clouds 13 1027 77 10000 1 0 21:21 17.03.2020
864 Clouds 13 1027 77 10000 1 0 21:21 17.03.2020
865 Clouds 13 1027 72 10000 1 210 20:40 17.03.2020
866 Clouds 13 1027 72 10000 1 50 20:22 17.03.2020
867 Clouds 13 1027 72 10000 1 50 19:59 17.03.2020
868 Clouds 13 1027 72 10000 0.5 0 19:40 17.03.2020
869 Clouds 13 1027 67 10000 1 0 19:18 17.03.2020
870 Clouds 13 1027 72 10000 3.1 80 18:56 17.03.2020
871 Clouds 13 1027 72 10000 3.1 80 18:37 17.03.2020
872 Clouds 14 1027 72 10000 4.6 70 18:19 17.03.2020
873 Clouds 14 1026 72 10000 5.7 70 17:40 17.03.2020
874 Clouds 14 1026 67 10000 4.6 60 17:22 17.03.2020
875 Clouds 14 1027 67 10000 5.1 70 16:55 17.03.2020
876 Clouds 14 1027 67 10000 5.1 70 16:37 17.03.2020
877 Clouds 15 1027 67 10000 5.1 70 16:18 17.03.2020
878 Clouds 15 1027 67 10000 5.7 70 15:43 17.03.2020
879 Clouds 15 1027 67 10000 5.7 70 15:21 17.03.2020
880 Clouds 15 1027 67 10000 4.6 70 14:43 17.03.2020
881 Clouds 16 1027 67 10000 4.6 70 14:21 17.03.2020
882 Clouds 16 1027 67 10000 3.6 50 13:45 17.03.2020
883 Clouds 16 1027 67 10000 3.6 50 13:27 17.03.2020
884 Clouds 15 1028 67 10000 2.1 10 12:59 17.03.2020
885 Clouds 15 1028 63 10000 2.1 350 12:40 17.03.2020
886 Clouds 15 1028 72 10000 2.1 300 12:22 17.03.2020
887 Clouds 15 1028 77 10000 2.6 290 11:47 17.03.2020
888 Clouds 16 1028 77 10000 2.6 290 11:28 17.03.2020
889 Clear 15 1028 77 10000 2.6 260 10:58 17.03.2020
890 Clear 15 1028 77 10000 2.6 260 10:38 17.03.2020
891 -273 0 0 0 0 0 10:20 17.03.2020
892 Clear 15 1028 77 10000 2.6 260 09:59 17.03.2020
893 Clear 15 1028 72 10000 1 290 09:39 17.03.2020
894 Clear 14 1028 72 10000 1 270 09:19 17.03.2020
895 Clear 13 1028 76 10000 2.1 200 08:47 17.03.2020
896 Clear 13 1028 76 10000 2.1 200 08:22 17.03.2020
897 Clouds 12 1027 82 10000 2.1 100 07:50 17.03.2020
898 Clouds 12 1027 82 10000 2.1 100 07:26 17.03.2020
899 Clouds 11 1015 76 0 2.01 186 06:59 17.03.2020
900 Clouds 11 1015 77 0 2.01 186 06:34 17.03.2020
901 Clouds 11 1015 77 0 2.01 186 05:55 17.03.2020
902 Clouds 10 1014 84 0 2.65 189 03:43 17.03.2020
903 Clouds 10 1013 84 0 2.65 189 02:46 17.03.2020
904 Clouds 10 1013 92 0 2.72 200 01:44 17.03.2020
905 Clouds 10 1014 92 0 2.72 200 01:25 17.03.2020
906 Clouds 10 1013 91 0 2.78 197 00:38 17.03.2020
907 Clouds 11 1026 76 10000 1 150 23:45 16.03.2020
908 Clear 11 1026 76 10000 1 150 23:27 16.03.2020
909 Clear 11 1026 72 10000 1 130 22:41 16.03.2020
910 Clear 11 1026 72 10000 1 130 22:41 16.03.2020
911 Clear 12 1026 72 10000 1 130 22:23 16.03.2020
912 Clear 12 1025 76 10000 1 110 21:57 16.03.2020
913 Clouds 12 1025 76 10000 1 240 21:39 16.03.2020
914 Clouds 12 1025 76 10000 1.5 210 21:21 16.03.2020
915 Clouds 12 1024 72 10000 2.1 310 20:55 16.03.2020
916 Clouds 13 1024 72 10000 2.1 310 20:37 16.03.2020
917 Clouds 12 1024 77 10000 1 0 20:18 16.03.2020
918 Clouds 13 1024 72 10000 2.6 200 19:40 16.03.2020
919 Clouds 13 1024 67 10000 1.5 0 19:20 16.03.2020
920 Clouds 14 1023 55 10000 1.5 0 18:43 16.03.2020
921 Clouds 14 1023 63 10000 5.7 70 18:21 16.03.2020
922 Clouds 14 1023 72 10000 6.7 70 17:55 16.03.2020
923 Clouds 14 1023 72 10000 6.7 70 17:37 16.03.2020
924 Clouds 14 1022 72 10000 7.2 60 17:18 16.03.2020
925 Rain 14 1022 72 10000 7.2 60 16:42 16.03.2020
926 Rain 14 1022 72 10000 7.7 60 16:24 16.03.2020
927 Rain 14 1022 67 10000 8.2 70 15:44 16.03.2020
928 Rain 14 1022 67 10000 8.2 70 15:26 16.03.2020
929 Clouds 14 1022 72 10000 7.2 50 14:49 16.03.2020
930 Clouds 15 1022 72 10000 7.2 50 14:27 16.03.2020
931 Clouds 15 1022 63 10000 6.2 60 13:57 16.03.2020
932 Clouds 15 1022 68 10000 6.2 60 13:39 16.03.2020
933 Clouds 15 1022 72 10000 6.2 50 13:20 16.03.2020
934 Clouds 16 1022 67 10000 4.6 40 12:44 16.03.2020
935 Clouds 15 1022 72 10000 4.1 40 12:23 16.03.2020
936 Clouds 15 1023 77 10000 2.6 20 11:46 16.03.2020
937 Clouds 15 1023 77 10000 2.6 20 11:27 16.03.2020
938 Clouds 15 1023 77 10000 2.6 20 11:27 16.03.2020
939 Clouds 15 1022 77 10000 1.5 300 10:56 16.03.2020
940 Clouds 15 1022 77 10000 1.5 300 10:37 16.03.2020
941 Clouds 15 1022 77 10000 1.5 280 10:18 16.03.2020
942 Clouds 14 1022 77 10000 1.5 260 09:42 16.03.2020
943 Clouds 15 1022 77 10000 1 250 09:21 16.03.2020
944 Clouds 14 1021 77 10000 1 0 08:50 16.03.2020
945 Clouds 13 1021 76 10000 2.1 140 08:25 16.03.2020
946 Clouds 13 1021 76 10000 2.1 140 07:45 16.03.2020
947 Clouds 13 1021 76 10000 2.1 140 07:25 16.03.2020
948 Clouds 12 1008 91 0 1.21 198 06:51 16.03.2020
949 Clouds 10 1008 91 0 1.21 198 06:23 16.03.2020
950 Clear 12 1007 94 0 1.42 211 04:54 16.03.2020
951 Clear 11 1007 95 0 1.42 211 02:41 16.03.2020
952 Clouds 11 1007 97 0 1.89 204 00:52 16.03.2020
953 Clouds 11 1006 96 0 1.89 204 00:32 16.03.2020
954 Clouds 11 1019 87 10000 3.1 80 23:46 15.03.2020
955 Clouds 11 1019 87 10000 3.1 80 23:20 15.03.2020
956 Clouds 11 1019 87 10000 3.6 90 22:42 15.03.2020
957 Clouds 12 1019 87 10000 3.6 90 22:22 15.03.2020
958 Clouds 12 1019 87 10000 3.6 90 22:22 15.03.2020
959 Clouds 12 1019 87 10000 3.1 60 21:56 15.03.2020
960 Clouds 12 1018 87 10000 3.1 80 21:37 15.03.2020
961 Clouds 12 1018 82 10000 3.1 60 21:18 15.03.2020
962 Clouds 12 1018 82 10000 3.6 50 20:42 15.03.2020
963 Clouds 12 1018 82 10000 4.1 40 20:20 15.03.2020
964 Clouds 12 1018 82 10000 4.1 40 19:58 15.03.2020
965 Clouds 12 1018 82 10000 4.1 30 19:38 15.03.2020
966 Clouds 12 1018 82 10000 4.6 20 19:19 15.03.2020
967 Clouds 13 1018 82 10000 4.6 20 18:55 15.03.2020
968 Clouds 13 1018 82 10000 4.1 20 18:37 15.03.2020
969 Clouds 13 1018 82 10000 4.6 10 18:18 15.03.2020
970 Clouds 14 1018 82 10000 4.1 20 17:41 15.03.2020
971 Clouds 15 1018 82 10000 4.6 360 17:21 15.03.2020
972 Clouds 15 1018 82 10000 4.6 360 16:58 15.03.2020
973 Clouds 15 1018 82 10000 4.6 360 16:58 15.03.2020
974 Clouds 15 1018 77 10000 4.6 360 16:38 15.03.2020
975 Clouds 15 1018 82 10000 4.6 360 16:19 15.03.2020
976 Clouds 16 1018 72 10000 4.1 350 15:45 15.03.2020
977 Clouds 16 1018 72 10000 4.1 350 15:27 15.03.2020
978 Clouds 16 1018 72 10000 4.1 350 14:57 15.03.2020
979 Clouds 16 1017 67 10000 4.1 360 14:38 15.03.2020
980 Clouds 16 1017 72 10000 3.1 10 14:18 15.03.2020
981 Clouds 16 1017 72 10000 3.1 10 14:18 15.03.2020
982 Clouds 16 1018 72 10000 3.1 10 13:54 15.03.2020
983 Clouds 16 1018 72 10000 3.1 10 13:36 15.03.2020
984 Clouds 15 1018 72 10000 3.1 10 13:18 15.03.2020
985 Clouds 15 1018 72 10000 3.1 10 13:18 15.03.2020
986 Clouds 16 1018 67 10000 3.1 30 12:39 15.03.2020
987 Clouds 16 1018 67 10000 3.6 20 12:21 15.03.2020
988 Clouds 16 1018 63 10000 3.6 30 11:43 15.03.2020
989 Clouds 15 1018 67 10000 3.6 40 11:24 15.03.2020
990 Clouds 15 1018 72 10000 3.6 20 10:58 15.03.2020
991 Clouds 15 1018 72 10000 3.6 20 10:39 15.03.2020
992 Clouds 15 1018 72 10000 3.6 20 10:21 15.03.2020
993 Clouds 15 1017 72 10000 3.6 10 09:44 15.03.2020
994 Clouds 15 1017 72 10000 3.6 10 09:25 15.03.2020
995 Clouds 14 1017 72 10000 4.1 360 08:59 15.03.2020
996 Clouds 14 1017 72 10000 4.1 360 08:40 15.03.2020
997 Clouds 13 1017 77 10000 5.1 10 08:19 15.03.2020
998 Clouds 13 1017 77 10000 6.2 10 07:44 15.03.2020
999 Clear 13 1004 93 0 0.87 327 07:21 15.03.2020
1000 Clear 13 1004 97 0 0.87 327 06:36 15.03.2020
1001 Clear 13 1004 98 0 0.87 327 05:46 15.03.2020
1002 Clear 13 1003 93 0 0.9 311 04:55 15.03.2020
1003 Clear 13 1003 94 0 0.9 311 04:33 15.03.2020
1004 Clear 12 1003 95 0 0.9 311 03:59 15.03.2020
1005 Clear 12 1003 98 0 0.9 311 02:49 15.03.2020
1006 Clouds 12 1003 98 0 0.6 272 02:21 15.03.2020
1007 Clouds 12 1003 98 0 0.63 247 00:57 15.03.2020
1008 Clouds 12 1003 99 0 0.63 247 00:39 15.03.2020
1009 Clouds 13 1016 87 10000 6.2 290 00:18 15.03.2020
1010 Clouds 13 1016 87 10000 6.2 290 23:39 14.03.2020
1011 Clouds 13 1016 87 10000 6.2 290 23:19 14.03.2020
1012 Clouds 13 1016 87 10000 4.6 290 22:55 14.03.2020
1013 Clouds 14 1016 87 10000 4.6 290 22:37 14.03.2020
1014 Clouds 13 1015 87 10000 3.6 300 22:19 14.03.2020
1015 Clouds 14 1015 87 10000 3.6 300 21:55 14.03.2020
1016 Clouds 13 1015 87 10000 3.6 300 21:55 14.03.2020
1017 Clouds 14 1015 87 10000 3.1 330 21:36 14.03.2020
1018 Clouds 14 1015 82 10000 1.5 330 21:18 14.03.2020
1019 Clouds 14 1015 82 10000 1.5 330 20:55 14.03.2020
1020 Clouds 14 1015 87 10000 2.1 360 20:37 14.03.2020
1021 Clouds 14 1015 82 10000 1 0 20:18 14.03.2020
1022 Clouds 14 1015 87 10000 2.1 30 19:40 14.03.2020
1023 Clouds 15 1014 87 10000 2.1 30 19:20 14.03.2020
1024 Clouds 15 1014 87 10000 3.1 20 18:40 14.03.2020
1025 Clouds 15 1014 87 10000 3.1 20 18:40 14.03.2020
1026 Clouds 15 1014 82 10000 2.1 10 18:20 14.03.2020
1027 Clouds 16 1014 87 10000 3.6 350 17:42 14.03.2020
1028 Clouds 16 1014 87 10000 2.6 360 17:23 14.03.2020
1029 Clouds 16 1014 87 10000 2.6 360 17:23 14.03.2020
1030 Clouds 17 1014 87 10000 3.1 350 16:58 14.03.2020
1031 Clouds 17 1014 87 10000 3.1 350 16:38 14.03.2020
1032 Clouds 17 1014 87 10000 3.1 330 16:19 14.03.2020
1033 Clouds 17 1014 87 10000 3.6 330 15:46 14.03.2020
1034 Clouds 18 1014 82 10000 3.1 330 15:22 14.03.2020
1035 Clouds 18 1014 82 10000 3.1 330 14:43 14.03.2020
1036 Clear 19 1015 77 10000 2.1 330 14:21 14.03.2020
1037 Clear 19 1015 77 10000 2.1 330 13:57 14.03.2020
1038 Clear 20 1000 62 0 0.89 359 13:38 14.03.2020
1039 Clear 20 1000 62 0 1.34 4 13:20 14.03.2020
1040 Clear 20 1000 57 0 1.34 3 12:44 14.03.2020
1041 Clear 21 1001 55 0 0.45 351 12:26 14.03.2020
1042 Clear 20 1001 57 0 1.56 4 11:46 14.03.2020
1043 Clear 20 1014 77 10000 1.5 270 11:46 14.03.2020
1044 Clear 20 1001 60 0 1.56 4 11:26 14.03.2020
1045 Clouds 20 1001 63 0 0.49 308 10:57 14.03.2020
1046 Clouds 20 1001 65 0 0.49 308 10:39 14.03.2020
1047 Clouds 19 1002 67 0 0.49 308 10:20 14.03.2020
1048 Clouds 18 1015 77 10000 1 360 09:41 14.03.2020
1049 Clouds 17 1015 82 10000 1 0 09:22 14.03.2020
1050 Clouds 16 1015 82 10000 1 150 08:47 14.03.2020
1051 Clouds 16 1015 82 10000 1 150 08:28 14.03.2020
1052 Clouds 13 1014 93 10000 0.5 60 07:49 14.03.2020
1053 Clouds 12 1014 93 10000 0.5 60 07:23 14.03.2020
1054 Clouds 12 1001 87 0 1.29 222 06:59 14.03.2020
1055 Clouds 13 1001 87 0 1.29 222 06:39 14.03.2020
1056 Clouds 13 1001 89 0 1.63 225 05:19 14.03.2020
1057 Clouds 13 1001 84 0 1.63 225 03:43 14.03.2020
1058 Clouds 13 1001 85 0 1.63 225 03:23 14.03.2020
1059 Clouds 13 1002 83 0 1.77 213 02:20 14.03.2020
1060 Clouds 13 1002 84 0 1.85 215 00:44 14.03.2020
1061 Clouds 14 1016 82 10000 2.1 140 23:45 13.03.2020
1062 Clouds 13 1016 82 10000 2.1 140 23:27 13.03.2020
1063 Clouds 13 1016 82 10000 1 0 22:49 13.03.2020
1064 Clouds 14 1016 82 10000 0.5 0 22:26 13.03.2020
1065 Clouds 14 1015 82 10000 2.6 200 21:44 13.03.2020
1066 Clouds 14 1015 87 10000 3.1 210 21:21 13.03.2020
1067 Clouds 14 1015 77 10000 1 0 20:58 13.03.2020
1068 Clouds 14 1015 77 10000 1 0 20:39 13.03.2020
1069 Clouds 14 1015 77 10000 1 0 20:39 13.03.2020
1070 Clouds 15 1015 82 10000 1.5 230 20:20 13.03.2020
1071 Clouds 15 1015 82 10000 2.1 200 19:47 13.03.2020
1072 Clouds 15 1015 82 10000 2.1 200 19:47 13.03.2020
1073 Clouds 15 1015 82 10000 2.1 200 19:28 13.03.2020
1074 Clouds 16 1015 82 10000 2.6 240 18:49 13.03.2020
1075 Clouds 16 1015 82 10000 2.1 40 18:31 13.03.2020
1076 Clouds 17 1015 68 10000 2.1 60 17:57 13.03.2020
1077 Clouds 18 1015 68 10000 2.1 60 17:38 13.03.2020
1078 Clouds 18 1015 68 10000 3.1 70 17:20 13.03.2020
1079 Clouds 19 1015 68 10000 3.6 60 16:42 13.03.2020
1080 Clouds 19 1015 77 10000 4.1 50 16:24 13.03.2020
1081 Clouds 19 1015 77 10000 4.1 50 15:56 13.03.2020
1082 Clouds 19 1015 72 10000 6.2 60 15:37 13.03.2020
1083 Clouds 19 1015 77 10000 6.7 50 15:19 13.03.2020
1084 Clouds 19 1016 77 10000 6.7 50 14:41 13.03.2020
1085 Clouds 19 1016 77 10000 6.2 40 14:22 13.03.2020
1086 Clouds 19 1016 77 10000 6.2 40 13:57 13.03.2020
1087 Clouds 19 1017 82 10000 5.1 30 13:38 13.03.2020
1088 Clouds 18 1017 82 10000 4.6 30 13:19 13.03.2020
1089 Clouds 19 1018 77 10000 3.1 30 12:54 13.03.2020
1090 Clouds 19 1018 77 10000 3.1 30 12:36 13.03.2020
1091 Clouds 18 1018 77 10000 2.6 10 12:18 13.03.2020
1092 Clouds 18 1018 82 10000 2.1 20 11:42 13.03.2020
1093 Clouds 18 1018 82 10000 1.5 360 11:24 13.03.2020
1094 Clouds 18 1019 82 10000 2.1 330 10:48 13.03.2020
1095 Clouds 18 1019 82 10000 2.1 330 10:29 13.03.2020
1096 Clouds 18 1006 62 0 0.87 44 09:59 13.03.2020
1097 Clouds 18 1023 48 0 1.34 90 09:41 13.03.2020
1098 Clouds 17 1006 71 0 0.87 44 09:22 13.03.2020
1099 Clouds 17 1006 75 0 0.45 356 08:46 13.03.2020
1100 Clouds 15 1018 93 10000 1 0 08:23 13.03.2020
1101 Clouds 15 1018 93 10000 1 0 08:23 13.03.2020
1102 Clear 13 1018 93 10000 1 0 07:58 13.03.2020
1103 Clear 12 1018 93 10000 2.6 140 07:38 13.03.2020
1104 Clear 12 1006 90 0 1.61 198 07:18 13.03.2020
1105 Clear 12 1005 91 0 1.61 198 06:43 13.03.2020
1106 Clear 12 1006 91 0 1.61 198 05:56 13.03.2020
1107 Clear 11 1006 91 0 1.61 198 05:37 13.03.2020
1108 Clear 12 1006 90 0 1.35 250 04:38 13.03.2020
1109 Clear 12 1022 46 0 2.24 315 03:43 13.03.2020
1110 Clouds 12 1007 87 0 1.35 261 01:47 13.03.2020
1111 Clouds 12 1007 88 0 1.47 262 01:19 13.03.2020
1112 Clouds 12 1007 88 0 1.47 262 00:54 13.03.2020
1113 Clouds 12 1007 89 0 1.47 262 00:29 13.03.2020
1114 Clouds 13 1021 87 10000 1.5 190 23:59 12.03.2020
1115 Clouds 13 1021 87 10000 1.5 190 23:59 12.03.2020
1116 Clouds 13 1021 87 10000 1.5 190 23:28 12.03.2020
1117 Clouds 13 1021 87 10000 1.5 190 22:57 12.03.2020
1118 Clouds 12 1021 87 10000 2.6 180 22:39 12.03.2020
1119 Clouds 13 1021 87 10000 2.6 170 22:21 12.03.2020
1120 Clouds 13 1021 87 10000 3.1 210 21:46 12.03.2020
1121 Clouds 13 1021 87 10000 3.1 210 21:28 12.03.2020
1122 Clouds 13 1021 82 10000 4.6 220 20:59 12.03.2020
1123 Clouds 13 1021 82 10000 4.6 220 20:40 12.03.2020
1124 Clear 13 1021 82 10000 4.1 210 20:19 12.03.2020
1125 Clear 13 1021 82 10000 3.1 160 19:42 12.03.2020
1126 Clear 14 1021 82 10000 1.5 20 19:20 12.03.2020
1127 Clear 14 1021 82 10000 2.1 360 18:44 12.03.2020
1128 Clear 14 1021 82 10000 2.1 360 18:44 12.03.2020
1129 Clear 14 1021 82 10000 3.1 30 18:24 12.03.2020
1130 Clear 16 1021 82 10000 4.6 30 17:57 12.03.2020
1131 Clear 16 1021 82 10000 4.6 30 17:39 12.03.2020
1132 Clear 17 1021 72 10000 4.6 40 17:20 12.03.2020
1133 Clear 18 1022 77 10000 5.1 40 16:56 12.03.2020
1134 Clear 17 1022 77 10000 5.1 40 16:38 12.03.2020
1135 Clear 17 1022 72 10000 1.5 20 16:19 12.03.2020
1136 Clear 17 1022 72 10000 1.5 20 15:45 12.03.2020
1137 Clear 17 1022 72 10000 1.5 20 15:27 12.03.2020
1138 Clear 18 1022 63 10000 2.1 350 14:42 12.03.2020
1139 Clear 18 1022 63 10000 2.1 350 14:24 12.03.2020
1140 Clear 18 1023 67 10000 2.1 360 13:57 12.03.2020
1141 Clear 18 1023 72 10000 1.5 280 13:37 12.03.2020
1142 Clear 18 1023 72 10000 2.1 310 13:19 12.03.2020
1143 Clear 18 1024 77 10000 2.6 310 12:41 12.03.2020
1144 Clear 17 1024 72 10000 2.1 310 12:22 12.03.2020
1145 Clear 17 1024 72 10000 2.1 310 11:58 12.03.2020
1146 Clear 18 1024 72 10000 2.1 300 11:39 12.03.2020
1147 Clear 16 1024 71 10000 2.6 280 11:20 12.03.2020
1148 Clear 16 1024 71 10000 2.6 280 10:59 12.03.2020
1149 Clear 16 1024 71 10000 2.6 260 10:41 12.03.2020
1150 Clear 16 1024 71 10000 2.6 260 10:22 12.03.2020
1151 Clear 15 1024 71 10000 1.5 260 09:48 12.03.2020
1152 Clear 14 1024 71 10000 1.5 260 09:28 12.03.2020
1153 Clear 14 1024 76 10000 1 0 08:54 12.03.2020
1154 Clear 13 1024 76 10000 1 0 08:36 12.03.2020
1155 Clear 12 1024 81 10000 1.5 140 08:18 12.03.2020
1156 Clear 12 1012 76 0 1.07 198 07:45 12.03.2020
1157 Clear 11 1028 57 0 1.07 198 07:21 12.03.2020
1158 Clear 9 1026 64 0 0.89 293 05:57 12.03.2020
1159 Clear 8 1011 76 0 1.07 198 05:27 12.03.2020
1160 Clear 10 1012 87 0 1.06 215 02:43 12.03.2020
1161 Clear 10 1012 87 0 0.69 233 01:38 12.03.2020
1162 Clear 10 1012 88 0 0.69 233 01:20 12.03.2020
1163 Clear 10 1012 87 0 0.88 218 00:41 12.03.2020
1164 Clear 10 1012 87 0 0.88 218 00:41 12.03.2020
1165 Clear 10 1024 76 10000 0.5 0 23:56 11.03.2020
1166 Clear 10 1024 76 10000 0.5 0 23:26 11.03.2020
1167 Clear 10 1024 76 10000 1.5 180 22:55 11.03.2020
1168 Clear 10 1024 76 10000 1.5 180 22:37 11.03.2020
1169 Clear 10 1024 81 10000 1.5 170 22:18 11.03.2020
1170 Clear 11 1024 81 10000 1.5 170 21:54 11.03.2020
1171 Clear 11 1024 76 10000 3.6 80 21:36 11.03.2020
1172 Clear 10 1024 76 10000 3.6 80 21:18 11.03.2020
1173 Clear 10 1024 76 10000 3.6 80 20:55 11.03.2020
1174 Clear 11 1024 76 10000 2.6 80 20:36 11.03.2020
1175 Clear 11 1024 76 10000 2.6 90 20:18 11.03.2020
1176 Clear 11 1024 71 10000 3.1 70 19:41 11.03.2020
1177 Clear 12 1023 67 10000 3.1 40 19:22 11.03.2020
1178 Clear 12 1023 67 10000 3.6 30 18:56 11.03.2020
1179 Clear 12 1023 67 10000 3.6 30 18:36 11.03.2020
1180 Clear 12 1023 71 10000 3.6 10 18:18 11.03.2020
1181 Clear 13 1023 67 10000 4.1 20 17:40 11.03.2020
1182 Clear 14 1022 67 10000 4.6 20 17:21 11.03.2020
1183 Clear 14 1022 67 10000 4.6 20 16:56 11.03.2020
1184 Clear 14 1022 67 10000 4.6 20 16:37 11.03.2020
1185 Clear 15 1022 67 10000 5.1 20 16:19 11.03.2020
1186 Clear 15 1022 67 10000 4.1 10 15:42 11.03.2020
1187 Clear 15 1022 67 10000 4.1 10 15:22 11.03.2020
1188 Clear 15 1022 67 10000 4.1 10 14:44 11.03.2020
1189 Clear 15 1022 67 10000 4.1 10 14:23 11.03.2020
1190 Clouds 15 1022 67 10000 4.1 30 13:59 11.03.2020
1191 Clouds 15 1022 62 10000 3.6 360 13:39 11.03.2020
1192 Clouds 15 1022 62 10000 3.6 360 13:21 11.03.2020
1193 Clouds 15 1023 62 10000 3.1 330 12:41 11.03.2020
1194 Clouds 14 1023 62 10000 2.6 330 12:21 11.03.2020
1195 Clouds 15 1023 62 10000 2.6 330 11:57 11.03.2020
1196 Clouds 15 1023 62 10000 2.1 330 11:39 11.03.2020
1197 Clouds 14 1022 62 10000 2.1 350 11:19 11.03.2020
1198 Clouds 14 1022 67 10000 2.1 310 10:43 11.03.2020
1199 Clouds 14 1022 62 10000 1.5 280 10:19 11.03.2020
1200 Clouds 13 1022 71 10000 2.1 230 09:54 11.03.2020
1201 Clouds 13 1022 71 10000 2.1 230 09:36 11.03.2020
1202 Clouds 13 1022 76 10000 1.5 250 09:18 11.03.2020
1203 Clouds 12 1021 71 10000 1 190 08:41 11.03.2020
1204 Clouds 11 1021 71 10000 1 190 08:22 11.03.2020
1205 Clouds 9 1021 81 10000 2.1 160 07:45 11.03.2020
1206 Clouds 8 1029 82 0 0.98 207 07:20 11.03.2020
1207 Clouds 7 1028 82 0 0.98 207 06:48 11.03.2020
1208 Clouds 8 1008 90 0 0.98 207 05:43 11.03.2020
1209 Clouds 7 1028 83 0 0.98 207 05:23 11.03.2020
1210 Clouds 7 1027 81 0 1.09 244 02:30 11.03.2020
1211 Clouds 8 1008 82 0 1.16 237 01:44 11.03.2020
1212 Clouds 8 1008 78 0 1.05 236 00:53 11.03.2020
1213 Clouds 8 1007 78 0 1.05 236 00:21 11.03.2020
1214 Clouds 9 1020 66 10000 1.5 90 23:45 10.03.2020
1215 Clouds 9 1020 66 10000 1.5 90 23:22 10.03.2020
1216 Clouds 10 1020 58 10000 2.6 30 22:55 10.03.2020
1217 Clouds 10 1020 58 10000 2.6 30 22:36 10.03.2020
1218 Clouds 10 1020 58 10000 3.6 20 22:18 10.03.2020
1219 Clouds 10 1020 58 10000 3.6 20 21:55 10.03.2020
1220 Clouds 10 1019 66 10000 3.6 40 21:37 10.03.2020
1221 Clouds 10 1019 62 10000 4.6 10 21:18 10.03.2020
1222 Clouds 10 1019 62 10000 4.6 10 21:18 10.03.2020
1223 Clouds 11 1019 62 10000 4.6 10 20:41 10.03.2020
1224 Clouds 11 1019 67 10000 5.7 10 20:19 10.03.2020
1225 Clouds 11 1019 67 10000 5.7 10 19:58 10.03.2020
1226 Clouds 11 1018 67 10000 5.7 360 19:40 10.03.2020
1227 Clouds 11 1018 67 10000 4.1 360 19:21 10.03.2020
1228 Clouds 11 1018 62 10000 3.6 20 18:55 10.03.2020
1229 Clouds 11 1018 62 10000 3.6 20 18:36 10.03.2020
1230 Clouds 12 1017 62 10000 4.1 10 18:18 10.03.2020
1231 Clouds 12 1017 62 10000 4.1 30 17:41 10.03.2020
1232 Clouds 13 1017 67 10000 4.6 20 17:22 10.03.2020
1233 Clouds 13 1016 62 10000 4.6 20 16:54 10.03.2020
1234 Clouds 13 1016 62 10000 4.6 20 16:36 10.03.2020
1235 Clouds 14 1016 62 10000 5.1 30 16:18 10.03.2020
1236 Clouds 14 1016 62 10000 5.7 40 15:41 10.03.2020
1237 Clouds 14 1016 62 10000 5.7 40 15:20 10.03.2020
1238 Clouds 15 1016 62 10000 5.7 40 14:58 10.03.2020
1239 Clouds 14 1016 58 10000 6.2 40 14:40 10.03.2020
1240 Clouds 14 1016 58 10000 6.2 60 14:19 10.03.2020
1241 Clouds 14 1016 55 10000 6.7 60 13:43 10.03.2020
1242 Clouds 14 1016 58 10000 6.7 50 13:25 10.03.2020
1243 Clouds 14 1016 58 10000 6.7 50 12:55 10.03.2020
1244 Clouds 14 1016 62 10000 7.2 50 12:36 10.03.2020
1245 Clouds 14 1016 62 10000 7.7 60 12:18 10.03.2020
1246 Clouds 14 1016 62 10000 7.7 60 12:18 10.03.2020
1247 Clouds 14 1015 67 10000 8.2 40 11:42 10.03.2020
1248 Clouds 13 1015 67 10000 7.7 50 11:24 10.03.2020
1249 Clouds 12 1015 71 10000 5.1 50 10:54 10.03.2020
1250 Clouds 12 1015 71 10000 5.1 50 10:36 10.03.2020
1251 Clouds 12 1014 76 10000 4.6 60 10:18 10.03.2020
1252 Clouds 12 1014 76 10000 5.1 70 09:44 10.03.2020
1253 Clouds 12 1013 76 10000 5.1 70 09:20 10.03.2020
1254 Clouds 12 1012 81 10000 3.1 70 08:56 10.03.2020
1255 Clouds 11 1012 81 10000 3.1 70 08:36 10.03.2020
1256 Clouds 10 1012 87 10000 3.1 80 08:18 10.03.2020
1257 Clouds 9 1011 81 10000 2.6 60 07:40 10.03.2020
1258 Clouds 9 1010 87 10000 1 0 07:21 10.03.2020
1259 Clouds 9 1010 87 10000 1 0 07:21 10.03.2020
1260 Clouds 9 1010 87 10000 1 0 06:38 10.03.2020
1261 Rain 9 1010 87 10000 2.6 150 05:55 10.03.2020
1262 Rain 9 1010 87 10000 5.1 40 05:35 10.03.2020
1263 Rain 9 1009 81 10000 3.6 10 04:30 10.03.2020
1264 Drizzle 9 1010 81 10000 6.2 340 02:58 10.03.2020
1265 Clouds 10 1010 76 10000 5.1 260 01:33 10.03.2020
1266 Rain 9 1010 81 10000 3.1 220 00:51 10.03.2020
1267 Rain 9 1010 81 10000 3.1 220 00:28 10.03.2020
1268 Rain 9 1010 87 10000 2.6 210 23:43 09.03.2020
1269 Rain 9 1010 87 10000 1.5 170 23:22 09.03.2020
1270 Rain 9 1010 87 5000 3.1 200 22:58 09.03.2020
1271 Rain 9 1010 87 5000 3.1 200 22:38 09.03.2020
1272 Rain 9 1011 81 10000 2.6 230 22:20 09.03.2020
1273 Rain 9 1011 87 10000 0.5 0 21:45 09.03.2020
1274 Rain 9 1010 87 10000 1 0 21:22 09.03.2020
1275 Rain 10 1010 87 10000 1 0 20:59 09.03.2020
1276 Rain 10 1011 87 10000 2.6 170 20:41 09.03.2020
1277 Rain 10 1011 87 7000 3.1 170 20:22 09.03.2020
1278 Rain 10 1011 87 7000 3.1 170 19:59 09.03.2020
1279 Rain 10 1011 76 5000 1.5 230 19:41 09.03.2020
1280 Rain 11 1011 62 10000 2.1 160 19:19 09.03.2020
1281 Rain 11 1011 62 10000 2.1 160 18:56 09.03.2020
1282 Rain 11 1011 62 10000 2.1 160 18:56 09.03.2020
1283 Rain 11 1011 58 10000 4.1 200 18:38 09.03.2020
1284 Rain 12 1011 66 10000 4.1 220 18:18 09.03.2020
1285 Clouds 13 1012 54 10000 5.1 240 17:55 09.03.2020
1286 Clouds 13 1012 54 10000 5.1 240 17:37 09.03.2020
1287 Clouds 13 1012 58 10000 4.6 240 17:19 09.03.2020
1288 Clouds 13 1012 67 10000 5.7 270 16:56 09.03.2020
1289 Clouds 14 1012 67 10000 5.7 270 16:37 09.03.2020
1290 Clouds 14 1013 67 10000 7.2 270 16:19 09.03.2020
1291 Clouds 14 1013 67 10000 7.2 270 15:55 09.03.2020
1292 Clouds 14 1013 62 10000 7.2 280 15:37 09.03.2020
1293 Clouds 14 1013 62 10000 7.2 280 15:18 09.03.2020
1294 Clouds 14 1014 62 10000 8.2 280 14:39 09.03.2020
1295 Clouds 13 1014 71 10000 7.7 280 14:20 09.03.2020
1296 Clouds 14 1014 71 10000 7.7 280 13:58 09.03.2020
1297 Clouds 14 1014 71 10000 7.7 280 13:39 09.03.2020
1298 Clouds 14 1015 67 10000 6.7 270 13:20 09.03.2020
1299 Clouds 15 1015 62 10000 3.6 250 12:58 09.03.2020
1300 Clouds 14 1015 62 10000 3.6 250 12:39 09.03.2020
1301 Clouds 15 1016 62 10000 3.6 260 12:19 09.03.2020
1302 Clouds 14 1016 62 10000 5.1 260 11:40 09.03.2020
1303 Clouds 14 1016 62 10000 5.1 260 11:20 09.03.2020
1304 Clouds 13 1016 62 10000 5.1 260 10:57 09.03.2020
1305 Clouds 13 1016 62 10000 5.1 260 10:39 09.03.2020
1306 Clouds 13 1017 62 10000 5.1 260 10:19 09.03.2020
1307 Clouds 13 1017 67 10000 5.1 260 09:42 09.03.2020
1308 Clouds 13 1017 62 10000 4.6 280 09:24 09.03.2020
1309 Clouds 12 1017 62 10000 5.1 280 08:47 09.03.2020
1310 Clouds 11 1017 62 10000 5.7 290 08:29 09.03.2020
1311 Clouds 10 1017 62 10000 6.2 290 07:58 09.03.2020
1312 Clouds 10 1017 62 10000 6.2 290 07:37 09.03.2020
1313 Clouds 10 1017 62 10000 6.2 290 07:18 09.03.2020
1314 Clouds 9 1017 58 10000 6.2 300 06:40 09.03.2020
1315 Clouds 9 1017 58 10000 6.2 300 06:21 09.03.2020
1316 Clouds 9 1017 62 10000 6.7 300 05:45 09.03.2020
1317 Clouds 9 1018 58 10000 6.7 300 04:59 09.03.2020
1318 Clouds 9 1018 67 10000 6.7 300 04:40 09.03.2020
1319 Clouds 9 1018 67 10000 6.7 300 04:21 09.03.2020
1320 Clear 9 1018 62 10000 6.7 280 02:55 09.03.2020
1321 Clear 8 1019 76 10000 2.6 180 00:45 09.03.2020
1322 Clouds 9 1019 81 10000 2.6 190 00:27 09.03.2020
1323 Clouds 9 1019 81 10000 2.6 170 23:59 08.03.2020
1324 Clear 9 1019 81 10000 3.1 160 23:39 08.03.2020
1325 Clear 9 1019 81 10000 3.1 160 23:20 08.03.2020
1326 Clear 9 1019 81 10000 3.1 160 22:42 08.03.2020
1327 Clear 9 1019 81 10000 3.1 160 22:22 08.03.2020
1328 Clear 9 1019 76 10000 2.6 150 21:59 08.03.2020
1329 Clear 9 1019 76 10000 2.6 150 21:59 08.03.2020
1330 Clear 9 1019 76 10000 2.6 150 21:41 08.03.2020
1331 Clear 9 1019 81 10000 2.6 150 21:23 08.03.2020
1332 Clear 9 1019 76 10000 2.6 140 20:58 08.03.2020
1333 Clear 9 1019 71 10000 1 0 20:38 08.03.2020
1334 Rain 9 1019 71 10000 1 0 20:20 08.03.2020
1335 Rain 10 1018 71 10000 1.5 80 19:40 08.03.2020
1336 Rain 10 1018 71 10000 1.5 70 19:20 08.03.2020
1337 Rain 10 1018 71 10000 2.6 10 18:57 08.03.2020
1338 Rain 10 1018 71 10000 2.6 10 18:38 08.03.2020
1339 Rain 11 1018 71 10000 3.1 350 18:20 08.03.2020
1340 Rain 11 1018 62 10000 2.6 350 17:41 08.03.2020
1341 Rain 11 1017 62 10000 2.6 360 17:22 08.03.2020
1342 Rain 12 1017 62 10000 2.6 360 16:59 08.03.2020
1343 Rain 12 1017 58 10000 3.1 40 16:40 08.03.2020
1344 Rain 13 1017 58 10000 3.1 40 16:22 08.03.2020
1345 Rain 12 1017 58 10000 4.1 50 15:41 08.03.2020
1346 Rain 13 1017 58 10000 4.1 50 15:22 08.03.2020
1347 Rain 13 1017 58 10000 4.1 50 14:59 08.03.2020
1348 Rain 12 1017 71 10000 3.6 110 14:38 08.03.2020
1349 Rain 12 1017 71 10000 3.6 110 14:20 08.03.2020
1350 Rain 12 1017 71 10000 3.6 110 13:55 08.03.2020
1351 Rain 12 1017 76 10000 6.7 70 13:36 08.03.2020
1352 Rain 12 1017 71 10000 4.6 20 13:18 08.03.2020
1353 Rain 12 1017 71 10000 2.1 270 12:37 08.03.2020
1354 Rain 12 1017 76 10000 3.1 250 12:18 08.03.2020
1355 Clouds 12 1017 58 10000 1 0 11:42 08.03.2020
1356 Clouds 12 1017 58 10000 1 0 11:23 08.03.2020
1357 Rain 12 1016 71 10000 4.1 160 10:57 08.03.2020
1358 Rain 12 1016 71 10000 4.1 160 10:57 08.03.2020
1359 Rain 11 1016 71 10000 4.1 160 10:39 08.03.2020
1360 Rain 11 1016 71 10000 4.1 160 10:21 08.03.2020
1361 Clouds 11 1016 76 10000 5.1 210 09:40 08.03.2020
1362 Clouds 11 1016 76 10000 5.1 210 09:22 08.03.2020
1363 Thunderstorm 11 1015 81 10000 2.6 210 08:48 08.03.2020
1364 Thunderstorm 9 1015 81 10000 3.1 200 08:22 08.03.2020
1365 Thunderstorm 10 1015 81 10000 3.1 200 07:49 08.03.2020
1366 Clouds 9 1014 87 10000 3.6 150 07:28 08.03.2020
1367 Clouds 8 1014 87 10000 2.6 180 06:46 08.03.2020
1368 Clouds 8 1013 87 10000 3.1 190 06:27 08.03.2020
1369 Clouds 8 1013 87 10000 3.6 210 05:48 08.03.2020
1370 Clouds 8 1013 76 10000 1.5 140 03:52 08.03.2020
1371 Clouds 8 1013 71 10000 2.6 170 02:59 08.03.2020
1372 Rain 8 1014 71 10000 2.1 0 01:55 08.03.2020
1373 Clouds 8 1013 71 10000 3.6 220 01:20 08.03.2020
1374 Rain 9 1013 71 10000 3.6 220 00:41 08.03.2020
1375 Rain 9 1014 71 10000 3.1 230 23:59 07.03.2020
1376 Rain 9 1014 71 10000 6.2 270 23:41 07.03.2020
1377 Clouds 10 1014 71 10000 6.2 270 23:20 07.03.2020
1378 Clouds 10 1013 62 10000 5.1 270 22:38 07.03.2020
1379 Clouds 10 1013 62 10000 5.1 270 22:20 07.03.2020
1380 Clouds 10 1013 67 10000 6.2 270 21:45 07.03.2020
1381 Clouds 10 1012 66 10000 6.2 270 21:24 07.03.2020
1382 Clouds 10 1012 62 10000 5.7 270 20:42 07.03.2020
1383 Clouds 10 1012 66 10000 5.7 280 20:23 07.03.2020
1384 Clouds 10 1012 67 10000 5.7 290 19:57 07.03.2020
1385 Clouds 10 1012 67 10000 5.7 290 19:38 07.03.2020
1386 Clouds 10 1011 66 10000 5.7 280 19:19 07.03.2020
1387 Clouds 10 1011 66 10000 5.1 320 18:41 07.03.2020
1388 Clouds 10 1010 66 10000 4.1 300 18:22 07.03.2020
1389 Clouds 10 1010 66 10000 5.1 310 17:54 07.03.2020
1390 Clouds 11 1010 71 10000 4.1 290 17:36 07.03.2020
1391 Clouds 11 1010 71 10000 4.1 290 17:18 07.03.2020
1392 Clouds 11 1009 71 10000 4.6 300 16:42 07.03.2020
1393 Clouds 11 1009 71 10000 4.6 300 16:23 07.03.2020
1394 Clouds 11 1009 71 10000 4.1 300 15:57 07.03.2020
1395 Rain 12 1009 71 10000 4.6 320 15:39 07.03.2020
1396 Rain 12 1009 71 10000 4.6 320 15:20 07.03.2020
1397 Clouds 11 1009 66 10000 3.1 320 14:54 07.03.2020
1398 Clouds 11 1009 66 10000 2.1 270 14:36 07.03.2020
1399 Clouds 12 1009 66 10000 2.1 270 14:18 07.03.2020
1400 Rain 12 1009 76 10000 3.1 200 13:39 07.03.2020
1401 Rain 11 1009 81 10000 2.6 200 13:20 07.03.2020
1402 Rain 11 1009 81 10000 5.7 260 12:42 07.03.2020
1403 Rain 12 1009 71 10000 6.2 290 12:20 07.03.2020
1404 Rain 12 1009 62 10000 5.1 280 11:58 07.03.2020
1405 Rain 12 1009 62 10000 5.1 280 11:58 07.03.2020
1406 Clouds 12 1009 66 10000 4.6 290 11:39 07.03.2020
1407 Clouds 12 1009 66 10000 4.6 290 11:21 07.03.2020
1408 Clouds 12 1009 66 10000 4.6 290 11:21 07.03.2020
1409 Clouds 12 1009 71 10000 4.6 270 10:41 07.03.2020
1410 Clouds 12 1008 71 10000 6.7 260 10:21 07.03.2020
1411 Clouds 11 1008 76 10000 5.7 260 09:58 07.03.2020
1412 Clouds 11 1008 76 10000 5.7 260 09:39 07.03.2020
1413 Clouds 11 1008 76 10000 6.2 260 09:18 07.03.2020
1414 Clouds 11 1008 76 10000 6.2 210 08:44 07.03.2020
1415 Rain 10 1007 81 10000 6.2 190 08:21 07.03.2020
1416 Rain 11 1007 71 10000 7.7 190 07:52 07.03.2020
1417 Clouds 10 1007 71 10000 9.8 200 07:23 07.03.2020
1418 Clouds 10 1007 71 10000 9.8 200 06:59 07.03.2020
1419 Rain 10 1013 73 0 4.47 218 06:35 07.03.2020
1420 Rain 10 1013 73 0 4.92 223 05:55 07.03.2020
1421 Clouds 10 1006 66 10000 9.3 200 04:56 07.03.2020
1422 Rain 11 1007 67 10000 5.1 210 02:58 07.03.2020
1423 Rain 11 1007 67 10000 5.1 210 02:35 07.03.2020
1424 Clouds 10 1008 62 10000 4.1 200 01:46 07.03.2020
1425 Clouds 11 1009 62 10000 5.7 210 00:41 07.03.2020
1426 Clouds 11 1009 62 10000 6.7 210 00:23 07.03.2020
1427 Clouds 11 1009 58 10000 6.2 200 23:56 06.03.2020
1428 Clouds 11 1009 58 10000 5.7 200 23:38 06.03.2020
1429 Clouds 11 1009 58 10000 5.7 200 23:19 06.03.2020
1430 Clouds 11 1009 62 10000 3.6 200 22:42 06.03.2020
1431 Clouds 10 1009 58 10000 3.6 190 22:18 06.03.2020
1432 Clouds 10 1009 62 10000 3.6 200 21:45 06.03.2020
1433 Clouds 11 1009 62 10000 4.1 200 21:19 06.03.2020
1434 Clouds 11 1009 71 10000 6.7 240 20:40 06.03.2020
1435 Clouds 11 1009 71 10000 6.7 240 20:21 06.03.2020
1436 Clouds 12 1009 72 10000 8.2 260 19:54 06.03.2020
1437 Clouds 12 1009 72 10000 9.8 250 19:34 06.03.2020
1438 Clouds 12 1009 63 10000 8.2 250 18:59 06.03.2020
1439 Clouds 13 1009 63 10000 8.2 250 18:41 06.03.2020
1440 Clouds 13 1008 67 10000 7.2 250 18:19 06.03.2020
1441 Clouds 13 1008 67 10000 7.2 250 18:19 06.03.2020
1442 Clouds 14 1008 67 10000 6.2 240 17:55 06.03.2020
1443 Clouds 14 1008 67 10000 6.2 240 17:36 06.03.2020
1444 Clouds 14 1008 67 10000 6.7 260 17:18 06.03.2020
1445 Clouds 15 1007 63 10000 5.7 260 16:42 06.03.2020
1446 Clouds 15 1007 63 10000 5.7 260 16:20 06.03.2020
1447 Clouds 15 1007 63 10000 6.7 260 15:45 06.03.2020
1448 Clouds 15 1007 67 10000 6.2 250 15:25 06.03.2020
1449 Clouds 16 1007 68 10000 6.2 230 14:59 06.03.2020
1450 Clouds 16 1007 68 10000 6.2 230 14:39 06.03.2020
1451 Clouds 16 1007 68 10000 6.2 230 14:39 06.03.2020
1452 Clouds 16 1007 68 10000 7.2 220 14:19 06.03.2020
1453 Clouds 16 1007 68 10000 7.7 230 13:43 06.03.2020
1454 Clouds 15 1007 72 10000 9.8 230 13:22 06.03.2020
1455 Clouds 16 1007 68 10000 8.2 230 12:58 06.03.2020
1456 Clouds 17 1007 68 10000 8.2 230 12:38 06.03.2020
1457 Clouds 17 1007 63 10000 8.2 210 12:19 06.03.2020
1458 Clouds 17 1008 68 10000 9.8 220 11:57 06.03.2020
1459 Clouds 17 1007 59 10000 9.8 210 11:39 06.03.2020
1460 Rain 16 1007 59 10000 9.8 210 11:20 06.03.2020
1461 Rain 16 1007 67 10000 9.3 210 10:40 06.03.2020
1462 Clouds 16 1007 67 10000 8.7 210 10:21 06.03.2020
1463 Clouds 16 1007 67 10000 9.3 200 09:55 06.03.2020
1464 Clouds 16 1006 63 10000 12.9 190 09:37 06.03.2020
1465 Clouds 15 1006 63 10000 12.9 190 09:19 06.03.2020
1466 Clouds 15 1007 63 10000 11.8 200 08:46 06.03.2020
1467 Rain 14 1007 67 10000 11.3 190 08:27 06.03.2020
1468 Clouds 14 1007 67 10000 11.3 200 07:57 06.03.2020
1469 Clouds 14 1007 67 10000 11.3 200 07:39 06.03.2020
1470 Clouds 13 1006 67 10000 12.3 200 06:59 06.03.2020
1471 Clouds 13 1006 67 10000 12.3 200 06:59 06.03.2020
1472 Rain 14 1006 67 10000 12.3 200 06:41 06.03.2020
1473 Rain 13 1006 67 10000 10.8 200 05:47 06.03.2020
1474 Clouds 13 1006 62 10000 10.3 200 05:28 06.03.2020
1475 Clouds 13 1007 62 10000 9.3 210 04:58 06.03.2020
1476 Clouds 12 1007 52 10000 10.3 200 02:56 06.03.2020
1477 Clouds 11 1008 55 10000 8.2 200 01:41 06.03.2020
1478 Clouds 11 1009 62 10000 6.7 220 01:23 06.03.2020
1479 Clouds 11 1010 67 10000 7.7 220 00:39 06.03.2020
1480 Clouds 11 1010 67 10000 7.7 220 00:19 06.03.2020
1481 Clouds 12 1010 62 10000 8.2 210 23:42 05.03.2020
1482 Clouds 12 1010 67 10000 1.5 0 23:22 05.03.2020
1483 Clouds 11 1010 71 10000 1 50 22:41 05.03.2020
1484 Clouds 10 1011 67 10000 2.1 100 22:23 05.03.2020
1485 Clouds 10 1011 62 10000 4.6 200 21:58 05.03.2020
1486 Clouds 11 1011 62 10000 4.6 200 21:39 05.03.2020
1487 Clouds 11 1011 67 10000 6.7 210 21:21 05.03.2020
1488 Clouds 11 1011 62 10000 5.1 210 20:59 05.03.2020
1489 Clouds 11 1011 62 10000 5.1 210 20:41 05.03.2020
1490 Clouds 11 1011 58 10000 1.5 110 20:20 05.03.2020
1491 Clouds 10 1011 66 10000 1 0 19:58 05.03.2020
1492 Clouds 11 1012 67 10000 2.1 260 19:39 05.03.2020
1493 Clouds 11 1012 67 10000 2.1 260 19:39 05.03.2020
1494 Clouds 11 1012 67 10000 2.1 260 19:19 05.03.2020
1495 Clouds 11 1012 62 10000 2.6 260 18:57 05.03.2020
1496 Clouds 12 1012 62 10000 2.6 260 18:37 05.03.2020
1497 Clouds 12 1011 62 10000 2.1 240 18:18 05.03.2020
1498 Clouds 13 1012 58 10000 2.1 260 17:42 05.03.2020
1499 Clear 14 1012 54 10000 2.1 230 17:24 05.03.2020
1500 Clear 14 1012 58 10000 3.6 270 16:59 05.03.2020
1501 Clear 13 1012 62 10000 5.1 280 16:41 05.03.2020
1502 Clear 14 1012 62 10000 5.1 280 16:21 05.03.2020
1503 Clear 14 1013 67 10000 5.1 280 15:45 05.03.2020
1504 Clouds 14 1013 62 10000 6.2 280 15:24 05.03.2020
1505 Clouds 14 1013 62 10000 5.7 280 14:59 05.03.2020
1506 Clouds 14 1013 62 10000 5.7 280 14:41 05.03.2020
1507 Clouds 14 1013 67 10000 4.1 280 14:22 05.03.2020
1508 Clouds 15 1013 62 10000 4.1 280 13:57 05.03.2020
1509 Clouds 15 1013 62 10000 4.1 280 13:38 05.03.2020
1510 Clouds 14 1014 62 10000 5.1 290 13:20 05.03.2020
1511 Clouds 14 1014 67 10000 3.1 250 12:42 05.03.2020
1512 Clouds 14 1014 67 10000 3.1 250 12:21 05.03.2020
1513 Clouds 14 1014 67 10000 3.1 250 11:58 05.03.2020
1514 Clouds 14 1014 67 10000 3.1 250 11:38 05.03.2020
1515 Clouds 14 1014 67 10000 3.1 270 11:20 05.03.2020
1516 Clouds 14 1014 67 10000 3.6 280 10:58 05.03.2020
1517 Clouds 14 1014 67 10000 3.6 280 10:58 05.03.2020
1518 Clouds 14 1014 67 10000 3.6 280 10:40 05.03.2020
1519 Clouds 13 1015 67 10000 3.6 300 10:21 05.03.2020
1520 Clouds 13 1014 67 10000 3.1 300 09:59 05.03.2020
1521 Clouds 13 1014 67 10000 3.1 300 09:40 05.03.2020
1522 Clouds 13 1014 67 10000 3.1 330 09:21 05.03.2020
1523 Clouds 12 1014 71 10000 4.6 320 08:43 05.03.2020
1524 Clouds 12 1014 71 10000 4.6 320 08:24 05.03.2020
1525 Clouds 11 1014 67 10000 3.1 300 07:45 05.03.2020
1526 Clouds 10 1013 62 10000 3.6 320 07:22 05.03.2020
1527 Clouds 10 1013 62 10000 3.6 320 06:45 05.03.2020
1528 Clouds 9 1013 62 10000 4.6 340 06:21 05.03.2020
1529 Clouds 10 1013 62 10000 5.1 340 05:37 05.03.2020
1530 Clouds 10 1014 67 10000 5.1 330 04:25 05.03.2020
1531 Clouds 11 1013 67 10000 5.7 330 03:58 05.03.2020
1532 Clouds 10 1013 67 10000 5.7 320 03:18 05.03.2020
1533 Clouds 10 1014 67 10000 5.7 310 01:28 05.03.2020
1534 Clouds 10 1014 62 10000 5.7 310 00:58 05.03.2020
1535 Clouds 11 1014 67 10000 5.7 310 23:59 04.03.2020
1536 Clouds 10 1014 67 10000 6.2 310 23:40 04.03.2020
1537 Clouds 11 1014 67 10000 6.2 310 23:22 04.03.2020
1538 Clouds 11 1014 71 10000 6.7 330 22:56 04.03.2020
1539 Clouds 11 1014 67 10000 5.7 320 22:37 04.03.2020
1540 Clouds 11 1014 67 10000 5.7 320 22:19 04.03.2020
1541 Clouds 11 1014 67 10000 4.6 330 21:56 04.03.2020
1542 Rain 11 1014 67 10000 5.1 360 21:37 04.03.2020
1543 Rain 11 1014 67 10000 5.1 360 21:18 04.03.2020
1544 Clouds 10 1013 66 10000 6.7 10 20:40 04.03.2020
1545 Clouds 11 1013 66 10000 6.7 10 20:22 04.03.2020
1546 Clouds 11 1013 67 10000 6.7 350 19:58 04.03.2020
1547 Clouds 11 1013 67 10000 8.7 350 19:40 04.03.2020
1548 Clouds 11 1013 67 10000 8.7 350 19:22 04.03.2020
1549 Clouds 11 1012 71 10000 7.7 350 18:42 04.03.2020
1550 Clouds 11 1012 67 10000 8.2 350 18:24 04.03.2020
1551 Rain 12 1011 71 10000 8.7 360 17:59 04.03.2020
1552 Rain 11 1011 71 10000 8.7 360 17:39 04.03.2020
1553 Rain 12 1011 67 10000 7.2 350 17:20 04.03.2020
1554 Clouds 12 1010 71 10000 6.2 320 16:58 04.03.2020
1555 Clouds 12 1010 67 10000 6.2 350 16:38 04.03.2020
1556 Clouds 11 1010 67 10000 6.2 350 16:20 04.03.2020
1557 Clouds 12 1010 67 10000 3.1 330 15:55 04.03.2020
1558 Clouds 12 1010 67 10000 5.1 340 15:36 04.03.2020
1559 Clouds 12 1010 67 10000 5.1 340 15:18 04.03.2020
1560 Clouds 12 1010 67 10000 6.2 330 14:41 04.03.2020
1561 Clouds 12 1010 67 10000 6.2 330 14:21 04.03.2020
1562 Clouds 12 1010 71 10000 6.2 340 13:58 04.03.2020
1563 Clouds 13 1010 76 10000 7.7 320 13:39 04.03.2020
1564 Rain 12 1010 76 10000 7.7 320 13:21 04.03.2020
1565 Rain 12 1010 71 10000 6.7 330 12:56 04.03.2020
1566 Rain 12 1009 71 10000 5.1 350 12:38 04.03.2020
1567 Rain 12 1009 71 10000 5.1 350 12:19 04.03.2020
1568 Rain 13 1009 71 10000 3.6 360 11:54 04.03.2020
1569 Rain 12 1009 76 10000 2.1 30 11:36 04.03.2020
1570 Rain 11 1009 76 10000 2.1 30 11:18 04.03.2020
1571 Rain 12 1008 76 10000 6.2 340 10:41 04.03.2020
1572 Rain 11 1008 71 10000 3.1 320 10:22 04.03.2020
1573 Clouds 11 1008 71 10000 2.1 310 09:44 04.03.2020
1574 Clouds 11 1007 71 10000 1.5 280 09:23 04.03.2020
1575 Clouds 11 1006 71 10000 1.5 190 08:59 04.03.2020
1576 Clouds 11 1006 71 10000 1.5 190 08:40 04.03.2020
1577 Clouds 11 1006 71 10000 2.1 240 08:22 04.03.2020
1578 Clouds 10 1005 76 10000 4.1 190 07:44 04.03.2020
1579 Clouds 10 1005 76 10000 4.1 190 07:25 04.03.2020
1580 Clouds 10 1005 71 10000 3.6 180 06:49 04.03.2020
1581 Clouds 10 1005 71 10000 3.6 170 06:26 04.03.2020
1582 Clouds 10 1005 71 10000 5.7 190 05:55 04.03.2020
1583 Clouds 10 1004 71 10000 5.7 190 05:00 04.03.2020
1584 Clouds 10 1004 71 10000 5.7 190 05:00 04.03.2020
1585 Clouds 10 1004 71 10000 5.7 190 04:59 04.03.2020
1586 Clouds 9 1004 66 10000 7.2 200 03:50 04.03.2020
1587 Clouds 9 1005 66 10000 9.3 190 03:31 04.03.2020
1588 Rain 9 1005 71 10000 8.7 190 02:58 04.03.2020
1589 Rain 9 1006 76 10000 5.7 190 02:25 04.03.2020
1590 Clouds 9 1007 76 10000 5.7 190 01:56 04.03.2020
1591 Rain 8 1008 76 10000 6.2 200 01:31 04.03.2020
1592 Rain 9 1008 71 10000 5.7 220 00:41 04.03.2020
1593 Rain 9 1008 66 10000 6.7 200 00:19 04.03.2020
1594 Clouds 9 1009 76 10000 3.6 180 23:41 03.03.2020
1595 Clouds 9 1009 76 10000 3.6 180 23:22 03.03.2020
1596 Rain 9 1010 71 10000 3.6 180 22:55 03.03.2020
1597 Rain 9 1010 71 10000 10.8 240 22:37 03.03.2020
1598 Rain 9 1010 71 10000 10.8 240 22:18 03.03.2020
1599 Clouds 10 1009 62 10000 6.7 230 21:42 03.03.2020
1600 Rain 10 1009 58 10000 8.7 250 21:22 03.03.2020
1601 Rain 10 1009 58 10000 9.3 260 20:58 03.03.2020
1602 Rain 10 1009 62 10000 6.2 260 20:39 03.03.2020
1603 Rain 10 1009 62 10000 6.2 260 20:18 03.03.2020
1604 Rain 10 1009 41 10000 5.7 290 19:56 03.03.2020
1605 Clouds 11 1009 58 10000 9.3 250 19:37 03.03.2020
1606 Clouds 11 1009 58 10000 9.3 250 19:37 03.03.2020
1607 Clouds 11 1009 58 10000 9.3 250 19:18 03.03.2020
1608 Clouds 11 1009 58 10000 9.3 260 18:56 03.03.2020
1609 Clouds 11 1009 58 10000 9.3 260 18:56 03.03.2020
1610 Clouds 12 1009 58 10000 9.3 260 18:38 03.03.2020
1611 Clouds 12 1009 67 10000 9.8 260 18:19 03.03.2020
1612 Clouds 12 1009 67 10000 10.3 260 17:54 03.03.2020
1613 Clouds 12 1009 67 10000 10.3 270 17:36 03.03.2020
1614 Clouds 12 1009 67 10000 10.3 270 17:36 03.03.2020
1615 Clouds 12 1009 67 10000 10.3 270 17:18 03.03.2020
1616 Clouds 13 1009 62 10000 10.8 270 16:55 03.03.2020
1617 Clouds 13 1009 62 10000 10.8 270 16:36 03.03.2020
1618 Clouds 13 1009 62 10000 10.8 270 16:18 03.03.2020
1619 Clouds 13 1009 62 10000 10.3 270 15:41 03.03.2020
1620 Clouds 13 1010 58 10000 10.8 280 15:21 03.03.2020
1621 Clouds 13 1010 67 10000 9.3 270 14:54 03.03.2020
1622 Clouds 13 1010 58 10000 9.8 270 14:36 03.03.2020
1623 Clouds 13 1010 58 10000 9.8 270 14:18 03.03.2020
1624 Clouds 14 1010 58 10000 8.7 270 13:42 03.03.2020
1625 Clouds 14 1011 54 10000 9.3 290 13:24 03.03.2020
1626 Clouds 15 1011 54 10000 9.8 280 12:55 03.03.2020
1627 Clouds 15 1011 54 10000 9.3 280 12:36 03.03.2020
1628 Clouds 15 1011 54 10000 9.3 280 12:18 03.03.2020
1629 Clouds 14 1011 54 10000 9.8 280 11:38 03.03.2020
1630 Clouds 14 1010 62 10000 8.2 280 11:19 03.03.2020
1631 Clouds 14 1010 62 10000 8.2 280 11:19 03.03.2020
1632 Clouds 14 1010 67 10000 7.7 270 10:57 03.03.2020
1633 Clouds 14 1010 67 10000 7.7 270 10:39 03.03.2020
1634 Clouds 14 1010 62 10000 6.7 270 10:19 03.03.2020
1635 Clouds 14 1010 62 10000 7.7 280 09:45 03.03.2020
1636 Clouds 13 1010 62 10000 7.2 290 09:23 03.03.2020
1637 Clouds 13 1009 62 10000 7.2 270 08:59 03.03.2020
1638 Clouds 12 1009 71 10000 4.6 210 08:40 03.03.2020
1639 Clouds 12 1009 71 10000 4.6 210 08:22 03.03.2020
1640 Rain 12 1008 76 10000 5.7 210 07:44 03.03.2020
1641 Rain 12 1008 76 10000 5.7 210 07:24 03.03.2020
1642 Rain 12 1008 76 10000 7.2 210 06:55 03.03.2020
1643 Rain 12 1008 76 10000 5.7 210 06:27 03.03.2020
1644 Clouds 12 1008 71 10000 5.7 210 05:49 03.03.2020
1645 Drizzle 12 1008 76 10000 7.2 220 05:31 03.03.2020
1646 Rain 12 1007 82 10000 7.2 220 04:44 03.03.2020
1647 Clouds 13 1007 77 10000 8.2 240 02:37 03.03.2020
1648 Rain 14 1006 63 10000 10.3 190 01:21 03.03.2020
1649 Rain 15 1006 63 10000 10.3 180 00:40 03.03.2020
1650 Rain 15 1006 63 10000 10.3 180 00:20 03.03.2020
1651 Rain 15 1006 63 10000 10.8 190 23:46 02.03.2020
1652 Drizzle 15 1006 55 10000 10.3 190 23:23 02.03.2020
1653 Drizzle 15 1006 52 10000 10.3 200 22:57 02.03.2020
1654 Drizzle 15 1006 52 10000 10.3 200 22:38 02.03.2020
1655 Clouds 16 1007 52 10000 9.8 200 22:19 02.03.2020
1656 Clouds 15 1007 63 10000 7.7 190 21:56 02.03.2020
1657 Drizzle 15 1007 63 10000 6.7 180 21:37 02.03.2020
1658 Drizzle 15 1007 63 10000 6.7 180 21:19 02.03.2020
1659 Rain 15 1008 67 10000 7.7 210 20:54 02.03.2020
1660 Rain 16 1008 55 10000 6.7 210 20:36 02.03.2020
1661 Clouds 16 1008 55 10000 6.7 210 20:18 02.03.2020
1662 Clouds 17 1007 42 10000 8.2 210 19:40 02.03.2020
1663 Clouds 17 1007 42 10000 8.2 210 19:21 02.03.2020
1664 Clouds 18 1007 42 10000 7.2 200 18:57 02.03.2020
1665 Clouds 19 1007 40 10000 9.3 210 18:38 02.03.2020
1666 Clouds 18 1007 40 10000 9.3 210 18:18 02.03.2020
1667 Clouds 18 1007 37 10000 8.2 200 17:56 02.03.2020
1668 Clouds 17 1007 37 10000 8.2 200 17:38 02.03.2020
1669 Clouds 18 1007 42 10000 8.7 210 17:20 02.03.2020
1670 Clouds 19 1007 35 10000 8.7 200 16:43 02.03.2020
1671 Rain 19 1007 37 10000 9.3 210 16:24 02.03.2020
1672 Rain 18 1007 40 10000 9.3 200 15:57 02.03.2020
1673 Rain 19 1007 40 10000 9.3 200 15:38 02.03.2020
1674 Clouds 19 1007 37 10000 11.3 200 15:18 02.03.2020
1675 Clouds 18 1008 35 10000 8.7 190 14:39 02.03.2020
1676 Clouds 19 1009 46 10000 7.2 220 14:20 02.03.2020
1677 Clouds 19 1009 43 10000 8.2 200 13:57 02.03.2020
1678 Clouds 18 1009 43 10000 8.2 200 13:37 02.03.2020
1679 Clouds 18 1010 56 10000 4.6 230 13:18 02.03.2020
1680 Clouds 19 1010 49 10000 7.7 210 12:43 02.03.2020
1681 Clouds 19 1010 49 10000 7.7 210 12:43 02.03.2020
1682 Clouds 19 1010 49 10000 7.7 210 12:43 02.03.2020
1683 Clouds 18 1011 52 10000 6.7 220 12:19 02.03.2020
1684 Clouds 18 1011 52 10000 6.7 220 12:19 02.03.2020
1685 Clouds 19 1012 52 10000 7.2 220 11:40 02.03.2020
1686 Clear 18 1012 55 10000 7.7 210 11:22 02.03.2020
1687 Clear 17 1012 52 10000 7.7 210 10:59 02.03.2020
1688 Clear 17 1012 52 10000 7.7 210 10:41 02.03.2020
1689 Clear 17 1013 52 10000 7.7 210 10:20 02.03.2020
1690 Clear 16 1013 55 10000 7.7 200 09:55 02.03.2020
1691 Clear 16 1013 55 10000 6.7 200 09:37 02.03.2020
1692 Clear 15 1013 55 10000 6.7 200 09:18 02.03.2020
1693 Clear 15 1013 59 10000 5.1 180 08:40 02.03.2020
1694 Clouds 14 1013 67 10000 5.1 170 08:19 02.03.2020
1695 Clouds 14 1013 72 10000 5.7 180 07:40 02.03.2020
1696 Clouds 13 1014 72 10000 7.2 190 06:57 02.03.2020
1697 Clouds 13 1014 72 10000 7.2 190 06:35 02.03.2020
1698 Clouds 14 1013 72 10000 7.2 200 05:52 02.03.2020
1699 Clouds 13 1014 67 10000 7.2 210 04:19 02.03.2020
1700 Clouds 15 1014 63 10000 5.7 220 03:19 02.03.2020
1701 Clouds 14 1015 72 10000 6.2 210 02:36 02.03.2020
1702 Clouds 14 1015 72 10000 6.2 210 01:42 02.03.2020
1703 Clouds 14 1015 72 10000 8.2 210 01:23 02.03.2020
1704 Clouds 14 1015 72 10000 8.2 210 00:23 02.03.2020
1705 Clouds 15 1015 63 10000 7.7 210 23:56 01.03.2020
1706 Clouds 15 1015 63 10000 7.2 210 23:38 01.03.2020
1707 Clouds 15 1015 63 10000 7.2 210 23:19 01.03.2020
1708 Clouds 15 1015 63 10000 6.7 200 22:42 01.03.2020
1709 Clouds 15 1015 63 10000 6.2 210 22:19 01.03.2020
1710 Clouds 15 1014 63 10000 6.7 200 21:55 01.03.2020
1711 Clouds 15 1015 63 10000 5.7 230 21:37 01.03.2020
1712 Clouds 15 1015 63 10000 5.7 230 21:18 01.03.2020
1713 Clouds 16 1015 55 10000 5.1 210 20:43 01.03.2020
1714 Clouds 16 1014 63 10000 7.2 220 20:24 01.03.2020
1715 Clouds 16 1014 67 10000 5.1 220 19:43 01.03.2020
1716 Clouds 17 1014 55 10000 6.2 220 19:24 01.03.2020
1717 Clouds 17 1014 48 10000 5.7 210 18:59 01.03.2020
1718 Clouds 17 1014 48 10000 6.7 220 18:40 01.03.2020
1719 Clouds 17 1014 48 10000 6.7 220 18:19 01.03.2020
1720 Clouds 17 1013 42 10000 8.2 230 17:57 01.03.2020
1721 Clouds 18 1013 42 10000 8.2 230 17:39 01.03.2020
1722 Clouds 19 1013 45 10000 8.2 230 17:20 01.03.2020
1723 Clouds 19 1013 45 10000 8.7 230 16:57 01.03.2020
1724 Clouds 20 1012 46 10000 8.2 230 16:38 01.03.2020
1725 Clouds 20 1012 46 10000 8.2 230 16:18 01.03.2020
1726 Clouds 19 1012 43 10000 8.2 230 15:56 01.03.2020
1727 Clouds 20 1012 43 10000 8.2 230 15:38 01.03.2020
1728 Clouds 20 1013 52 10000 8.7 240 15:19 01.03.2020
1729 Clouds 20 1013 46 10000 9.3 230 14:56 01.03.2020
1730 Clouds 20 1013 46 10000 7.2 230 14:38 01.03.2020
1731 Clouds 20 1013 46 10000 7.2 230 14:20 01.03.2020
1732 Rain 21 1013 38 10000 8.2 220 13:55 01.03.2020
1733 Clouds 20 1013 35 10000 7.7 210 13:37 01.03.2020
1734 Clouds 20 1013 35 10000 7.7 210 13:18 01.03.2020
1735 Clouds 22 1013 29 10000 7.7 190 12:42 01.03.2020
1736 Clouds 21 1013 35 10000 7.7 210 12:42 01.03.2020
1737 Clouds 21 1013 29 10000 7.7 190 12:21 01.03.2020
1738 Clouds 21 1013 29 10000 7.7 190 12:21 01.03.2020
1739 Clouds 21 1014 28 10000 8.7 210 11:43 01.03.2020
1740 Clouds 19 1014 33 10000 8.2 200 11:25 01.03.2020
1741 Clouds 19 1014 33 10000 7.2 200 10:57 01.03.2020
1742 Clouds 19 1014 33 10000 7.2 200 10:57 01.03.2020
1743 Clouds 18 1014 33 10000 7.2 200 10:38 01.03.2020
1744 Clouds 18 1014 32 10000 8.7 200 10:20 01.03.2020
1745 Clouds 19 1014 30 10000 9.8 200 09:58 01.03.2020
1746 Clouds 19 1014 30 10000 9.8 200 09:58 01.03.2020
1747 Clouds 19 1014 30 10000 9.8 200 09:40 01.03.2020
1748 Clouds 17 1014 34 10000 9.3 200 09:21 01.03.2020
1749 Clouds 16 1014 37 10000 8.7 200 08:42 01.03.2020
1750 Clouds 15 1014 37 10000 8.7 200 08:21 01.03.2020
1751 Clouds 14 1014 42 10000 8.2 200 07:43 01.03.2020
1752 Clouds 14 1013 39 10000 8.2 200 07:24 01.03.2020
1753 Clouds 14 1014 42 10000 8.2 200 06:58 01.03.2020
1754 Clouds 14 1014 42 10000 8.2 200 06:38 01.03.2020
1755 Clouds 14 1013 45 10000 10.3 200 04:39 01.03.2020
1756 Clouds 14 1014 45 10000 9.8 200 02:58 01.03.2020
1757 Clear 14 1015 42 10000 8.7 210 01:54 01.03.2020
1758 Clear 14 1014 39 10000 8.7 200 01:33 01.03.2020
1759 Clouds 14 1015 39 10000 8.7 210 00:47 01.03.2020
1760 Clouds 14 1015 39 10000 8.2 200 00:23 01.03.2020
1761 Clouds 13 1015 39 10000 7.7 200 23:54 29.02.2020
1762 Clouds 13 1016 39 10000 6.7 210 23:35 29.02.2020
1763 Clouds 13 1016 39 10000 7.2 210 22:45 29.02.2020
1764 Clouds 13 1016 39 10000 7.2 200 22:26 29.02.2020
1765 Clouds 13 1016 45 10000 5.7 210 21:47 29.02.2020
1766 Clouds 13 1016 45 10000 5.7 210 21:27 29.02.2020
1767 Clouds 13 1016 62 10000 1.5 210 20:59 29.02.2020
1768 Clouds 13 1017 82 10000 3.1 40 20:40 29.02.2020
1769 Clouds 13 1017 82 10000 3.1 40 20:20 29.02.2020
1770 Clouds 13 1017 82 10000 1 0 19:45 29.02.2020
1771 Clouds 13 1016 82 10000 2.6 70 19:22 29.02.2020
1772 Clouds 13 1017 82 10000 2.6 60 18:59 29.02.2020
1773 Clouds 13 1017 82 10000 2.6 60 18:39 29.02.2020
1774 Clouds 14 1017 77 10000 3.6 70 18:19 29.02.2020
1775 Clouds 14 1017 72 10000 5.1 70 17:55 29.02.2020
1776 Clouds 14 1017 72 10000 5.7 70 17:37 29.02.2020
1777 Clouds 15 1017 72 10000 5.7 70 17:18 29.02.2020
1778 Clouds 16 1017 63 10000 5.7 60 16:43 29.02.2020
1779 Clouds 15 1017 67 10000 1.5 0 16:19 29.02.2020
1780 Clouds 15 1017 37 10000 3.6 210 15:54 29.02.2020
1781 Clouds 16 1017 37 10000 5.1 190 15:36 29.02.2020
1782 Clouds 16 1017 37 10000 5.1 190 15:18 29.02.2020
1783 Clouds 16 1017 37 10000 6.7 210 14:39 29.02.2020
1784 Clouds 16 1018 51 10000 3.1 0 14:21 29.02.2020
1785 Clouds 16 1018 59 10000 5.7 40 13:44 29.02.2020
1786 Clouds 16 1019 59 10000 4.6 40 13:26 29.02.2020
1787 Clouds 16 1019 55 10000 5.1 50 12:56 29.02.2020
1788 Clouds 16 1019 55 10000 5.1 50 12:37 29.02.2020
1789 Clouds 16 1020 51 10000 5.1 60 12:19 29.02.2020
1790 Clouds 15 1020 58 10000 5.7 40 11:44 29.02.2020
1791 Clear 14 1020 62 10000 4.1 50 11:26 29.02.2020
1792 Clear 14 1020 59 10000 1.5 0 10:51 29.02.2020
1793 Clear 14 1020 48 10000 5.7 230 10:30 29.02.2020
1794 Clear 13 1020 58 10000 5.7 240 09:55 29.02.2020
1795 Clear 13 1020 54 10000 5.1 220 09:37 29.02.2020
1796 Clear 13 1020 54 10000 5.1 220 09:18 29.02.2020
1797 Clear 12 1020 62 10000 3.6 220 08:39 29.02.2020
1798 Clear 11 1020 62 10000 2.6 210 08:20 29.02.2020
1799 Clear 10 1020 61 10000 3.1 190 07:51 29.02.2020
1800 Clear 9 1020 69 10000 2.1 200 07:22 29.02.2020
1801 Clear 9 1020 61 10000 2.6 180 06:54 29.02.2020
1802 Clear 10 1020 66 10000 2.1 150 06:29 29.02.2020
1803 Clouds 8 1020 66 10000 2.1 180 05:50 29.02.2020
1804 Clear 8 1020 70 10000 3.1 150 05:31 29.02.2020
1805 Clouds 8 1020 76 10000 2.6 140 03:55 29.02.2020
1806 Clouds 8 1020 81 10000 3.1 160 03:24 29.02.2020
1807 Clouds 9 1021 76 10000 2.1 160 02:57 29.02.2020
1808 Clear 10 1021 81 10000 1.5 150 01:58 29.02.2020
1809 Clear 10 1021 81 10000 2.6 100 00:51 29.02.2020
1810 Clouds 10 1021 81 10000 1.5 80 00:27 29.02.2020
1811 Clouds 10 1021 81 10000 2.1 140 23:41 28.02.2020
1812 Clouds 11 1021 81 10000 2.1 140 23:23 28.02.2020
1813 Clouds 11 1021 81 10000 2.1 140 23:23 28.02.2020
1814 Clouds 11 1021 76 10000 1 140 22:43 28.02.2020
1815 Clear 11 1021 76 10000 2.1 130 22:23 28.02.2020
1816 Clear 11 1020 76 10000 1 0 21:42 28.02.2020
1817 Clear 11 1020 76 10000 1.5 200 21:22 28.02.2020
1818 Clear 11 1020 72 10000 2.1 270 20:59 28.02.2020
1819 Clear 11 1020 72 10000 2.1 270 20:39 28.02.2020
1820 Clear 11 1020 76 10000 2.1 270 20:20 28.02.2020
1821 Clear 12 1019 72 10000 3.1 290 19:57 28.02.2020
1822 Clear 12 1019 72 10000 3.1 290 19:39 28.02.2020
1823 Clear 12 1019 72 10000 3.1 290 19:20 28.02.2020
1824 Clear 12 1018 72 10000 3.1 290 18:47 28.02.2020
1825 Clear 12 1018 72 10000 3.1 290 18:47 28.02.2020
1826 Clouds 12 1018 67 10000 2.1 300 18:28 28.02.2020
1827 Clear 13 1018 63 10000 2.6 260 17:58 28.02.2020
1828 Clouds 14 1018 63 10000 3.1 310 17:39 28.02.2020
1829 Clouds 14 1018 63 10000 3.1 310 17:39 28.02.2020
1830 Clouds 14 1018 63 10000 3.1 310 17:20 28.02.2020
1831 Clouds 14 1018 59 10000 5.7 310 16:43 28.02.2020
1832 Clouds 15 1017 59 10000 5.7 310 16:20 28.02.2020
1833 Clouds 15 1017 82 10000 6.7 280 15:57 28.02.2020
1834 Clouds 15 1017 82 10000 6.7 270 15:39 28.02.2020
1835 Clouds 15 1017 82 10000 6.7 270 15:19 28.02.2020
1836 Clouds 15 1017 82 10000 7.2 270 14:56 28.02.2020
1837 Clouds 16 1017 82 10000 8.2 270 14:38 28.02.2020
1838 Clouds 16 1017 82 10000 8.2 270 14:18 28.02.2020
1839 Clouds 15 1017 82 10000 8.7 270 13:41 28.02.2020
1840 Clouds 15 1017 82 10000 8.7 270 13:20 28.02.2020
1841 Clouds 15 1017 82 10000 8.2 270 12:56 28.02.2020
1842 Clouds 17 1017 82 10000 8.7 270 12:37 28.02.2020
1843 Clouds 16 1017 82 10000 8.7 270 12:18 28.02.2020
1844 Clouds 16 1017 82 10000 8.2 260 11:41 28.02.2020
1845 Clouds 16 1017 82 10000 7.7 260 11:22 28.02.2020
1846 Rain 16 1017 77 10000 6.2 260 10:54 28.02.2020
1847 Rain 16 1017 77 10000 6.2 260 10:54 28.02.2020
1848 Rain 16 1017 72 10000 9.8 250 10:36 28.02.2020
1849 Clouds 16 1017 72 10000 9.8 250 10:18 28.02.2020
1850 Clouds 16 1016 72 10000 9.8 240 09:40 28.02.2020
1851 Rain 15 1016 72 10000 9.8 240 09:20 28.02.2020
1852 Clouds 15 1016 77 10000 9.3 230 08:42 28.02.2020
1853 Clouds 13 1016 77 10000 9.3 220 08:21 28.02.2020
1854 Rain 13 1015 77 10000 10.8 220 07:46 28.02.2020
1855 Clouds 12 1015 72 10000 9.8 210 07:26 28.02.2020
1856 Rain 12 1015 72 10000 9.3 220 06:52 28.02.2020
1857 Clouds 12 1015 72 10000 8.7 220 06:33 28.02.2020
1858 Clouds 12 1015 72 10000 9.8 220 05:31 28.02.2020
1859 Clouds 11 1016 71 10000 9.3 210 04:32 28.02.2020
1860 Rain 11 1016 67 10000 8.2 210 03:22 28.02.2020
1861 Rain 11 1017 67 10000 8.2 200 02:34 28.02.2020
1862 Clouds 10 1017 66 10000 8.2 200 01:48 28.02.2020
1863 Clouds 10 1017 62 10000 7.7 200 00:33 28.02.2020
1864 Clouds 11 1017 62 10000 7.2 200 23:47 27.02.2020
1865 Clouds 10 1017 62 10000 7.2 200 23:23 27.02.2020
1866 Clouds 10 1018 62 10000 6.2 200 22:59 27.02.2020
1867 Clouds 10 1018 62 10000 6.2 200 22:40 27.02.2020
1868 Clouds 10 1018 62 10000 5.7 200 22:21 27.02.2020
1869 Clouds 10 1018 58 10000 5.7 200 21:42 27.02.2020
1870 Clouds 10 1018 62 10000 4.6 200 21:24 27.02.2020
1871 Clouds 10 1018 67 10000 5.1 230 20:59 27.02.2020
1872 Clouds 10 1018 67 10000 5.1 230 20:41 27.02.2020
1873 Clouds 10 1018 67 10000 5.1 240 20:23 27.02.2020
1874 Clouds 10 1018 67 10000 5.1 240 20:23 27.02.2020
1875 Clouds 10 1018 67 10000 5.7 240 19:57 27.02.2020
1876 Clouds 10 1018 62 10000 4.6 250 19:39 27.02.2020
1877 Clouds 10 1018 62 10000 4.6 250 19:21 27.02.2020
1878 Clouds 10 1018 58 10000 4.6 270 18:55 27.02.2020
1879 Clouds 11 1018 62 10000 5.7 270 18:37 27.02.2020
1880 Clouds 11 1018 62 10000 5.7 270 18:18 27.02.2020
1881 Clouds 11 1018 62 10000 6.2 270 17:54 27.02.2020
1882 Clouds 12 1018 58 10000 6.7 270 17:36 27.02.2020
1883 Clouds 12 1018 58 10000 6.7 270 17:18 27.02.2020
1884 Clouds 12 1018 58 10000 6.7 270 16:41 27.02.2020
1885 Clouds 12 1018 58 10000 4.1 260 16:20 27.02.2020
1886 Clouds 12 1018 50 10000 5.1 270 15:59 27.02.2020
1887 Clouds 13 1018 54 10000 3.6 290 15:38 27.02.2020
1888 Clouds 13 1018 50 10000 5.1 270 15:38 27.02.2020
1889 Clouds 13 1018 54 10000 3.6 290 15:19 27.02.2020
1890 Clouds 13 1018 51 10000 3.6 310 14:58 27.02.2020
1891 Clouds 13 1018 51 10000 3.6 310 14:37 27.02.2020
1892 Clouds 13 1018 44 10000 4.1 310 14:19 27.02.2020
1893 Clouds 13 1018 50 10000 4.6 320 13:42 27.02.2020
1894 Clouds 14 1018 50 10000 3.6 320 13:21 27.02.2020
1895 Clouds 13 1018 54 10000 3.6 330 12:56 27.02.2020
1896 Clouds 14 1018 50 10000 4.1 330 12:38 27.02.2020
1897 Clouds 14 1018 50 10000 4.1 330 12:18 27.02.2020
1898 Clouds 13 1019 47 10000 4.6 330 11:41 27.02.2020
1899 Clouds 13 1018 47 10000 5.7 320 11:22 27.02.2020
1900 Clouds 13 1018 54 10000 5.7 330 10:44 27.02.2020
1901 Clouds 13 1018 54 10000 6.2 330 10:24 27.02.2020
1902 Clouds 13 1018 50 10000 6.7 320 09:49 27.02.2020
1903 Clouds 13 1017 54 10000 6.7 320 09:30 27.02.2020
1904 Clouds 12 1017 54 10000 7.2 310 08:59 27.02.2020
1905 Clouds 12 1017 54 10000 7.2 290 08:41 27.02.2020
1906 Clouds 11 1017 54 10000 7.2 290 08:22 27.02.2020
1907 Clouds 11 1016 54 10000 8.2 300 07:45 27.02.2020
1908 Clouds 10 1016 54 10000 8.2 310 07:25 27.02.2020
1909 Clouds 11 1015 58 10000 7.2 310 06:48 27.02.2020
1910 Clouds 11 1015 58 10000 8.7 310 05:48 27.02.2020
1911 Clouds 11 1014 62 10000 10.8 280 03:42 27.02.2020
1912 Clouds 11 1014 67 10000 12.3 270 02:22 27.02.2020
1913 Clouds 12 1014 67 10000 10.8 270 00:46 27.02.2020
1914 Rain 12 1013 72 10000 11.3 260 00:26 27.02.2020
1915 Rain 12 1013 72 10000 8.7 250 23:40 26.02.2020
1916 Rain 12 1013 72 10000 8.7 250 23:19 26.02.2020
1917 Rain 12 1013 72 10000 9.8 260 22:58 26.02.2020
1918 Clouds 13 1013 72 10000 9.8 260 22:39 26.02.2020
1919 Rain 12 1013 77 10000 8.7 250 22:20 26.02.2020
1920 Rain 13 1013 77 10000 9.3 260 21:56 26.02.2020
1921 Clouds 13 1012 82 10000 10.3 260 21:37 26.02.2020
1922 Clouds 13 1012 82 10000 10.3 260 21:18 26.02.2020
1923 Clouds 13 1012 77 10000 10.3 260 20:55 26.02.2020
1924 Clouds 13 1012 77 10000 10.8 260 20:37 26.02.2020
1925 Rain 13 1012 77 10000 10.8 260 20:18 26.02.2020
1926 Rain 13 1012 72 10000 9.3 260 19:46 26.02.2020
1927 Clouds 13 1012 72 10000 8.7 260 19:21 26.02.2020
1928 Clouds 13 1011 72 10000 8.7 260 18:59 26.02.2020
1929 Clouds 13 1011 67 10000 7.7 250 18:40 26.02.2020
1930 Clouds 13 1011 67 10000 7.7 250 18:22 26.02.2020
1931 Clouds 14 1011 72 10000 7.2 250 17:56 26.02.2020
1932 -273 0 0 0 0 0 17:37 26.02.2020
1933 Clouds 15 1011 67 10000 7.2 250 17:18 26.02.2020
1934 Clouds 16 1011 72 10000 5.1 250 16:43 26.02.2020
1935 Clouds 15 1011 72 10000 5.1 250 16:22 26.02.2020
1936 Clouds 16 1011 55 10000 6.2 250 15:56 26.02.2020
1937 Clouds 16 1011 63 10000 5.7 220 15:38 26.02.2020
1938 Clouds 16 1011 63 10000 5.7 220 15:19 26.02.2020
1939 Clouds 15 1011 72 10000 5.7 250 14:42 26.02.2020
1940 Clouds 16 1012 77 10000 8.2 270 14:22 26.02.2020
1941 Clouds 16 1012 72 10000 5.1 280 13:43 26.02.2020
1942 Clouds 16 1012 77 10000 3.1 260 13:22 26.02.2020
1943 Clouds 16 1012 77 10000 4.6 270 12:42 26.02.2020
1944 Clouds 15 1012 77 10000 4.1 250 12:23 26.02.2020
1945 Clouds 15 1012 77 10000 4.1 250 11:59 26.02.2020
1946 Clouds 15 1012 77 10000 4.1 250 11:41 26.02.2020
1947 Clouds 15 1012 77 10000 4.6 250 11:22 26.02.2020
1948 Clouds 15 1012 82 10000 5.7 260 10:58 26.02.2020
1949 Clouds 15 1012 77 10000 7.2 270 10:39 26.02.2020
1950 Clouds 14 1012 77 10000 7.2 270 10:20 26.02.2020
1951 Clouds 14 1012 77 10000 7.7 270 09:43 26.02.2020
1952 Clouds 13 1012 82 10000 8.2 260 09:22 26.02.2020
1953 Clouds 13 1012 77 10000 8.2 260 08:55 26.02.2020
1954 Clouds 12 1011 82 10000 6.7 260 08:36 26.02.2020
1955 Clouds 13 1011 82 10000 6.7 260 08:18 26.02.2020
1956 Clouds 13 1011 77 10000 8.2 250 07:41 26.02.2020
1957 Clouds 13 1011 77 10000 9.8 260 07:23 26.02.2020
1958 Clouds 13 1011 77 10000 6.2 240 06:49 26.02.2020
1959 Clouds 13 1011 77 10000 6.2 210 06:31 26.02.2020
1960 Clouds 13 1011 72 10000 6.7 210 05:48 26.02.2020
1961 Clouds 12 1011 67 10000 7.2 200 05:19 26.02.2020
1962 Clouds 13 1011 58 10000 9.3 200 03:45 26.02.2020
1963 Clouds 12 1011 42 10000 9.3 200 02:20 26.02.2020
1964 Clouds 14 1012 29 10000 7.7 200 01:38 26.02.2020
1965 Clouds 14 1012 29 10000 8.2 200 00:47 26.02.2020
1966 Clouds 13 1012 47 10000 7.7 200 00:21 26.02.2020
1967 Clouds 13 1012 47 10000 7.7 200 00:21 26.02.2020
1968 Clouds 13 1013 36 10000 8.2 190 23:43 25.02.2020
1969 Clouds 12 1013 47 10000 7.7 200 23:25 25.02.2020
1970 Clouds 12 1013 40 10000 8.2 200 22:58 25.02.2020
1971 Clouds 13 1013 40 10000 8.2 200 22:40 25.02.2020
1972 Clouds 13 1013 40 10000 7.7 200 22:19 25.02.2020
1973 Clouds 13 1013 40 10000 5.1 200 21:38 25.02.2020
1974 Clouds 12 1013 40 10000 5.1 200 21:20 25.02.2020
1975 Clouds 12 1013 40 10000 5.1 200 21:20 25.02.2020
1976 Clouds 13 1013 39 10000 6.2 200 20:57 25.02.2020
1977 Clouds 12 1014 55 10000 5.1 210 20:39 25.02.2020
1978 Clouds 12 1014 55 10000 5.1 210 20:20 25.02.2020
1979 Clouds 13 1014 51 10000 3.6 170 19:58 25.02.2020
1980 Clouds 12 1014 51 10000 3.6 170 19:40 25.02.2020
1981 Clouds 13 1014 58 10000 4.1 190 19:19 25.02.2020
1982 Clouds 13 1014 72 10000 2.6 210 18:41 25.02.2020
1983 Clouds 14 1014 72 10000 1.5 170 18:21 25.02.2020
1984 Clouds 14 1014 77 10000 1 0 17:58 25.02.2020
1985 Clouds 15 1014 72 10000 1 0 17:38 25.02.2020
1986 Clear 15 1014 72 10000 1 0 17:19 25.02.2020
1987 Clear 16 1015 82 10000 1.5 20 16:58 25.02.2020
1988 Clear 16 1014 82 10000 1.5 20 16:39 25.02.2020
1989 Clear 16 1014 82 10000 1.5 20 16:21 25.02.2020
1990 Clear 16 1015 77 10000 2.1 20 15:56 25.02.2020
1991 Clear 16 1015 77 10000 2.1 20 15:56 25.02.2020
1992 Clear 16 1015 77 10000 1.5 30 15:37 25.02.2020
1993 Clear 16 1015 77 10000 1.5 30 15:18 25.02.2020
1994 Clear 16 1016 72 10000 2.1 30 14:55 25.02.2020
1995 Clear 16 1016 77 10000 2.1 30 14:37 25.02.2020
1996 Clouds 16 1016 77 10000 2.1 30 14:18 25.02.2020
1997 Clouds 16 1016 77 10000 2.1 30 14:18 25.02.2020
1998 Clouds 16 1016 77 10000 3.6 40 13:55 25.02.2020
1999 Clouds 16 1016 77 10000 3.6 40 13:37 25.02.2020
2000 Clouds 16 1017 72 10000 2.1 30 13:18 25.02.2020
2001 Clouds 17 1017 72 10000 3.6 30 12:41 25.02.2020
2002 -273 0 0 0 0 0 12:21 25.02.2020
2003 Clouds 16 1018 77 10000 1.5 270 11:56 25.02.2020
2004 Clouds 16 1018 62 10000 1 0 11:38 25.02.2020
2005 Clouds 15 1018 62 10000 1 0 11:19 25.02.2020
2006 Clouds 15 1018 62 10000 1 0 11:19 25.02.2020
2007 Clouds 15 1018 71 10000 1.5 240 10:59 25.02.2020
2008 Clouds 15 1018 71 10000 1.5 240 10:40 25.02.2020
2009 Clouds 15 1018 76 10000 2.1 240 10:21 25.02.2020
2010 Clouds 14 1019 76 10000 1 250 09:41 25.02.2020
2011 Clouds 13 1019 81 10000 1.5 240 09:21 25.02.2020
2012 Clouds 11 1019 93 10000 2.1 170 08:45 25.02.2020
2013 Clouds 11 1019 87 10000 3.6 220 08:27 25.02.2020
2014 Clouds 10 1019 87 10000 0.5 0 07:56 25.02.2020
2015 Clouds 10 1018 87 10000 1 110 07:36 25.02.2020
2016 Clouds 10 1018 87 10000 1 110 07:18 25.02.2020
2017 Clouds 10 1019 87 10000 2.6 190 06:27 25.02.2020
2018 Clouds 10 1019 87 10000 1.5 190 05:25 25.02.2020
2019 Clouds 11 1020 87 10000 2.1 190 02:54 25.02.2020
2020 Clear 12 1020 87 10000 1 0 01:30 25.02.2020
2021 Clear 12 1021 87 10000 1.5 210 00:43 25.02.2020
2022 Clear 12 1021 87 10000 1.5 200 00:22 25.02.2020
2023 Clear 12 1021 93 10000 1.5 160 23:40 24.02.2020
2024 Clear 12 1021 87 10000 1.5 110 23:20 24.02.2020
2025 Clear 12 1021 87 10000 2.6 140 22:39 24.02.2020
2026 Clear 11 1021 87 10000 2.6 140 22:19 24.02.2020
2027 Clear 12 1022 87 10000 1.5 110 21:57 24.02.2020
2028 Clear 12 1022 87 10000 1.5 110 21:39 24.02.2020
2029 Clear 12 1022 87 10000 1.5 120 21:19 24.02.2020
2030 Clear 12 1022 82 10000 0.5 0 20:58 24.02.2020
2031 Clear 12 1022 87 10000 1 150 20:39 24.02.2020
2032 Clear 12 1022 87 10000 1 150 20:19 24.02.2020
2033 Clouds 12 1022 82 10000 1 0 19:56 24.02.2020
2034 Clouds 12 1022 82 10000 1 0 19:38 24.02.2020
2035 Clouds 13 1022 82 10000 1.5 300 19:19 24.02.2020
2036 Clouds 13 1022 82 10000 2.6 290 18:42 24.02.2020
2037 Clouds 13 1022 82 10000 2.6 320 18:24 24.02.2020
2038 Clear 14 1022 82 10000 2.1 310 17:58 24.02.2020
2039 Clear 14 1022 82 10000 2.1 310 17:39 24.02.2020
2040 Clear 14 1022 82 10000 3.6 300 17:20 24.02.2020
2041 Clear 14 1022 82 10000 7.2 300 16:58 24.02.2020
2042 Clear 15 1022 82 10000 7.7 300 16:39 24.02.2020
2043 Clear 15 1022 82 10000 7.7 300 16:20 24.02.2020
2044 Clear 15 1022 82 10000 7.7 300 16:20 24.02.2020
2045 Clear 15 1022 82 10000 7.7 290 15:58 24.02.2020
2046 Clear 16 1022 82 10000 7.2 290 15:39 24.02.2020
2047 Clear 15 1022 82 10000 7.2 290 15:21 24.02.2020
2048 Clear 16 1022 77 10000 6.7 290 14:57 24.02.2020
2049 Clear 16 1023 82 10000 6.7 290 14:38 24.02.2020
2050 Clear 16 1023 82 10000 6.7 290 14:18 24.02.2020
2051 Clear 16 1023 82 10000 7.2 290 13:56 24.02.2020
2052 Clear 16 1023 77 10000 5.7 300 13:36 24.02.2020
2053 Clear 16 1023 77 10000 5.7 300 13:18 24.02.2020
2054 Clear 15 1024 77 10000 4.1 310 12:42 24.02.2020
2055 Clear 15 1024 72 10000 4.6 270 12:24 24.02.2020
2056 Clear 15 1024 67 10000 5.7 230 11:56 24.02.2020
2057 Clear 15 1024 67 10000 5.7 230 11:38 24.02.2020
2058 Clear 14 1024 63 10000 6.2 230 11:19 24.02.2020
2059 Clear 14 1024 67 10000 5.7 230 10:41 24.02.2020
2060 Clear 14 1024 76 10000 5.7 230 10:22 24.02.2020
2061 Clear 13 1024 76 10000 5.1 230 09:40 24.02.2020
2062 Clear 12 1024 76 10000 5.1 230 09:19 24.02.2020
2063 Clear 12 1024 71 10000 6.2 220 08:53 24.02.2020
2064 Clear 11 1024 76 10000 4.6 220 08:30 24.02.2020
2065 Clear 10 1024 81 10000 4.1 190 07:59 24.02.2020
2066 Clear 10 1024 81 10000 4.1 190 07:40 24.02.2020
2067 Clear 10 1025 76 10000 3.6 170 07:22 24.02.2020
2068 Clouds 10 1025 81 10000 3.1 170 06:33 24.02.2020
2069 Clear 9 1025 81 10000 3.1 180 05:47 24.02.2020
2070 Clear 10 1025 76 10000 3.1 200 05:27 24.02.2020
2071 Clear 10 1026 76 10000 3.1 200 03:18 24.02.2020
2072 Clear 10 1027 76 10000 2.6 210 02:45 24.02.2020
2073 Clear 10 1027 76 10000 3.6 240 01:41 24.02.2020
2074 Clear 10 1028 76 10000 5.7 230 00:52 24.02.2020
2075 Clear 10 1028 81 10000 5.1 230 00:21 24.02.2020
2076 Clear 10 1028 81 10000 3.1 210 23:58 23.02.2020
2077 Clear 10 1028 81 10000 3.1 210 23:40 23.02.2020
2078 Clouds 10 1029 81 10000 2.6 180 23:18 23.02.2020
2079 Clouds 10 1029 81 10000 2.6 180 22:54 23.02.2020
2080 Clouds 11 1030 76 10000 2.1 240 22:36 23.02.2020
2081 Clouds 11 1030 76 10000 2.1 240 22:18 23.02.2020
2082 Clouds 11 1030 82 10000 3.6 320 21:43 23.02.2020
2083 Clouds 11 1030 82 10000 3.6 320 21:19 23.02.2020
2084 Clouds 11 1030 82 10000 2.6 340 20:55 23.02.2020
2085 Clouds 11 1030 82 10000 2.6 340 20:37 23.02.2020
2086 Clouds 11 1030 76 10000 1 0 20:19 23.02.2020
2087 Clouds 12 1030 71 10000 2.1 220 19:55 23.02.2020
2088 Clouds 11 1030 76 10000 2.1 260 19:36 23.02.2020
2089 Clouds 11 1030 76 10000 2.1 260 19:18 23.02.2020
2090 Clouds 13 1030 72 10000 2.6 260 18:41 23.02.2020
2091 Clouds 13 1030 72 10000 1.5 230 18:21 23.02.2020
2092 Clouds 13 1030 72 10000 1.5 280 17:59 23.02.2020
2093 Clouds 14 1030 72 10000 1.5 280 17:41 23.02.2020
2094 Clouds 14 1030 72 10000 1.5 270 17:22 23.02.2020
2095 Clouds 14 1030 72 10000 2.1 270 16:58 23.02.2020
2096 Clouds 13 1030 72 10000 2.1 270 16:40 23.02.2020
2097 Clouds 14 1030 67 10000 2.6 280 16:21 23.02.2020
2098 Clouds 14 1031 72 10000 1.5 280 15:55 23.02.2020
2099 Clouds 14 1031 72 10000 1.5 280 15:37 23.02.2020
2100 Clouds 15 1031 67 10000 1.5 290 15:19 23.02.2020
2101 Clouds 15 1031 72 10000 1.5 250 14:55 23.02.2020
2102 Clouds 15 1031 67 10000 2.6 250 14:37 23.02.2020
2103 Clouds 15 1031 67 10000 2.6 250 14:19 23.02.2020
2104 Clouds 15 1032 63 10000 2.1 0 13:55 23.02.2020
2105 Clouds 15 1032 67 10000 1.5 230 13:37 23.02.2020
2106 Clouds 15 1032 67 10000 1.5 230 13:19 23.02.2020
2107 Clouds 15 1033 62 10000 2.1 250 12:40 23.02.2020
2108 Clouds 15 1033 62 10000 2.1 250 12:40 23.02.2020
2109 Clouds 15 1033 62 10000 2.1 250 12:21 23.02.2020
2110 Clouds 15 1033 62 10000 1.5 270 11:39 23.02.2020
2111 Clouds 14 1033 62 10000 1.5 270 11:20 23.02.2020
2112 Clouds 13 1033 62 10000 1.5 250 10:59 23.02.2020
2113 Clouds 13 1033 62 10000 1.5 260 10:41 23.02.2020
2114 Clouds 13 1033 62 10000 1.5 260 10:23 23.02.2020
2115 Clouds 13 1033 62 10000 0.5 0 09:56 23.02.2020
2116 Clouds 12 1032 66 10000 1.5 160 09:38 23.02.2020
2117 Clouds 12 1032 66 10000 1.5 160 09:19 23.02.2020
2118 Clouds 11 1032 71 10000 2.6 190 08:50 23.02.2020
2119 Clouds 10 1032 76 10000 2.6 170 08:29 23.02.2020
2120 Clouds 10 1032 76 10000 3.1 160 07:48 23.02.2020
2121 Clouds 9 1031 70 10000 2.6 150 07:30 23.02.2020
2122 Clouds 9 1031 70 10000 2.6 190 06:27 23.02.2020
2123 Clouds 9 1031 66 10000 2.1 180 05:39 23.02.2020
2124 Clear 9 1031 66 10000 2.6 210 04:24 23.02.2020
2125 Clear 9 1032 62 10000 2.1 190 02:53 23.02.2020
2126 Clear 10 1033 54 10000 1.5 140 01:47 23.02.2020
2127 Clear 9 1033 57 10000 2.6 90 01:22 23.02.2020
2128 Clear 10 1033 54 10000 2.6 90 00:45 23.02.2020
2129 Clear 10 1032 54 10000 4.6 50 00:23 23.02.2020
2130 Clear 10 1032 57 10000 3.1 70 23:43 22.02.2020
2131 Clear 9 1032 54 10000 2.6 70 23:25 22.02.2020
2132 Clear 9 1032 50 10000 2.6 70 22:46 22.02.2020
2133 Clear 9 1032 53 10000 2.6 70 22:22 22.02.2020
2134 Clear 9 1031 50 10000 3.6 70 21:59 22.02.2020
2135 Clear 9 1031 50 10000 3.6 70 21:59 22.02.2020
2136 Clear 9 1031 50 10000 3.6 70 21:39 22.02.2020
2137 Clear 10 1031 50 10000 3.6 70 21:21 22.02.2020
2138 Clear 11 1031 54 10000 4.6 70 20:41 22.02.2020
2139 Clear 11 1030 54 10000 5.7 70 20:23 22.02.2020
2140 Clear 11 1030 58 10000 7.2 70 19:43 22.02.2020
2141 Clear 12 1030 58 10000 7.2 70 19:25 22.02.2020
2142 Clear 11 1029 58 10000 7.2 70 18:59 22.02.2020
2143 Clear 12 1029 58 10000 7.2 70 18:39 22.02.2020
2144 Clear 12 1029 58 10000 6.7 60 18:20 22.02.2020
2145 Clear 12 1029 54 10000 7.2 60 17:55 22.02.2020
2146 Clear 13 1029 54 10000 7.2 60 17:37 22.02.2020
2147 Clear 13 1029 54 10000 7.2 60 17:37 22.02.2020
2148 Clear 13 1029 54 10000 7.2 60 17:37 22.02.2020
2149 Clouds 13 1029 67 10000 7.2 60 17:19 22.02.2020
2150 Clouds 13 1029 67 10000 7.2 60 16:54 22.02.2020
2151 Clouds 13 1029 67 10000 7.7 50 16:36 22.02.2020
2152 Clouds 13 1029 67 10000 7.7 50 16:18 22.02.2020
2153 Clear 14 1029 67 10000 5.7 40 15:42 22.02.2020
2154 Clear 14 1029 67 10000 5.7 40 15:22 22.02.2020
2155 Clear 14 1029 67 10000 5.1 40 14:43 22.02.2020
2156 Clear 14 1029 67 10000 4.6 50 14:22 22.02.2020
2157 Clouds 14 1029 67 10000 5.1 40 13:55 22.02.2020
2158 Clouds 14 1029 67 10000 5.1 40 13:55 22.02.2020
2159 Clouds 15 1029 67 10000 5.1 40 13:36 22.02.2020
2160 Clouds 14 1029 67 10000 5.1 40 13:18 22.02.2020
2161 Clouds 14 1029 67 10000 4.6 40 12:41 22.02.2020
2162 Clouds 15 1029 62 10000 5.1 60 12:23 22.02.2020
2163 Clouds 14 1029 62 10000 5.7 60 11:44 22.02.2020
2164 Clouds 14 1028 62 10000 5.7 70 11:26 22.02.2020
2165 Clouds 14 1028 62 10000 5.7 70 10:56 22.02.2020
2166 Clouds 14 1028 62 10000 5.7 70 10:38 22.02.2020
2167 Clouds 13 1028 58 10000 5.1 60 10:19 22.02.2020
2168 Clouds 13 1028 62 10000 5.1 80 09:56 22.02.2020
2169 Clouds 13 1028 62 10000 5.1 80 09:38 22.02.2020
2170 Clouds 12 1028 66 10000 4.6 90 09:19 22.02.2020
2171 Clouds 11 1027 66 10000 5.1 90 08:44 22.02.2020
2172 Clouds 10 1027 71 10000 5.7 80 08:26 22.02.2020
2173 Clouds 10 1027 71 10000 5.1 80 07:43 22.02.2020
2174 Clouds 9 1026 71 10000 4.6 80 07:19 22.02.2020
2175 Clouds 10 1026 76 10000 4.6 70 06:47 22.02.2020
2176 Clouds 10 1026 76 10000 4.6 70 06:26 22.02.2020
2177 Clouds 9 1025 76 10000 3.6 60 04:30 22.02.2020
2178 Clouds 9 1025 81 10000 0.5 0 02:46 22.02.2020
2179 Clouds 9 1025 81 10000 0.5 0 02:28 22.02.2020
2180 Clear 10 1025 81 10000 1.5 190 01:41 22.02.2020
2181 Clear 9 1025 81 10000 1.5 190 01:23 22.02.2020
2182 Clear 9 1025 76 10000 1.5 110 00:41 22.02.2020
2183 Clear 9 1025 76 10000 1.5 110 00:21 22.02.2020
2184 Clear 9 1028 65 0 0.89 225 23:43 21.02.2020
2185 Clear 9 1013 75 0 1.22 208 23:21 21.02.2020
2186 Clear 9 1028 76 0 2.24 225 22:45 21.02.2020
2187 Clear 10 1013 75 0 1.22 208 22:27 21.02.2020
2188 Clear 10 1013 74 0 1.22 208 21:58 21.02.2020
2189 Clear 9 1028 82 0 1.79 270 21:40 21.02.2020
2190 Clear 10 1025 76 10000 1.5 90 21:21 21.02.2020
2191 Clear 10 1025 76 10000 1.5 90 20:48 21.02.2020
2192 Clear 10 1025 76 10000 1.5 90 20:28 21.02.2020
2193 Clear 10 1025 76 10000 1.5 80 19:41 21.02.2020
2194 Clear 11 1025 71 10000 1 0 19:23 21.02.2020
2195 Clear 11 1025 71 10000 1 0 18:55 21.02.2020
2196 Clear 12 1024 71 10000 1 0 18:37 21.02.2020
2197 Clear 12 1024 71 10000 1 0 18:19 21.02.2020
2198 Clear 13 1024 67 10000 1.5 310 17:40 21.02.2020
2199 Clear 13 1024 62 10000 1.5 300 17:21 21.02.2020
2200 Clear 13 1025 62 10000 1.5 310 16:57 21.02.2020
2201 Clear 13 1025 62 10000 1.5 310 16:39 21.02.2020
2202 Clear 13 1025 67 10000 1.5 290 16:20 21.02.2020
2203 Clear 14 1025 67 10000 1.5 310 15:44 21.02.2020
2204 Clear 14 1025 67 10000 1.5 310 15:19 21.02.2020
2205 Clear 14 1025 62 10000 2.1 290 14:56 21.02.2020
2206 Clear 14 1025 67 10000 1.5 260 14:38 21.02.2020
2207 Clear 14 1025 67 10000 1.5 260 14:19 21.02.2020
2208 Clear 14 1026 67 10000 2.1 260 13:42 21.02.2020
2209 Clear 14 1026 67 10000 2.1 260 13:23 21.02.2020
2210 Clear 14 1026 62 10000 2.1 250 12:50 21.02.2020
2211 Clear 14 1026 58 10000 1.5 250 12:28 21.02.2020
2212 Clear 14 1026 62 10000 2.1 260 11:59 21.02.2020
2213 Clear 14 1026 62 10000 2.1 260 11:40 21.02.2020
2214 Clear 14 1026 62 10000 1.5 270 11:21 21.02.2020
2215 Clear 14 1026 62 10000 1.5 270 11:21 21.02.2020
2216 Clear 13 1026 67 10000 2.6 260 10:55 21.02.2020
2217 Clear 13 1026 67 10000 2.6 230 10:36 21.02.2020
2218 Clear 13 1026 67 10000 2.6 230 10:18 21.02.2020
2219 Clear 12 1025 71 10000 2.6 230 09:42 21.02.2020
2220 Clear 11 1025 71 10000 1.5 200 09:24 21.02.2020
2221 Clear 10 1025 81 10000 2.1 170 08:58 21.02.2020
2222 Clear 10 1025 81 10000 2.1 170 08:39 21.02.2020
2223 Clear 9 1025 81 10000 2.6 150 08:21 21.02.2020
2224 Clear 9 1025 81 10000 2.1 150 07:57 21.02.2020
2225 Clear 8 1024 76 10000 2.1 160 07:39 21.02.2020
2226 Clear 8 1024 76 10000 2.1 160 07:18 21.02.2020
2227 Clear 8 1024 81 10000 1.5 110 06:42 21.02.2020
2228 Clear 8 1024 81 10000 1.5 110 06:24 21.02.2020
2229 Clear 8 1024 76 10000 3.1 140 05:42 21.02.2020
2230 Clear 7 1024 76 10000 2.1 140 04:30 21.02.2020
2231 Clear 8 1024 76 10000 2.1 130 03:56 21.02.2020
2232 Clear 8 1024 76 10000 2.6 150 03:20 21.02.2020
2233 Clear 8 1025 76 10000 2.1 160 01:50 21.02.2020
2234 Clear 8 1024 71 10000 1.5 140 01:23 21.02.2020
2235 Clouds 8 1025 71 10000 2.1 50 00:40 21.02.2020
2236 Clouds 8 1025 71 10000 2.1 50 00:21 21.02.2020
2237 Clouds 9 1024 66 10000 2.1 50 23:43 20.02.2020
2238 Clouds 9 1025 66 10000 2.1 40 23:22 20.02.2020
2239 Clouds 9 1025 66 10000 2.1 40 23:22 20.02.2020
2240 Clouds 10 1024 62 10000 3.1 30 22:55 20.02.2020
2241 Clouds 9 1024 67 10000 4.1 40 22:37 20.02.2020
2242 Clouds 10 1024 67 10000 4.1 40 22:18 20.02.2020
2243 Clouds 10 1024 67 10000 4.1 30 21:54 20.02.2020
2244 Clouds 10 1024 67 10000 4.1 30 21:36 20.02.2020
2245 Clouds 10 1024 67 10000 4.1 30 21:18 20.02.2020
2246 Clouds 10 1024 67 10000 4.1 40 20:54 20.02.2020
2247 Clouds 10 1024 67 10000 4.1 30 20:36 20.02.2020
2248 Clouds 10 1024 67 10000 4.1 30 20:18 20.02.2020
2249 Clouds 10 1024 67 10000 4.6 30 19:42 20.02.2020
2250 Clouds 10 1024 67 10000 5.7 30 19:24 20.02.2020
2251 Clouds 10 1024 67 10000 5.7 30 19:24 20.02.2020
2252 Clouds 11 1023 71 10000 5.7 20 18:59 20.02.2020
2253 Clouds 11 1023 71 10000 5.7 20 18:38 20.02.2020
2254 Clouds 11 1023 71 10000 5.1 360 18:19 20.02.2020
2255 Clouds 11 1023 71 10000 5.1 360 18:19 20.02.2020
2256 Clouds 11 1023 67 10000 4.6 350 17:41 20.02.2020
2257 Clouds 12 1023 67 10000 4.6 350 17:22 20.02.2020
2258 Clouds 12 1023 67 10000 4.1 350 16:59 20.02.2020
2259 Clouds 13 1023 72 10000 4.1 350 16:40 20.02.2020
2260 Clouds 13 1023 72 10000 4.1 350 16:21 20.02.2020
2261 Clouds 13 1023 72 10000 4.6 340 15:59 20.02.2020
2262 Clouds 13 1023 72 10000 4.6 340 15:41 20.02.2020
2263 Clouds 13 1022 67 10000 4.1 350 15:20 20.02.2020
2264 Clouds 13 1022 67 10000 4.6 350 14:55 20.02.2020
2265 Clouds 13 1022 72 10000 5.1 350 14:36 20.02.2020
2266 Clouds 14 1022 72 10000 5.1 350 14:18 20.02.2020
2267 Clouds 14 1023 72 10000 4.6 340 13:44 20.02.2020
2268 Clouds 13 1023 67 10000 4.6 360 13:20 20.02.2020
2269 Clouds 13 1023 72 10000 5.1 360 12:57 20.02.2020
2270 Clouds 14 1023 67 10000 5.1 350 12:37 20.02.2020
2271 Clouds 14 1023 67 10000 5.1 350 12:19 20.02.2020
2272 Clouds 14 1023 67 10000 5.7 350 11:43 20.02.2020
2273 Clouds 13 1023 72 10000 5.7 350 11:23 20.02.2020
2274 Clouds 14 1023 72 10000 5.7 350 10:58 20.02.2020
2275 Clouds 14 1023 72 10000 5.7 350 10:40 20.02.2020
2276 Clouds 13 1023 72 10000 5.1 350 10:21 20.02.2020
2277 Clouds 13 1023 72 10000 5.1 350 10:21 20.02.2020
2278 Clouds 14 1023 67 10000 6.2 350 09:47 20.02.2020
2279 Clouds 13 1023 76 10000 6.7 350 09:25 20.02.2020
2280 Clouds 13 1022 76 10000 6.7 340 08:59 20.02.2020
2281 Clouds 13 1022 76 10000 6.7 340 08:39 20.02.2020
2282 Clouds 11 1022 76 10000 6.2 340 08:21 20.02.2020
2283 Clouds 11 1022 76 10000 6.7 340 07:45 20.02.2020
2284 Clouds 10 1021 71 10000 6.7 340 07:26 20.02.2020
2285 Clouds 11 1021 76 10000 6.7 340 06:55 20.02.2020
2286 Clouds 10 1021 76 10000 6.2 330 06:27 20.02.2020
2287 Clouds 10 1021 76 10000 5.7 340 05:47 20.02.2020
2288 Clouds 10 1021 71 10000 5.7 330 05:18 20.02.2020
2289 Clouds 10 1021 71 10000 6.2 340 04:28 20.02.2020
2290 Rain 11 1021 71 10000 6.2 340 03:40 20.02.2020
2291 Rain 10 1022 67 10000 5.7 330 02:37 20.02.2020
2292 Clear 11 1022 71 10000 6.7 340 01:21 20.02.2020
2293 Clear 11 1022 67 10000 5.1 310 00:34 20.02.2020
2294 Clouds 11 1022 77 10000 5.1 290 23:54 19.02.2020
2295 Clouds 11 1022 77 10000 5.7 270 23:24 19.02.2020
2296 Clouds 11 1021 77 10000 6.2 260 22:56 19.02.2020
2297 Clouds 11 1021 77 10000 6.2 260 22:38 19.02.2020
2298 Clouds 12 1021 67 10000 6.7 270 22:20 19.02.2020
2299 Clouds 11 1021 71 10000 6.7 260 21:56 19.02.2020
2300 Clouds 11 1021 71 10000 7.7 260 21:38 19.02.2020
2301 Clouds 11 1021 71 10000 7.7 260 21:18 19.02.2020
2302 Clouds 12 1021 71 10000 7.7 260 20:55 19.02.2020
2303 Clouds 11 1021 71 10000 6.7 240 20:36 19.02.2020
2304 Clouds 11 1021 71 10000 6.7 240 20:18 19.02.2020
2305 Clouds 11 1021 76 10000 6.7 250 19:56 19.02.2020
2306 Clouds 11 1021 76 10000 6.7 250 19:37 19.02.2020
2307 Clouds 11 1021 76 10000 6.7 270 19:18 19.02.2020
2308 Clouds 12 1021 82 10000 8.2 280 18:56 19.02.2020
2309 Clouds 11 1020 76 10000 4.6 240 18:37 19.02.2020
2310 Clouds 12 1020 76 10000 4.6 240 18:19 19.02.2020
2311 Clouds 12 1020 76 10000 4.1 240 17:42 19.02.2020
2312 Clouds 13 1021 77 10000 4.1 280 17:19 19.02.2020
2313 Clouds 13 1021 77 10000 4.1 290 16:44 19.02.2020
2314 Clouds 13 1021 77 10000 4.1 290 16:20 19.02.2020
2315 Clouds 14 1022 77 10000 4.1 290 15:59 19.02.2020
2316 Clouds 13 1022 77 10000 4.1 290 15:39 19.02.2020
2317 Clouds 14 1022 77 10000 4.1 290 15:20 19.02.2020
2318 Clouds 14 1022 77 10000 4.6 300 14:55 19.02.2020
2319 Clouds 15 1022 77 10000 4.6 310 14:37 19.02.2020
2320 Clouds 15 1022 77 10000 4.6 310 14:18 19.02.2020
2321 Clouds 15 1023 72 10000 3.1 310 13:41 19.02.2020
2322 Clouds 15 1023 72 10000 3.1 310 13:21 19.02.2020
2323 Clouds 15 1024 77 10000 2.6 310 12:42 19.02.2020
2324 Clouds 15 1024 77 10000 2.6 310 12:19 19.02.2020
2325 Clouds 15 1024 82 10000 2.1 270 11:59 19.02.2020
2326 Clouds 14 1024 76 10000 2.6 260 11:37 19.02.2020
2327 Clouds 14 1024 76 10000 2.6 260 11:19 19.02.2020
2328 Clouds 14 1023 82 10000 3.1 230 10:57 19.02.2020
2329 Clouds 14 1023 82 10000 3.1 230 10:38 19.02.2020
2330 Clouds 14 1023 76 10000 2.6 240 10:19 19.02.2020
2331 Clouds 13 1023 76 10000 2.1 230 09:57 19.02.2020
2332 Clouds 13 1023 87 10000 1.5 180 09:37 19.02.2020
2333 Clouds 12 1023 87 10000 1.5 180 09:18 19.02.2020
2334 Clouds 12 1023 87 10000 1.5 180 09:18 19.02.2020
2335 Clouds 11 1023 87 10000 2.1 160 08:44 19.02.2020
2336 Clouds 10 1023 87 10000 2.6 140 08:24 19.02.2020
2337 Clouds 9 1023 87 10000 1.5 160 07:41 19.02.2020
2338 Clouds 9 1023 87 10000 1.5 170 07:21 19.02.2020
2339 Clouds 9 1023 87 10000 1.5 170 07:21 19.02.2020
2340 Clouds 9 1023 87 10000 1.5 140 06:53 19.02.2020
2341 Clouds 9 1023 93 10000 1.5 150 06:23 19.02.2020
2342 Clouds 10 1023 87 10000 1.5 160 04:21 19.02.2020
2343 Clouds 9 1024 81 10000 1 0 02:56 19.02.2020
2344 Clouds 10 1024 81 10000 1 200 02:31 19.02.2020
2345 Clear 9 1024 76 10000 1.5 210 01:24 19.02.2020
2346 Clear 10 1024 71 10000 1 0 00:50 19.02.2020
2347 Clouds 9 1024 71 10000 2.1 70 00:30 19.02.2020
2348 Clear 10 1024 71 10000 2.1 90 23:44 18.02.2020
2349 Clear 9 1024 66 10000 3.1 80 23:21 18.02.2020
2350 Clear 9 1024 71 10000 3.1 80 22:59 18.02.2020
2351 Clear 9 1024 71 10000 3.1 80 22:41 18.02.2020
2352 Clear 9 1024 71 10000 3.1 70 22:19 18.02.2020
2353 Clear 10 1024 71 10000 3.1 90 21:56 18.02.2020
2354 Clear 10 1024 71 10000 3.1 90 21:38 18.02.2020
2355 Clear 10 1024 71 10000 3.1 90 21:19 18.02.2020
2356 Clear 10 1024 71 10000 3.6 80 20:57 18.02.2020
2357 Clear 10 1024 71 10000 3.6 70 20:38 18.02.2020
2358 Clouds 10 1024 71 10000 3.6 70 20:20 18.02.2020
2359 Clouds 10 1024 66 10000 3.6 70 19:55 18.02.2020
2360 Clouds 10 1024 71 10000 3.1 60 19:36 18.02.2020
2361 Clouds 10 1024 71 10000 3.1 60 19:18 18.02.2020
2362 Clouds 11 1024 71 10000 3.1 70 18:41 18.02.2020
2363 Clouds 11 1023 66 10000 3.6 80 18:20 18.02.2020
2364 Clouds 12 1023 62 10000 3.1 60 17:56 18.02.2020
2365 Clouds 12 1023 62 10000 3.1 60 17:38 18.02.2020
2366 Clouds 13 1023 67 10000 3.6 40 17:18 18.02.2020
2367 Clouds 13 1023 62 10000 4.1 40 16:39 18.02.2020
2368 Clouds 13 1023 62 10000 4.1 40 16:20 18.02.2020
2369 Clouds 14 1024 67 10000 4.6 30 15:41 18.02.2020
2370 Clouds 15 1024 67 10000 4.6 30 15:20 18.02.2020
2371 Clouds 15 1024 62 10000 4.6 30 14:58 18.02.2020
2372 Clouds 15 1024 67 10000 4.6 20 14:39 18.02.2020
2373 Clouds 14 1024 67 10000 4.6 20 14:21 18.02.2020
2374 Clouds 14 1025 62 10000 4.6 20 13:56 18.02.2020
2375 Clouds 15 1025 62 10000 4.6 20 13:38 18.02.2020
2376 Clouds 14 1025 62 10000 4.6 20 13:38 18.02.2020
2377 Clouds 14 1025 62 10000 4.6 20 13:19 18.02.2020
2378 Clouds 14 1025 67 10000 4.1 10 12:42 18.02.2020
2379 Clouds 14 1025 67 10000 4.1 10 12:23 18.02.2020
2380 Clouds 14 1026 67 10000 3.6 20 11:56 18.02.2020
2381 Clouds 13 1026 67 10000 3.6 20 11:37 18.02.2020
2382 Clouds 13 1026 67 10000 3.1 360 11:18 18.02.2020
2383 Clouds 13 1026 71 10000 2.1 330 10:42 18.02.2020
2384 Clouds 13 1026 71 10000 1.5 320 10:22 18.02.2020
2385 Clouds 12 1026 66 10000 0.5 0 09:56 18.02.2020
2386 Clouds 12 1026 66 10000 0.5 0 09:56 18.02.2020
2387 Clouds 12 1026 66 10000 0.5 0 09:38 18.02.2020
2388 Clouds 11 1026 66 10000 1 160 09:19 18.02.2020
2389 Clouds 10 1026 70 10000 1 230 08:55 18.02.2020
2390 Clouds 10 1025 75 10000 2.6 160 08:37 18.02.2020
2391 Clouds 9 1025 75 10000 2.6 160 08:18 18.02.2020
2392 Clouds 8 1025 70 10000 1.5 200 07:45 18.02.2020
2393 Clouds 8 1025 65 10000 0.5 0 07:25 18.02.2020
2394 Clouds 8 1025 66 10000 0.5 0 06:50 18.02.2020
2395 Clouds 8 1025 57 10000 1 150 06:28 18.02.2020
2396 Clouds 8 1025 65 10000 1.5 150 05:47 18.02.2020
2397 Clouds 8 1025 57 10000 1 180 05:18 18.02.2020
2398 Clouds 9 1026 57 10000 1 140 03:49 18.02.2020
2399 Clouds 9 1026 57 10000 0.5 0 02:58 18.02.2020
2400 Clouds 9 1026 61 10000 2.1 190 01:25 18.02.2020
2401 Clouds 9 1026 53 10000 1.5 180 00:40 18.02.2020
2402 Clouds 9 1026 61 10000 2.1 170 00:18 18.02.2020
2403 Clouds 9 1027 53 10000 1.5 160 23:39 17.02.2020
2404 Clouds 10 1027 53 10000 1.5 160 23:19 17.02.2020
2405 Clouds 10 1027 61 10000 1 0 22:58 17.02.2020
2406 Clouds 10 1027 61 10000 1 0 22:39 17.02.2020
2407 Clouds 10 1027 57 10000 1.5 160 22:18 17.02.2020
2408 Clouds 10 1027 57 10000 1.5 160 22:18 17.02.2020
2409 Clouds 10 1027 57 10000 1.5 170 21:39 17.02.2020
2410 Clouds 9 1027 57 10000 1.5 170 21:19 17.02.2020
2411 Clouds 9 1027 53 10000 2.1 160 20:55 17.02.2020
2412 Clouds 10 1027 62 10000 2.6 60 20:37 17.02.2020
2413 Clouds 10 1027 62 10000 2.6 60 20:19 17.02.2020
2414 Clouds 10 1027 71 10000 4.1 70 19:43 17.02.2020
2415 Clouds 10 1027 71 10000 4.1 70 19:43 17.02.2020
2416 Clouds 11 1027 71 10000 4.1 80 19:21 17.02.2020
2417 Clouds 10 1027 66 10000 4.1 70 18:57 17.02.2020
2418 Clouds 11 1027 62 10000 3.6 60 18:36 17.02.2020
2419 Clouds 11 1027 62 10000 3.6 60 18:18 17.02.2020
2420 Clouds 13 1027 62 10000 4.6 50 17:38 17.02.2020
2421 Clouds 13 1027 62 10000 4.6 50 17:38 17.02.2020
2422 Clear 13 1027 62 10000 4.6 50 17:20 17.02.2020
2423 Clear 13 1027 54 10000 5.1 50 16:59 17.02.2020
2424 Clear 13 1027 54 10000 5.1 50 16:59 17.02.2020
2425 Clear 14 1027 51 10000 4.6 60 16:40 17.02.2020
2426 Clear 14 1027 51 10000 4.6 60 16:22 17.02.2020
2427 Clear 15 1027 51 10000 5.1 50 15:48 17.02.2020
2428 Clear 15 1027 51 10000 5.1 50 15:29 17.02.2020
2429 Clear 15 1027 51 10000 4.6 40 14:59 17.02.2020
2430 Clear 14 1027 51 10000 4.1 40 14:41 17.02.2020
2431 Clear 14 1027 51 10000 4.1 40 14:22 17.02.2020
2432 Clear 15 1028 62 10000 3.1 30 13:57 17.02.2020
2433 Clear 15 1028 62 10000 2.6 360 13:38 17.02.2020
2434 Clear 15 1028 62 10000 2.6 360 13:19 17.02.2020
2435 Clear 15 1029 58 10000 2.1 330 12:43 17.02.2020
2436 Clear 14 1029 58 10000 2.1 300 12:25 17.02.2020
2437 Clear 14 1029 58 10000 2.1 300 11:58 17.02.2020
2438 Clear 14 1029 58 10000 2.1 300 11:39 17.02.2020
2439 Clear 14 1029 62 10000 1.5 320 11:20 17.02.2020
2440 Clear 14 1029 62 10000 1 310 10:55 17.02.2020
2441 Clear 14 1029 62 10000 1 290 10:37 17.02.2020
2442 Clear 13 1029 62 10000 1 290 10:18 17.02.2020
2443 Clear 13 1029 58 10000 0.5 0 09:41 17.02.2020
2444 Clear 12 1029 66 10000 1.5 220 09:21 17.02.2020
2445 Clear 11 1029 70 10000 2.1 140 08:58 17.02.2020
2446 Clear 10 1029 65 10000 1.5 160 08:39 17.02.2020
2447 Clear 8 1029 65 10000 1.5 160 08:20 17.02.2020
2448 Clear 8 1029 75 10000 1.5 150 07:45 17.02.2020
2449 Clear 8 1028 70 10000 1 0 07:24 17.02.2020
2450 Clear 8 1028 70 10000 2.1 160 06:52 17.02.2020
2451 Clear 8 1028 66 10000 1.5 160 06:32 17.02.2020
2452 Clear 8 1028 66 10000 1 120 05:58 17.02.2020
2453 Clear 8 1028 66 10000 1 120 05:38 17.02.2020
2454 Clear 7 1029 70 10000 1 0 03:22 17.02.2020
2455 Clear 9 1029 61 10000 1 0 01:59 17.02.2020
2456 Clear 9 1030 76 10000 2.1 140 00:51 17.02.2020
2457 Clear 9 1030 71 10000 1.5 150 00:22 17.02.2020
2458 Clear 10 1030 66 10000 1 0 23:54 16.02.2020
2459 Clear 10 1030 62 10000 0.5 0 23:33 16.02.2020
2460 Clear 10 1030 62 10000 1 0 22:58 16.02.2020
2461 Clear 9 1030 62 10000 1 0 22:39 16.02.2020
2462 Clear 9 1030 62 10000 1 0 22:39 16.02.2020
2463 Clear 10 1030 58 10000 1 270 22:21 16.02.2020
2464 Clear 10 1030 58 10000 1 270 22:21 16.02.2020
2465 Clear 10 1030 58 10000 0.5 0 21:58 16.02.2020
2466 Clear 10 1030 58 10000 0.5 0 21:40 16.02.2020
2467 Clear 11 1029 50 10000 1 0 21:22 16.02.2020
2468 Clear 10 1029 62 10000 5.1 80 20:58 16.02.2020
2469 Clear 11 1029 62 10000 5.1 80 20:40 16.02.2020
2470 Clear 10 1029 58 10000 6.2 80 20:21 16.02.2020
2471 Clear 11 1029 62 10000 6.7 70 19:58 16.02.2020
2472 Clear 10 1029 71 10000 6.2 70 19:38 16.02.2020
2473 Clear 11 1029 71 10000 6.2 70 19:19 16.02.2020
2474 Clear 12 1028 67 10000 5.7 70 18:45 16.02.2020
2475 Clear 11 1029 62 10000 5.7 70 18:26 16.02.2020
2476 Clear 12 1028 62 10000 7.2 60 17:58 16.02.2020
2477 Clear 13 1028 62 10000 7.2 60 17:40 16.02.2020
2478 Clear 13 1028 62 10000 6.7 60 17:20 16.02.2020
2479 Clear 13 1028 62 10000 6.2 60 16:56 16.02.2020
2480 Clear 14 1028 62 10000 6.2 60 16:38 16.02.2020
2481 Clear 14 1029 62 10000 6.7 50 16:19 16.02.2020
2482 Clear 15 1029 67 10000 5.7 40 15:41 16.02.2020
2483 Clear 15 1029 62 10000 5.7 50 15:41 16.02.2020
2484 Clear 15 1029 67 10000 5.7 40 15:22 16.02.2020
2485 Clear 15 1029 67 10000 4.6 30 14:57 16.02.2020
2486 Clear 15 1029 67 10000 4.6 30 14:38 16.02.2020
2487 Clear 15 1029 67 10000 4.1 20 14:19 16.02.2020
2488 Clear 15 1029 67 10000 3.6 20 13:42 16.02.2020
2489 Clear 15 1029 67 10000 2.6 320 13:23 16.02.2020
2490 Clear 15 1029 72 10000 2.6 350 12:41 16.02.2020
2491 Clear 15 1029 67 10000 2.6 360 12:20 16.02.2020
2492 Clear 15 1030 67 10000 2.1 340 11:59 16.02.2020
2493 Clear 15 1030 67 10000 2.1 340 11:37 16.02.2020
2494 Clear 14 1030 62 10000 1.5 300 11:18 16.02.2020
2495 Clear 13 1030 58 10000 2.1 260 10:56 16.02.2020
2496 Clear 13 1030 58 10000 2.1 260 10:37 16.02.2020
2497 Clear 13 1030 62 10000 1.5 250 10:19 16.02.2020
2498 Clear 12 1030 62 10000 1.5 230 09:54 16.02.2020
2499 Clear 12 1030 71 10000 1 0 09:36 16.02.2020
2500 Clear 11 1030 71 10000 1 0 09:18 16.02.2020
2501 Clear 9 1029 75 10000 1.5 200 08:41 16.02.2020
2502 Clear 8 1029 75 10000 1.5 200 08:20 16.02.2020
2503 Clear 8 1029 75 10000 1.5 200 08:20 16.02.2020
2504 Clear 9 1029 70 10000 1 0 07:49 16.02.2020
2505 Clear 7 1028 75 10000 1.5 170 07:26 16.02.2020
2506 Clear 8 1028 61 10000 0.5 0 06:33 16.02.2020
2507 Clear 7 1028 70 10000 1.5 160 04:42 16.02.2020
2508 Clear 8 1028 70 10000 2.6 150 03:25 16.02.2020
2509 Clear 8 1028 66 10000 2.1 190 02:32 16.02.2020
2510 Clear 7 1028 70 10000 1.5 190 01:42 16.02.2020
2511 Clear 8 1028 57 10000 1.5 170 01:22 16.02.2020
2512 Clear 9 1028 66 10000 2.1 170 00:53 16.02.2020
2513 Clear 8 1028 66 10000 1.5 110 00:31 16.02.2020
2514 Clear 9 1028 62 10000 1 100 23:54 15.02.2020
2515 Clear 9 1028 66 10000 2.1 90 23:36 15.02.2020
2516 Clear 10 1028 62 10000 2.6 60 23:18 15.02.2020
2517 Clear 9 1028 62 10000 2.6 60 22:41 15.02.2020
2518 Clear 10 1027 66 10000 3.1 70 22:22 15.02.2020
2519 Clear 10 1027 71 10000 2.6 70 21:59 15.02.2020
2520 Clear 10 1027 71 10000 3.1 60 21:40 15.02.2020
2521 Clear 10 1027 71 10000 3.1 60 21:21 15.02.2020
2522 Clear 10 1027 71 10000 3.1 60 20:40 15.02.2020
2523 Clear 11 1027 67 10000 4.1 40 20:21 15.02.2020
2524 Clear 11 1027 67 10000 4.1 30 19:44 15.02.2020
2525 Clear 11 1027 67 10000 3.6 40 19:44 15.02.2020
2526 Clear 11 1027 67 10000 4.1 30 19:24 15.02.2020
2527 Clear 12 1026 62 10000 3.1 20 18:55 15.02.2020
2528 Clear 12 1026 62 10000 3.1 20 18:37 15.02.2020
2529 Clear 12 1026 58 10000 4.1 20 18:18 15.02.2020
2530 Clear 13 1026 67 10000 5.1 20 17:43 15.02.2020
2531 Clear 13 1026 67 10000 5.1 20 17:22 15.02.2020
2532 Clear 14 1025 62 10000 6.2 20 16:59 15.02.2020
2533 Clear 14 1025 62 10000 5.7 30 16:39 15.02.2020
2534 Clear 14 1025 62 10000 5.7 30 16:19 15.02.2020
2535 Clear 15 1025 55 10000 4.6 30 15:43 15.02.2020
2536 Clear 15 1025 55 10000 4.6 30 15:24 15.02.2020
2537 Clear 15 1025 59 10000 4.1 30 14:45 15.02.2020
2538 Clear 15 1026 59 10000 4.1 20 14:24 15.02.2020
2539 Clear 15 1026 59 10000 4.6 30 13:58 15.02.2020
2540 Clear 15 1026 62 10000 5.1 20 13:39 15.02.2020
2541 Clear 15 1026 62 10000 5.1 20 13:20 15.02.2020
2542 Rain 15 1026 63 10000 5.1 30 12:44 15.02.2020
2543 Rain 15 1026 63 10000 5.1 30 12:26 15.02.2020
2544 Clear 15 1026 62 10000 4.6 30 11:55 15.02.2020
2545 Clear 15 1026 59 10000 4.6 60 11:36 15.02.2020
2546 Clear 15 1026 59 10000 4.6 60 11:36 15.02.2020
2547 Clear 14 1026 59 10000 4.6 60 11:18 15.02.2020
2548 Clear 14 1025 55 10000 4.6 60 10:40 15.02.2020
2549 Clear 13 1025 55 10000 4.6 60 10:21 15.02.2020
2550 Clear 13 1025 58 10000 4.1 70 09:44 15.02.2020
2551 Clear 12 1025 62 10000 3.6 70 09:25 15.02.2020
2552 Clear 11 1024 71 10000 3.1 70 08:59 15.02.2020
2553 Clear 11 1024 71 10000 3.1 70 08:59 15.02.2020
2554 Clear 11 1024 71 10000 3.1 70 08:39 15.02.2020
2555 Clouds 11 1024 76 10000 3.6 60 08:20 15.02.2020
2556 Clouds 10 1024 71 10000 3.6 60 07:41 15.02.2020
2557 Clouds 10 1023 76 10000 4.1 70 07:22 15.02.2020
2558 Clouds 10 1023 87 10000 4.6 70 06:39 15.02.2020
2559 Clouds 10 1023 87 10000 4.6 70 06:20 15.02.2020
2560 Clouds 11 1022 87 10000 5.7 30 04:52 15.02.2020
2561 Clouds 11 1022 87 10000 5.7 30 04:26 15.02.2020
2562 Clouds 11 1022 82 10000 4.6 10 02:59 15.02.2020
2563 Clouds 11 1022 82 10000 5.1 10 02:28 15.02.2020
2564 Clouds 12 1022 82 10000 5.7 10 01:59 15.02.2020
2565 Clouds 12 1022 82 10000 5.1 360 01:36 15.02.2020
2566 Clouds 11 1022 82 10000 4.1 10 00:30 15.02.2020
2567 Clouds 11 1022 77 10000 4.1 360 23:59 14.02.2020
2568 Clouds 11 1022 77 10000 4.6 360 23:38 14.02.2020
2569 Clouds 11 1022 77 10000 4.6 360 23:18 14.02.2020
2570 Clouds 12 1022 77 10000 5.1 360 22:43 14.02.2020
2571 Clouds 12 1022 77 10000 5.7 10 22:22 14.02.2020
2572 Clear 11 1021 77 10000 4.1 350 21:49 14.02.2020
2573 Clear 11 1021 77 10000 4.1 340 21:31 14.02.2020
2574 Clear 12 1021 72 10000 4.1 330 20:56 14.02.2020
2575 Clear 12 1020 72 10000 4.1 320 20:38 14.02.2020
2576 Clear 12 1020 72 10000 4.1 320 20:38 14.02.2020
2577 Clear 12 1020 72 10000 4.1 320 20:19 14.02.2020
2578 Clear 12 1020 72 10000 4.1 320 20:19 14.02.2020
2579 Clouds 12 1020 87 10000 5.1 290 19:42 14.02.2020
2580 Clouds 12 1020 87 10000 5.1 290 19:23 14.02.2020
2581 Clouds 12 1020 87 10000 4.6 290 18:58 14.02.2020
2582 Clear 12 1019 87 10000 5.7 280 18:40 14.02.2020
2583 Clear 13 1019 87 10000 5.7 280 18:20 14.02.2020
2584 Clouds 13 1019 87 10000 6.2 270 17:44 14.02.2020
2585 Clouds 13 1019 87 10000 6.2 270 17:44 14.02.2020
2586 Clouds 13 1019 87 10000 6.2 270 17:23 14.02.2020
2587 Clouds 13 1019 87 10000 6.2 270 17:23 14.02.2020
2588 Clouds 14 1019 87 10000 7.2 270 16:59 14.02.2020
2589 Clouds 13 1019 87 10000 7.2 270 16:41 14.02.2020
2590 Clouds 14 1019 87 10000 7.2 270 16:23 14.02.2020
2591 Clouds 14 1019 87 10000 6.7 260 15:56 14.02.2020
2592 Clouds 14 1019 87 10000 6.7 260 15:38 14.02.2020
2593 -273 0 0 0 0 0 15:38 14.02.2020
2594 Clouds 14 1019 82 10000 8.7 260 15:20 14.02.2020
2595 Rain 14 1019 82 10000 8.7 250 14:59 14.02.2020
2596 Rain 14 1019 82 10000 8.7 250 14:40 14.02.2020
2597 Clouds 15 1019 82 10000 10.8 260 14:22 14.02.2020
2598 Clouds 15 1019 72 10000 9.3 260 13:55 14.02.2020
2599 Clouds 15 1019 72 10000 9.3 260 13:55 14.02.2020
2600 Clouds 15 1019 72 10000 8.7 270 13:37 14.02.2020
2601 Clouds 15 1019 72 10000 8.7 270 13:19 14.02.2020
2602 Clouds 15 1019 77 10000 6.7 260 12:56 14.02.2020
2603 Clouds 16 1019 77 10000 6.7 260 12:56 14.02.2020
2604 Clouds 16 1019 67 10000 7.2 220 12:38 14.02.2020
2605 Clouds 16 1019 67 10000 7.2 220 12:38 14.02.2020
2606 Clouds 16 1019 67 10000 7.2 220 12:19 14.02.2020
2607 Clouds 16 1019 67 10000 7.7 200 11:55 14.02.2020
2608 Clouds 16 1020 67 10000 6.2 200 11:36 14.02.2020
2609 Clouds 15 1020 67 10000 6.2 200 11:18 14.02.2020
2610 Clouds 14 1020 72 10000 6.2 220 10:41 14.02.2020
2611 Clouds 14 1020 67 10000 6.7 200 10:22 14.02.2020
2612 Clouds 14 1020 72 10000 7.2 210 09:44 14.02.2020
2613 Clouds 14 1020 67 10000 6.7 210 09:23 14.02.2020
2614 Clouds 14 1020 67 10000 6.7 210 09:23 14.02.2020
2615 Clouds 13 1020 67 10000 6.7 210 08:57 14.02.2020
2616 Clear 14 1020 71 10000 6.7 200 08:39 14.02.2020
2617 Clouds 12 1020 71 10000 6.7 200 08:20 14.02.2020
2618 Clouds 12 1020 71 10000 7.2 190 07:49 14.02.2020
2619 Clouds 12 1020 71 10000 7.2 190 07:29 14.02.2020
2620 Clouds 11 1020 71 10000 7.7 190 06:39 14.02.2020
2621 Clouds 13 1020 62 10000 7.7 200 06:18 14.02.2020
2622 Clouds 11 1020 58 10000 7.7 200 05:29 14.02.2020
2623 Clouds 12 1020 47 10000 5.7 200 03:49 14.02.2020
2624 Clouds 12 1021 41 10000 5.7 200 02:58 14.02.2020
2625 Clouds 12 1021 41 10000 6.7 200 01:57 14.02.2020
2626 Clouds 13 1021 44 10000 5.1 200 00:52 14.02.2020
2627 Clouds 13 1021 44 10000 5.7 200 00:31 14.02.2020
2628 Clouds 12 1022 54 10000 4.6 210 23:57 13.02.2020
2629 Clouds 12 1022 54 10000 4.6 210 23:38 13.02.2020
2630 Clouds 12 1022 76 10000 4.1 220 23:18 13.02.2020
2631 Clouds 12 1022 81 10000 3.6 210 22:40 13.02.2020
2632 Clouds 12 1022 81 10000 3.6 210 22:19 13.02.2020
2633 Clouds 12 1022 76 10000 0.5 0 21:58 13.02.2020
2634 Clouds 12 1022 76 10000 0.5 0 21:40 13.02.2020
2635 Clouds 12 1022 76 10000 1 0 21:20 13.02.2020
2636 Clouds 12 1022 82 10000 0.5 0 20:42 13.02.2020
2637 Clouds 12 1022 82 10000 1 0 20:22 13.02.2020
2638 Clouds 13 1022 82 10000 1.5 70 19:57 13.02.2020
2639 Clouds 13 1022 82 10000 1.5 70 19:39 13.02.2020
2640 Clouds 12 1022 87 10000 2.1 60 19:20 13.02.2020
2641 Clouds 13 1022 87 10000 2.1 170 18:58 13.02.2020
2642 Clouds 13 1022 82 10000 1 0 18:39 13.02.2020
2643 Clouds 13 1022 82 10000 1 0 18:21 13.02.2020
2644 Clouds 14 1022 72 10000 1.5 70 17:57 13.02.2020
2645 Clouds 14 1022 77 10000 2.1 60 17:37 13.02.2020
2646 Clouds 14 1022 77 10000 2.1 60 17:19 13.02.2020
2647 Clouds 15 1022 77 10000 1.5 50 16:42 13.02.2020
2648 Clouds 15 1022 77 10000 1.5 60 16:21 13.02.2020
2649 Clouds 15 1022 77 10000 2.1 40 15:58 13.02.2020
2650 Clouds 15 1022 77 10000 1.5 20 15:39 13.02.2020
2651 Clouds 15 1022 77 10000 1.5 20 15:20 13.02.2020
2652 Clouds 15 1022 72 10000 1 0 14:59 13.02.2020
2653 Clouds 15 1022 72 10000 1 0 14:40 13.02.2020
2654 Clouds 15 1022 72 10000 1 0 14:40 13.02.2020
2655 Clouds 16 1022 67 10000 2.6 340 14:22 13.02.2020
2656 Clouds 16 1023 51 10000 2.1 310 13:59 13.02.2020
2657 Clouds 16 1023 51 10000 2.1 310 13:41 13.02.2020
2658 Clouds 16 1023 63 10000 1.5 350 13:18 13.02.2020
2659 Clouds 16 1023 59 10000 2.6 360 12:48 13.02.2020
2660 Clouds 17 1023 48 10000 1.5 360 12:30 13.02.2020
2661 Clouds 16 1024 59 10000 1.5 280 11:58 13.02.2020
2662 Clouds 16 1024 59 10000 1.5 280 11:40 13.02.2020
2663 Clouds 16 1024 63 10000 2.1 30 11:19 13.02.2020
2664 Clouds 15 1023 62 10000 0.5 0 10:43 13.02.2020
2665 Clouds 15 1023 54 10000 1 0 10:24 13.02.2020
2666 Clouds 14 1023 58 10000 0.5 0 09:47 13.02.2020
2667 Clouds 14 1023 54 10000 1 0 09:24 13.02.2020
2668 Clouds 13 1023 50 10000 0.5 0 08:48 13.02.2020
2669 Clouds 13 1023 57 10000 0.5 0 08:20 13.02.2020
2670 Clouds 11 1022 61 10000 1 190 07:45 13.02.2020
2671 Clouds 12 1022 57 10000 1 160 07:25 13.02.2020
2672 Clouds 11 1022 57 10000 1.5 180 06:59 13.02.2020
2673 Clouds 12 1022 62 10000 2.1 160 06:41 13.02.2020
2674 Clouds 13 1022 58 10000 2.6 180 05:58 13.02.2020
2675 Clouds 11 1022 54 10000 2.6 160 05:20 13.02.2020
2676 Clouds 11 1022 43 10000 3.6 70 04:25 13.02.2020
2677 Clouds 11 1022 57 10000 3.1 60 03:45 13.02.2020
2678 Clouds 11 1023 45 10000 2.1 190 02:59 13.02.2020
2679 Clouds 12 1023 43 10000 2.1 220 02:41 13.02.2020
2680 Clouds 11 1023 43 10000 2.1 220 02:18 13.02.2020
2681 Clouds 11 1023 50 10000 3.6 150 01:27 13.02.2020
2682 Clouds 11 1023 57 10000 2.1 190 00:32 13.02.2020
2683 Clouds 11 1023 53 10000 1 190 23:58 12.02.2020
2684 Clouds 12 1023 46 10000 1 0 23:37 12.02.2020
2685 Clouds 12 1023 46 10000 1 0 23:18 12.02.2020
2686 Clouds 12 1022 46 10000 2.1 220 22:44 12.02.2020
2687 Clouds 12 1022 47 10000 1 0 22:24 12.02.2020
2688 Clouds 12 1022 38 10000 0.5 0 21:57 12.02.2020
2689 Clouds 13 1022 38 10000 0.5 0 21:39 12.02.2020
2690 Clouds 12 1022 38 10000 0.5 0 21:19 12.02.2020
2691 Clouds 12 1022 47 10000 1.5 160 20:56 12.02.2020
2692 Clouds 12 1022 62 10000 1 0 20:37 12.02.2020
2693 Clouds 13 1022 62 10000 1 0 20:18 12.02.2020
2694 Clouds 13 1022 62 10000 1 0 20:18 12.02.2020
2695 Clouds 13 1022 82 10000 1.5 240 19:44 12.02.2020
2696 Clouds 13 1022 82 10000 1.5 240 19:23 12.02.2020
2697 Clouds 12 1022 82 10000 1.5 190 18:55 12.02.2020
2698 Clouds 13 1021 82 10000 2.1 270 18:37 12.02.2020
2699 Clouds 13 1021 82 10000 2.1 270 18:18 12.02.2020
2700 Clouds 13 1021 82 10000 3.1 290 17:42 12.02.2020
2701 Clouds 14 1021 77 10000 3.1 290 17:20 12.02.2020
2702 Clouds 14 1021 72 10000 3.1 280 16:58 12.02.2020
2703 Clouds 14 1021 72 10000 3.6 280 16:38 12.02.2020
2704 Clouds 15 1021 72 10000 3.6 280 16:18 12.02.2020
2705 Clouds 15 1021 72 10000 3.6 280 16:18 12.02.2020
2706 Clouds 15 1021 67 10000 1.5 260 15:41 12.02.2020
2707 Clouds 15 1021 67 10000 1.5 260 15:20 12.02.2020
2708 Clouds 16 1021 67 10000 3.1 240 14:57 12.02.2020
2709 Clouds 16 1021 67 10000 3.1 240 14:39 12.02.2020
2710 Clouds 16 1021 67 10000 4.1 270 14:39 12.02.2020
2711 Clouds 16 1021 67 10000 4.1 270 14:19 12.02.2020
2712 Clouds 16 1022 63 10000 3.6 280 13:56 12.02.2020
2713 Clouds 16 1022 63 10000 3.6 280 13:56 12.02.2020
2714 Clouds 16 1022 55 10000 2.6 260 13:37 12.02.2020
2715 Clouds 16 1022 55 10000 2.6 260 13:19 12.02.2020
2716 Clouds 16 1022 59 10000 3.1 260 12:56 12.02.2020
2717 Clouds 16 1022 59 10000 3.1 260 12:37 12.02.2020
2718 Clouds 17 1022 52 10000 2.6 240 12:18 12.02.2020
2719 Clouds 16 1022 59 10000 2.6 230 11:55 12.02.2020
2720 Clouds 17 1022 59 10000 2.6 230 11:37 12.02.2020
2721 Clouds 16 1022 59 10000 4.1 220 11:19 12.02.2020
2722 Clouds 15 1022 59 10000 4.1 220 10:54 12.02.2020
2723 Clouds 15 1022 59 10000 3.6 210 10:36 12.02.2020
2724 Clouds 15 1022 59 10000 3.6 210 10:18 12.02.2020
2725 Clouds 15 1022 59 10000 3.6 210 10:18 12.02.2020
2726 Clouds 15 1021 63 10000 3.1 230 09:40 12.02.2020
2727 Clouds 15 1021 63 10000 4.6 200 09:21 12.02.2020
2728 Clouds 15 1021 67 10000 4.1 220 08:57 12.02.2020
2729 Clouds 15 1021 67 10000 4.1 160 08:37 12.02.2020
2730 Clear 13 1021 67 10000 4.1 160 08:19 12.02.2020
2731 Clear 12 1020 71 10000 3.1 210 07:44 12.02.2020
2732 Clear 12 1020 76 10000 5.1 250 07:23 12.02.2020
2733 Clear 13 1020 62 10000 3.1 190 06:53 12.02.2020
2734 Clear 12 1020 62 10000 3.1 200 06:21 12.02.2020
2735 Clear 12 1019 62 10000 4.6 240 05:37 12.02.2020
2736 Clear 12 1019 62 10000 4.6 220 04:57 12.02.2020
2737 Clear 13 1020 63 10000 5.1 220 04:39 12.02.2020
2738 Clear 12 1020 63 10000 4.6 190 03:33 12.02.2020
2739 Clear 12 1020 63 10000 5.7 200 02:58 12.02.2020
2740 Clear 12 1020 72 10000 5.7 210 02:29 12.02.2020
2741 Clouds 14 1020 67 10000 6.2 210 01:50 12.02.2020
2742 Clear 13 1020 59 10000 5.7 200 00:45 12.02.2020
2743 Clear 13 1020 59 10000 5.7 200 00:26 12.02.2020
2744 Clear 13 1020 67 10000 5.7 200 23:56 11.02.2020
2745 Clear 14 1020 72 10000 9.8 220 23:38 11.02.2020
2746 Clouds 13 1020 72 10000 9.8 220 23:20 11.02.2020
2747 Clouds 13 1019 67 10000 10.3 220 22:55 11.02.2020
2748 Clouds 13 1019 63 10000 9.8 210 22:37 11.02.2020
2749 Clouds 13 1019 63 10000 9.8 210 22:37 11.02.2020
2750 Clouds 13 1019 63 10000 9.8 210 22:18 11.02.2020
2751 Clouds 13 1019 67 10000 8.2 210 21:55 11.02.2020
2752 Clouds 13 1019 67 10000 7.7 210 21:37 11.02.2020
2753 Clouds 13 1019 67 10000 7.7 210 21:18 11.02.2020
2754 Clouds 13 1019 67 10000 7.7 210 21:18 11.02.2020
2755 Clouds 13 1019 67 10000 7.7 210 21:18 11.02.2020
2756 Clouds 13 1020 67 10000 6.7 210 20:54 11.02.2020
2757 Clouds 14 1020 63 10000 5.1 200 20:36 11.02.2020
2758 Clear 13 1020 63 10000 5.1 200 20:18 11.02.2020
2759 Clear 13 1020 67 10000 4.1 230 19:42 11.02.2020
2760 Clear 14 1020 67 10000 4.1 230 19:23 11.02.2020
2761 Clear 14 1020 59 10000 3.6 220 18:56 11.02.2020
2762 Clear 14 1020 63 10000 3.6 250 18:37 11.02.2020
2763 Clear 14 1020 63 10000 3.6 250 18:19 11.02.2020
2764 Clear 14 1020 63 10000 3.6 230 17:55 11.02.2020
2765 Clear 14 1019 63 10000 4.6 230 17:36 11.02.2020
2766 Clear 15 1019 63 10000 4.6 230 17:18 11.02.2020
2767 Clear 16 1020 63 10000 4.6 240 16:55 11.02.2020
2768 Clear 16 1020 63 10000 5.7 250 16:37 11.02.2020
2769 Clear 16 1020 63 10000 5.7 250 16:19 11.02.2020
2770 Clear 16 1020 67 10000 7.7 260 15:43 11.02.2020
2771 Clear 16 1020 67 10000 8.2 260 15:24 11.02.2020
2772 Clear 17 1020 72 10000 8.7 260 14:55 11.02.2020
2773 Clear 16 1021 72 10000 7.7 270 14:36 11.02.2020
2774 Clouds 17 1021 72 10000 7.7 270 14:18 11.02.2020
2775 Clouds 17 1021 72 10000 7.7 270 13:41 11.02.2020
2776 Clouds 17 1021 63 10000 8.2 240 13:21 11.02.2020
2777 Clouds 17 1021 63 10000 7.2 250 12:58 11.02.2020
2778 Clouds 17 1022 59 10000 5.7 230 12:40 11.02.2020
2779 Clouds 17 1022 59 10000 5.7 230 12:20 11.02.2020
2780 Clouds 17 1022 63 10000 7.2 220 11:42 11.02.2020
2781 Clear 16 1022 63 10000 8.2 210 11:21 11.02.2020
2782 Clear 16 1022 59 10000 7.2 210 10:58 11.02.2020
2783 Clear 16 1022 59 10000 7.2 210 10:39 11.02.2020
2784 Clear 15 1021 63 10000 8.2 200 10:20 11.02.2020
2785 Clear 15 1021 55 10000 7.2 210 09:56 11.02.2020
2786 Clear 16 1021 55 10000 7.2 210 09:38 11.02.2020
2787 Clear 15 1021 59 10000 7.2 210 09:19 11.02.2020
2788 Clear 13 1021 59 10000 8.7 210 08:46 11.02.2020
2789 Clear 13 1021 59 10000 8.2 200 08:24 11.02.2020
2790 Clear 13 1021 62 10000 7.7 200 07:48 11.02.2020
2791 Clear 13 1021 62 10000 7.2 200 07:26 11.02.2020
2792 Clear 13 1021 62 10000 7.2 200 06:44 11.02.2020
2793 Clear 12 1021 62 10000 6.7 200 06:22 11.02.2020
2794 Clear 13 1021 55 10000 8.2 200 05:58 11.02.2020
2795 Clear 12 1021 55 10000 6.7 200 05:26 11.02.2020
2796 Clear 12 1022 55 10000 7.2 200 04:52 11.02.2020
2797 Rain 12 1023 51 10000 7.7 210 03:26 11.02.2020
2798 Clear 11 1023 54 0 4.02 198 02:33 11.02.2020
2799 Clouds 12 1025 62 10000 5.7 200 01:39 11.02.2020
2800 Clouds 12 1025 62 10000 5.7 200 00:43 11.02.2020
2801 Clouds 11 1025 62 10000 6.7 200 00:22 11.02.2020
2802 Clouds 12 1025 62 10000 6.7 200 23:39 10.02.2020
2803 Clear 12 1025 58 10000 7.2 200 23:20 10.02.2020
2804 Clear 12 1025 55 10000 7.2 200 22:42 10.02.2020
2805 Rain 12 1025 55 10000 6.7 200 22:21 10.02.2020
2806 Clear 12 1025 55 10000 7.2 200 21:57 10.02.2020
2807 Rain 12 1025 62 10000 7.2 200 21:39 10.02.2020
2808 Rain 12 1025 62 10000 7.2 200 21:21 10.02.2020
2809 Clear 12 1026 62 10000 7.7 200 20:54 10.02.2020
2810 Rain 12 1026 62 10000 7.2 210 20:36 10.02.2020
2811 Rain 12 1026 62 10000 7.2 210 20:18 10.02.2020
2812 Clouds 12 1026 62 10000 6.7 200 19:56 10.02.2020
2813 Clouds 12 1026 67 10000 7.7 210 19:36 10.02.2020
2814 Clouds 12 1026 67 10000 7.7 210 19:18 10.02.2020
2815 Clouds 13 1026 67 10000 7.7 220 18:55 10.02.2020
2816 Clouds 14 1026 63 10000 7.7 220 18:37 10.02.2020
2817 Clouds 13 1026 63 10000 7.7 220 18:37 10.02.2020
2818 Clouds 13 1026 63 10000 7.7 220 18:18 10.02.2020
2819 Rain 14 1027 63 10000 6.7 210 17:40 10.02.2020
2820 Rain 14 1027 63 10000 6.7 210 17:22 10.02.2020
2821 Clouds 14 1027 59 10000 6.2 220 16:59 10.02.2020
2822 Clouds 14 1027 55 10000 5.1 220 16:40 10.02.2020
2823 Clouds 15 1027 55 10000 5.1 220 16:20 10.02.2020
2824 Clouds 14 1028 59 10000 4.6 240 15:58 10.02.2020
2825 Clouds 14 1028 63 10000 6.2 250 15:39 10.02.2020
2826 Clouds 14 1028 59 10000 4.6 240 15:39 10.02.2020
2827 Clouds 15 1028 63 10000 6.2 250 15:21 10.02.2020
2828 Clouds 16 1028 63 10000 6.7 270 14:57 10.02.2020
2829 Clouds 15 1028 63 10000 6.7 270 14:39 10.02.2020
2830 Clouds 16 1029 63 10000 6.2 270 14:19 10.02.2020
2831 Clouds 15 1029 67 10000 5.1 270 13:44 10.02.2020
2832 Clouds 15 1029 67 10000 5.7 260 13:25 10.02.2020
2833 Clouds 16 1029 59 10000 7.7 220 12:57 10.02.2020
2834 Clouds 16 1030 55 10000 7.7 220 12:38 10.02.2020
2835 Clouds 16 1030 55 10000 7.7 220 12:20 10.02.2020
2836 Clouds 16 1030 59 10000 6.7 220 11:45 10.02.2020
2837 Clouds 14 1030 67 10000 7.7 220 11:21 10.02.2020
2838 Clouds 14 1030 67 10000 7.2 210 10:49 10.02.2020
2839 Clouds 13 1030 67 10000 6.7 200 10:31 10.02.2020
2840 Clouds 13 1031 72 10000 6.2 200 09:56 10.02.2020
2841 Clouds 12 1031 72 10000 5.7 210 09:37 10.02.2020
2842 Clouds 12 1031 72 10000 5.7 210 09:37 10.02.2020
2843 Clouds 12 1031 72 10000 5.7 210 09:18 10.02.2020
2844 Clouds 11 1031 71 10000 5.7 200 08:40 10.02.2020
2845 Clouds 11 1031 76 10000 5.7 200 08:21 10.02.2020
2846 Clouds 11 1030 76 10000 5.7 200 07:55 10.02.2020
2847 Clouds 11 1030 76 10000 6.7 190 07:35 10.02.2020
2848 Clouds 11 1031 71 10000 6.7 190 06:50 10.02.2020
2849 Clear 11 1030 71 10000 7.7 190 05:35 10.02.2020
2850 Clear 9 1031 66 10000 6.7 190 03:55 10.02.2020
2851 Clear 10 1031 66 10000 6.7 200 03:22 10.02.2020
2852 Clear 10 1032 66 10000 6.7 190 02:44 10.02.2020
2853 Clear 10 1032 62 10000 6.7 180 01:25 10.02.2020
2854 Clear 9 1032 58 10000 6.2 180 00:40 10.02.2020
2855 Clear 9 1032 66 10000 6.7 190 00:22 10.02.2020
2856 Clear 9 1032 58 10000 4.1 170 23:42 09.02.2020
2857 Clear 9 1032 62 10000 4.1 180 23:23 09.02.2020
2858 Clear 9 1033 71 10000 4.6 180 22:45 09.02.2020
2859 Clear 9 1033 71 10000 4.6 180 22:23 09.02.2020
2860 Clear 9 1033 71 10000 4.6 180 21:59 09.02.2020
2861 Clear 9 1033 71 10000 5.1 190 21:40 09.02.2020
2862 Clear 9 1033 71 10000 5.1 190 21:21 09.02.2020
2863 Clear 9 1033 66 10000 4.6 190 20:45 09.02.2020
2864 Clear 10 1033 71 10000 4.1 200 20:22 09.02.2020
2865 Clouds 9 1033 71 10000 4.6 200 19:55 09.02.2020
2866 Clouds 10 1032 71 10000 4.1 200 19:37 09.02.2020
2867 Clouds 10 1032 71 10000 4.1 200 19:18 09.02.2020
2868 Clouds 11 1032 71 10000 4.6 210 18:42 09.02.2020
2869 Clouds 11 1032 71 10000 3.6 220 18:23 09.02.2020
2870 Clouds 11 1032 67 10000 3.1 60 17:58 09.02.2020
2871 Clouds 11 1032 67 10000 3.1 60 17:39 09.02.2020
2872 Clouds 12 1032 71 10000 3.6 60 17:21 09.02.2020
2873 Clouds 12 1032 71 10000 3.6 60 16:41 09.02.2020
2874 Clouds 13 1032 71 10000 3.6 50 16:22 09.02.2020
2875 Clouds 13 1032 62 10000 3.6 70 15:58 09.02.2020
2876 Clouds 13 1032 62 10000 3.6 70 15:40 09.02.2020
2877 Clouds 14 1032 62 10000 4.1 70 15:21 09.02.2020
2878 Clouds 14 1032 62 10000 4.1 60 14:56 09.02.2020
2879 Clouds 14 1032 62 10000 4.1 80 14:37 09.02.2020
2880 Clouds 14 1032 62 10000 4.1 80 14:19 09.02.2020
2881 Clear 13 1032 67 10000 2.1 30 13:43 09.02.2020
2882 Clear 13 1032 67 10000 2.1 20 13:25 09.02.2020
2883 Clear 13 1032 62 10000 2.1 30 12:55 09.02.2020
2884 Clear 13 1033 67 10000 2.1 30 12:37 09.02.2020
2885 Clear 13 1033 67 10000 2.1 30 12:18 09.02.2020
2886 Clear 13 1033 67 10000 2.6 30 11:40 09.02.2020
2887 Clouds 13 1033 67 10000 1.5 360 11:20 09.02.2020
2888 Clouds 12 1033 67 10000 1 0 10:57 09.02.2020
2889 Clouds 12 1033 67 10000 1 0 10:38 09.02.2020
2890 Clouds 12 1033 67 10000 1 0 10:38 09.02.2020
2891 Clouds 11 1032 71 10000 1 0 10:19 09.02.2020
2892 Clouds 11 1032 71 10000 1 0 09:41 09.02.2020
2893 Clouds 10 1032 71 10000 2.6 120 09:21 09.02.2020
2894 Clouds 8 1032 81 10000 2.6 140 08:45 09.02.2020
2895 Clouds 7 1032 81 10000 2.6 150 08:26 09.02.2020
2896 Clouds 7 1031 87 10000 2.1 150 07:58 09.02.2020
2897 Clouds 6 1031 81 10000 2.6 160 07:34 09.02.2020
2898 Clouds 7 1031 81 10000 3.1 180 06:46 09.02.2020
2899 Clouds 7 1031 75 10000 1.5 170 05:59 09.02.2020
2900 Clouds 7 1031 87 10000 1.5 180 05:37 09.02.2020
2901 Clouds 7 1031 87 10000 1.5 180 05:18 09.02.2020
2902 Clouds 7 1030 75 10000 1.5 160 03:52 09.02.2020
2903 Clouds 6 1030 81 10000 1 0 02:44 09.02.2020
2904 Clouds 7 1030 81 10000 1 150 02:25 09.02.2020
2905 Clouds 6 1030 75 10000 2.1 200 01:35 09.02.2020
2906 Clear 6 1030 75 10000 2.6 210 00:42 09.02.2020
2907 Clear 7 1030 75 10000 3.1 130 00:23 09.02.2020
2908 Clear 6 1030 75 10000 2.1 190 23:42 08.02.2020
2909 Clear 7 1030 75 10000 2.1 190 23:20 08.02.2020
2910 Clear 7 1030 66 10000 2.1 190 22:42 08.02.2020
2911 Clear 7 1030 70 10000 2.6 190 22:21 08.02.2020
2912 Clear 8 1030 70 10000 2.6 200 21:58 08.02.2020
2913 Clear 8 1029 70 10000 3.1 180 21:40 08.02.2020
2914 Clear 8 1029 70 10000 3.1 180 21:20 08.02.2020
2915 Clear 9 1029 66 10000 3.1 180 20:56 08.02.2020
2916 Clear 9 1029 66 10000 3.1 180 20:56 08.02.2020
2917 Clear 8 1029 66 10000 4.1 210 20:38 08.02.2020
2918 Clear 8 1029 66 10000 4.1 210 20:19 08.02.2020
2919 Clear 8 1029 70 10000 3.6 190 19:55 08.02.2020
2920 Clear 8 1028 70 10000 3.1 180 19:36 08.02.2020
2921 Clear 9 1028 70 10000 3.1 180 19:18 08.02.2020
2922 Clear 10 1028 66 10000 3.1 200 18:43 08.02.2020
2923 Clear 10 1028 62 10000 2.1 120 18:23 08.02.2020
2924 Clear 10 1028 66 10000 3.1 80 17:43 08.02.2020
2925 Clear 11 1028 62 10000 3.1 80 17:21 08.02.2020
2926 Clear 12 1027 58 10000 4.6 60 16:59 08.02.2020
2927 Clear 12 1027 58 10000 4.6 70 16:39 08.02.2020
2928 Clear 13 1027 58 10000 4.6 70 16:21 08.02.2020
2929 Clear 12 1027 58 10000 4.6 70 16:21 08.02.2020
2930 Clear 13 1027 50 10000 4.6 50 15:43 08.02.2020
2931 Clear 13 1028 54 10000 4.1 40 15:19 08.02.2020
2932 Clear 13 1028 50 10000 3.1 40 14:59 08.02.2020
2933 Clear 13 1028 50 10000 3.1 40 14:40 08.02.2020
2934 Clear 13 1028 41 10000 3.1 20 14:19 08.02.2020
2935 Clear 13 1028 41 10000 2.6 30 13:43 08.02.2020
2936 Clear 13 1028 44 10000 2.1 20 13:23 08.02.2020
2937 Clear 13 1028 44 10000 1.5 350 12:57 08.02.2020
2938 Clear 12 1029 43 10000 1.5 350 12:37 08.02.2020
2939 Clear 12 1029 43 10000 1.5 350 12:19 08.02.2020
2940 Clear 12 1029 43 10000 1 260 11:43 08.02.2020
2941 Clear 12 1029 43 10000 1 260 11:22 08.02.2020
2942 Clear 11 1029 50 10000 1 270 10:57 08.02.2020
2943 Clear 11 1029 50 10000 1 270 10:38 08.02.2020
2944 Clear 11 1028 50 10000 1 0 10:20 08.02.2020
2945 Clear 10 1028 50 10000 1 0 09:49 08.02.2020
2946 Clear 10 1028 50 10000 1 160 09:24 08.02.2020
2947 Clear 9 1028 49 10000 1.5 160 08:46 08.02.2020
2948 Clear 7 1028 60 10000 1.5 180 08:24 08.02.2020
2949 Clear 6 1027 69 10000 1 190 07:53 08.02.2020
2950 Clear 6 1027 65 10000 2.1 210 07:34 08.02.2020
2951 Clear 6 1027 58 10000 2.6 210 06:54 08.02.2020
2952 Clear 5 1027 58 10000 1.5 180 06:21 08.02.2020
2953 Clear 6 1026 58 10000 2.1 160 05:33 08.02.2020
2954 Clear 6 1026 70 10000 1 0 04:54 08.02.2020
2955 Clear 6 1027 65 10000 2.1 150 04:24 08.02.2020
2956 Clear 6 1027 56 10000 2.1 170 03:37 08.02.2020
2957 Clear 6 1027 66 10000 2.1 100 02:29 08.02.2020
2958 Clear 6 1027 66 10000 2.1 100 02:29 08.02.2020
2959 Clear 6 1027 66 10000 2.6 150 01:33 08.02.2020
2960 Clear 6 1027 70 10000 1.5 150 00:47 08.02.2020
2961 Clear 6 1027 70 10000 2.1 110 00:25 08.02.2020
2962 Clear 6 1027 63 10000 1.5 90 23:58 07.02.2020
2963 Clear 6 1027 63 10000 1.5 90 23:39 07.02.2020
2964 Clear 6 1027 71 10000 1.5 70 23:20 07.02.2020
2965 Clear 7 1027 71 10000 1 140 22:42 07.02.2020
2966 Clear 7 1027 71 10000 1 140 22:42 07.02.2020
2967 Clear 6 1027 52 10000 2.1 160 22:20 07.02.2020
2968 Clear 6 1027 71 10000 2.6 160 21:58 07.02.2020
2969 Clear 6 1027 53 10000 2.6 70 21:40 07.02.2020
2970 Clear 7 1027 53 10000 2.6 70 21:19 07.02.2020
2971 Clear 7 1027 57 10000 4.6 80 20:39 07.02.2020
2972 Clear 8 1027 57 10000 4.6 80 20:20 07.02.2020
2973 Clear 7 1026 61 10000 4.6 70 19:55 07.02.2020
2974 Clear 7 1026 61 10000 4.1 80 19:37 07.02.2020
2975 Clear 7 1026 61 10000 4.1 80 19:18 07.02.2020
2976 Clear 7 1026 57 10000 4.1 70 18:44 07.02.2020
2977 Clear 7 1026 53 10000 4.6 70 18:44 07.02.2020
2978 Clear 8 1026 53 10000 4.6 70 18:25 07.02.2020
2979 Clear 9 1026 50 10000 4.6 60 17:55 07.02.2020
2980 Clear 9 1026 50 10000 4.6 40 17:37 07.02.2020
2981 Clear 10 1026 50 10000 4.6 40 17:19 07.02.2020
2982 Clear 10 1026 54 10000 4.6 40 16:43 07.02.2020
2983 Clear 11 1026 50 10000 4.1 30 16:23 07.02.2020
2984 Clear 11 1026 50 10000 4.1 40 15:54 07.02.2020
2985 Clear 12 1026 50 10000 4.1 30 15:28 07.02.2020
2986 Clear 12 1026 50 10000 3.6 30 14:56 07.02.2020
2987 Clear 12 1026 47 10000 3.1 30 14:38 07.02.2020
2988 Clear 12 1026 47 10000 3.1 30 14:38 07.02.2020
2989 Clear 12 1026 47 10000 3.1 30 14:19 07.02.2020
2990 Clear 11 1027 47 10000 3.6 20 13:56 07.02.2020
2991 Clear 11 1027 47 10000 3.6 20 13:38 07.02.2020
2992 Clear 11 1027 47 10000 2.6 20 13:19 07.02.2020
2993 Clear 12 1027 47 10000 3.1 30 12:42 07.02.2020
2994 Clear 11 1028 46 10000 3.1 40 12:23 07.02.2020
2995 Clear 11 1028 50 10000 2.6 40 11:45 07.02.2020
2996 Clear 10 1028 46 10000 2.1 40 11:24 07.02.2020
2997 Clear 10 1028 55 10000 3.1 50 10:58 07.02.2020
2998 Clear 10 1028 55 10000 3.1 50 10:39 07.02.2020
2999 Clear 10 1028 46 10000 4.1 50 10:20 07.02.2020
3000 Clear 9 1028 46 10000 3.1 80 09:45 07.02.2020
3001 Clear 9 1028 50 10000 3.6 70 09:25 07.02.2020
3002 Clear 8 1027 55 10000 3.1 70 08:57 07.02.2020
3003 Clear 7 1027 55 10000 3.6 60 08:36 07.02.2020
3004 Clear 7 1027 72 10000 3.6 60 08:18 07.02.2020
3005 Clear 6 1027 49 10000 4.1 60 07:40 07.02.2020
3006 Clear 7 1027 72 10000 5.1 40 07:19 07.02.2020
3007 Clear 6 1027 53 10000 5.1 50 06:42 07.02.2020
3008 Clouds 6 1026 50 10000 5.7 40 06:22 07.02.2020
3009 Clouds 7 1026 50 10000 5.7 30 05:43 07.02.2020
3010 Clouds 7 1027 76 10000 5.1 20 03:55 07.02.2020
3011 Clouds 7 1026 50 10000 5.1 50 02:24 07.02.2020
3012 Clouds 6 1027 72 10000 5.7 50 01:22 07.02.2020
3013 Clouds 7 1027 50 10000 6.2 50 00:37 07.02.2020
3014 Clouds 7 1026 50 10000 6.7 50 23:39 06.02.2020
3015 Clouds 7 1026 50 10000 6.7 40 23:21 06.02.2020
3016 Clouds 7 1026 73 10000 5.1 50 22:58 06.02.2020
3017 Clouds 7 1026 53 10000 5.7 50 22:40 06.02.2020
3018 Clouds 7 1026 53 10000 5.7 50 22:21 06.02.2020
3019 Clouds 7 1026 53 10000 5.7 40 21:37 06.02.2020
3020 Clouds 7 1026 53 10000 5.7 40 21:19 06.02.2020
3021 Clouds 6 1025 46 10000 5.1 60 20:56 06.02.2020
3022 Clouds 6 1025 50 10000 6.7 30 20:37 06.02.2020
3023 Clouds 7 1025 50 10000 6.7 30 20:18 06.02.2020
3024 Clouds 7 1025 50 10000 8.2 30 19:57 06.02.2020
3025 Clouds 7 1025 50 10000 7.7 20 19:39 06.02.2020
3026 Clouds 7 1025 50 10000 7.7 20 19:20 06.02.2020
3027 Clouds 7 1024 53 10000 6.7 40 18:57 06.02.2020
3028 Clouds 7 1024 50 10000 7.7 20 18:38 06.02.2020
3029 Clouds 8 1024 50 10000 7.7 20 18:19 06.02.2020
3030 Clouds 7 1023 50 10000 8.2 20 17:42 06.02.2020
3031 Clouds 8 1023 53 10000 6.7 20 17:21 06.02.2020
3032 Clouds 8 1023 50 10000 6.7 30 16:54 06.02.2020
3033 Clouds 8 1023 53 10000 7.2 40 16:36 06.02.2020
3034 Clouds 8 1023 53 10000 7.2 40 16:18 06.02.2020
3035 Clouds 8 1023 50 10000 8.2 50 15:41 06.02.2020
3036 Clouds 9 1022 53 10000 9.3 40 15:21 06.02.2020
3037 Clouds 9 1022 53 10000 8.7 40 14:47 06.02.2020
3038 Clouds 10 1022 54 10000 8.7 40 14:26 06.02.2020
3039 Clouds 9 1022 53 10000 8.7 40 13:54 06.02.2020
3040 Clouds 9 1022 46 10000 9.3 30 13:36 06.02.2020
3041 Clouds 9 1022 46 10000 9.3 30 13:18 06.02.2020
3042 Rain 9 1022 50 10000 10.3 40 12:43 06.02.2020
3043 Rain 9 1021 58 10000 10.8 30 12:18 06.02.2020
3044 Clouds 8 1020 54 10000 10.8 30 11:56 06.02.2020
3045 Clouds 8 1020 54 10000 10.8 30 11:37 06.02.2020
3046 Clouds 9 1020 54 10000 10.8 30 11:18 06.02.2020
3047 Clouds 9 1020 58 10000 9.8 30 10:54 06.02.2020
3048 Clouds 9 1020 54 10000 10.8 20 10:36 06.02.2020
3049 Clouds 9 1020 54 10000 10.8 20 10:18 06.02.2020
3050 Clouds 8 1019 54 10000 8.7 40 09:42 06.02.2020
3051 Rain 8 1019 54 10000 8.7 40 09:20 06.02.2020
3052 Rain 8 1019 54 10000 9.8 30 08:47 06.02.2020
3053 Rain 8 1019 54 10000 9.8 30 08:47 06.02.2020
3054 Clouds 8 1018 54 10000 9.3 30 08:25 06.02.2020
3055 Rain 8 1018 54 10000 7.7 350 07:58 06.02.2020
3056 Rain 7 1018 54 10000 6.2 10 07:33 06.02.2020
3057 Clouds 7 1018 57 10000 5.7 20 06:59 06.02.2020
3058 Rain 7 1017 62 10000 11.8 360 06:21 06.02.2020
3059 Clouds 7 1017 54 10000 12.3 30 05:41 06.02.2020
3060 Rain 6 1017 70 10000 3.6 70 04:18 06.02.2020
3061 Rain 7 1016 58 10000 9.8 40 03:18 06.02.2020
3062 Clouds 7 1016 50 10000 10.8 20 02:25 06.02.2020
3063 Clouds 8 1016 54 10000 10.8 30 01:25 06.02.2020
3064 Thunderstorm 7 1016 58 10000 7.7 350 00:42 06.02.2020
3065 Thunderstorm 7 1016 58 10000 7.7 350 00:21 06.02.2020
3066 Rain 7 1015 58 10000 10.8 340 23:43 05.02.2020
3067 Clouds 8 1016 66 10000 12.9 350 23:24 05.02.2020
3068 Clouds 8 1015 54 10000 10.8 30 22:57 05.02.2020
3069 Clouds 7 1015 70 10000 4.6 70 22:38 05.02.2020
3070 Clouds 7 1015 70 10000 4.6 70 22:20 05.02.2020
3071 Rain 7 1015 87 7000 8.7 40 21:41 05.02.2020
3072 Rain 8 1014 54 10000 7.7 30 21:23 05.02.2020
3073 Clouds 8 1014 54 10000 10.3 350 20:56 05.02.2020
3074 Thunderstorm 9 1014 47 10000 14.4 350 20:38 05.02.2020
3075 Thunderstorm 8 1014 47 10000 14.4 350 20:18 05.02.2020
3076 Thunderstorm 9 1014 71 10000 13.9 360 19:55 05.02.2020
3077 Thunderstorm 9 1014 43 10000 10.3 340 19:37 05.02.2020
3078 Thunderstorm 9 1014 43 10000 10.3 340 19:18 05.02.2020
3079 Clouds 11 1014 47 10000 10.8 350 18:43 05.02.2020
3080 Clouds 10 1014 47 10000 10.8 350 18:21 05.02.2020
3081 Clouds 10 1014 47 10000 10.8 350 18:21 05.02.2020
3082 Clouds 10 1013 47 10000 10.8 360 17:58 05.02.2020
3083 Clouds 11 1013 47 10000 10.8 10 17:37 05.02.2020
3084 Clouds 10 1013 47 10000 10.8 10 17:18 05.02.2020
3085 Clouds 11 1013 50 10000 11.8 20 16:43 05.02.2020
3086 Clouds 11 1013 50 10000 12.9 360 16:25 05.02.2020
3087 Clouds 12 1013 50 10000 12.9 10 15:59 05.02.2020
3088 Clouds 12 1013 50 10000 12.9 10 15:40 05.02.2020
3089 Clouds 12 1013 43 10000 14.4 10 15:18 05.02.2020
3090 Clouds 12 1013 47 10000 14.4 350 14:43 05.02.2020
3091 Clouds 11 1013 47 10000 14.4 350 14:25 05.02.2020
3092 Clouds 11 1013 50 10000 13.4 350 13:59 05.02.2020
3093 Clouds 11 1013 47 10000 12.9 350 13:39 05.02.2020
3094 Clouds 11 1013 47 10000 12.9 350 13:19 05.02.2020
3095 Clouds 11 1014 47 10000 13.9 350 12:43 05.02.2020
3096 Clouds 11 1014 50 10000 13.9 350 12:43 05.02.2020
3097 Clouds 11 1014 50 10000 13.9 350 12:24 05.02.2020
3098 Rain 10 1014 50 10000 13.4 350 11:57 05.02.2020
3099 Rain 11 1014 50 10000 13.9 350 11:38 05.02.2020
3100 Clouds 11 1014 50 10000 13.9 350 11:19 05.02.2020
3101 Clouds 11 1013 47 10000 14.4 350 10:42 05.02.2020
3102 Clouds 11 1013 47 10000 14.9 340 10:24 05.02.2020
3103 Clouds 11 1012 50 10000 14.4 340 09:58 05.02.2020
3104 Clouds 11 1012 47 10000 14.9 350 09:37 05.02.2020
3105 Clouds 11 1012 47 10000 14.9 350 09:19 05.02.2020
3106 Clouds 10 1012 50 10000 13.4 350 08:43 05.02.2020
3107 Rain 10 1012 47 10000 12.9 340 08:23 05.02.2020
3108 Clouds 9 1011 54 10000 11.8 340 07:54 05.02.2020
3109 Rain 8 1011 71 10000 5.1 360 07:33 05.02.2020
3110 Clouds 9 1011 76 10000 7.7 20 06:50 05.02.2020
3111 Clouds 9 1011 76 10000 10.3 30 06:23 05.02.2020
3112 Clouds 9 1011 58 10000 13.4 360 05:54 05.02.2020
3113 Rain 9 1011 54 10000 15.9 350 05:19 05.02.2020
3114 Rain 10 1011 47 10000 15.4 340 04:45 05.02.2020
3115 Rain 10 1010 44 10000 15.9 340 03:52 05.02.2020
3116 Clouds 11 1010 50 10000 13.9 350 02:26 05.02.2020
3117 Clear 11 1010 62 10000 8.7 340 01:46 05.02.2020
3118 Clouds 11 1010 62 10000 13.9 320 00:43 05.02.2020
3119 Clouds 11 1010 62 10000 12.3 310 23:57 04.02.2020
3120 Clouds 12 1010 58 10000 12.9 310 23:38 04.02.2020
3121 Clouds 12 1010 58 10000 12.9 310 23:18 04.02.2020
3122 Rain 12 1010 67 10000 12.3 310 22:54 04.02.2020
3123 Clear 13 1009 72 10000 11.8 270 22:36 04.02.2020
3124 Clear 14 1009 72 10000 11.8 270 22:18 04.02.2020
3125 Clear 14 1008 63 10000 12.3 250 21:41 04.02.2020
3126 Clear 14 1008 63 10000 14.9 270 21:41 04.02.2020
3127 Clear 15 1008 63 10000 12.3 250 21:19 04.02.2020
3128 Clear 15 1009 59 10000 8.7 210 20:59 04.02.2020
3129 Rain 15 1009 59 10000 8.7 210 20:41 04.02.2020
3130 Rain 15 1009 59 10000 8.7 210 20:20 04.02.2020
3131 Clouds 15 1010 72 10000 6.7 220 19:57 04.02.2020
3132 Rain 15 1010 72 10000 6.7 220 19:39 04.02.2020
3133 Rain 15 1010 72 10000 6.7 220 19:21 04.02.2020
3134 Rain 15 1010 72 10000 11.3 250 18:55 04.02.2020
3135 Rain 16 1010 72 10000 11.3 250 18:37 04.02.2020
3136 Rain 15 1010 72 10000 11.3 250 18:18 04.02.2020
3137 Clouds 15 1010 72 10000 8.2 250 17:42 04.02.2020
3138 Clouds 16 1010 72 10000 8.2 250 17:21 04.02.2020
3139 Clouds 17 1011 63 10000 8.2 220 16:55 04.02.2020
3140 Clouds 17 1011 63 10000 8.2 220 16:36 04.02.2020
3141 Clouds 17 1011 63 10000 8.2 220 16:18 04.02.2020
3142 Clouds 16 1012 72 10000 7.7 270 15:55 04.02.2020
3143 Clouds 15 1012 72 10000 7.7 270 15:37 04.02.2020
3144 Clouds 16 1012 72 10000 7.7 270 15:18 04.02.2020
3145 Clouds 18 1013 49 10000 6.7 230 14:42 04.02.2020
3146 Rain 20 1013 49 10000 6.7 230 14:23 04.02.2020
3147 Clear 20 1013 52 10000 7.2 230 13:57 04.02.2020
3148 Rain 20 1014 56 10000 7.2 230 13:39 04.02.2020
3149 Clear 20 1014 56 10000 7.2 230 13:19 04.02.2020
3150 Rain 20 1015 49 10000 6.2 230 12:44 04.02.2020
3151 Clear 19 1016 52 10000 6.2 210 12:25 04.02.2020
3152 Clear 19 1016 52 10000 6.7 220 11:58 04.02.2020
3153 Clear 19 1017 55 10000 5.7 220 11:39 04.02.2020
3154 Clear 18 1017 55 10000 5.7 220 11:21 04.02.2020
3155 Clear 18 1017 59 10000 4.6 220 10:55 04.02.2020
3156 Clear 18 1018 63 10000 5.1 220 10:36 04.02.2020
3157 Clear 18 1018 63 10000 5.1 220 10:18 04.02.2020
3158 Clear 17 1018 77 10000 6.2 210 09:40 04.02.2020
3159 Clear 17 1018 82 10000 5.7 250 09:22 04.02.2020
3160 Clear 16 1017 76 10000 3.1 230 08:50 04.02.2020
3161 Clear 15 1018 82 10000 4.1 230 08:28 04.02.2020
3162 Clear 15 1018 82 10000 4.1 230 08:28 04.02.2020
3163 Clear 15 1018 82 10000 3.6 210 07:58 04.02.2020
3164 Clear 14 1018 76 10000 3.1 200 07:39 04.02.2020
3165 Clear 14 1018 76 10000 3.1 200 07:21 04.02.2020
3166 Clear 14 1018 76 10000 2.6 200 06:42 04.02.2020
3167 Clear 13 1019 82 10000 3.1 220 05:40 04.02.2020
3168 Clear 13 1019 82 10000 3.1 220 05:22 04.02.2020
3169 Clear 14 1019 82 10000 3.1 190 03:50 04.02.2020
3170 Clear 14 1019 82 10000 3.6 210 03:31 04.02.2020
3171 Clear 13 1019 87 10000 3.1 210 02:51 04.02.2020
3172 Clear 14 1019 87 10000 3.1 220 02:28 04.02.2020
3173 Clouds 14 1020 87 10000 4.1 220 01:50 04.02.2020
3174 Clouds 14 1020 87 10000 4.6 230 01:32 04.02.2020
3175 Clouds 14 1020 82 10000 3.6 220 00:27 04.02.2020
3176 Clouds 14 1020 82 10000 3.1 200 23:57 03.02.2020
3177 Clouds 14 1020 82 10000 3.1 200 23:57 03.02.2020
3178 Clouds 14 1020 82 10000 3.1 200 23:38 03.02.2020
3179 Clouds 14 1020 77 10000 4.6 190 23:19 03.02.2020
3180 Clouds 14 1020 77 10000 3.6 200 22:39 03.02.2020
3181 Clouds 13 1020 77 10000 3.6 200 22:20 03.02.2020
3182 Clouds 13 1021 77 10000 2.6 190 21:43 03.02.2020
3183 Clouds 14 1020 77 10000 3.1 200 21:20 03.02.2020
3184 Clouds 14 1020 77 10000 3.1 210 20:59 03.02.2020
3185 Clouds 14 1020 82 10000 4.1 220 20:40 03.02.2020
3186 Clouds 14 1020 82 10000 4.1 220 20:18 03.02.2020
3187 Clouds 14 1020 87 10000 3.6 220 19:56 03.02.2020
3188 Clouds 14 1020 87 10000 3.1 250 19:38 03.02.2020
3189 Clouds 14 1020 87 10000 3.1 250 19:18 03.02.2020
3190 Clouds 14 1020 87 10000 3.1 250 19:18 03.02.2020
3191 Clouds 15 1020 82 10000 4.1 260 18:43 03.02.2020
3192 Clouds 15 1020 82 10000 1.5 220 18:24 03.02.2020
3193 Clouds 15 1020 72 10000 2.1 220 17:58 03.02.2020
3194 Clouds 15 1020 72 10000 2.1 220 17:39 03.02.2020
3195 Clouds 16 1020 77 10000 3.6 230 17:20 03.02.2020
3196 Clouds 17 1020 77 10000 4.6 250 16:54 03.02.2020
3197 Clouds 17 1020 87 10000 3.6 260 16:36 03.02.2020
3198 Clouds 17 1020 87 10000 3.6 260 16:18 03.02.2020
3199 Clouds 17 1020 77 10000 2.1 270 15:54 03.02.2020
3200 Clouds 17 1020 77 10000 3.6 270 15:36 03.02.2020
3201 Clouds 18 1020 77 10000 3.6 270 15:36 03.02.2020
3202 Clouds 18 1020 77 10000 3.6 270 15:18 03.02.2020
3203 Clouds 17 1020 77 10000 3.6 260 14:39 03.02.2020
3204 Clouds 18 1020 68 10000 2.6 240 14:21 03.02.2020
3205 Clouds 19 1021 68 10000 4.1 230 13:55 03.02.2020
3206 Clouds 18 1021 68 10000 4.1 230 13:36 03.02.2020
3207 Clouds 19 1021 68 10000 4.1 230 13:18 03.02.2020
3208 Clouds 18 1022 63 10000 4.6 220 12:40 03.02.2020
3209 Clouds 18 1022 63 10000 5.1 220 12:21 03.02.2020
3210 Clouds 18 1022 63 10000 5.1 210 11:58 03.02.2020
3211 Clouds 18 1022 68 10000 5.7 210 11:37 03.02.2020
3212 Clouds 17 1022 68 10000 5.7 210 11:18 03.02.2020
3213 Clouds 17 1023 72 10000 5.1 220 10:41 03.02.2020
3214 Clouds 16 1022 68 10000 5.1 210 10:23 03.02.2020
3215 Clouds 15 1022 67 10000 5.1 210 09:49 03.02.2020
3216 Clouds 15 1022 72 10000 4.1 230 09:27 03.02.2020
3217 Clouds 14 1022 67 10000 4.1 210 08:58 03.02.2020
3218 Clouds 14 1022 67 10000 4.1 210 08:40 03.02.2020
3219 Clouds 14 1022 67 10000 4.1 210 08:40 03.02.2020
3220 Clouds 13 1022 72 10000 3.6 210 08:21 03.02.2020
3221 Clouds 14 1022 67 10000 3.1 210 07:41 03.02.2020
3222 Clouds 13 1022 67 10000 3.6 220 07:21 03.02.2020
3223 Clouds 13 1022 72 10000 3.6 220 06:55 03.02.2020
3224 Clouds 13 1022 77 10000 4.6 220 06:30 03.02.2020
3225 Clouds 13 1022 67 10000 4.1 210 05:48 03.02.2020
3226 Clouds 13 1022 77 10000 4.6 220 05:30 03.02.2020
3227 Clouds 14 1022 67 10000 3.6 210 04:30 03.02.2020
3228 Clouds 14 1023 63 10000 3.6 190 02:38 03.02.2020
3229 Clear 14 1023 63 10000 3.6 190 02:18 03.02.2020
3230 Clear 13 1024 71 10000 4.1 220 00:48 03.02.2020
3231 Clear 12 1024 82 10000 3.6 210 00:25 03.02.2020
3232 Clear 11 1024 82 10000 4.1 230 23:40 02.02.2020
3233 Clouds 11 1024 81 10000 3.1 220 23:22 02.02.2020
3234 Clouds 12 1024 81 10000 2.6 210 22:58 02.02.2020
3235 Clouds 12 1024 81 10000 2.6 210 22:39 02.02.2020
3236 Clouds 11 1025 81 10000 2.6 200 22:21 02.02.2020
3237 Clouds 11 1025 81 10000 2.6 200 22:21 02.02.2020
3238 Clouds 11 1025 81 10000 2.6 200 22:21 02.02.2020
3239 Clouds 11 1025 71 10000 2.1 180 21:57 02.02.2020
3240 Clouds 11 1025 76 10000 1.5 180 21:38 02.02.2020
3241 Clouds 12 1025 76 10000 1.5 180 21:20 02.02.2020
3242 Clouds 12 1024 82 10000 1.5 190 20:57 02.02.2020
3243 Clouds 12 1024 82 10000 1.5 190 20:57 02.02.2020
3244 Clouds 12 1024 82 10000 1.5 190 20:39 02.02.2020
3245 Clouds 12 1024 82 10000 2.1 180 20:20 02.02.2020
3246 Clouds 12 1024 87 10000 2.1 160 19:56 02.02.2020
3247 Clouds 12 1024 87 10000 2.1 160 19:38 02.02.2020
3248 Clouds 13 1024 87 10000 1 0 19:19 02.02.2020
3249 Clouds 12 1024 87 10000 1 0 18:55 02.02.2020
3250 Clouds 12 1024 82 10000 1.5 150 18:36 02.02.2020
3251 Clouds 13 1024 87 10000 2.6 310 18:18 02.02.2020
3252 Clouds 13 1024 87 10000 2.6 310 17:56 02.02.2020
3253 Clouds 13 1024 87 10000 2.6 310 17:37 02.02.2020
3254 Clouds 13 1023 87 10000 4.6 300 17:18 02.02.2020
3255 Clouds 13 1023 87 10000 5.1 300 16:56 02.02.2020
3256 Clouds 14 1023 87 10000 5.7 290 16:37 02.02.2020
3257 Clouds 14 1023 87 10000 5.7 290 16:18 02.02.2020
3258 Clear 15 1023 82 10000 7.2 290 15:40 02.02.2020
3259 Clear 15 1023 82 10000 7.2 290 15:20 02.02.2020
3260 Clear 15 1023 82 10000 7.2 290 15:20 02.02.2020
3261 Clear 15 1023 82 10000 5.7 290 14:59 02.02.2020
3262 Clear 15 1023 82 10000 5.7 290 14:41 02.02.2020
3263 Clouds 15 1023 82 10000 3.6 270 14:18 02.02.2020
3264 Clouds 16 1023 77 10000 3.6 290 13:58 02.02.2020
3265 Clouds 16 1024 77 10000 3.6 260 13:37 02.02.2020
3266 Clouds 16 1024 77 10000 3.6 260 13:19 02.02.2020
3267 Clouds 16 1024 67 10000 4.1 230 12:46 02.02.2020
3268 Clouds 16 1024 67 10000 4.1 220 12:23 02.02.2020
3269 Clouds 15 1024 72 10000 4.6 220 11:59 02.02.2020
3270 Clouds 15 1024 72 10000 4.1 230 11:41 02.02.2020
3271 Clouds 15 1024 72 10000 4.1 230 11:19 02.02.2020
3272 Clouds 15 1024 72 10000 4.1 220 10:56 02.02.2020
3273 Clouds 14 1024 72 10000 3.6 220 10:37 02.02.2020
3274 Clouds 14 1024 72 10000 3.6 220 10:19 02.02.2020
3275 Clouds 14 1023 77 10000 3.1 210 09:56 02.02.2020
3276 Clouds 13 1023 82 10000 3.1 190 09:38 02.02.2020
3277 Clouds 13 1023 82 10000 3.1 190 09:19 02.02.2020
3278 Clouds 12 1023 81 10000 3.1 190 08:43 02.02.2020
3279 Clouds 12 1023 81 10000 3.1 190 08:24 02.02.2020
3280 Clouds 11 1022 87 10000 3.6 210 07:47 02.02.2020
3281 Clouds 11 1022 81 10000 3.1 200 07:28 02.02.2020
3282 Clouds 11 1022 82 10000 3.1 190 06:44 02.02.2020
3283 Clouds 11 1022 82 10000 3.1 190 06:26 02.02.2020
3284 Clouds 11 1022 82 10000 3.1 180 05:47 02.02.2020
3285 Clouds 11 1022 82 10000 2.6 190 04:48 02.02.2020
3286 Clouds 12 1022 82 10000 3.1 180 03:26 02.02.2020
3287 Clouds 11 1022 87 10000 3.6 220 02:33 02.02.2020
3288 Clouds 11 1022 87 10000 2.1 180 01:55 02.02.2020
3289 Clouds 10 1022 87 10000 2.1 180 01:55 02.02.2020
3290 Clouds 11 1022 82 10000 2.1 220 01:23 02.02.2020
3291 Clouds 11 1022 87 10000 2.6 220 00:44 02.02.2020
3292 Clouds 11 1022 87 10000 3.6 250 00:22 02.02.2020
3293 Clouds 12 1022 82 10000 3.6 240 23:47 01.02.2020
3294 Clouds 12 1022 82 10000 3.6 240 23:23 01.02.2020
3295 Clouds 12 1022 82 10000 5.1 250 22:59 01.02.2020
3296 Clouds 12 1022 82 10000 5.1 250 22:41 01.02.2020
3297 Clouds 12 1022 82 10000 5.1 250 22:18 01.02.2020
3298 Clouds 12 1023 82 10000 7.2 280 21:39 01.02.2020
3299 Clouds 13 1023 82 10000 7.2 280 21:18 01.02.2020
3300 Clouds 13 1022 87 10000 6.2 280 20:41 01.02.2020
3301 Clouds 13 1022 87 10000 6.2 280 20:20 01.02.2020
3302 Clouds 12 1022 87 10000 5.1 280 19:57 01.02.2020
3303 Clouds 13 1022 87 10000 5.1 280 19:39 01.02.2020
3304 Clouds 13 1022 87 10000 2.1 240 19:20 01.02.2020
3305 Clouds 13 1022 87 10000 3.6 270 18:58 01.02.2020
3306 Clouds 13 1021 87 10000 1 0 18:40 01.02.2020
3307 Clouds 12 1021 87 10000 1 0 18:22 01.02.2020
3308 Clouds 13 1021 87 10000 2.6 280 17:58 01.02.2020
3309 Clouds 13 1021 87 10000 3.1 290 17:39 01.02.2020
3310 Clouds 13 1021 87 10000 3.1 290 17:20 01.02.2020
3311 Clouds 13 1021 87 10000 3.6 290 16:56 01.02.2020
3312 Clouds 14 1021 87 10000 3.6 290 16:38 01.02.2020
3313 Clouds 14 1021 87 10000 4.1 300 16:19 01.02.2020
3314 Clouds 14 1021 77 10000 4.1 290 15:41 01.02.2020
3315 Clouds 14 1021 77 10000 4.1 290 15:22 01.02.2020
3316 Clouds 15 1021 77 10000 3.1 280 14:54 01.02.2020
3317 Clouds 15 1021 77 10000 3.6 280 14:36 01.02.2020
3318 Clouds 15 1021 77 10000 3.6 280 14:18 01.02.2020
3319 Clouds 15 1021 77 10000 3.6 260 13:42 01.02.2020
3320 Clouds 15 1021 82 10000 4.6 250 13:18 01.02.2020
3321 Clouds 15 1021 77 10000 4.1 240 12:43 01.02.2020
3322 Clouds 15 1022 77 10000 4.6 240 12:24 01.02.2020
3323 Clouds 14 1022 72 10000 4.1 230 11:56 01.02.2020
3324 Clouds 14 1022 67 10000 4.1 210 11:37 01.02.2020
3325 Clouds 14 1022 67 10000 4.1 210 11:18 01.02.2020
3326 Clouds 14 1022 72 10000 3.6 220 10:55 01.02.2020
3327 Clouds 13 1022 72 10000 0.5 0 10:37 01.02.2020
3328 Clouds 13 1022 72 10000 0.5 0 10:18 01.02.2020
3329 Clouds 13 1022 77 10000 1 0 09:41 01.02.2020
3330 Clouds 13 1022 76 10000 0.5 0 09:41 01.02.2020
3331 Clouds 12 1022 76 10000 0.5 0 09:23 01.02.2020
3332 Clouds 12 1022 71 10000 2.6 160 08:59 01.02.2020
3333 Clouds 11 1022 76 10000 3.1 160 08:36 01.02.2020
3334 Clouds 11 1022 76 10000 2.6 160 07:46 01.02.2020
3335 Clouds 11 1021 76 10000 3.1 180 07:25 01.02.2020
3336 Clouds 11 1021 82 10000 3.1 180 06:50 01.02.2020
3337 Clouds 11 1021 82 10000 3.1 180 06:50 01.02.2020
3338 Clear 11 1021 81 10000 3.1 180 06:19 01.02.2020
3339 Clear 10 1021 76 10000 3.1 170 05:50 01.02.2020
3340 Clear 11 1021 76 10000 3.1 170 03:40 01.02.2020
3341 Clear 10 1022 76 10000 2.6 170 03:20 01.02.2020
3342 Clear 11 1022 71 10000 2.6 190 02:41 01.02.2020
3343 Clear 10 1022 76 10000 2.1 160 02:22 01.02.2020
3344 Clear 10 1022 81 10000 3.1 170 01:48 01.02.2020
3345 Clear 10 1021 76 10000 2.1 190 01:28 01.02.2020
3346 Clear 11 1022 81 10000 1.5 170 00:25 01.02.2020
3347 Clear 11 1022 81 10000 4.1 210 23:42 31.01.2020
3348 Clouds 10 1022 81 10000 4.1 210 23:19 31.01.2020
3349 Clouds 11 1022 82 10000 2.1 240 22:58 31.01.2020
3350 Clouds 11 1022 82 10000 2.1 240 22:58 31.01.2020
3351 Clouds 11 1022 82 10000 2.1 240 22:40 31.01.2020
3352 Clouds 11 1022 76 10000 1 180 22:21 31.01.2020
3353 Clouds 11 1022 76 10000 1.5 150 21:55 31.01.2020
3354 Clouds 11 1022 76 10000 1.5 150 21:37 31.01.2020
3355 Clouds 11 1022 76 10000 1 180 21:19 31.01.2020
3356 Clouds 11 1022 87 10000 1.5 120 20:56 31.01.2020
3357 Clouds 12 1022 82 10000 1.5 120 20:37 31.01.2020
3358 Clouds 12 1022 82 10000 1.5 120 20:18 31.01.2020
3359 Clouds 11 1022 87 10000 2.6 90 19:55 31.01.2020
3360 Clouds 12 1022 87 10000 3.1 80 19:36 31.01.2020
3361 Clouds 12 1022 87 10000 3.1 80 19:18 31.01.2020
3362 Clouds 12 1021 87 10000 3.1 80 18:39 31.01.2020
3363 Clouds 12 1021 82 10000 3.1 60 18:21 31.01.2020
3364 Clouds 13 1021 82 10000 3.6 70 17:46 31.01.2020
3365 Clouds 13 1021 82 10000 2.1 60 17:28 31.01.2020
3366 Clouds 14 1021 82 10000 1.5 330 16:59 31.01.2020
3367 Clouds 14 1021 82 10000 1.5 330 16:39 31.01.2020
3368 Clouds 15 1021 82 10000 4.6 310 16:19 31.01.2020
3369 Clouds 15 1021 82 10000 4.1 320 15:58 31.01.2020
3370 Clouds 15 1021 82 10000 4.1 320 15:58 31.01.2020
3371 Clouds 14 1021 72 10000 3.1 240 15:40 31.01.2020
3372 Clouds 15 1021 72 10000 3.1 240 15:20 31.01.2020
3373 Clouds 15 1021 63 10000 4.6 220 14:45 31.01.2020
3374 Clouds 16 1021 63 10000 4.1 220 14:25 31.01.2020
3375 Clouds 16 1022 67 10000 5.1 210 13:57 31.01.2020
3376 Clouds 15 1022 67 10000 4.6 200 13:38 31.01.2020
3377 Clouds 15 1022 67 10000 4.6 200 13:20 31.01.2020
3378 Clouds 15 1023 67 10000 5.1 200 12:45 31.01.2020
3379 Clouds 15 1023 67 10000 5.1 190 12:24 31.01.2020
3380 Clouds 14 1023 72 10000 5.1 200 11:55 31.01.2020
3381 Clouds 14 1023 72 10000 5.1 210 11:37 31.01.2020
3382 Clouds 14 1023 72 10000 5.1 210 11:19 31.01.2020
3383 Clouds 14 1023 72 10000 5.1 200 10:44 31.01.2020
3384 Clouds 14 1023 72 10000 5.1 200 10:44 31.01.2020
3385 Clouds 14 1023 72 10000 5.1 200 10:23 31.01.2020
3386 Clouds 13 1023 77 10000 4.1 200 09:59 31.01.2020
3387 Clouds 13 1023 77 10000 4.1 200 09:41 31.01.2020
3388 Clouds 13 1023 77 10000 4.1 200 09:41 31.01.2020
3389 Clouds 13 1023 77 10000 4.6 200 09:21 31.01.2020
3390 Clouds 12 1023 82 10000 4.6 200 08:54 31.01.2020
3391 Clouds 12 1023 82 10000 4.6 200 08:54 31.01.2020
3392 Clouds 12 1022 76 10000 3.1 180 08:28 31.01.2020
3393 Clouds 11 1022 76 10000 3.1 180 07:59 31.01.2020
3394 Clouds 11 1022 76 10000 3.6 170 07:40 31.01.2020
3395 Clouds 11 1022 76 10000 3.6 170 07:18 31.01.2020
3396 Clouds 11 1022 76 10000 3.6 180 06:27 31.01.2020
3397 Clouds 11 1022 76 10000 3.6 180 05:53 31.01.2020
3398 Clear 11 1022 81 10000 3.6 180 05:18 31.01.2020
3399 Clear 10 1023 81 10000 3.6 180 03:47 31.01.2020
3400 Clouds 10 1023 76 10000 2.6 200 01:44 31.01.2020
3401 Clouds 10 1023 76 10000 2.1 190 00:47 31.01.2020
3402 Clouds 10 1023 71 10000 2.6 170 00:29 31.01.2020
3403 Clouds 10 1023 76 10000 3.6 160 23:58 30.01.2020
3404 Clouds 10 1023 76 10000 2.6 190 23:39 30.01.2020
3405 Clouds 10 1023 76 10000 2.6 190 23:20 30.01.2020
3406 Clouds 9 1024 76 10000 3.6 150 22:38 30.01.2020
3407 Clouds 9 1024 76 10000 3.6 150 22:19 30.01.2020
3408 Clouds 10 1024 81 10000 3.6 150 21:57 30.01.2020
3409 Clouds 9 1024 76 10000 2.6 150 21:39 30.01.2020
3410 Clouds 9 1024 76 10000 2.6 150 21:18 30.01.2020
3411 Clouds 9 1024 76 10000 2.6 150 21:18 30.01.2020
3412 Clouds 9 1024 76 10000 2.1 160 20:55 30.01.2020
3413 Clouds 9 1023 81 10000 1.5 140 20:37 30.01.2020
3414 Clouds 9 1023 81 10000 1.5 140 20:18 30.01.2020
3415 Clouds 10 1023 71 10000 1 130 19:42 30.01.2020
3416 Clouds 10 1023 71 10000 1 130 19:19 30.01.2020
3417 Clouds 10 1023 76 10000 1.5 310 18:42 30.01.2020
3418 Clouds 11 1022 71 10000 1.5 320 18:24 30.01.2020
3419 Clouds 12 1022 67 10000 1.5 330 17:59 30.01.2020
3420 Clouds 12 1022 67 10000 1.5 330 17:40 30.01.2020
3421 Clear 12 1028 72 0 1.27 45 17:19 30.01.2020
3422 Clear 13 1022 72 10000 2.1 350 16:58 30.01.2020
3423 Clear 14 1022 72 10000 2.1 350 16:39 30.01.2020
3424 Clear 14 1022 67 10000 2.6 360 16:20 30.01.2020
3425 Clear 14 1022 67 10000 2.6 350 15:44 30.01.2020
3426 Clear 15 1022 72 10000 2.1 320 15:21 30.01.2020
3427 Clear 15 1022 72 10000 2.1 320 15:21 30.01.2020
3428 Clear 15 1022 72 10000 2.1 320 14:57 30.01.2020
3429 Clear 15 1022 72 10000 2.6 330 14:37 30.01.2020
3430 Clear 15 1022 72 10000 2.6 330 14:19 30.01.2020
3431 Clear 15 1023 72 10000 2.6 310 13:41 30.01.2020
3432 Clouds 15 1023 67 10000 2.1 310 13:22 30.01.2020
3433 Clouds 15 1023 72 10000 2.6 290 12:55 30.01.2020
3434 Clouds 14 1023 72 10000 2.6 260 12:37 30.01.2020
3435 Clouds 14 1023 72 10000 2.6 260 12:18 30.01.2020
3436 Clouds 14 1023 72 10000 3.1 250 11:41 30.01.2020
3437 Clouds 14 1023 72 10000 3.1 250 11:22 30.01.2020
3438 Clouds 14 1023 72 10000 2.1 230 10:58 30.01.2020
3439 Clouds 13 1023 67 10000 3.1 200 10:39 30.01.2020
3440 Clouds 13 1023 67 10000 3.1 200 10:20 30.01.2020
3441 Clouds 13 1023 71 10000 2.1 210 09:45 30.01.2020
3442 Clouds 12 1023 76 10000 1.5 180 09:24 30.01.2020
3443 Clouds 11 1022 72 10000 2.6 270 08:42 30.01.2020
3444 Clouds 10 1022 71 10000 4.1 280 08:22 30.01.2020
3445 Clouds 10 1022 76 10000 3.6 270 07:58 30.01.2020
3446 Clouds 10 1021 76 10000 4.1 270 07:39 30.01.2020
3447 Clouds 10 1021 76 10000 4.1 270 07:18 30.01.2020
3448 Clouds 11 1021 76 10000 4.1 270 06:43 30.01.2020
3449 Clouds 11 1021 72 10000 4.6 280 06:25 30.01.2020
3450 Clouds 11 1021 72 10000 5.7 280 05:29 30.01.2020
3451 Clouds 11 1021 72 10000 6.7 270 04:57 30.01.2020
3452 Clouds 12 1021 72 10000 7.2 260 03:48 30.01.2020
3453 Clouds 12 1021 72 10000 7.7 270 02:59 30.01.2020
3454 Clouds 11 1021 72 10000 7.7 260 01:30 30.01.2020
3455 Clouds 12 1020 77 10000 9.8 260 00:37 30.01.2020
3456 Clouds 12 1020 77 10000 9.8 260 00:18 30.01.2020
3457 Clouds 12 1020 77 10000 9.3 260 23:43 29.01.2020
3458 Clouds 12 1020 77 10000 8.2 250 23:20 29.01.2020
3459 Clouds 12 1020 77 10000 10.8 260 22:56 29.01.2020
3460 Clouds 12 1020 77 10000 10.8 260 22:56 29.01.2020
3461 Clouds 12 1020 82 10000 10.8 260 22:37 29.01.2020
3462 Clouds 13 1020 82 10000 10.8 260 22:18 29.01.2020
3463 Clouds 13 1020 72 10000 9.8 260 21:54 29.01.2020
3464 Clouds 13 1020 82 10000 7.7 250 21:36 29.01.2020
3465 Clouds 13 1020 82 10000 7.7 250 21:18 29.01.2020
3466 Clouds 13 1020 82 10000 7.7 240 20:54 29.01.2020
3467 Clouds 13 1019 82 10000 9.3 250 20:36 29.01.2020
3468 Clouds 13 1019 82 10000 9.3 250 20:18 29.01.2020
3469 Clouds 13 1019 82 10000 6.7 250 19:54 29.01.2020
3470 Clouds 13 1019 77 10000 7.2 240 19:36 29.01.2020
3471 Clouds 13 1019 77 10000 7.2 240 19:18 29.01.2020
3472 Clouds 14 1019 82 10000 7.2 250 18:38 29.01.2020
3473 Clouds 13 1019 77 10000 5.7 230 18:19 29.01.2020
3474 Clouds 13 1019 77 10000 7.2 240 17:41 29.01.2020
3475 Clouds 14 1019 77 10000 7.2 250 17:23 29.01.2020
3476 Clouds 14 1018 77 10000 7.7 250 16:55 29.01.2020
3477 Clouds 14 1018 77 10000 7.7 240 16:37 29.01.2020
3478 Clouds 14 1018 77 10000 7.7 240 16:19 29.01.2020
3479 Clouds 14 1018 77 10000 7.7 240 16:19 29.01.2020
3480 Clouds 15 1018 77 10000 7.2 240 15:39 29.01.2020
3481 Clouds 15 1018 77 10000 7.2 240 15:21 29.01.2020
3482 Clouds 15 1018 67 10000 6.2 230 14:55 29.01.2020
3483 Clouds 15 1019 67 10000 6.7 230 14:37 29.01.2020
3484 Clouds 16 1019 67 10000 6.7 230 14:18 29.01.2020
3485 Clouds 15 1019 72 10000 7.7 240 13:40 29.01.2020
3486 Clouds 16 1019 72 10000 7.7 240 13:22 29.01.2020
3487 Clouds 15 1020 77 10000 6.7 250 12:56 29.01.2020
3488 Clouds 15 1020 72 10000 6.7 240 12:38 29.01.2020
3489 Clouds 15 1020 72 10000 6.7 240 12:20 29.01.2020
3490 Clouds 15 1020 82 10000 7.2 250 11:47 29.01.2020
3491 Clouds 15 1020 82 10000 6.7 250 11:24 29.01.2020
3492 Clouds 15 1020 82 10000 8.2 250 10:56 29.01.2020
3493 Clouds 15 1020 82 10000 8.2 260 10:37 29.01.2020
3494 Clouds 14 1020 82 10000 8.2 260 10:19 29.01.2020
3495 Clouds 14 1020 82 10000 9.8 250 09:40 29.01.2020
3496 Clouds 14 1020 82 10000 9.8 250 09:21 29.01.2020
3497 Clouds 13 1019 82 10000 9.3 260 08:57 29.01.2020
3498 Clouds 12 1019 82 10000 9.3 260 08:39 29.01.2020
3499 Clouds 13 1019 82 10000 7.7 250 08:20 29.01.2020
3500 Clouds 12 1019 82 10000 8.7 260 07:44 29.01.2020
3501 Clouds 12 1019 82 10000 8.2 260 07:24 29.01.2020
3502 Clouds 12 1019 82 10000 8.2 260 06:54 29.01.2020
3503 Clouds 12 1019 82 10000 9.3 260 06:36 29.01.2020
3504 Clouds 12 1019 82 10000 9.3 260 06:18 29.01.2020
3505 Clouds 12 1019 82 10000 10.3 260 05:43 29.01.2020
3506 Clouds 12 1021 80 0 7.6 0 05:25 29.01.2020
3507 Clouds 12 1019 82 10000 10.8 260 04:37 29.01.2020
3508 Clouds 13 1019 82 10000 11.3 260 02:43 29.01.2020
3509 Clouds 13 1019 82 10000 8.7 240 02:18 29.01.2020
3510 Clouds 12 1019 82 10000 7.7 220 00:43 29.01.2020
3511 Clouds 12 1019 82 10000 8.2 220 00:24 29.01.2020
3512 Clouds 12 1019 77 10000 8.2 220 23:56 28.01.2020
3513 Clouds 12 1019 77 10000 8.7 220 23:37 28.01.2020
3514 Clouds 12 1019 77 10000 8.7 220 23:18 28.01.2020
3515 Clouds 12 1019 77 10000 7.2 220 22:40 28.01.2020
3516 Clouds 12 1020 77 10000 7.2 220 22:21 28.01.2020
3517 Clouds 12 1020 72 10000 7.7 220 21:42 28.01.2020
3518 Clouds 11 1019 71 10000 6.7 200 21:22 28.01.2020
3519 Clouds 11 1020 71 10000 7.2 220 20:58 28.01.2020
3520 Clouds 11 1019 62 10000 6.7 200 20:40 28.01.2020
3521 Clouds 11 1019 62 10000 6.7 200 20:21 28.01.2020
3522 Clouds 11 1020 71 10000 7.2 210 19:39 28.01.2020
3523 Clouds 11 1020 72 10000 7.7 220 19:20 28.01.2020
3524 Clouds 12 1020 76 10000 7.2 220 18:58 28.01.2020
3525 Clouds 12 1020 76 10000 7.2 220 18:40 28.01.2020
3526 Clouds 12 1020 72 10000 7.7 230 18:21 28.01.2020
3527 Clouds 12 1019 72 10000 7.7 240 17:57 28.01.2020
3528 Clouds 12 1019 72 10000 7.7 240 17:37 28.01.2020
3529 Clouds 13 1019 72 10000 8.2 240 17:19 28.01.2020
3530 Clouds 13 1019 72 10000 8.2 240 16:54 28.01.2020
3531 Clouds 13 1019 67 10000 8.7 230 16:36 28.01.2020
3532 Clouds 14 1019 67 10000 8.7 230 16:18 28.01.2020
3533 Clouds 14 1019 72 10000 8.7 240 15:42 28.01.2020
3534 Clouds 14 1019 67 10000 9.3 240 15:19 28.01.2020
3535 Clouds 14 1020 67 10000 8.7 240 14:54 28.01.2020
3536 Clouds 14 1020 67 10000 7.7 230 14:36 28.01.2020
3537 Clouds 14 1020 67 10000 7.7 230 14:18 28.01.2020
3538 Clouds 14 1020 67 10000 8.7 230 13:39 28.01.2020
3539 Clouds 14 1021 67 10000 7.7 230 13:21 28.01.2020
3540 Clouds 14 1021 72 10000 7.2 230 12:42 28.01.2020
3541 Clouds 14 1022 67 10000 7.7 230 12:23 28.01.2020
3542 Clouds 14 1022 63 10000 8.2 220 11:48 28.01.2020
3543 Clouds 14 1022 63 10000 7.7 220 11:23 28.01.2020
3544 Clouds 13 1022 72 10000 7.7 220 10:59 28.01.2020
3545 Clouds 13 1022 72 10000 7.7 220 10:40 28.01.2020
3546 Clouds 12 1022 72 10000 6.2 220 10:21 28.01.2020
3547 Clouds 12 1022 76 10000 5.7 200 09:55 28.01.2020
3548 Clouds 12 1022 76 10000 5.7 200 09:55 28.01.2020
3549 Clouds 12 1022 76 10000 6.2 200 09:36 28.01.2020
3550 Clouds 12 1022 76 10000 6.2 200 09:18 28.01.2020
3551 Clouds 12 1022 76 10000 6.2 210 08:40 28.01.2020
3552 Clouds 12 1022 76 10000 6.2 210 08:19 28.01.2020
3553 Rain 12 1022 82 10000 6.2 200 07:38 28.01.2020
3554 Clouds 11 1022 82 10000 5.7 210 06:51 28.01.2020
3555 Clouds 11 1022 76 10000 5.1 200 06:28 28.01.2020
3556 Clouds 11 1022 82 10000 5.7 200 05:55 28.01.2020
3557 Clouds 11 1022 82 10000 4.6 200 05:27 28.01.2020
3558 Clouds 11 1022 76 10000 5.1 200 04:30 28.01.2020
3559 Clouds 11 1022 82 10000 5.1 200 03:33 28.01.2020
3560 Clouds 11 1022 81 10000 4.1 190 02:25 28.01.2020
3561 Clouds 11 1022 81 10000 4.1 190 02:25 28.01.2020
3562 Clouds 11 1022 81 10000 3.6 180 01:57 28.01.2020
3563 Clouds 11 1023 76 10000 4.6 190 01:32 28.01.2020
3564 Clouds 11 1023 81 10000 3.6 190 00:51 28.01.2020
3565 Clouds 11 1023 81 10000 3.6 180 00:29 28.01.2020
3566 Clouds 10 1023 81 10000 3.6 180 23:51 27.01.2020
3567 Clouds 10 1023 81 10000 3.6 180 23:51 27.01.2020
3568 Clouds 11 1023 81 10000 3.6 180 23:30 27.01.2020
3569 Clear 11 1023 81 10000 3.6 180 22:59 27.01.2020
3570 Clear 10 1023 81 10000 3.6 180 22:41 27.01.2020
3571 Clouds 10 1023 81 10000 3.6 190 22:20 27.01.2020
3572 Clouds 10 1023 81 10000 2.6 190 21:56 27.01.2020
3573 Clouds 10 1023 81 10000 2.6 190 21:37 27.01.2020
3574 Clouds 10 1023 81 10000 2.6 180 21:18 27.01.2020
3575 Clouds 11 1023 87 10000 2.6 190 20:54 27.01.2020
3576 Clouds 10 1023 82 10000 3.1 240 20:36 27.01.2020
3577 Clouds 11 1023 82 10000 3.1 240 20:18 27.01.2020
3578 Clouds 11 1022 82 10000 6.2 270 19:41 27.01.2020
3579 Clouds 11 1022 82 10000 6.2 270 19:22 27.01.2020
3580 Clear 11 1026 85 0 0.45 293 18:56 27.01.2020
3581 Clear 11 1026 86 0 2.24 315 18:38 27.01.2020
3582 Clouds 12 1022 82 10000 6.7 270 18:19 27.01.2020
3583 Clear 12 1022 82 10000 3.1 260 17:39 27.01.2020
3584 Clear 12 1022 82 10000 3.1 260 17:21 27.01.2020
3585 Clear 12 1022 82 10000 3.1 260 16:59 27.01.2020
3586 Clear 13 1022 82 10000 3.1 260 16:41 27.01.2020
3587 Clear 14 1022 72 10000 1 0 16:23 27.01.2020
3588 Clear 14 1022 67 10000 1.5 250 15:55 27.01.2020
3589 Clear 15 1022 67 10000 1.5 240 15:37 27.01.2020
3590 Clear 15 1022 67 10000 1.5 240 15:37 27.01.2020
3591 Clear 15 1022 67 10000 1.5 240 15:18 27.01.2020
3592 Clear 15 1022 72 10000 2.1 290 14:42 27.01.2020
3593 Clear 15 1022 72 10000 2.1 270 14:22 27.01.2020
3594 Clear 15 1022 72 10000 2.6 250 13:58 27.01.2020
3595 Clear 15 1022 72 10000 2.6 250 13:40 27.01.2020
3596 Clear 15 1023 76 10000 3.6 260 13:20 27.01.2020
3597 Clear 14 1023 76 10000 3.6 270 12:54 27.01.2020
3598 Clear 14 1023 72 10000 3.1 270 12:36 27.01.2020
3599 Clear 14 1023 72 10000 3.1 270 12:18 27.01.2020
3600 Clear 13 1023 76 10000 2.1 250 11:41 27.01.2020
3601 Clear 13 1023 76 10000 2.1 250 11:41 27.01.2020
3602 Clear 13 1023 76 10000 2.1 250 11:20 27.01.2020
3603 Clear 13 1023 71 10000 2.1 240 10:43 27.01.2020
3604 Clear 12 1023 67 10000 1.5 200 10:24 27.01.2020
3605 Clear 12 1023 76 10000 2.1 170 09:56 27.01.2020
3606 Clouds 11 1023 87 10000 2.6 170 09:38 27.01.2020
3607 Clouds 11 1023 87 10000 2.6 170 09:18 27.01.2020
3608 Clouds 10 1023 87 10000 2.6 170 08:42 27.01.2020
3609 Clouds 9 1023 87 10000 2.1 170 08:20 27.01.2020
3610 Clouds 9 1022 87 10000 2.1 180 07:54 27.01.2020
3611 Clouds 9 1022 87 10000 2.1 180 07:54 27.01.2020
3612 Clouds 9 1022 87 10000 2.1 190 07:33 27.01.2020
3613 Clouds 10 1022 81 10000 2.6 180 06:53 27.01.2020
3614 Clouds 9 1022 81 10000 2.6 180 06:25 27.01.2020
3615 Clouds 9 1021 76 10000 3.6 280 05:23 27.01.2020
3616 Clouds 10 1021 71 10000 3.1 280 03:47 27.01.2020
3617 Clouds 10 1021 71 10000 3.1 290 02:38 27.01.2020
3618 Clouds 10 1021 82 10000 3.1 290 01:29 27.01.2020
3619 Clouds 10 1021 76 10000 3.6 290 00:57 27.01.2020
3620 Clouds 10 1021 82 10000 3.1 300 00:36 27.01.2020
3621 Clouds 10 1021 82 10000 3.1 300 00:18 27.01.2020
3622 Clouds 10 1021 82 10000 3.1 300 00:18 27.01.2020
3623 Clouds 10 1021 82 10000 3.1 300 23:41 26.01.2020
3624 Clouds 10 1021 82 10000 3.1 300 23:41 26.01.2020
3625 Clouds 11 1021 82 10000 3.6 300 23:19 26.01.2020
3626 Clouds 11 1021 82 10000 4.1 310 22:54 26.01.2020
3627 Clouds 11 1021 87 10000 3.6 300 22:36 26.01.2020
3628 Clouds 11 1021 87 10000 3.6 300 22:18 26.01.2020
3629 Clouds 11 1021 87 10000 2.6 300 21:55 26.01.2020
3630 Clouds 11 1020 87 10000 1 0 21:37 26.01.2020
3631 Clouds 11 1020 87 10000 1 0 21:18 26.01.2020
3632 Clouds 11 1020 87 10000 1.5 290 20:55 26.01.2020
3633 Clouds 11 1020 87 10000 2.1 300 20:36 26.01.2020
3634 Clouds 11 1020 87 10000 2.1 300 20:18 26.01.2020
3635 Clouds 11 1020 87 10000 4.1 310 19:41 26.01.2020
3636 Clouds 11 1020 87 10000 5.1 300 19:21 26.01.2020
3637 Clouds 11 1019 87 10000 6.7 300 18:59 26.01.2020
3638 Clouds 12 1019 82 10000 7.2 290 18:40 26.01.2020
3639 Clouds 12 1019 82 10000 7.2 290 18:22 26.01.2020
3640 Clouds 12 1019 87 10000 7.2 290 17:58 26.01.2020
3641 Clouds 12 1019 87 10000 6.2 300 17:38 26.01.2020
3642 Clouds 13 1019 87 10000 6.2 300 17:19 26.01.2020
3643 Clouds 13 1019 82 10000 6.7 300 16:58 26.01.2020
3644 Clouds 14 1019 82 10000 6.7 300 16:39 26.01.2020
3645 Clouds 14 1018 82 10000 7.7 300 16:20 26.01.2020
3646 Clouds 15 1019 71 0 2.68 330 15:55 26.01.2020
3647 Clouds 15 1018 72 0 2.24 337 15:37 26.01.2020
3648 Clouds 15 1019 71 0 2.24 326 15:18 26.01.2020
3649 Clouds 16 1024 69 0 0.89 327 14:40 26.01.2020
3650 Clouds 16 1024 68 0 1.79 341 14:19 26.01.2020
3651 Clouds 16 1024 68 0 1.79 341 14:19 26.01.2020
3652 Clouds 16 1022 60 0 3.58 248 13:42 26.01.2020
3653 Clouds 16 1023 58 0 3.58 225 13:20 26.01.2020
3654 Clouds 17 993 73 0 2.05 262 12:58 26.01.2020
3655 Clouds 16 993 73 0 2.05 262 12:39 26.01.2020
3656 Clouds 16 1023 57 0 3.13 225 12:21 26.01.2020
3657 Clouds 16 993 73 0 2.05 262 12:21 26.01.2020
3658 Clouds 16 994 74 0 2.05 262 11:57 26.01.2020
3659 Clouds 16 994 74 0 2.05 262 11:57 26.01.2020
3660 Clouds 15 1023 54 0 3.58 225 11:38 26.01.2020
3661 Clouds 15 1020 63 10000 6.2 190 11:18 26.01.2020
3662 Clouds 14 1020 63 10000 6.2 190 10:58 26.01.2020
3663 Clouds 14 1020 63 10000 6.2 190 10:38 26.01.2020
3664 Clouds 14 1020 63 10000 6.2 190 10:38 26.01.2020
3665 Clouds 14 1020 63 10000 6.2 190 10:38 26.01.2020
3666 Clouds 14 1020 63 10000 6.2 190 10:38 26.01.2020
3667 Clouds 14 1020 63 10000 6.2 190 10:20 26.01.2020
3668 Clouds 13 1019 67 10000 7.2 200 09:56 26.01.2020
3669 Clouds 12 1019 67 10000 5.7 200 09:38 26.01.2020
3670 Clouds 12 1019 67 10000 5.7 200 09:20 26.01.2020
3671 Clouds 12 1019 76 10000 4.6 210 08:42 26.01.2020
3672 Clouds 11 1019 81 10000 3.1 210 08:22 26.01.2020
3673 Clouds 11 1019 81 10000 3.1 200 07:56 26.01.2020
3674 Clouds 11 1019 81 10000 3.1 200 07:38 26.01.2020
3675 Clouds 11 1019 81 10000 2.6 230 07:19 26.01.2020
3676 Clouds 10 1019 87 10000 1.5 180 06:29 26.01.2020
3677 Clouds 11 1019 87 10000 2.1 180 05:30 26.01.2020
3678 Clouds 11 1019 87 10000 1.5 130 04:44 26.01.2020
3679 Clouds 11 1020 87 10000 0.5 0 02:41 26.01.2020
3680 Clouds 11 1020 82 10000 0.5 0 01:47 26.01.2020
3681 Clouds 11 1021 82 10000 0.5 0 01:24 26.01.2020
3682 Clouds 11 1021 82 10000 1 360 00:44 26.01.2020
3683 Clouds 11 1021 76 10000 0.5 170 00:26 26.01.2020
3684 Clouds 11 1021 70 0 3.13 199 23:41 25.01.2020
3685 Clouds 12 1022 70 0 3.13 202 23:21 25.01.2020
3686 Clouds 12 1022 70 0 3.13 185 22:58 25.01.2020
3687 Clouds 12 1022 70 0 3.13 204 22:40 25.01.2020
3688 Clouds 11 1025 88 0 1.79 225 22:19 25.01.2020
3689 Clouds 11 1022 71 0 2.24 188 21:57 25.01.2020
3690 Clouds 11 1025 88 0 0.89 270 21:38 25.01.2020
3691 Clouds 12 1022 71 0 0.89 137 21:19 25.01.2020
3692 Clouds 11 1022 72 0 0.89 126 20:44 25.01.2020
3693 Clouds 11 1025 87 0 0.89 270 20:25 25.01.2020
3694 Clouds 9 1022 91 0 1.18 169 19:55 25.01.2020
3695 Clouds 12 1022 74 0 0.45 143 19:37 25.01.2020
3696 Clouds 12 1025 84 0 0.45 270 19:18 25.01.2020
3697 Clouds 12 1025 84 0 0.89 270 18:41 25.01.2020
3698 Clouds 12 1025 84 0 0.45 270 18:21 25.01.2020
3699 Clouds 12 1025 84 0 0.89 270 17:58 25.01.2020
3700 Clouds 12 1025 80 0 0.89 270 17:38 25.01.2020
3701 Clouds 13 1021 71 0 2.24 105 17:18 25.01.2020
3702 Clouds 13 1022 68 0 2.68 55 16:42 25.01.2020
3703 Clouds 14 1021 64 0 1.79 138 16:23 25.01.2020
3704 Clouds 14 1022 53 0 3.13 184 15:58 25.01.2020
3705 Clouds 14 1026 68 0 0.45 225 15:39 25.01.2020
3706 Clouds 14 1022 53 0 3.58 195 15:20 25.01.2020
3707 Clouds 14 1022 53 0 3.58 195 15:20 25.01.2020
3708 Clouds 14 1022 52 0 3.58 209 14:42 25.01.2020
3709 Clouds 16 997 67 0 1.68 130 14:19 25.01.2020
3710 Clouds 15 1027 67 0 1.34 90 13:45 25.01.2020
3711 Clouds 14 1027 66 0 1.34 23 13:27 25.01.2020
3712 Clouds 14 1020 69 0 3.13 298 12:58 25.01.2020
3713 Clouds 15 1024 72 10000 1 340 12:38 25.01.2020
3714 Clouds 15 1024 72 10000 1 340 12:19 25.01.2020
3715 Clouds 14 1024 72 10000 1 340 11:40 25.01.2020
3716 Clouds 14 1025 67 10000 1 340 11:20 25.01.2020
3717 Clouds 14 1024 67 10000 1 330 10:56 25.01.2020
3718 Clouds 14 1024 67 10000 1 330 10:38 25.01.2020
3719 Clouds 13 1024 67 10000 1 0 10:18 25.01.2020
3720 Clouds 13 1024 71 10000 1 0 09:40 25.01.2020
3721 Clouds 12 1024 71 10000 0.5 0 09:19 25.01.2020
3722 Clouds 11 1024 76 10000 1.5 0 08:43 25.01.2020
3723 Clear 10 1024 81 10000 1.5 130 07:58 25.01.2020
3724 Clear 10 1024 66 10000 1 0 07:36 25.01.2020
3725 Clear 10 1024 66 10000 1 0 07:36 25.01.2020
3726 Clear 10 1023 76 10000 2.1 130 06:41 25.01.2020
3727 Clear 10 1023 76 10000 2.1 130 06:22 25.01.2020
3728 Clear 11 1023 71 10000 1.5 140 05:43 25.01.2020
3729 Clear 11 1023 76 10000 2.6 150 04:19 25.01.2020
3730 Clear 11 1023 71 10000 1 0 03:49 25.01.2020
3731 Clear 11 1024 62 10000 2.6 60 02:38 25.01.2020
3732 Clear 11 1024 58 10000 1 0 01:57 25.01.2020
3733 Clear 11 1024 62 10000 3.1 70 01:23 25.01.2020
3734 Clear 11 1025 66 10000 3.6 150 00:41 25.01.2020
3735 Clear 11 1025 66 10000 3.6 150 00:22 25.01.2020
3736 Clear 11 1025 71 10000 3.6 160 23:42 24.01.2020
3737 Clear 12 1025 71 10000 2.6 170 23:24 24.01.2020
3738 Clear 11 1025 71 10000 3.1 170 22:47 24.01.2020
3739 Clear 12 1025 76 10000 3.6 200 22:28 24.01.2020
3740 Clear 11 1025 71 10000 1.5 160 21:59 24.01.2020
3741 Clear 11 1025 71 10000 1.5 160 21:40 24.01.2020
3742 Clear 11 1024 66 10000 1 0 21:19 24.01.2020
3743 Clear 12 1024 72 10000 4.1 270 20:44 24.01.2020
3744 Clear 12 1024 62 10000 4.6 240 20:22 24.01.2020
3745 Clear 12 1023 76 10000 1 0 19:58 24.01.2020
3746 Clear 12 1023 76 10000 1 0 19:58 24.01.2020
3747 Clear 12 1023 76 10000 1 0 19:40 24.01.2020
3748 Clear 12 1023 76 10000 2.1 320 19:22 24.01.2020
3749 Clear 12 1022 71 10000 1 0 18:56 24.01.2020
3750 Clear 12 1023 76 10000 2.6 110 18:37 24.01.2020
3751 Clear 12 1023 76 10000 2.6 110 18:19 24.01.2020
3752 Clear 12 1023 71 10000 1 0 17:42 24.01.2020
3753 Clear 12 1023 67 10000 4.1 60 17:21 24.01.2020
3754 Clear 12 1023 67 10000 4.1 60 17:21 24.01.2020
3755 Clear 13 1024 62 10000 4.1 70 16:55 24.01.2020
3756 Clear 13 1024 67 10000 4.6 40 16:36 24.01.2020
3757 Clear 14 1024 67 10000 4.6 40 16:18 24.01.2020
3758 Clear 14 1024 67 10000 4.6 40 16:18 24.01.2020
3759 Clear 14 1024 62 10000 4.1 50 15:40 24.01.2020
3760 Clear 14 1024 67 10000 4.6 30 15:20 24.01.2020
3761 Clear 14 1024 59 10000 5.7 50 14:42 24.01.2020
3762 Clear 14 1024 62 10000 6.2 50 14:23 24.01.2020
3763 Clear 14 1025 62 10000 4.6 50 13:57 24.01.2020
3764 Clear 14 1025 62 10000 4.6 50 13:39 24.01.2020
3765 Clear 14 1025 62 10000 5.1 60 13:19 24.01.2020
3766 Clear 14 1025 62 10000 5.1 60 13:19 24.01.2020
3767 Clear 14 1026 62 10000 4.6 70 12:41 24.01.2020
3768 Clear 14 1026 62 10000 4.6 70 12:19 24.01.2020
3769 Clear 14 1026 62 10000 3.1 50 11:43 24.01.2020
3770 Clear 13 1026 67 10000 1.5 60 11:19 24.01.2020
3771 Clear 13 1027 66 10000 1 290 10:43 24.01.2020
3772 Clear 13 1026 71 10000 1.5 230 10:23 24.01.2020
3773 Clear 13 1026 71 10000 1.5 230 10:23 24.01.2020
3774 Clear 12 1026 76 10000 1.5 200 09:57 24.01.2020
3775 Clear 11 1026 81 10000 1.5 180 09:39 24.01.2020
3776 Clear 11 1026 81 10000 1.5 180 09:21 24.01.2020
3777 Clear 10 1026 81 10000 3.1 160 08:41 24.01.2020
3778 Clear 9 1026 81 10000 3.1 160 08:20 24.01.2020
3779 Clear 9 1026 81 10000 2.1 190 07:53 24.01.2020
3780 Clear 9 1026 76 10000 2.6 180 07:34 24.01.2020
3781 Clear 9 1026 76 10000 1.5 120 06:48 24.01.2020
3782 Clear 9 1026 81 10000 1.5 170 06:29 24.01.2020
3783 Clear 9 1026 81 10000 1.5 170 05:59 24.01.2020
3784 Clear 9 1026 76 10000 1.5 160 04:57 24.01.2020
3785 Clear 8 1026 76 10000 2.1 180 02:53 24.01.2020
3786 Clear 9 1026 76 10000 1.5 210 02:26 24.01.2020
3787 Clouds 9 1026 76 10000 1 0 01:46 24.01.2020
3788 Clouds 9 1026 76 10000 4.1 220 01:28 24.01.2020
3789 Clouds 9 1027 76 10000 3.1 210 00:25 24.01.2020
3790 Clouds 9 1027 71 10000 2.6 220 23:49 23.01.2020
3791 Clouds 9 1027 71 10000 2.1 190 23:31 23.01.2020
3792 Clouds 9 1026 71 10000 2.6 170 22:59 23.01.2020
3793 Clouds 9 1026 71 10000 3.6 210 22:38 23.01.2020
3794 Clouds 9 1026 71 10000 3.6 210 22:38 23.01.2020
3795 Clouds 9 1026 71 10000 3.6 210 22:19 23.01.2020
3796 Clouds 9 1026 66 10000 1 0 21:57 23.01.2020
3797 Clouds 9 1026 62 10000 2.1 80 21:39 23.01.2020
3798 Clouds 9 1026 62 10000 2.1 80 21:20 23.01.2020
3799 Clouds 9 1026 66 10000 2.1 90 20:59 23.01.2020
3800 Clouds 9 1026 66 10000 0.5 0 20:38 23.01.2020
3801 Clouds 10 1026 66 10000 0.5 0 20:20 23.01.2020
3802 Clouds 9 1026 71 10000 2.1 150 19:56 23.01.2020
3803 Clouds 9 1026 71 10000 2.1 150 19:38 23.01.2020
3804 Clouds 10 1026 62 10000 3.1 90 19:19 23.01.2020
3805 Clouds 10 1026 62 10000 3.6 90 18:43 23.01.2020
3806 Clouds 11 1026 62 10000 4.6 70 18:21 23.01.2020
3807 Clouds 11 1026 58 10000 5.1 80 17:59 23.01.2020
3808 Clouds 12 1026 58 10000 5.1 80 17:40 23.01.2020
3809 Clouds 12 1026 58 10000 5.1 70 17:20 23.01.2020
3810 Clouds 12 1026 58 10000 5.1 70 17:20 23.01.2020
3811 Clear 12 1027 68 0 2.24 110 16:57 23.01.2020
3812 Clear 12 1030 72 0 0.89 135 16:37 23.01.2020
3813 Clouds 13 1026 55 10000 5.1 80 16:18 23.01.2020
3814 Clouds 13 1026 59 10000 4.6 70 15:56 23.01.2020
3815 Clouds 14 1026 51 10000 4.6 60 15:37 23.01.2020
3816 Clouds 14 1026 51 10000 4.6 60 15:18 23.01.2020
3817 Clouds 14 1026 51 10000 4.6 60 15:18 23.01.2020
3818 Clouds 14 1026 55 10000 4.6 70 14:55 23.01.2020
3819 Clouds 14 1026 51 10000 4.1 70 14:37 23.01.2020
3820 Clouds 14 1026 51 10000 4.1 70 14:19 23.01.2020
3821 Clouds 14 1027 55 10000 3.6 50 13:40 23.01.2020
3822 Clear 14 1027 54 0 2.68 80 13:20 23.01.2020
3823 Clouds 14 1028 51 10000 3.1 60 12:47 23.01.2020
3824 Clouds 14 1028 51 10000 3.1 60 12:26 23.01.2020
3825 Clouds 14 1028 51 10000 3.1 60 11:59 23.01.2020
3826 Clouds 14 1028 51 10000 3.1 60 11:59 23.01.2020
3827 Clouds 14 1028 51 10000 3.1 60 11:39 23.01.2020
3828 Clouds 13 1028 51 10000 2.1 70 11:20 23.01.2020
3829 Clouds 13 1028 51 10000 1 0 10:55 23.01.2020
3830 Clouds 13 1028 54 10000 3.1 110 10:36 23.01.2020
3831 Clouds 13 1028 54 10000 3.1 110 10:18 23.01.2020
3832 Clouds 12 1028 66 10000 1.5 20 09:39 23.01.2020
3833 Clouds 12 1028 66 10000 1.5 20 09:20 23.01.2020
3834 Clouds 11 1028 62 10000 2.6 140 08:43 23.01.2020
3835 Clouds 10 1028 58 10000 3.1 160 08:25 23.01.2020
3836 Clear 10 1028 58 10000 2.6 150 07:51 23.01.2020
3837 Clouds 10 1028 62 10000 2.1 180 07:27 23.01.2020
3838 Clouds 10 1028 62 10000 3.1 150 06:55 23.01.2020
3839 Clouds 11 1028 58 10000 3.6 150 06:25 23.01.2020
3840 Clouds 10 1028 62 10000 2.1 140 05:59 23.01.2020
3841 Clouds 10 1028 71 10000 2.6 230 04:25 23.01.2020
3842 Clouds 11 1028 71 10000 2.1 210 02:50 23.01.2020
3843 Clouds 10 1029 66 10000 2.6 140 01:51 23.01.2020
3844 Clouds 10 1029 71 10000 1 230 00:41 23.01.2020
3845 Clouds 10 1029 71 10000 1 230 00:20 23.01.2020
3846 Clouds 10 1029 71 10000 1.5 140 23:45 22.01.2020
3847 Clouds 10 1029 71 10000 1 0 23:27 22.01.2020
3848 Clouds 11 1029 67 10000 1 0 22:43 22.01.2020
3849 Clouds 11 1029 71 10000 1 0 22:24 22.01.2020
3850 Clouds 11 1029 67 10000 1 170 21:58 22.01.2020
3851 Clouds 11 1029 71 10000 1.5 170 21:36 22.01.2020
3852 Clouds 11 1029 71 10000 1.5 170 21:18 22.01.2020
3853 Clouds 12 1029 71 10000 1.5 200 20:41 22.01.2020
3854 Clouds 11 1030 71 10000 1 0 20:23 22.01.2020
3855 Clouds 11 1030 71 10000 1.5 70 19:58 22.01.2020
3856 Clouds 11 1030 71 10000 1.5 70 19:58 22.01.2020
3857 Clouds 12 1030 71 10000 1.5 70 19:40 22.01.2020
3858 Clouds 12 1029 71 10000 2.1 70 19:20 22.01.2020
3859 Clouds 12 1029 67 10000 1.5 90 18:58 22.01.2020
3860 Clouds 12 1030 67 10000 1 0 18:39 22.01.2020
3861 Clouds 12 1030 67 10000 1 0 18:20 22.01.2020
3862 Clouds 12 1030 72 10000 1 0 17:56 22.01.2020
3863 Clouds 12 1030 72 10000 1 0 17:38 22.01.2020
3864 Clouds 12 1030 72 10000 2.6 250 17:19 22.01.2020
3865 Clouds 13 1030 67 10000 2.6 90 16:44 22.01.2020
3866 Clouds 13 1030 67 10000 2.6 90 16:24 22.01.2020
3867 Clouds 13 1028 63 10000 3.1 70 15:59 22.01.2020
3868 Clouds 13 1028 63 10000 3.1 70 15:41 22.01.2020
3869 Clouds 13 1030 63 10000 3.1 60 15:23 22.01.2020
3870 Clouds 13 1030 62 10000 2.6 60 14:58 22.01.2020
3871 Clouds 13 1031 67 10000 2.6 40 14:37 22.01.2020
3872 Clouds 13 1031 67 10000 2.6 40 14:19 22.01.2020
3873 Clouds 13 1031 67 10000 3.1 40 13:55 22.01.2020
3874 Clouds 13 1032 72 10000 2.1 30 13:36 22.01.2020
3875 Clouds 13 1032 72 10000 2.1 30 13:18 22.01.2020
3876 Clouds 13 1032 72 10000 1.5 350 12:56 22.01.2020
3877 Clouds 13 1033 67 10000 1.5 310 12:37 22.01.2020
3878 Clouds 13 1033 67 10000 1.5 310 12:18 22.01.2020
3879 Clouds 13 1033 72 10000 1 0 11:56 22.01.2020
3880 Clouds 13 1034 67 10000 1.5 260 11:38 22.01.2020
3881 Clouds 13 1034 67 10000 1.5 260 11:19 22.01.2020
3882 Clouds 13 1034 71 10000 1.5 250 10:44 22.01.2020
3883 Clear 12 1034 71 10000 2.1 220 10:21 22.01.2020
3884 Clear 12 1034 71 10000 0.5 0 09:45 22.01.2020
3885 Clear 11 1034 71 10000 1 0 09:26 22.01.2020
3886 Clear 11 1033 71 10000 1 200 08:59 22.01.2020
3887 Clear 11 1033 71 10000 1 200 08:40 22.01.2020
3888 Clouds 10 1033 76 10000 2.1 150 08:21 22.01.2020
3889 Clouds 10 1033 76 10000 2.1 140 07:59 22.01.2020
3890 Clouds 9 1033 76 10000 2.1 140 07:40 22.01.2020
3891 Clouds 10 1033 76 10000 3.1 80 07:21 22.01.2020
3892 Clouds 10 1033 76 10000 3.1 80 07:21 22.01.2020
3893 Clouds 9 1033 76 10000 1 0 06:33 22.01.2020
3894 Clouds 10 1033 76 10000 1 160 05:42 22.01.2020
3895 Clouds 10 1033 76 10000 1 160 05:42 22.01.2020
3896 Clouds 10 1033 76 10000 2.1 190 04:24 22.01.2020
3897 Clouds 10 1033 71 10000 2.1 190 03:26 22.01.2020
3898 Clouds 11 1033 66 10000 2.1 200 02:38 22.01.2020
3899 Clear 11 1033 66 10000 1.5 270 00:46 22.01.2020
3900 Clear 11 1033 66 10000 1.5 0 00:27 22.01.2020
3901 Clouds 11 1033 66 10000 3.6 130 23:55 21.01.2020
3902 Clouds 11 1033 54 10000 3.1 240 23:37 21.01.2020
3903 Clouds 12 1033 54 10000 3.1 240 23:18 21.01.2020
3904 Clouds 12 1033 54 10000 3.1 240 23:18 21.01.2020
3905 Clouds 11 1033 54 10000 3.1 240 23:18 21.01.2020
3906 Clouds 11 1033 62 10000 2.1 150 22:40 21.01.2020
3907 Clouds 11 1033 62 10000 2.1 150 22:20 21.01.2020
3908 Clouds 11 1033 62 10000 3.1 170 21:57 21.01.2020
3909 Clouds 12 1033 67 10000 0.5 0 21:38 21.01.2020
3910 Clouds 12 1033 67 10000 0.5 0 21:20 21.01.2020
3911 Clouds 12 1033 67 10000 1.5 180 20:56 21.01.2020
3912 Clear 12 1033 58 10000 1 0 20:37 21.01.2020
3913 Clouds 12 1033 58 10000 1 0 20:19 21.01.2020
3914 Clouds 12 1033 62 10000 1 0 19:56 21.01.2020
3915 Clouds 11 1033 62 10000 1 0 19:56 21.01.2020
3916 Clouds 12 1032 58 10000 2.1 90 19:38 21.01.2020
3917 Clouds 12 1032 58 10000 2.1 90 19:20 21.01.2020
3918 Clouds 12 1032 58 10000 3.6 90 18:55 21.01.2020
3919 Clouds 12 1036 77 0 4.92 113 18:37 21.01.2020
3920 Clouds 12 1032 55 10000 5.1 80 18:18 21.01.2020
3921 Clouds 13 1031 55 10000 6.2 80 17:45 21.01.2020
3922 Clouds 13 1031 51 10000 5.7 80 17:20 21.01.2020
3923 Clouds 13 1031 51 10000 5.7 100 16:59 21.01.2020
3924 Clouds 13 1035 73 0 4.47 113 16:37 21.01.2020
3925 Clouds 13 1036 72 0 4.47 135 16:19 21.01.2020
3926 Clouds 14 1032 48 10000 3.6 130 15:42 21.01.2020
3927 Clouds 14 1033 62 0 4.92 110 15:21 21.01.2020
3928 Clouds 14 1033 60 0 4.92 116 14:59 21.01.2020
3929 Clouds 15 1032 45 10000 4.1 150 14:38 21.01.2020
3930 Rain 14 1036 70 0 3.58 180 14:19 21.01.2020
3931 Clouds 14 1033 63 10000 3.1 300 13:40 21.01.2020
3932 Clouds 14 1033 63 10000 3.1 300 13:19 21.01.2020
3933 Clouds 14 1033 72 10000 4.6 300 12:44 21.01.2020
3934 Clouds 14 1034 77 10000 3.1 300 12:25 21.01.2020
3935 Clouds 14 1034 67 10000 2.6 260 11:57 21.01.2020
3936 Clouds 14 1034 67 10000 2.6 260 11:39 21.01.2020
3937 Clouds 13 1034 59 10000 2.1 290 11:21 21.01.2020
3938 Clouds 14 1034 63 10000 1.5 300 10:55 21.01.2020
3939 Clouds 14 1033 48 10000 5.1 130 10:37 21.01.2020
3940 Clouds 13 1038 72 0 4.02 225 10:18 21.01.2020
3941 Clouds 13 1033 58 10000 5.7 80 09:41 21.01.2020
3942 Clouds 13 1033 67 10000 5.7 80 09:22 21.01.2020
3943 Clouds 12 1033 76 10000 5.1 80 08:49 21.01.2020
3944 Clouds 12 1033 66 10000 4.1 60 08:29 21.01.2020
3945 Clouds 11 1033 62 10000 3.1 70 07:59 21.01.2020
3946 Clouds 11 1033 67 10000 4.6 60 07:39 21.01.2020
3947 Clouds 11 1033 67 10000 4.6 60 07:21 21.01.2020
3948 Clouds 11 1036 82 0 2.24 68 06:48 21.01.2020
3949 Clouds 11 1032 67 10000 4.6 100 06:26 21.01.2020
3950 Clouds 12 1032 58 10000 3.6 110 05:42 21.01.2020
3951 Clouds 11 1032 62 10000 3.1 90 04:39 21.01.2020
3952 Clouds 12 1032 51 10000 3.6 210 02:56 21.01.2020
3953 Clouds 12 1032 54 10000 3.6 0 01:53 21.01.2020
3954 Rain 12 1032 54 10000 3.6 0 01:18 21.01.2020
3955 Clouds 12 1032 58 10000 1.5 0 00:36 21.01.2020
3956 Clouds 12 1032 58 10000 2.1 280 23:58 20.01.2020
3957 Clouds 12 1032 58 10000 1.5 90 23:38 20.01.2020
3958 Clouds 12 1032 58 10000 1.5 90 23:19 20.01.2020
3959 Clouds 12 1032 58 10000 2.6 70 22:56 20.01.2020
3960 Clouds 12 1031 58 10000 2.6 100 22:37 20.01.2020
3961 Clouds 12 1031 58 10000 2.6 100 22:19 20.01.2020
3962 Clouds 12 1031 54 10000 2.1 100 21:57 20.01.2020
3963 Clouds 12 1031 58 10000 2.1 80 21:37 20.01.2020
3964 Clouds 12 1031 58 10000 2.1 80 21:37 20.01.2020
3965 Clouds 12 1031 58 10000 2.1 80 21:18 20.01.2020
3966 Clouds 12 1031 54 10000 2.1 60 20:55 20.01.2020
3967 Clouds 12 1031 54 10000 1.5 110 20:36 20.01.2020
3968 Clouds 12 1031 54 10000 1.5 110 20:18 20.01.2020
3969 Clouds 12 1031 54 10000 1.5 110 20:18 20.01.2020
3970 Clouds 12 1030 54 10000 1.5 130 19:56 20.01.2020
3971 Clouds 12 1030 58 10000 4.1 90 19:37 20.01.2020
3972 Clouds 12 1030 58 10000 4.1 90 19:18 20.01.2020
3973 Clouds 12 1029 58 10000 3.6 140 18:42 20.01.2020
3974 Clouds 12 1029 58 10000 3.6 140 18:21 20.01.2020
3975 Clouds 12 1028 55 10000 2.1 190 17:40 20.01.2020
3976 Clouds 12 1028 55 10000 2.1 190 17:19 20.01.2020
3977 Rain 12 1028 55 10000 3.6 60 16:58 20.01.2020
3978 Clouds 13 1028 51 10000 3.6 90 16:37 20.01.2020
3979 Clouds 13 1028 51 10000 3.6 90 16:18 20.01.2020
3980 Clouds 13 1027 55 10000 6.2 90 15:54 20.01.2020
3981 Clouds 13 1027 51 10000 5.7 90 15:36 20.01.2020
3982 Clouds 13 1027 51 10000 5.7 90 15:18 20.01.2020
3983 Clouds 13 1027 51 10000 5.7 90 14:41 20.01.2020
3984 Clouds 13 1027 51 10000 7.7 90 14:22 20.01.2020
3985 Clouds 13 1027 45 10000 4.1 100 13:57 20.01.2020
3986 Clouds 13 1028 48 10000 5.7 90 13:39 20.01.2020
3987 Clouds 13 1028 48 10000 5.7 90 13:20 20.01.2020
3988 Clouds 13 1028 48 10000 3.6 80 12:45 20.01.2020
3989 Clouds 13 1028 58 10000 2.1 290 12:26 20.01.2020
3990 Clouds 13 1028 62 10000 3.1 280 11:57 20.01.2020
3991 Clouds 13 1028 58 10000 4.1 260 11:38 20.01.2020
3992 Clouds 12 1028 58 10000 4.1 260 11:19 20.01.2020
3993 Clouds 13 1027 44 10000 4.6 0 10:47 20.01.2020
3994 Clouds 12 1027 47 10000 4.6 70 10:21 20.01.2020
3995 Clouds 12 1027 54 10000 2.6 120 09:54 20.01.2020
3996 Clouds 12 1027 54 10000 5.7 80 09:36 20.01.2020
3997 Clouds 12 1027 54 10000 5.7 80 09:18 20.01.2020
3998 Clouds 11 1026 66 10000 3.1 80 08:42 20.01.2020
3999 Clouds 11 1026 71 10000 2.1 240 08:24 20.01.2020
4000 Clouds 10 1026 66 10000 1 0 07:42 20.01.2020
4001 Clouds 10 1026 76 10000 2.1 90 07:23 20.01.2020
4002 Clouds 10 1026 76 10000 2.6 150 06:46 20.01.2020
4003 Clouds 10 1026 71 10000 1.5 190 06:26 20.01.2020
4004 Clouds 10 1025 71 10000 1.5 120 05:42 20.01.2020
4005 Clouds 10 1025 76 10000 2.1 30 05:21 20.01.2020
4006 Clouds 10 1025 66 10000 2.1 250 04:41 20.01.2020
4007 Clouds 10 1024 71 10000 0.5 0 02:55 20.01.2020
4008 Clouds 10 1024 71 10000 0.5 0 02:55 20.01.2020
4009 Clouds 9 1024 71 10000 1.5 90 01:52 20.01.2020
4010 Clouds 9 1024 71 10000 1.5 0 01:26 20.01.2020
4011 Clouds 9 1024 71 10000 2.1 220 00:44 20.01.2020
4012 Clouds 10 1024 71 10000 2.1 220 00:22 20.01.2020
4013 Clouds 10 1024 66 10000 3.6 260 23:39 19.01.2020
4014 Clouds 9 1023 62 10000 4.1 80 23:20 19.01.2020
4015 Clouds 9 1023 62 10000 5.7 110 22:56 19.01.2020
4016 Clouds 10 1023 62 10000 7.2 90 22:38 19.01.2020
4017 Clouds 10 1023 62 10000 7.2 90 22:20 19.01.2020
4018 Clouds 10 1023 62 10000 6.2 100 21:56 19.01.2020
4019 Clouds 10 1023 62 10000 6.2 100 21:56 19.01.2020
4020 Clouds 10 1023 66 10000 3.1 100 21:38 19.01.2020
4021 Clouds 9 1023 66 10000 3.1 100 21:20 19.01.2020
4022 Clouds 10 1023 62 10000 1.5 130 20:57 19.01.2020
4023 Clouds 9 1023 62 10000 1.5 130 20:38 19.01.2020
4024 Clouds 9 1023 62 10000 2.1 150 20:20 19.01.2020
4025 Clouds 9 1023 58 10000 1 0 19:56 19.01.2020
4026 Clouds 9 1022 58 10000 1 0 19:38 19.01.2020
4027 Clouds 9 1022 58 10000 1 0 19:20 19.01.2020
4028 Clouds 9 1022 58 10000 0.5 0 18:56 19.01.2020
4029 Clouds 9 1023 64 0 1.34 186 18:37 19.01.2020
4030 Clouds 10 1021 58 10000 4.6 70 18:19 19.01.2020
4031 Clouds 10 1021 58 10000 4.6 70 17:58 19.01.2020
4032 Clouds 10 1021 58 10000 4.6 70 17:58 19.01.2020
4033 Clouds 10 1021 58 10000 4.6 70 17:58 19.01.2020
4034 Clouds 10 1021 62 10000 5.7 80 17:39 19.01.2020
4035 Clouds 11 1021 62 10000 5.7 80 17:20 19.01.2020
4036 Clouds 10 1025 77 0 2.68 90 16:59 19.01.2020
4037 Clouds 11 1021 62 10000 6.7 70 16:38 19.01.2020
4038 Clouds 12 1021 58 10000 6.2 70 16:20 19.01.2020
4039 Clouds 12 1020 58 10000 6.2 60 15:58 19.01.2020
4040 Clouds 12 1020 58 10000 6.2 60 15:38 19.01.2020
4041 Clouds 13 1020 62 10000 6.2 60 15:20 19.01.2020
4042 Clouds 13 1020 62 10000 5.7 50 14:57 19.01.2020
4043 Clouds 13 1021 62 10000 5.1 70 14:38 19.01.2020
4044 Clouds 13 1021 62 10000 5.1 70 14:18 19.01.2020
4045 Clouds 13 1021 58 10000 4.6 70 13:57 19.01.2020
4046 Clouds 12 1021 62 10000 4.6 60 13:38 19.01.2020
4047 Clouds 12 1021 62 10000 4.6 60 13:19 19.01.2020
4048 Clouds 13 1021 62 10000 3.6 50 12:55 19.01.2020
4049 Clouds 12 1022 62 10000 3.6 30 12:36 19.01.2020
4050 Clouds 13 1022 62 10000 3.6 30 12:18 19.01.2020
4051 Clouds 12 1022 62 10000 1 0 11:42 19.01.2020
4052 Clouds 12 1022 62 10000 1 0 11:20 19.01.2020
4053 Clouds 13 1022 67 10000 2.1 240 10:56 19.01.2020
4054 Clouds 11 1020 62 10000 1 260 10:38 19.01.2020
4055 Clouds 11 1020 62 10000 1 260 10:19 19.01.2020
4056 Clouds 11 1022 76 10000 2.1 210 09:55 19.01.2020
4057 Clouds 11 1022 76 10000 2.1 210 09:55 19.01.2020
4058 Clouds 11 1022 76 10000 2.1 210 09:55 19.01.2020
4059 Clouds 11 1022 76 10000 2.1 210 09:55 19.01.2020
4060 Clouds 10 1022 76 10000 2.6 180 09:36 19.01.2020
4061 Clouds 10 1022 76 10000 2.6 180 09:18 19.01.2020
4062 Clouds 8 1022 76 10000 2.1 180 08:44 19.01.2020
4063 Clouds 9 1022 76 10000 3.1 190 08:26 19.01.2020
4064 Clouds 8 1022 71 10000 1.5 210 07:42 19.01.2020
4065 Clouds 8 1022 71 10000 1.5 210 07:22 19.01.2020
4066 Clear 9 1022 71 10000 2.6 160 06:54 19.01.2020
4067 Clear 9 1022 71 10000 3.6 160 06:21 19.01.2020
4068 Clear 9 1023 71 10000 3.6 160 02:47 19.01.2020
4069 Clouds 9 1023 71 10000 3.6 160 02:24 19.01.2020
4070 Clouds 9 1023 71 10000 4.1 160 01:28 19.01.2020
4071 Clouds 9 1023 71 10000 3.1 170 00:54 19.01.2020
4072 Clouds 9 1023 71 10000 3.1 170 00:29 19.01.2020
4073 Clouds 8 1023 71 10000 3.1 170 23:59 18.01.2020
4074 Clouds 8 1023 71 10000 4.1 160 23:41 18.01.2020
4075 Clouds 8 1023 71 10000 4.1 160 23:23 18.01.2020
4076 Clouds 8 1023 76 10000 3.6 170 22:55 18.01.2020
4077 Clouds 8 1024 76 10000 3.6 160 22:37 18.01.2020
4078 Clouds 8 1024 76 10000 3.6 160 22:19 18.01.2020
4079 Clouds 9 1024 71 10000 4.1 230 21:57 18.01.2020
4080 Clouds 9 1024 71 10000 4.1 230 21:38 18.01.2020
4081 Clouds 9 1024 67 10000 4.6 260 21:20 18.01.2020
4082 Clouds 9 1024 66 10000 2.1 220 20:44 18.01.2020
4083 Clouds 9 1024 71 10000 2.6 170 20:21 18.01.2020
4084 Clouds 9 1024 71 10000 2.6 170 20:21 18.01.2020
4085 Clouds 9 1024 66 10000 2.1 200 19:59 18.01.2020
4086 Clouds 10 1024 66 10000 2.1 200 19:41 18.01.2020
4087 Clouds 10 1024 67 10000 3.1 290 19:22 18.01.2020
4088 Clouds 10 1024 67 10000 4.6 290 18:42 18.01.2020
4089 Clouds 10 1024 67 10000 3.6 300 18:22 18.01.2020
4090 Clouds 10 1024 62 10000 4.6 290 17:56 18.01.2020
4091 Clouds 10 1024 62 10000 5.1 300 17:38 18.01.2020
4092 Clouds 11 1024 62 10000 5.1 300 17:19 18.01.2020
4093 Clouds 11 1024 67 10000 6.2 300 16:55 18.01.2020
4094 Clouds 11 1024 67 10000 6.2 300 16:55 18.01.2020
4095 Clouds 11 1024 71 10000 7.2 290 16:36 18.01.2020
4096 Clouds 12 1024 71 10000 7.2 290 16:18 18.01.2020
4097 Clouds 12 1024 71 10000 7.2 290 16:18 18.01.2020
4098 Clouds 12 1024 71 10000 7.7 290 15:41 18.01.2020
4099 Clouds 13 1024 71 10000 7.7 290 15:23 18.01.2020
4100 Clouds 13 1024 71 10000 7.7 290 14:57 18.01.2020
4101 Clouds 13 1024 71 10000 8.2 280 14:39 18.01.2020
4102 Clouds 13 1024 71 10000 8.2 280 14:18 18.01.2020
4103 Clouds 13 1024 71 10000 8.2 280 13:44 18.01.2020
4104 Clouds 13 1025 71 10000 8.7 280 13:26 18.01.2020
4105 Clouds 13 1025 71 10000 9.3 290 12:58 18.01.2020
4106 Clouds 13 1025 72 10000 7.7 280 12:39 18.01.2020
4107 Clouds 14 1025 72 10000 7.7 280 12:20 18.01.2020
4108 Clouds 13 1025 62 10000 6.2 200 11:44 18.01.2020
4109 Clouds 13 1025 62 10000 6.2 190 11:22 18.01.2020
4110 Clouds 12 1025 62 10000 6.7 200 10:57 18.01.2020
4111 Clouds 13 1025 62 10000 6.7 200 10:38 18.01.2020
4112 Clouds 13 1026 62 10000 5.7 190 10:20 18.01.2020
4113 Clouds 12 1026 62 10000 5.7 200 09:46 18.01.2020
4114 Clouds 12 1026 62 10000 5.7 200 09:28 18.01.2020
4115 Clouds 10 1026 62 10000 4.1 200 08:56 18.01.2020
4116 Clouds 9 1026 66 10000 4.6 190 08:38 18.01.2020
4117 Clouds 8 1026 66 10000 4.6 190 08:19 18.01.2020
4118 Clouds 8 1026 66 10000 3.1 170 07:50 18.01.2020
4119 Clouds 8 1026 62 10000 3.6 160 07:31 18.01.2020
4120 Clouds 8 1026 71 10000 3.1 160 06:48 18.01.2020
4121 Clouds 8 1026 76 10000 3.1 180 05:59 18.01.2020
4122 Clouds 8 1026 66 10000 3.1 170 05:24 18.01.2020
4123 Clouds 9 1026 61 10000 2.1 160 02:56 18.01.2020
4124 Clouds 9 1026 66 10000 1.5 180 01:56 18.01.2020
4125 Clouds 10 1027 58 10000 0.5 0 01:35 18.01.2020
4126 Clouds 10 1027 50 10000 2.6 330 00:37 18.01.2020
4127 Clouds 10 1027 50 10000 2.6 330 00:18 18.01.2020
4128 Clouds 10 1027 50 10000 2.6 330 00:18 18.01.2020
4129 Clouds 10 1027 50 10000 2.6 330 00:18 18.01.2020
4130 Clouds 10 1027 58 10000 3.6 340 23:44 17.01.2020
4131 Clouds 10 1027 58 10000 3.6 340 23:20 17.01.2020
4132 Clouds 10 1027 58 10000 3.6 350 22:46 17.01.2020
4133 Clouds 10 1027 58 10000 3.6 350 22:22 17.01.2020
4134 Clouds 10 1027 58 10000 3.6 350 22:22 17.01.2020
4135 Clouds 10 1027 58 10000 4.1 340 21:59 17.01.2020
4136 Clouds 10 1027 58 10000 3.1 340 21:41 17.01.2020
4137 Clouds 10 1027 58 10000 3.1 340 21:22 17.01.2020
4138 Clouds 10 1027 58 10000 3.1 340 21:22 17.01.2020
4139 Clouds 10 1027 58 10000 2.6 340 20:58 17.01.2020
4140 Clouds 10 1027 66 10000 0.5 150 20:39 17.01.2020
4141 Clouds 10 1027 66 10000 0.5 150 20:20 17.01.2020
4142 Clouds 10 1027 66 10000 1 0 19:55 17.01.2020
4143 Clouds 10 1027 62 10000 1.5 190 19:37 17.01.2020
4144 Clouds 10 1027 62 10000 1.5 190 19:19 17.01.2020
4145 Clouds 11 1027 62 10000 0.5 0 18:56 17.01.2020
4146 Clouds 10 1027 58 10000 0.5 130 18:36 17.01.2020
4147 Clouds 10 1027 58 10000 0.5 130 18:18 17.01.2020
4148 Clouds 10 1026 58 10000 1 100 17:39 17.01.2020
4149 Clouds 10 1026 58 10000 1.5 60 17:20 17.01.2020
4150 Clouds 11 1026 54 10000 2.1 50 16:44 17.01.2020
4151 Clouds 11 1026 54 10000 1.5 40 16:21 17.01.2020
4152 Clouds 11 1026 58 10000 2.6 10 15:58 17.01.2020
4153 Clouds 11 1026 58 10000 2.6 10 15:58 17.01.2020
4154 Clouds 11 1026 58 10000 2.6 20 15:39 17.01.2020
4155 Clouds 12 1026 58 10000 2.6 20 15:20 17.01.2020
4156 Clouds 12 1027 58 10000 2.1 20 14:43 17.01.2020
4157 Clouds 11 1026 58 10000 2.1 10 14:24 17.01.2020
4158 Clouds 12 1027 58 10000 2.1 30 13:43 17.01.2020
4159 Clouds 12 1027 58 10000 2.6 20 13:23 17.01.2020
4160 Clouds 12 1027 54 10000 2.1 350 12:47 17.01.2020
4161 Clouds 12 1028 58 10000 2.1 320 12:23 17.01.2020
4162 Clouds 12 1028 58 10000 4.1 320 11:43 17.01.2020
4163 Clouds 11 1028 58 10000 4.1 320 11:20 17.01.2020
4164 Clouds 11 1028 58 10000 3.1 340 10:58 17.01.2020
4165 Clouds 11 1028 58 10000 3.1 340 10:40 17.01.2020
4166 Clouds 11 1028 62 10000 4.1 340 10:21 17.01.2020
4167 Clouds 11 1027 62 10000 2.6 20 09:56 17.01.2020
4168 Clouds 11 1027 58 10000 2.6 90 09:37 17.01.2020
4169 Clouds 11 1027 58 10000 2.6 90 09:18 17.01.2020
4170 Clouds 11 1027 58 10000 2.6 90 08:42 17.01.2020
4171 Clouds 9 1027 58 10000 3.1 60 08:23 17.01.2020
4172 Clouds 9 1027 58 10000 3.6 60 07:49 17.01.2020
4173 Clouds 8 1027 62 10000 4.6 350 07:30 17.01.2020
4174 Clouds 9 1027 58 10000 3.6 50 06:56 17.01.2020
4175 Clouds 10 1027 62 10000 2.1 80 06:37 17.01.2020
4176 Clouds 9 1027 58 10000 3.1 30 05:22 17.01.2020
4177 Clouds 9 1028 58 10000 4.1 340 03:38 17.01.2020
4178 Clouds 8 1028 68 0 0.45 45 02:43 17.01.2020
4179 Clear 8 1031 82 0 0.89 270 01:45 17.01.2020
4180 Clear 8 1031 83 0 0.89 315 01:27 17.01.2020
4181 Clear 8 1031 82 0 0.89 270 00:43 17.01.2020
4182 Clouds 8 1028 62 10000 3.6 80 00:20 17.01.2020
4183 Clouds 9 1028 62 10000 3.6 80 23:42 16.01.2020
4184 Clouds 9 1028 62 10000 3.6 80 23:24 16.01.2020
4185 Clouds 9 1028 66 10000 4.1 70 22:43 16.01.2020
4186 Clear 9 1028 66 10000 3.6 70 22:22 16.01.2020
4187 Clouds 9 1028 71 10000 4.1 70 21:57 16.01.2020
4188 Clouds 9 1028 71 10000 4.1 70 21:39 16.01.2020
4189 Clouds 9 1028 71 10000 3.6 70 21:19 16.01.2020
4190 Clouds 9 1028 66 10000 3.6 70 20:59 16.01.2020
4191 Clouds 9 1028 71 10000 3.6 70 20:40 16.01.2020
4192 Clouds 9 1028 71 10000 3.6 70 20:20 16.01.2020
4193 Clear 9 1028 66 10000 4.1 70 19:57 16.01.2020
4194 Clear 9 1028 66 10000 3.6 80 19:39 16.01.2020
4195 Clear 9 1028 66 10000 3.6 80 19:20 16.01.2020
4196 Clear 9 1028 66 10000 4.6 80 18:56 16.01.2020
4197 Clear 9 1028 71 10000 4.1 70 18:37 16.01.2020
4198 Clear 9 1028 71 10000 4.1 70 18:18 16.01.2020
4199 Clear 9 1028 71 10000 4.1 70 18:18 16.01.2020
4200 Clear 10 1027 66 10000 6.2 70 17:58 16.01.2020
4201 Clear 10 1027 66 10000 6.2 70 17:39 16.01.2020
4202 Clouds 10 1027 66 10000 6.2 60 17:20 16.01.2020
4203 Clear 11 1028 67 0 0.89 34 16:41 16.01.2020
4204 Clear 11 1034 69 0 0.45 55 16:21 16.01.2020
4205 Clouds 12 1028 67 10000 6.2 50 15:57 16.01.2020
4206 Clouds 12 1028 67 10000 6.2 50 15:38 16.01.2020
4207 Clouds 12 1028 67 10000 6.7 50 15:20 16.01.2020
4208 Clouds 12 1028 62 10000 6.2 50 14:42 16.01.2020
4209 Clouds 12 1028 67 10000 6.2 50 14:24 16.01.2020
4210 Clouds 12 1028 62 10000 5.7 50 13:55 16.01.2020
4211 Clouds 12 1029 67 10000 5.7 50 13:37 16.01.2020
4212 Clouds 12 1029 67 10000 5.7 50 13:19 16.01.2020
4213 Clear 12 1029 69 0 2.24 327 12:41 16.01.2020
4214 Clouds 12 1030 67 10000 4.6 50 12:21 16.01.2020
4215 Clouds 12 1030 67 10000 4.6 60 11:43 16.01.2020
4216 Clouds 12 1030 67 10000 5.1 60 11:24 16.01.2020
4217 Clouds 11 1030 71 10000 1.5 0 10:59 16.01.2020
4218 Clouds 11 1030 71 10000 1.5 0 10:38 16.01.2020
4219 Clear 11 1030 76 10000 1.5 210 10:20 16.01.2020
4220 Clear 11 1029 76 10000 1.5 80 09:54 16.01.2020
4221 Clouds 10 1029 87 10000 1 0 09:36 16.01.2020
4222 Clouds 10 1029 87 10000 1 0 09:18 16.01.2020
4223 Clear 9 1029 87 10000 2.1 150 08:42 16.01.2020
4224 Clear 8 1029 93 10000 1.5 160 08:23 16.01.2020
4225 Clear 7 1029 81 10000 1 0 07:43 16.01.2020
4226 Clear 8 1029 87 10000 1.5 160 07:25 16.01.2020
4227 Clear 7 1029 87 10000 1 180 06:56 16.01.2020
4228 Clear 7 1028 87 10000 1.5 160 06:37 16.01.2020
4229 Clear 7 1028 87 10000 1.5 150 05:56 16.01.2020
4230 Clear 7 1028 81 10000 1 150 05:31 16.01.2020
4231 Clear 8 1028 81 10000 1.5 190 04:37 16.01.2020
4232 Clear 8 1028 81 10000 1.5 190 04:37 16.01.2020
4233 Clear 8 1029 81 10000 1.5 150 03:28 16.01.2020
4234 Clear 8 1029 81 10000 2.1 120 02:29 16.01.2020
4235 Clear 8 1029 76 10000 1.5 140 00:45 16.01.2020
4236 Clear 8 1029 81 10000 2.6 150 00:24 16.01.2020
4237 Clear 8 1029 81 10000 2.6 150 23:48 15.01.2020
4238 Clear 8 1029 87 10000 2.1 130 23:22 15.01.2020
4239 Clear 8 1029 81 10000 1.5 100 22:57 15.01.2020
4240 Clear 9 1029 81 10000 0.5 0 22:39 15.01.2020
4241 Clear 8 1029 81 10000 0.5 0 22:19 15.01.2020
4242 Clear 8 1029 76 10000 0.5 0 21:57 15.01.2020
4243 Clear 8 1029 76 10000 0.5 0 21:37 15.01.2020
4244 Clear 8 1029 71 10000 0.5 0 21:19 15.01.2020
4245 Clear 8 1029 76 10000 0.5 0 20:57 15.01.2020
4246 Clear 9 1029 71 10000 1 110 20:39 15.01.2020
4247 Clear 9 1029 71 10000 1 110 20:20 15.01.2020
4248 Clear 9 1029 71 10000 2.6 150 19:55 15.01.2020
4249 Clear 9 1028 71 10000 1 0 19:37 15.01.2020
4250 Clear 9 1028 71 10000 1 0 19:19 15.01.2020
4251 Clear 9 1028 76 10000 1.5 80 18:56 15.01.2020
4252 Clear 10 1028 76 10000 1.5 80 18:56 15.01.2020
4253 Clear 10 1028 71 10000 2.6 80 18:38 15.01.2020
4254 Clear 10 1028 76 10000 1.5 80 18:38 15.01.2020
4255 Clear 10 1028 71 10000 2.6 80 18:19 15.01.2020
4256 Clear 10 1027 71 10000 4.6 70 17:57 15.01.2020
4257 Clear 11 1027 67 10000 5.1 70 17:38 15.01.2020
4258 Clouds 11 1027 67 10000 5.1 70 17:19 15.01.2020
4259 Clouds 12 1027 67 10000 5.1 70 16:41 15.01.2020
4260 Clouds 12 1027 67 10000 5.1 70 16:22 15.01.2020
4261 Clouds 13 1027 58 10000 3.6 60 15:58 15.01.2020
4262 Clouds 13 1027 71 10000 2.1 30 15:39 15.01.2020
4263 Clouds 13 1027 71 10000 2.1 30 15:20 15.01.2020
4264 Clouds 13 1027 71 10000 2.1 20 14:43 15.01.2020
4265 Clear 13 1027 67 10000 1.5 310 14:20 15.01.2020
4266 Clear 13 1027 67 10000 2.1 290 13:55 15.01.2020
4267 Clear 13 1028 71 10000 2.6 270 13:37 15.01.2020
4268 Clear 13 1028 71 10000 2.6 270 13:18 15.01.2020
4269 Clear 13 1028 66 10000 2.1 260 12:41 15.01.2020
4270 Clear 13 1028 66 10000 2.1 270 12:20 15.01.2020
4271 Clear 12 1028 71 10000 1.5 260 11:58 15.01.2020
4272 Clear 13 1028 71 10000 1.5 260 11:38 15.01.2020
4273 Clear 12 1029 66 10000 1.5 250 11:19 15.01.2020
4274 Clear 12 1028 71 10000 1 250 10:46 15.01.2020
4275 Clear 11 1028 71 10000 1 0 10:28 15.01.2020
4276 Clear 11 1028 76 10000 1 180 09:54 15.01.2020
4277 Clear 10 1028 87 10000 2.1 180 09:36 15.01.2020
4278 Clear 9 1028 87 10000 2.1 180 09:18 15.01.2020
4279 Clear 9 1028 81 10000 1.5 190 08:41 15.01.2020
4280 Clear 8 1027 87 10000 1.5 170 08:23 15.01.2020
4281 Clear 8 1027 87 10000 1 130 07:53 15.01.2020
4282 Clear 8 1027 87 10000 1 150 07:32 15.01.2020
4283 Clear 7 1027 87 10000 1.5 190 06:47 15.01.2020
4284 Clear 7 1027 87 10000 2.6 150 06:21 15.01.2020
4285 Clear 7 1027 75 10000 1 180 04:45 15.01.2020
4286 Clear 8 1027 81 10000 1 140 02:39 15.01.2020
4287 Clouds 8 1027 76 10000 1.5 190 01:28 15.01.2020
4288 Clouds 8 1027 76 10000 1 0 00:59 15.01.2020
4289 Clouds 8 1027 81 10000 1 0 00:36 15.01.2020
4290 Clouds 8 1027 81 10000 1 0 00:18 15.01.2020
4291 Clouds 8 1027 76 10000 2.6 90 23:45 14.01.2020
4292 Clouds 9 1027 81 10000 4.1 80 23:24 14.01.2020
4293 Clouds 8 1027 76 10000 3.6 90 22:54 14.01.2020
4294 Clouds 8 1027 76 10000 4.1 70 22:36 14.01.2020
4295 Clouds 8 1027 76 10000 4.1 70 22:18 14.01.2020
4296 Clouds 9 1027 76 10000 4.1 70 21:54 14.01.2020
4297 Clouds 9 1027 81 10000 4.1 70 21:36 14.01.2020
4298 Clouds 9 1027 81 10000 4.1 70 21:18 14.01.2020
4299 Clouds 9 1027 81 10000 4.1 70 21:18 14.01.2020
4300 Clouds 9 1027 81 10000 4.1 70 20:42 14.01.2020
4301 Clouds 9 1027 81 10000 4.1 70 20:22 14.01.2020
4302 Clouds 9 1027 81 10000 4.1 70 19:56 14.01.2020
4303 Clouds 9 1026 76 10000 4.1 70 19:38 14.01.2020
4304 Clouds 9 1026 76 10000 4.1 70 19:20 14.01.2020
4305 Clouds 9 1026 76 10000 4.1 70 18:58 14.01.2020
4306 Clouds 10 1026 76 10000 4.1 70 18:39 14.01.2020
4307 Clouds 10 1026 71 10000 4.1 60 18:19 14.01.2020
4308 Clouds 10 1026 71 10000 4.1 50 17:39 14.01.2020
4309 Clouds 11 1026 71 10000 4.1 50 17:19 14.01.2020
4310 Clouds 11 1026 67 10000 4.6 50 16:59 14.01.2020
4311 Clouds 12 1025 71 10000 5.1 40 16:40 14.01.2020
4312 Clouds 12 1025 71 10000 5.1 40 16:21 14.01.2020
4313 Clear 12 1025 71 10000 5.1 40 15:55 14.01.2020
4314 Clear 12 1025 71 10000 5.1 40 15:37 14.01.2020
4315 Clear 13 1025 71 10000 5.1 40 15:18 14.01.2020
4316 Clear 13 1025 67 10000 4.6 40 14:43 14.01.2020
4317 Clear 13 1025 67 10000 4.6 40 14:20 14.01.2020
4318 Clear 13 1025 71 10000 3.6 40 13:43 14.01.2020
4319 Clear 13 1025 71 10000 1.5 280 13:20 14.01.2020
4320 Clear 13 1026 76 10000 2.1 260 12:59 14.01.2020
4321 Clear 13 1026 71 10000 2.1 240 12:40 14.01.2020
4322 Clear 13 1026 71 10000 2.1 240 12:20 14.01.2020
4323 Clear 12 1026 71 10000 2.1 240 12:20 14.01.2020
4324 Clear 12 1026 71 10000 1.5 290 11:43 14.01.2020
4325 Clear 12 1026 71 10000 1.5 290 11:23 14.01.2020
4326 Clear 12 1026 76 10000 0.5 0 10:58 14.01.2020
4327 Clear 11 1026 71 10000 1 0 10:39 14.01.2020
4328 Clear 11 1026 71 10000 1 0 10:39 14.01.2020
4329 Clear 11 1026 71 10000 1 0 10:20 14.01.2020
4330 Clear 11 1026 81 10000 0.5 0 09:57 14.01.2020
4331 Clear 10 1026 81 10000 1 0 09:39 14.01.2020
4332 Clear 10 1026 81 10000 1 0 09:20 14.01.2020
4333 Clear 8 1026 81 10000 2.1 160 08:46 14.01.2020
4334 Clear 8 1026 81 10000 1.5 150 08:24 14.01.2020
4335 Clear 7 1026 81 10000 1.5 170 07:53 14.01.2020
4336 Clear 7 1026 81 10000 1.5 160 07:33 14.01.2020
4337 Clear 7 1025 87 10000 1.5 170 06:54 14.01.2020
4338 Clear 7 1025 81 10000 2.1 110 06:27 14.01.2020
4339 Clear 7 1024 75 10000 1 0 05:27 14.01.2020
4340 Clear 7 1024 75 10000 1.5 180 03:52 14.01.2020
4341 Clear 8 1024 75 10000 3.1 160 02:43 14.01.2020
4342 Clear 8 1024 81 10000 1.5 180 01:53 14.01.2020
4343 Clear 8 1024 76 10000 1.5 130 00:51 14.01.2020
4344 Clear 8 1025 75 10000 1 90 00:32 14.01.2020
4345 Clear 8 1025 75 10000 1 90 00:32 14.01.2020
4346 Clear 8 1025 76 10000 1.5 120 23:55 13.01.2020
4347 Clear 8 1025 81 10000 2.6 150 23:37 13.01.2020
4348 Clear 8 1025 81 10000 2.6 150 23:18 13.01.2020
4349 Clear 8 1025 81 10000 2.6 150 23:18 13.01.2020
4350 Clear 8 1025 76 10000 1 0 22:42 13.01.2020
4351 Clear 8 1025 76 10000 1 0 22:21 13.01.2020
4352 Clear 8 1025 76 10000 1 0 22:21 13.01.2020
4353 Clear 8 1025 66 10000 1 0 21:57 13.01.2020
4354 Clear 8 1025 66 10000 1 0 21:38 13.01.2020
4355 Clear 8 1025 66 10000 1 0 21:38 13.01.2020
4356 Clear 8 1025 66 10000 1 0 21:38 13.01.2020
4357 Clear 8 1024 71 10000 2.1 140 21:19 13.01.2020
4358 Clear 8 1024 71 10000 2.1 140 21:19 13.01.2020
4359 Clear 8 1024 62 10000 1.5 240 20:58 13.01.2020
4360 Clear 9 1024 66 10000 1 0 20:40 13.01.2020
4361 Clear 9 1024 66 10000 1 0 20:22 13.01.2020
4362 Clear 9 1024 66 10000 2.6 0 19:59 13.01.2020
4363 Clear 9 1024 66 10000 3.6 90 19:39 13.01.2020
4364 Clear 9 1024 66 10000 3.6 90 19:20 13.01.2020
4365 Clear 9 1023 71 10000 5.1 80 18:56 13.01.2020
4366 Clear 9 1023 71 10000 5.1 80 18:37 13.01.2020
4367 Clear 9 1023 71 10000 5.1 80 18:18 13.01.2020
4368 Clear 10 1023 71 10000 4.6 80 17:43 13.01.2020
4369 Clear 10 1023 71 10000 4.6 70 17:25 13.01.2020
4370 Clouds 11 1023 67 10000 5.7 70 16:57 13.01.2020
4371 Clear 11 1023 70 0 1.34 49 16:38 13.01.2020
4372 Clear 11 1026 84 0 1.79 90 16:20 13.01.2020
4373 Clear 11 1023 68 0 1.79 62 15:44 13.01.2020
4374 Clear 11 1027 79 0 2.24 135 15:24 13.01.2020
4375 Clear 12 1026 75 0 0.89 113 14:59 13.01.2020
4376 Clear 12 1027 73 0 1.34 135 14:40 13.01.2020
4377 Clear 12 1027 72 0 1.79 68 14:22 13.01.2020
4378 Clear 12 1027 69 0 0.89 135 13:56 13.01.2020
4379 Clear 12 1027 69 0 0.89 135 13:56 13.01.2020
4380 Clear 12 1023 62 0 2.24 66 13:37 13.01.2020
4381 Clear 12 1027 71 0 0.89 180 13:19 13.01.2020
4382 Clear 12 1025 66 10000 2.6 250 12:43 13.01.2020
4383 Clear 12 1025 66 10000 2.6 250 12:23 13.01.2020
4384 Clear 12 1025 66 10000 2.6 250 12:23 13.01.2020
4385 Clear 12 1025 66 10000 2.6 250 11:58 13.01.2020
4386 Clear 12 1025 66 10000 2.6 250 11:38 13.01.2020
4387 Clear 12 1025 66 10000 2.6 250 11:38 13.01.2020
4388 Clear 11 1025 66 10000 0.5 0 11:19 13.01.2020
4389 Clear 11 1025 71 10000 1 0 10:56 13.01.2020
4390 Clear 11 1025 76 10000 1.5 170 10:38 13.01.2020
4391 Clear 10 1025 76 10000 1.5 170 10:19 13.01.2020
4392 Clear 10 1024 71 10000 0.5 0 09:44 13.01.2020
4393 Clear 9 1024 76 10000 1.5 170 09:26 13.01.2020
4394 Clear 9 1024 76 10000 2.1 170 08:58 13.01.2020
4395 Clear 9 1024 81 10000 3.1 200 08:37 13.01.2020
4396 Clear 9 1024 81 10000 3.1 200 08:18 13.01.2020
4397 Clear 8 1024 75 10000 2.1 150 07:44 13.01.2020
4398 Clear 8 1023 76 10000 2.6 150 07:26 13.01.2020
4399 Clear 8 1023 75 10000 1 180 06:39 13.01.2020
4400 Clear 8 1023 71 10000 1 0 05:57 13.01.2020
4401 Clear 8 1023 76 10000 1.5 170 05:19 13.01.2020
4402 Clear 8 1024 71 10000 1 0 03:46 13.01.2020
4403 Clear 8 1024 71 10000 1 0 02:51 13.01.2020
4404 Clouds 8 1024 71 10000 1 190 02:30 13.01.2020
4405 Clouds 9 1024 71 10000 1.5 200 01:33 13.01.2020
4406 Clouds 9 1024 66 10000 1.5 210 00:55 13.01.2020
4407 Clouds 8 1024 66 10000 2.1 190 00:36 13.01.2020
4408 Clouds 8 1024 66 10000 2.1 190 00:18 13.01.2020
4409 Clouds 9 1024 62 10000 1 0 23:40 12.01.2020
4410 Clouds 9 1024 62 10000 1 0 23:22 12.01.2020
4411 Clouds 9 1024 66 10000 3.1 80 22:57 12.01.2020
4412 Clouds 9 1024 66 10000 3.1 80 22:39 12.01.2020
4413 Clouds 9 1024 66 10000 2.1 150 22:19 12.01.2020
4414 Clouds 8 1024 71 10000 3.6 80 21:54 12.01.2020
4415 Clouds 8 1024 71 10000 3.6 80 21:54 12.01.2020
4416 Clouds 8 1024 66 10000 3.6 70 21:36 12.01.2020
4417 Clouds 8 1024 66 10000 3.6 70 21:36 12.01.2020
4418 Clouds 8 1024 66 10000 3.6 70 21:18 12.01.2020
4419 Clouds 8 1024 66 10000 4.6 80 20:54 12.01.2020
4420 Clouds 8 1024 66 10000 5.1 70 20:36 12.01.2020
4421 Clouds 8 1024 66 10000 5.1 70 20:18 12.01.2020
4422 Clouds 9 1024 71 10000 4.6 70 19:54 12.01.2020
4423 Clouds 9 1024 71 10000 4.1 70 19:36 12.01.2020
4424 Clouds 9 1024 71 10000 4.1 70 19:18 12.01.2020
4425 Clouds 9 1023 71 10000 3.6 70 18:56 12.01.2020
4426 Clouds 9 1023 71 10000 3.6 70 18:38 12.01.2020
4427 Clouds 10 1023 66 10000 4.1 70 18:19 12.01.2020
4428 Clouds 10 1023 71 10000 4.1 80 17:42 12.01.2020
4429 Clouds 11 1023 66 10000 4.6 60 17:21 12.01.2020
4430 Clouds 11 1023 67 10000 5.1 60 16:58 12.01.2020
4431 Clouds 11 1023 67 10000 5.1 60 16:38 12.01.2020
4432 Clouds 11 1023 62 10000 4.6 70 16:20 12.01.2020
4433 Clouds 12 1023 67 10000 5.1 50 15:55 12.01.2020
4434 Clouds 12 1023 67 10000 5.7 40 15:37 12.01.2020
4435 Clouds 12 1023 67 10000 5.7 40 15:19 12.01.2020
4436 Clouds 13 1023 71 10000 4.1 30 14:42 12.01.2020
4437 Clouds 12 1023 71 10000 4.1 30 14:23 12.01.2020
4438 Clouds 12 1023 67 10000 2.1 20 13:57 12.01.2020
4439 Clouds 12 1024 71 10000 3.6 10 13:39 12.01.2020
4440 Clouds 12 1024 71 10000 3.6 10 13:20 12.01.2020
4441 Clouds 12 1024 66 10000 2.6 10 12:55 12.01.2020
4442 Clouds 13 1024 62 10000 1.5 340 12:37 12.01.2020
4443 Clouds 13 1024 62 10000 1.5 340 12:18 12.01.2020
4444 Clouds 12 1025 62 10000 1 330 11:41 12.01.2020
4445 Clouds 11 1025 58 10000 1 0 11:22 12.01.2020
4446 Clouds 12 1025 66 10000 0.5 0 10:56 12.01.2020
4447 Clouds 12 1024 66 10000 0.5 0 10:37 12.01.2020
4448 Clouds 11 1024 66 10000 0.5 0 10:18 12.01.2020
4449 Clouds 9 1024 75 10000 1.5 180 09:42 12.01.2020
4450 Clouds 9 1024 75 10000 1.5 180 09:23 12.01.2020
4451 Clouds 7 1024 81 10000 1 0 08:48 12.01.2020
4452 Clouds 7 1023 70 10000 1.5 160 08:24 12.01.2020
4453 Clouds 7 1023 75 10000 2.1 180 07:47 12.01.2020
4454 Clouds 7 1023 75 10000 2.1 190 07:26 12.01.2020
4455 Clouds 7 1023 75 10000 2.1 190 07:26 12.01.2020
4456 Clouds 7 1023 75 10000 2.1 180 06:59 12.01.2020
4457 Clouds 7 1023 75 10000 2.1 180 06:59 12.01.2020
4458 Clouds 7 1023 75 10000 1 170 06:36 12.01.2020
4459 Clouds 7 1023 70 10000 1.5 190 05:52 12.01.2020
4460 Clouds 7 1023 75 10000 1.5 200 04:56 12.01.2020
4461 Clouds 7 1023 70 10000 1.5 190 03:43 12.01.2020
4462 Clouds 8 1023 71 10000 1.5 160 02:46 12.01.2020
4463 Clouds 7 1023 81 10000 2.6 170 02:24 12.01.2020
4464 Clouds 6 1023 75 10000 2.6 150 01:34 12.01.2020
4465 Clouds 8 1023 76 10000 1.5 110 00:46 12.01.2020
4466 Clouds 6 1023 75 10000 1.5 150 00:22 12.01.2020
4467 Clouds 7 1024 76 10000 2.6 140 23:57 11.01.2020
4468 Clouds 7 1024 76 10000 2.6 140 23:39 11.01.2020
4469 Clear 7 1024 76 10000 1.5 160 23:18 11.01.2020
4470 Clear 7 1023 76 10000 1.5 160 22:56 11.01.2020
4471 Clear 7 1023 71 10000 1.5 180 22:37 11.01.2020
4472 Clear 7 1023 71 10000 1.5 180 22:19 11.01.2020
4473 Clear 7 1023 70 10000 1 140 21:44 11.01.2020
4474 Clear 8 1023 71 10000 2.6 120 21:19 11.01.2020
4475 Clouds 8 1023 71 10000 2.1 120 20:57 11.01.2020
4476 Clear 8 1023 62 10000 1 0 20:39 11.01.2020
4477 Clouds 8 1023 62 10000 1 0 20:19 11.01.2020
4478 Clouds 8 1023 71 10000 4.6 70 19:56 11.01.2020
4479 Clouds 8 1023 66 10000 5.1 80 19:38 11.01.2020
4480 Clouds 8 1023 66 10000 5.1 80 19:20 11.01.2020
4481 Clouds 8 1023 71 10000 4.1 70 18:55 11.01.2020
4482 Clouds 9 1023 62 10000 5.1 60 18:36 11.01.2020
4483 Clouds 9 1023 62 10000 5.1 60 18:18 11.01.2020
4484 Clouds 9 1023 62 10000 5.1 60 18:18 11.01.2020
4485 Clouds 9 1023 62 10000 5.1 60 18:18 11.01.2020
4486 Clouds 10 1022 66 10000 6.2 50 17:57 11.01.2020
4487 Clouds 10 1022 66 10000 6.2 50 17:39 11.01.2020
4488 Clear 11 1022 66 10000 6.2 50 17:18 11.01.2020
4489 Clear 11 1022 62 10000 6.2 40 16:43 11.01.2020
4490 Clear 12 1022 58 10000 4.6 50 16:24 11.01.2020
4491 Clouds 12 1022 58 10000 4.6 40 15:56 11.01.2020
4492 Clear 12 1022 62 10000 4.1 30 15:38 11.01.2020
4493 Clear 12 1022 62 10000 4.1 30 15:19 11.01.2020
4494 Clouds 12 1022 62 10000 3.6 30 14:46 11.01.2020
4495 Clouds 12 1022 62 10000 4.6 30 14:25 11.01.2020
4496 Clouds 12 1022 62 10000 5.1 10 13:57 11.01.2020
4497 Clouds 12 1022 62 10000 5.1 10 13:38 11.01.2020
4498 Clouds 12 1023 62 10000 3.6 10 13:19 11.01.2020
4499 Clouds 13 1023 62 10000 2.1 360 12:55 11.01.2020
4500 Clouds 13 1024 66 10000 1.5 0 12:36 11.01.2020
4501 Clouds 13 1024 66 10000 1.5 0 12:18 11.01.2020
4502 Clouds 12 1025 71 10000 1.5 250 11:42 11.01.2020
4503 Clouds 12 1025 71 10000 1.5 250 11:23 11.01.2020
4504 Clouds 12 1025 71 10000 1 0 10:46 11.01.2020
4505 Clouds 11 1024 76 10000 1 180 10:25 11.01.2020
4506 Clouds 11 1024 71 10000 1.5 170 09:43 11.01.2020
4507 Clouds 10 1024 71 10000 1.5 170 09:21 11.01.2020
4508 Clouds 9 1024 76 10000 2.1 200 08:57 11.01.2020
4509 Clouds 9 1024 71 10000 1.5 220 08:38 11.01.2020
4510 Clouds 9 1024 71 10000 1.5 220 08:19 11.01.2020
4511 Clouds 8 1024 71 10000 1.5 220 07:42 11.01.2020
4512 Clouds 8 1024 76 10000 2.1 220 07:24 11.01.2020
4513 Clouds 8 1024 76 10000 3.1 220 06:43 11.01.2020
4514 Clouds 8 1023 75 10000 2.1 190 05:29 11.01.2020
4515 Clouds 8 1023 81 10000 2.1 160 04:40 11.01.2020
4516 Clouds 8 1024 81 10000 2.1 220 04:21 11.01.2020
4517 Clouds 8 1024 76 10000 1 0 02:46 11.01.2020
4518 Clouds 8 1024 62 10000 3.6 120 01:47 11.01.2020
4519 Clouds 8 1024 66 10000 1.5 60 01:27 11.01.2020
4520 Clouds 8 1024 71 10000 1 0 00:52 11.01.2020
4521 Clouds 8 1024 66 10000 1 0 00:25 11.01.2020
4522 Clouds 8 1024 71 10000 1 0 23:58 10.01.2020
4523 Clouds 8 1024 66 10000 2.1 70 23:39 10.01.2020
4524 Clouds 8 1024 66 10000 2.1 70 23:20 10.01.2020
4525 Clouds 9 1024 66 10000 2.1 120 22:41 10.01.2020
4526 Clouds 8 1024 58 10000 1 0 22:22 10.01.2020
4527 Clouds 8 1024 58 10000 3.6 110 21:59 10.01.2020
4528 Clouds 8 1024 66 10000 4.6 70 21:41 10.01.2020
4529 Clouds 8 1024 66 10000 4.6 70 21:20 10.01.2020
4530 Clouds 8 1024 62 10000 5.1 90 20:57 10.01.2020
4531 Clouds 8 1024 62 10000 5.1 90 20:38 10.01.2020
4532 Clear 8 1024 66 10000 4.6 70 20:20 10.01.2020
4533 Clear 8 1024 62 10000 5.1 90 19:40 10.01.2020
4534 Clear 8 1024 66 10000 4.6 90 19:21 10.01.2020
4535 Clear 9 1024 62 10000 4.6 90 18:56 10.01.2020
4536 Clear 9 1023 66 10000 4.6 80 18:37 10.01.2020
4537 Clear 9 1023 66 10000 4.6 80 18:18 10.01.2020
4538 Clear 9 1023 58 10000 4.6 70 17:56 10.01.2020
4539 Clear 10 1023 50 10000 5.1 80 17:38 10.01.2020
4540 Clear 10 1023 50 10000 5.1 80 17:38 10.01.2020
4541 Clear 10 1023 50 10000 5.1 80 17:19 10.01.2020
4542 Clear 11 1023 54 10000 7.2 70 16:43 10.01.2020
4543 Clear 11 1023 54 10000 7.2 70 16:22 10.01.2020
4544 Clear 11 1023 58 10000 6.7 60 15:58 10.01.2020
4545 Clear 11 1023 58 10000 6.7 60 15:39 10.01.2020
4546 Clear 12 1023 58 10000 6.7 60 15:20 10.01.2020
4547 Clear 12 1023 58 10000 6.7 60 14:59 10.01.2020
4548 Clear 12 1024 62 10000 6.7 60 14:40 10.01.2020
4549 Clear 12 1024 62 10000 6.7 60 14:19 10.01.2020
4550 Clear 12 1024 62 10000 6.2 50 13:58 10.01.2020
4551 Clear 12 1024 62 10000 6.2 50 13:39 10.01.2020
4552 Clear 12 1024 58 10000 6.2 50 13:21 10.01.2020
4553 Clear 12 1025 58 10000 4.6 60 12:57 10.01.2020
4554 Clear 12 1026 62 10000 1.5 290 12:38 10.01.2020
4555 Clear 12 1026 62 10000 1.5 290 12:18 10.01.2020
4556 Clear 12 1026 66 10000 1 0 11:42 10.01.2020
4557 Clear 12 1026 66 10000 1 0 11:42 10.01.2020
4558 Clear 11 1027 71 10000 1.5 250 11:22 10.01.2020
4559 Clear 11 1027 66 10000 1 0 10:59 10.01.2020
4560 Clear 11 1026 71 10000 1 0 10:39 10.01.2020
4561 Clear 11 1026 71 10000 1 0 10:21 10.01.2020
4562 Clear 10 1026 81 10000 1.5 160 09:56 10.01.2020
4563 Clear 9 1026 76 10000 1 140 09:37 10.01.2020
4564 Clear 8 1026 76 10000 1 140 09:19 10.01.2020
4565 Clear 8 1026 76 10000 1 140 09:19 10.01.2020
4566 Clear 8 1026 70 10000 1.5 160 08:40 10.01.2020
4567 Clear 8 1026 75 10000 1.5 190 08:22 10.01.2020
4568 Clear 7 1027 81 10000 1.5 180 07:44 10.01.2020
4569 Clear 8 1027 75 10000 1.5 190 07:23 10.01.2020
4570 Clear 7 1026 75 10000 1.5 140 06:45 10.01.2020
4571 Clear 7 1026 81 10000 1.5 130 06:25 10.01.2020
4572 Clear 8 1026 75 10000 2.1 140 05:46 10.01.2020
4573 Clear 8 1027 81 10000 2.1 150 03:35 10.01.2020
4574 Clear 8 1027 81 10000 2.1 170 02:59 10.01.2020
4575 Clear 8 1027 70 10000 0.5 80 02:39 10.01.2020
4576 Clear 8 1027 75 10000 3.1 140 01:38 10.01.2020
4577 Clear 8 1027 75 10000 3.1 140 01:19 10.01.2020
4578 Clear 9 1028 71 10000 2.1 190 00:39 10.01.2020
4579 Clear 8 1028 75 10000 2.6 180 23:58 09.01.2020
4580 Clear 8 1028 75 10000 2.6 180 23:38 09.01.2020
4581 Clear 9 1028 75 10000 2.1 190 23:20 09.01.2020
4582 Clear 8 1028 70 10000 2.1 170 22:57 09.01.2020
4583 Clear 8 1028 70 10000 2.1 170 22:38 09.01.2020
4584 Clear 8 1028 75 10000 2.1 170 22:19 09.01.2020
4585 Clear 8 1028 70 10000 2.1 170 21:57 09.01.2020
4586 Clear 8 1028 71 10000 1 0 21:37 09.01.2020
4587 Clear 8 1028 71 10000 1 0 21:37 09.01.2020
4588 Clear 8 1028 71 10000 1 0 21:37 09.01.2020
4589 Clear 8 1028 71 10000 1 0 21:37 09.01.2020
4590 Clear 8 1028 71 10000 1 0 21:19 09.01.2020
4591 Clear 9 1028 71 10000 1 0 20:56 09.01.2020
4592 Clear 8 1028 71 10000 1 0 20:38 09.01.2020
4593 Clear 8 1028 71 10000 1.5 120 20:19 09.01.2020
4594 Clear 8 1028 71 10000 1.5 120 20:19 09.01.2020
4595 Clear 8 1028 71 10000 1.5 120 19:56 09.01.2020
4596 Clear 9 1028 66 10000 1.5 100 19:37 09.01.2020
4597 Clear 9 1028 71 10000 2.1 110 19:19 09.01.2020
4598 Clear 9 1028 71 10000 2.1 110 18:55 09.01.2020
4599 Clear 9 1028 76 10000 3.6 70 18:36 09.01.2020
4600 Clear 9 1028 66 10000 4.1 70 18:18 09.01.2020
4601 Clear 10 1028 66 10000 3.6 60 17:41 09.01.2020
4602 Clear 11 1028 62 10000 3.6 60 17:18 09.01.2020
4603 Clear 11 1028 62 10000 3.1 50 16:48 09.01.2020
4604 Clear 12 1027 58 10000 2.6 20 16:24 09.01.2020
4605 Clear 12 1027 58 10000 2.6 20 15:59 09.01.2020
4606 Clear 13 1027 58 10000 2.1 20 15:40 09.01.2020
4607 Clear 13 1028 58 10000 1.5 360 15:19 09.01.2020
4608 Clear 13 1028 62 10000 1.5 340 14:42 09.01.2020
4609 Clear 13 1028 58 10000 1.5 290 14:22 09.01.2020
4610 Clear 13 1028 58 10000 1.5 290 13:57 09.01.2020
4611 Clear 13 1028 58 10000 2.1 280 13:39 09.01.2020
4612 Clear 13 1028 54 10000 2.1 260 13:20 09.01.2020
4613 Clear 13 1028 54 10000 2.1 260 12:59 09.01.2020
4614 Clear 13 1028 50 10000 2.6 250 12:40 09.01.2020
4615 Clear 13 1029 50 10000 2.6 250 12:20 09.01.2020
4616 Clear 13 1029 50 10000 2.6 250 11:57 09.01.2020
4617 Clear 12 1029 54 10000 2.6 250 11:38 09.01.2020
4618 Clear 12 1030 62 10000 1.5 240 11:20 09.01.2020
4619 Clear 12 1030 62 10000 1 0 10:43 09.01.2020
4620 Clear 12 1030 62 10000 1 0 10:22 09.01.2020
4621 Clear 11 1029 66 10000 1 220 09:58 09.01.2020
4622 Clear 11 1029 71 10000 1.5 170 09:38 09.01.2020
4623 Clear 10 1029 75 10000 2.6 210 09:19 09.01.2020
4624 Clear 10 1029 75 10000 2.6 210 08:55 09.01.2020
4625 Clear 9 1029 70 10000 1 110 08:37 09.01.2020
4626 Clear 8 1028 70 10000 1 0 08:19 09.01.2020
4627 Clear 7 1028 81 10000 0.5 0 07:42 09.01.2020
4628 Clear 8 1028 75 10000 1.5 130 07:23 09.01.2020
4629 Clear 7 1028 75 10000 1.5 180 06:38 09.01.2020
4630 Clear 8 1027 70 10000 2.1 160 06:20 09.01.2020
4631 Clear 8 1028 75 10000 2.1 150 05:48 09.01.2020
4632 Clear 8 1028 75 10000 1.5 160 04:43 09.01.2020
4633 Clear 8 1028 70 10000 1 0 03:31 09.01.2020
4634 Clear 8 1028 70 10000 0.5 0 02:53 09.01.2020
4635 Clear 8 1028 70 10000 0.5 0 02:24 09.01.2020
4636 Clear 8 1028 66 10000 1.5 160 01:39 09.01.2020
4637 Clear 9 1028 61 10000 1 0 00:43 09.01.2020
4638 Clear 9 1028 66 10000 2.1 180 00:21 09.01.2020
4639 Clear 9 1028 66 10000 2.1 180 00:21 09.01.2020
4640 Clear 9 1028 61 10000 1.5 150 23:42 08.01.2020
4641 Clear 9 1028 61 10000 1.5 150 23:24 08.01.2020
4642 Clear 9 1028 66 10000 1.5 90 22:59 08.01.2020
4643 Clear 9 1028 66 10000 1.5 90 22:39 08.01.2020
4644 Clear 9 1028 70 10000 2.1 120 22:20 08.01.2020
4645 Clear 9 1028 70 10000 2.1 120 21:57 08.01.2020
4646 Clear 9 1028 66 10000 2.1 160 21:38 08.01.2020
4647 Clear 9 1028 66 10000 2.6 150 21:19 08.01.2020
4648 Clear 9 1028 66 10000 2.6 150 20:58 08.01.2020
4649 Clear 9 1027 71 10000 2.1 140 20:38 08.01.2020
4650 Clouds 9 1027 62 10000 2.1 110 20:20 08.01.2020
4651 Clouds 10 1027 66 10000 1.5 90 19:56 08.01.2020
4652 Clouds 10 1027 66 10000 1.5 90 19:56 08.01.2020
4653 Clouds 9 1027 66 10000 1.5 90 19:37 08.01.2020
4654 Clouds 9 1027 66 10000 1.5 90 19:37 08.01.2020
4655 Clouds 9 1027 62 10000 1 0 19:18 08.01.2020
4656 Clouds 10 1026 62 10000 1 0 18:55 08.01.2020
4657 Clouds 10 1026 62 10000 1 0 18:37 08.01.2020
4658 Clouds 10 1026 62 10000 2.1 150 18:18 08.01.2020
4659 Clouds 11 1026 58 10000 4.6 80 17:47 08.01.2020
4660 Clouds 11 1026 58 10000 4.6 80 17:24 08.01.2020
4661 Clouds 11 1026 58 10000 4.6 80 17:24 08.01.2020
4662 Clouds 11 1025 62 10000 3.6 70 16:57 08.01.2020
4663 Clouds 11 1025 58 10000 4.1 70 16:39 08.01.2020
4664 Clouds 12 1025 58 10000 4.6 70 16:19 08.01.2020
4665 Clouds 12 1025 58 10000 4.6 70 16:19 08.01.2020
4666 Clouds 12 1025 58 10000 4.6 70 15:58 08.01.2020
4667 Clouds 12 1025 54 10000 4.1 60 15:39 08.01.2020
4668 Clouds 12 1025 58 10000 1.5 0 15:19 08.01.2020
4669 Clouds 12 1025 67 10000 2.6 360 14:55 08.01.2020
4670 Clouds 12 1025 67 10000 2.6 360 14:37 08.01.2020
4671 Clouds 12 1025 62 10000 1.5 360 14:19 08.01.2020
4672 Clouds 12 1025 62 10000 1.5 270 13:39 08.01.2020
4673 Clouds 12 1025 66 10000 2.1 240 13:18 08.01.2020
4674 Clouds 12 1025 66 10000 2.1 240 12:41 08.01.2020
4675 Clouds 12 1025 66 10000 3.1 230 12:19 08.01.2020
4676 Clouds 12 1025 66 10000 4.6 220 11:55 08.01.2020
4677 Clouds 12 1025 66 10000 3.1 230 11:55 08.01.2020
4678 Clouds 11 1025 66 10000 4.6 220 11:37 08.01.2020
4679 Clouds 11 1025 71 10000 3.6 220 11:18 08.01.2020
4680 Clouds 10 1025 76 10000 1.5 240 10:42 08.01.2020
4681 Clouds 10 1025 76 10000 1.5 240 10:22 08.01.2020
4682 Clouds 10 1024 81 10000 1.5 230 09:59 08.01.2020
4683 Clouds 11 1024 81 10000 2.1 200 09:41 08.01.2020
4684 Clouds 9 1024 71 10000 1 60 09:19 08.01.2020
4685 Clouds 9 1023 81 10000 1.5 80 08:43 08.01.2020
4686 Clouds 8 1023 81 10000 1.5 80 08:24 08.01.2020
4687 Clouds 9 1023 81 10000 1.5 120 07:59 08.01.2020
4688 Clouds 9 1023 81 10000 1.5 130 07:41 08.01.2020
4689 Clouds 9 1023 81 10000 1.5 130 07:23 08.01.2020
4690 Clouds 9 1023 81 10000 2.1 170 06:44 08.01.2020
4691 Clouds 9 1023 81 10000 3.1 220 05:59 08.01.2020
4692 Clouds 9 1023 81 10000 2.1 150 05:28 08.01.2020
4693 Clouds 9 1023 81 10000 2.6 150 04:46 08.01.2020
4694 Clouds 9 1024 81 10000 2.1 170 03:32 08.01.2020
4695 Clouds 9 999 85 0 1.34 204 02:44 08.01.2020
4696 Clouds 9 999 84 0 1.45 224 02:19 08.01.2020
4697 Clouds 9 1024 76 10000 2.6 160 01:40 08.01.2020
4698 Clouds 9 1024 76 10000 2.6 160 00:54 08.01.2020
4699 Clouds 9 1024 76 10000 2.6 160 00:26 08.01.2020
4700 Clouds 9 1024 76 10000 3.1 150 23:47 07.01.2020
4701 Clouds 9 1024 76 10000 3.6 150 23:22 07.01.2020
4702 Clouds 9 1024 76 10000 3.6 150 22:58 07.01.2020
4703 Clouds 9 1025 76 10000 2.1 150 22:39 07.01.2020
4704 Clouds 9 1025 71 10000 1 0 22:19 07.01.2020
4705 Clouds 9 1025 66 10000 2.1 0 21:54 07.01.2020
4706 Clouds 9 1025 66 10000 2.1 0 21:36 07.01.2020
4707 Clouds 9 1025 71 10000 0.5 0 21:18 07.01.2020
4708 Clouds 9 1025 76 10000 2.6 150 20:41 07.01.2020
4709 Clouds 9 1025 71 10000 2.1 150 20:23 07.01.2020
4710 Clouds 9 1025 71 10000 2.1 150 19:59 07.01.2020
4711 Clouds 9 1025 71 10000 1.5 170 19:38 07.01.2020
4712 Clouds 9 1025 71 10000 0.5 0 19:19 07.01.2020
4713 Clouds 9 1025 71 10000 0.5 0 19:19 07.01.2020
4714 Clouds 10 1025 66 10000 2.6 310 18:57 07.01.2020
4715 Clouds 10 1025 66 10000 2.6 310 18:38 07.01.2020
4716 Clouds 10 1025 62 10000 3.1 330 18:18 07.01.2020
4717 Clouds 10 1025 62 10000 3.1 330 17:57 07.01.2020
4718 Clouds 11 1025 58 10000 3.6 330 17:37 07.01.2020
4719 Clouds 11 1025 58 10000 3.6 340 17:19 07.01.2020
4720 Clouds 11 1025 58 10000 3.6 340 16:55 07.01.2020
4721 Clouds 11 1025 58 10000 3.6 340 16:37 07.01.2020
4722 Clouds 12 1025 62 10000 4.6 340 16:18 07.01.2020
4723 Clouds 12 1025 62 10000 4.6 340 15:43 07.01.2020
4724 Clouds 12 1025 62 10000 4.6 340 15:24 07.01.2020
4725 Clouds 12 1025 62 10000 4.6 340 15:24 07.01.2020
4726 Clouds 12 1025 62 10000 4.6 340 15:24 07.01.2020
4727 Clouds 12 1025 62 10000 4.6 340 14:59 07.01.2020
4728 Clouds 12 1024 62 10000 4.1 340 14:41 07.01.2020
4729 Clouds 12 1025 58 10000 2.1 250 14:22 07.01.2020
4730 Clouds 12 1025 58 10000 2.1 250 14:22 07.01.2020
4731 Clouds 12 1025 58 10000 2.1 250 13:55 07.01.2020
4732 Clouds 12 1025 58 10000 1.5 240 13:37 07.01.2020
4733 Clouds 12 1025 58 10000 1 0 13:18 07.01.2020
4734 Clouds 12 1025 58 10000 1 0 12:40 07.01.2020
4735 Clouds 12 1026 54 10000 0.5 0 12:19 07.01.2020
4736 Clouds 12 1026 58 10000 2.1 200 11:42 07.01.2020
4737 Clouds 11 1026 58 10000 2.6 190 11:23 07.01.2020
4738 Clouds 11 1026 58 10000 2.6 190 10:58 07.01.2020
4739 Clouds 10 1026 54 10000 2.1 170 10:39 07.01.2020
4740 Clouds 10 1026 58 10000 2.6 170 10:21 07.01.2020
4741 Clouds 10 1026 58 10000 2.6 170 09:56 07.01.2020
4742 Clouds 10 1026 62 10000 1.5 180 09:37 07.01.2020
4743 Clouds 9 1026 66 10000 2.6 140 09:19 07.01.2020
4744 Clouds 8 1026 65 10000 2.1 160 08:41 07.01.2020
4745 Clear 7 1026 61 10000 1 0 08:20 07.01.2020
4746 Clear 7 1025 50 10000 2.6 320 07:49 07.01.2020
4747 Clear 7 1025 50 10000 2.6 320 07:49 07.01.2020
4748 Clear 7 1025 57 10000 1.5 90 07:25 07.01.2020
4749 Clear 7 1026 57 10000 1.5 70 06:52 07.01.2020
4750 Clear 7 1026 57 10000 1.5 70 06:32 07.01.2020
4751 Clear 7 1025 57 10000 2.1 70 05:42 07.01.2020
4752 Clear 8 1026 53 10000 3.6 40 03:52 07.01.2020
4753 Clear 8 1026 53 10000 3.6 40 03:25 07.01.2020
4754 Clear 8 1026 50 10000 6.7 30 02:20 07.01.2020
4755 Clear 8 1025 57 10000 5.7 40 01:40 07.01.2020
4756 Clear 8 1026 57 10000 4.6 50 01:18 07.01.2020
4757 Clear 8 1026 50 10000 5.1 50 00:21 07.01.2020
4758 Clear 8 1026 50 10000 5.1 50 23:58 06.01.2020
4759 Clear 8 1026 50 10000 6.7 40 23:39 06.01.2020
4760 Clear 8 1026 57 10000 6.7 40 23:21 06.01.2020
4761 Clear 8 1026 57 10000 6.7 40 22:56 06.01.2020
4762 Clear 8 1026 50 10000 6.7 40 22:37 06.01.2020
4763 Clear 8 1026 67 10000 6.7 60 22:19 06.01.2020
4764 Clear 8 1026 67 10000 6.7 60 21:54 06.01.2020
4765 Clouds 8 1026 67 10000 6.7 60 21:36 06.01.2020
4766 Clouds 8 1026 67 10000 6.7 60 21:36 06.01.2020
4767 Clear 8 1025 57 10000 7.2 50 21:18 06.01.2020
4768 Clear 8 1025 57 10000 7.2 50 20:54 06.01.2020
4769 Clouds 8 1025 57 10000 8.2 50 20:54 06.01.2020
4770 Clouds 8 1025 57 10000 8.2 50 20:36 06.01.2020
4771 Clouds 8 1025 53 10000 8.2 50 20:18 06.01.2020
4772 Clouds 8 1025 53 10000 8.2 50 19:55 06.01.2020
4773 Clouds 8 1025 53 10000 7.7 40 19:36 06.01.2020
4774 Clouds 7 1025 53 10000 8.7 60 19:18 06.01.2020
4775 Clouds 8 1025 64 10000 6.7 60 18:43 06.01.2020
4776 Clouds 8 1024 57 10000 9.3 40 18:20 06.01.2020
4777 Clouds 8 1025 53 10000 8.7 50 17:39 06.01.2020
4778 Clouds 7 1025 65 10000 7.2 60 17:20 06.01.2020
4779 Clouds 7 1025 65 10000 7.2 60 16:57 06.01.2020
4780 Clouds 8 1024 65 10000 9.8 50 16:38 06.01.2020
4781 Clouds 9 1025 50 10000 8.2 50 16:19 06.01.2020
4782 Clouds 10 1024 50 10000 9.3 50 15:43 06.01.2020
4783 Clouds 10 1025 65 10000 8.2 50 15:22 06.01.2020
4784 Clouds 10 1025 65 10000 8.2 50 14:59 06.01.2020
4785 Clouds 10 1024 65 10000 8.7 50 14:41 06.01.2020
4786 Clear 10 1024 59 10000 8.7 50 14:22 06.01.2020
4787 Clear 9 1024 46 10000 9.3 50 13:59 06.01.2020
4788 Clear 9 1024 46 10000 9.3 50 13:38 06.01.2020
4789 Clear 9 1024 46 10000 10.8 40 13:20 06.01.2020
4790 Clear 9 1024 46 10000 10.8 40 12:55 06.01.2020
4791 Clear 9 1025 61 10000 10.8 40 12:37 06.01.2020
4792 Clear 10 1025 40 10000 9.3 50 12:18 06.01.2020
4793 Clear 9 1025 40 10000 10.3 50 11:41 06.01.2020
4794 Clear 9 1025 58 10000 10.8 50 11:23 06.01.2020
4795 Clear 9 1025 40 10000 12.9 50 10:59 06.01.2020
4796 Clear 9 1025 40 10000 12.9 50 10:40 06.01.2020
4797 Clear 9 1026 40 10000 11.3 50 10:20 06.01.2020
4798 Clear 9 1025 58 10000 12.9 40 09:39 06.01.2020
4799 Clear 9 1025 40 10000 13.4 40 09:20 06.01.2020
4800 Clear 8 1025 46 10000 11.8 40 08:52 06.01.2020
4801 Clear 8 1025 46 10000 11.8 40 08:34 06.01.2020
4802 Clear 8 1025 40 10000 12.9 40 07:57 06.01.2020
4803 Clear 8 1025 34 10000 12.9 50 07:36 06.01.2020
4804 Clear 8 1024 37 10000 14.9 40 06:47 06.01.2020
4805 Clear 8 1024 37 10000 14.9 40 06:27 06.01.2020
4806 Clear 8 1024 51 10000 15.4 40 05:48 06.01.2020
4807 Clear 8 1024 34 10000 13.9 50 04:55 06.01.2020
4808 Clear 8 1024 49 10000 15.4 40 04:21 06.01.2020
4809 Clear 10 1024 40 10000 15.4 40 03:25 06.01.2020
4810 Clear 9 1024 34 10000 15.9 50 02:25 06.01.2020
4811 Clear 9 1024 45 10000 15.9 40 01:46 06.01.2020
4812 Clear 9 1024 44 10000 15.9 40 01:28 06.01.2020
4813 Clear 9 1024 44 10000 15.4 50 00:44 06.01.2020
4814 Clear 10 1024 44 10000 15.4 50 00:24 06.01.2020
4815 Clear 10 1025 47 10000 15.4 40 23:43 05.01.2020
4816 Clear 10 1025 47 10000 15.4 40 23:23 05.01.2020
4817 Clear 10 1025 44 10000 15.4 40 22:58 05.01.2020
4818 Clear 10 1025 44 10000 15.4 40 22:39 05.01.2020
4819 Clear 10 1025 47 10000 13.4 50 22:20 05.01.2020
4820 Clear 10 1025 47 10000 13.4 50 21:56 05.01.2020
4821 Clear 10 1025 47 10000 13.4 40 21:38 05.01.2020
4822 Clear 11 1025 44 10000 13.4 50 21:20 05.01.2020
4823 Clear 11 1025 44 10000 13.4 50 21:20 05.01.2020
4824 Clear 11 1025 44 10000 13.4 50 20:56 05.01.2020
4825 Clear 11 1025 50 10000 13.4 40 20:38 05.01.2020
4826 Clouds 11 1025 41 10000 11.8 50 20:19 05.01.2020
4827 Clouds 11 1025 41 10000 11.8 50 19:57 05.01.2020
4828 Clouds 11 1024 41 10000 12.3 50 19:38 05.01.2020
4829 Clouds 11 1024 41 10000 12.3 50 19:19 05.01.2020
4830 Clouds 11 1024 41 10000 12.3 50 18:55 05.01.2020
4831 Clouds 11 1024 41 10000 11.3 60 18:37 05.01.2020
4832 Clouds 11 1024 41 10000 11.3 60 18:37 05.01.2020
4833 Clouds 11 1023 35 10000 11.3 60 18:18 05.01.2020
4834 Clouds 11 1023 35 10000 11.3 60 17:57 05.01.2020
4835 Clouds 11 1023 44 10000 11.3 50 17:38 05.01.2020
4836 Clouds 11 1023 50 10000 11.3 50 17:19 05.01.2020
4837 Clouds 11 1023 50 10000 11.3 50 16:55 05.01.2020
4838 Clouds 12 1022 47 10000 10.8 50 16:37 05.01.2020
4839 Clouds 12 1022 47 10000 11.3 50 16:19 05.01.2020
4840 Clouds 12 1022 58 10000 10.8 40 15:37 05.01.2020
4841 Clouds 12 1022 62 10000 9.8 50 15:18 05.01.2020
4842 Clouds 13 1022 62 10000 9.8 50 14:55 05.01.2020
4843 Clouds 13 1022 67 10000 9.3 40 14:37 05.01.2020
4844 Clouds 13 1022 67 10000 9.3 40 14:18 05.01.2020
4845 Clouds 13 1021 67 10000 9.8 40 13:40 05.01.2020
4846 Clouds 13 1022 72 10000 9.8 30 13:21 05.01.2020
4847 Clouds 13 1022 72 10000 9.3 30 12:58 05.01.2020
4848 Clouds 13 1022 72 10000 9.3 30 12:39 05.01.2020
4849 Clouds 13 1022 72 10000 9.3 30 12:39 05.01.2020
4850 Clouds 13 1022 72 10000 10.3 20 12:21 05.01.2020
4851 Clouds 13 1022 72 10000 10.3 20 11:59 05.01.2020
4852 Clouds 13 1022 77 10000 9.8 10 11:40 05.01.2020
4853 Clouds 13 1022 77 10000 9.8 10 11:40 05.01.2020
4854 Clouds 12 1022 72 10000 9.3 20 11:19 05.01.2020
4855 Clouds 12 1022 72 10000 9.3 20 11:19 05.01.2020
4856 Clouds 12 1022 72 10000 9.3 20 10:56 05.01.2020
4857 Clouds 12 1023 77 10000 7.7 20 10:37 05.01.2020
4858 Clouds 12 1023 77 10000 7.7 20 10:37 05.01.2020
4859 Clouds 12 1023 77 10000 7.7 20 10:37 05.01.2020
4860 Clouds 12 1023 77 10000 7.7 20 10:37 05.01.2020
4861 Clouds 12 1023 77 10000 7.7 20 10:37 05.01.2020
4862 Clouds 13 1022 77 10000 7.7 360 10:18 05.01.2020
4863 Clouds 12 1022 72 10000 6.7 360 09:41 05.01.2020
4864 Clouds 12 1022 72 10000 6.7 360 09:21 05.01.2020
4865 Clouds 11 1022 77 10000 8.2 10 08:49 05.01.2020
4866 Clouds 11 1022 77 10000 8.2 10 08:30 05.01.2020
4867 Clouds 11 1022 72 10000 7.7 360 07:56 05.01.2020
4868 Clouds 11 1022 72 10000 6.2 350 07:37 05.01.2020
4869 Clouds 11 1021 72 10000 5.1 340 07:18 05.01.2020
4870 Clouds 11 1021 76 10000 7.7 350 05:59 05.01.2020
4871 Clouds 11 1021 67 10000 5.1 310 05:32 05.01.2020
4872 Clouds 11 1021 76 10000 6.2 320 04:43 05.01.2020
4873 Clouds 11 1021 71 10000 5.1 310 04:18 05.01.2020
4874 Clouds 11 1021 71 10000 5.1 310 04:18 05.01.2020
4875 Clouds 11 1022 76 10000 4.6 320 02:46 05.01.2020
4876 Clouds 11 1022 76 10000 4.6 320 02:24 05.01.2020
4877 Clouds 11 1022 76 10000 4.6 280 01:48 05.01.2020
4878 Clouds 10 1022 76 10000 4.6 280 01:18 05.01.2020
4879 Clouds 10 1022 76 10000 5.1 280 00:41 05.01.2020
4880 Clouds 10 1022 76 10000 4.6 280 00:23 05.01.2020
4881 Clouds 11 1022 76 10000 4.6 280 23:59 04.01.2020
4882 Clouds 10 1022 76 10000 4.6 290 23:40 04.01.2020
4883 Clouds 11 1022 76 10000 4.6 280 23:19 04.01.2020
4884 Clouds 11 1022 76 10000 2.1 240 22:40 04.01.2020
4885 Clouds 11 1023 76 10000 2.1 180 22:22 04.01.2020
4886 Clouds 11 1023 76 10000 2.1 180 21:58 04.01.2020
4887 Clouds 11 1023 76 10000 2.1 160 21:39 04.01.2020
4888 Clouds 11 1023 76 10000 2.1 180 21:20 04.01.2020
4889 Clouds 11 1023 76 10000 2.1 180 20:59 04.01.2020
4890 Clouds 11 1023 76 10000 2.1 190 20:40 04.01.2020
4891 Clouds 11 1023 76 10000 2.1 190 20:21 04.01.2020
4892 Clouds 11 1023 71 10000 1.5 190 19:57 04.01.2020
4893 Clouds 11 1023 71 10000 1.5 190 19:57 04.01.2020
4894 Clouds 11 1023 71 10000 1.5 210 19:38 04.01.2020
4895 Clouds 12 1023 71 10000 2.6 250 19:20 04.01.2020
4896 Clouds 12 1023 71 10000 2.6 250 18:55 04.01.2020
4897 Clouds 12 1023 72 10000 3.1 260 18:36 04.01.2020
4898 Clouds 12 1023 72 10000 3.1 280 18:18 04.01.2020
4899 Clouds 12 1023 72 10000 2.6 280 17:41 04.01.2020
4900 Clouds 12 1023 72 10000 2.6 280 17:41 04.01.2020
4901 Clouds 12 1023 67 10000 3.1 270 17:23 04.01.2020
4902 Clouds 12 1023 67 10000 3.1 270 16:58 04.01.2020
4903 Clouds 13 1023 62 10000 4.1 280 16:39 04.01.2020
4904 Clouds 13 1023 67 10000 4.1 270 16:21 04.01.2020
4905 Clouds 13 1023 67 10000 4.1 270 15:54 04.01.2020
4906 Clouds 13 1023 62 10000 4.1 280 15:36 04.01.2020
4907 Clouds 13 1023 62 10000 4.6 270 15:18 04.01.2020
4908 Clouds 13 1024 62 10000 5.1 260 14:42 04.01.2020
4909 Clouds 13 1024 58 10000 2.6 250 14:20 04.01.2020
4910 Clouds 13 1024 58 10000 2.6 250 13:59 04.01.2020
4911 Clouds 13 1024 58 10000 2.6 250 13:59 04.01.2020
4912 Clouds 13 1024 58 10000 3.1 290 13:38 04.01.2020
4913 Clouds 13 1024 58 10000 3.1 290 13:38 04.01.2020
4914 Clouds 12 1025 67 10000 3.6 300 13:19 04.01.2020
4915 Clouds 13 1025 67 10000 3.6 300 12:57 04.01.2020
4916 Clouds 13 1025 71 10000 4.6 310 12:39 04.01.2020
4917 Clouds 13 1025 67 10000 4.6 310 12:18 04.01.2020
4918 Clouds 13 1025 67 10000 4.6 310 11:56 04.01.2020
4919 Clouds 13 1026 71 10000 4.1 310 11:37 04.01.2020
4920 Clouds 13 1026 71 10000 4.1 320 11:18 04.01.2020
4921 Clouds 11 1026 67 10000 2.1 10 10:40 04.01.2020
4922 Clouds 11 1026 71 10000 2.6 340 10:21 04.01.2020
4923 Clouds 11 1026 76 10000 5.1 300 09:47 04.01.2020
4924 Clouds 11 1026 76 10000 5.1 300 09:26 04.01.2020
4925 Clouds 10 1026 76 10000 4.1 310 08:49 04.01.2020
4926 Clouds 10 1026 76 10000 4.1 310 08:29 04.01.2020
4927 Clouds 10 1026 71 10000 4.1 300 07:57 04.01.2020
4928 Clouds 10 1026 71 10000 3.6 300 07:39 04.01.2020
4929 Clouds 10 1026 66 10000 1.5 0 06:44 04.01.2020
4930 Clouds 10 1026 71 10000 2.1 150 05:59 04.01.2020
4931 Clouds 10 1026 58 10000 2.6 270 04:52 04.01.2020
4932 Clouds 10 1026 62 10000 2.1 310 04:31 04.01.2020
4933 Clouds 11 1027 62 10000 2.1 310 03:30 04.01.2020
4934 Clouds 11 1027 62 10000 2.1 310 02:52 04.01.2020
4935 Clouds 10 1027 67 10000 4.6 300 02:18 04.01.2020
4936 Clouds 10 1027 62 10000 1 0 01:51 04.01.2020
4937 Clouds 10 1027 62 10000 1 0 01:30 04.01.2020
4938 Clouds 10 1028 62 10000 1.5 320 00:29 04.01.2020
4939 Clouds 10 1028 62 10000 2.6 340 23:59 03.01.2020
4940 Clouds 10 1028 62 10000 2.6 350 23:37 03.01.2020
4941 Clouds 10 1028 58 10000 2.1 300 23:19 03.01.2020
4942 Clouds 10 1028 67 10000 3.6 320 22:41 03.01.2020
4943 Clouds 10 1028 62 10000 4.1 330 22:19 03.01.2020
4944 Clouds 11 1028 62 10000 4.1 330 21:58 03.01.2020
4945 Clouds 10 1028 67 10000 3.1 330 21:38 03.01.2020
4946 Clouds 10 1028 62 10000 1.5 30 21:19 03.01.2020
4947 Clouds 10 1028 62 10000 1.5 30 21:19 03.01.2020
4948 Clouds 10 1028 62 10000 2.6 350 20:56 03.01.2020
4949 Clouds 11 1028 62 10000 2.6 350 20:38 03.01.2020
4950 Clouds 10 1028 62 10000 3.1 350 20:18 03.01.2020
4951 Clouds 11 1028 67 10000 2.6 350 19:55 03.01.2020
4952 Clouds 11 1028 67 10000 2.6 350 19:37 03.01.2020
4953 Clouds 10 1028 67 10000 2.6 360 19:18 03.01.2020
4954 Clouds 10 1028 67 10000 3.6 350 18:40 03.01.2020
4955 Clouds 10 1028 62 10000 2.1 40 18:21 03.01.2020
4956 Clouds 10 1028 67 10000 2.6 350 17:55 03.01.2020
4957 Clouds 11 1028 67 10000 2.6 350 17:36 03.01.2020
4958 Clouds 11 1028 67 10000 3.1 350 17:18 03.01.2020
4959 Clouds 11 1028 67 10000 3.6 350 16:42 03.01.2020
4960 Clouds 11 1028 71 10000 3.6 350 16:22 03.01.2020
4961 Clouds 12 1028 67 10000 1.5 0 15:43 03.01.2020
4962 Clouds 12 1028 71 10000 0.5 0 15:19 03.01.2020
4963 Clouds 12 1028 71 10000 0.5 0 14:57 03.01.2020
4964 Clouds 13 1028 67 10000 0.5 0 14:37 03.01.2020
4965 Clouds 13 1028 62 10000 1 0 14:19 03.01.2020
4966 Clouds 12 1029 62 10000 1 0 13:43 03.01.2020
4967 Clouds 12 1029 67 10000 1 0 13:23 03.01.2020
4968 Clouds 13 1029 67 10000 1 0 12:58 03.01.2020
4969 Clouds 13 1029 71 10000 1 0 12:38 03.01.2020
4970 Clouds 13 1030 71 10000 1.5 240 12:20 03.01.2020
4971 Clouds 12 1030 71 10000 1.5 260 11:44 03.01.2020
4972 Clear 12 1030 67 10000 0.5 0 11:20 03.01.2020
4973 Clear 11 1030 71 10000 1 0 10:44 03.01.2020
4974 Clear 11 1030 71 10000 1 0 10:25 03.01.2020
4975 Clear 11 1030 71 10000 1 0 10:25 03.01.2020
4976 Clear 11 1030 76 10000 1.5 170 09:58 03.01.2020
4977 Clouds 11 1030 81 10000 2.1 170 09:39 03.01.2020
4978 Clear 9 1030 87 10000 2.1 170 09:21 03.01.2020
4979 Clear 9 1029 87 10000 2.1 180 08:56 03.01.2020
4980 Clear 9 1029 87 10000 2.1 180 08:37 03.01.2020
4981 Clear 9 1029 81 10000 1.5 180 08:19 03.01.2020
4982 Clear 7 1029 87 10000 2.6 180 07:39 03.01.2020
4983 Clear 7 1029 87 10000 0.5 0 07:18 03.01.2020
4984 Clouds 8 1028 87 10000 1 0 06:47 03.01.2020
4985 Clouds 8 1028 87 10000 1 0 06:28 03.01.2020
4986 Clouds 8 1028 81 10000 1.5 140 05:30 03.01.2020
4987 Clear 8 1029 76 10000 1.5 80 04:19 03.01.2020
4988 Clear 9 1029 71 10000 2.6 70 02:56 03.01.2020
4989 Clear 9 1029 71 10000 2.6 70 02:56 03.01.2020
4990 Clear 9 1029 71 10000 2.6 70 02:28 03.01.2020
4991 Clear 9 1029 71 10000 2.6 90 01:39 03.01.2020
4992 Clear 9 1030 71 10000 3.1 80 00:49 03.01.2020
4993 Clear 9 1030 71 10000 3.1 80 00:29 03.01.2020
4994 Clouds 9 1030 71 10000 3.1 80 23:55 02.01.2020
4995 Clouds 9 1030 71 10000 3.1 80 23:37 02.01.2020
4996 Clouds 9 1030 76 10000 3.1 80 23:18 02.01.2020
4997 Clouds 8 1030 81 10000 2.6 80 22:44 02.01.2020
4998 Clouds 9 1030 76 10000 3.1 70 22:21 02.01.2020
4999 Clouds 9 1030 76 10000 3.1 70 22:21 02.01.2020
5000 Clouds 9 1030 76 10000 3.1 70 21:57 02.01.2020
5001 Clouds 9 1030 71 10000 3.1 70 21:39 02.01.2020
5002 Clouds 10 1030 76 10000 3.1 60 21:21 02.01.2020
5003 Clouds 10 1030 76 10000 3.1 60 20:57 02.01.2020
5004 Clouds 10 1030 76 10000 3.1 80 20:39 02.01.2020
5005 Rain 10 1030 76 10000 3.1 40 20:20 02.01.2020
5006 Rain 10 1030 76 10000 3.1 40 19:55 02.01.2020
5007 Rain 10 1030 81 10000 3.1 60 19:37 02.01.2020
5008 Rain 10 1030 81 10000 3.1 60 19:37 02.01.2020
5009 Clouds 10 1030 76 10000 3.6 50 19:19 02.01.2020
5010 Clouds 10 1030 76 10000 3.6 50 18:56 02.01.2020
5011 Clouds 10 1029 76 10000 3.6 50 18:38 02.01.2020
5012 Clouds 11 1029 76 10000 3.1 40 18:20 02.01.2020
5013 Clouds 11 1029 76 10000 3.1 40 17:56 02.01.2020
5014 Clouds 11 1029 76 10000 2.6 60 17:36 02.01.2020
5015 Clouds 11 1029 76 10000 2.6 40 17:18 02.01.2020
5016 Clouds 11 1029 76 10000 2.6 40 16:56 02.01.2020
5017 Clouds 12 1029 72 10000 2.6 30 16:38 02.01.2020
5018 Clouds 12 1029 72 10000 2.6 30 16:19 02.01.2020
5019 Clouds 12 1029 72 10000 3.6 350 15:44 02.01.2020
5020 Clouds 12 1029 77 10000 3.6 360 15:24 02.01.2020
5021 Clouds 13 1029 77 10000 4.1 350 14:58 02.01.2020
5022 Clouds 13 1029 77 10000 4.1 350 14:38 02.01.2020
5023 Clouds 13 1029 77 10000 4.1 350 14:20 02.01.2020
5024 Clouds 13 1029 77 10000 4.1 350 13:58 02.01.2020
5025 Clouds 13 1029 72 10000 3.6 350 13:39 02.01.2020
5026 Clouds 13 1029 72 10000 0.5 0 13:18 02.01.2020
5027 Clouds 13 1030 67 10000 1.5 300 12:42 02.01.2020
5028 Clouds 13 1030 67 10000 0.5 0 12:21 02.01.2020
5029 Clouds 13 1030 67 10000 0.5 0 11:42 02.01.2020
5030 Clouds 12 1030 71 10000 1.5 240 11:21 02.01.2020
5031 Clouds 12 1030 76 10000 1 0 10:46 02.01.2020
5032 Rain 12 1030 76 10000 1 0 10:28 02.01.2020
5033 Rain 11 1030 71 10000 2.1 190 09:57 02.01.2020
5034 Rain 11 1030 76 10000 2.1 190 09:35 02.01.2020
5035 Clouds 9 1029 81 10000 2.1 190 08:59 02.01.2020
5036 Clouds 8 1029 81 10000 2.1 190 08:39 02.01.2020
5037 Clouds 9 1029 76 10000 2.1 100 08:19 02.01.2020
5038 Clouds 9 1029 71 10000 2.1 80 07:47 02.01.2020
5039 Clouds 9 1029 71 10000 2.1 80 07:26 02.01.2020
5040 Clear 9 1028 76 10000 3.1 70 06:41 02.01.2020
5041 Clear 8 1028 76 10000 3.1 80 05:40 02.01.2020
5042 Clear 8 1028 76 10000 3.6 80 04:35 02.01.2020
5043 Clear 8 1004 96 0 1.06 325 03:29 02.01.2020
5044 Clear 8 1029 76 10000 4.1 80 02:21 02.01.2020
5045 Clear 8 1004 96 0 1.47 327 01:53 02.01.2020
5046 Clear 8 1029 81 10000 3.6 70 01:25 02.01.2020
5047 Clear 8 1004 93 0 1.33 306 00:38 02.01.2020
5048 Clear 8 1029 76 10000 3.1 80 00:20 02.01.2020
5049 Clear 8 1004 93 0 1.33 306 23:42 01.01.2020
5050 Clear 8 1004 92 0 1.04 321 23:21 01.01.2020
5051 Clear 8 1004 92 0 1.04 321 23:21 01.01.2020
5052 Clear 8 1004 91 0 1.04 321 22:39 01.01.2020
5053 Clear 8 1004 91 0 1.04 321 22:39 01.01.2020
5054 Clear 8 1004 91 0 1.04 321 22:39 01.01.2020
5055 Clear 8 1032 87 0 2.24 315 22:20 01.01.2020
5056 Clear 8 1004 90 0 1.04 321 22:20 01.01.2020
5057 Clear 8 1004 89 0 1.04 321 21:58 01.01.2020
5058 Clear 8 1029 71 10000 1.5 60 21:39 01.01.2020
5059 Clouds 9 1029 66 10000 2.1 70 21:20 01.01.2020
5060 Clouds 9 1029 66 10000 2.1 70 21:20 01.01.2020
5061 Clouds 9 1029 66 10000 2.1 70 20:57 01.01.2020
5062 Clouds 9 1029 71 10000 2.1 100 20:38 01.01.2020
5063 Clear 8 1004 84 0 1.55 316 20:20 01.01.2020
5064 Clear 8 1004 83 0 1.55 316 19:57 01.01.2020
5065 Clouds 8 1028 71 10000 3.1 60 19:38 01.01.2020
5066 Clouds 8 1028 71 10000 2.6 70 19:20 01.01.2020
5067 Clouds 9 1028 71 10000 2.1 70 18:57 01.01.2020
5068 Clouds 10 1028 71 10000 2.1 70 18:37 01.01.2020
5069 Clear 9 1028 66 10000 2.6 80 18:19 01.01.2020
5070 Clear 9 1028 66 10000 2.6 80 17:57 01.01.2020
5071 Clouds 10 1028 62 10000 3.6 40 17:39 01.01.2020
5072 Clouds 10 1028 62 10000 3.1 30 17:19 01.01.2020
5073 Clouds 10 1028 62 10000 3.1 30 16:57 01.01.2020
5074 Clouds 10 1028 62 10000 3.1 40 16:37 01.01.2020
5075 Clouds 11 1028 58 10000 4.1 20 16:19 01.01.2020
5076 Clouds 11 1028 58 10000 4.1 20 16:19 01.01.2020
5077 Clouds 11 1028 58 10000 4.1 20 15:54 01.01.2020
5078 Clouds 12 1028 58 10000 4.1 60 15:36 01.01.2020
5079 Clouds 12 1028 58 10000 4.6 40 15:18 01.01.2020
5080 Clouds 12 1028 58 10000 4.1 30 14:41 01.01.2020
5081 Clouds 12 1028 54 10000 3.6 360 14:23 01.01.2020
5082 Clouds 12 1028 54 10000 3.6 360 13:57 01.01.2020
5083 Clouds 12 1028 58 10000 3.6 10 13:38 01.01.2020
5084 Clouds 12 1028 54 10000 2.1 20 13:19 01.01.2020
5085 Clouds 12 1028 54 10000 2.1 20 12:57 01.01.2020
5086 Clouds 12 1028 54 10000 2.1 20 12:39 01.01.2020
5087 Clouds 12 1029 58 10000 2.6 10 12:19 01.01.2020
5088 Clouds 12 1029 58 10000 2.6 10 11:56 01.01.2020
5089 Clouds 12 1029 58 10000 2.6 10 11:56 01.01.2020
5090 Clouds 11 1029 58 10000 2.1 20 11:37 01.01.2020
5091 Clouds 11 1029 58 10000 3.1 20 11:18 01.01.2020
5092 Clouds 11 1029 58 10000 3.1 20 10:54 01.01.2020
5093 Clouds 10 1029 62 10000 2.6 20 10:36 01.01.2020
5094 Clouds 10 1029 62 10000 1.5 360 10:18 01.01.2020
5095 Clouds 10 1029 62 10000 1.5 50 09:38 01.01.2020
5096 Clouds 9 1029 71 10000 1.5 100 09:19 01.01.2020
5097 Clouds 9 1029 71 10000 1.5 100 09:19 01.01.2020
5098 Clouds 9 1029 71 10000 1.5 100 08:56 01.01.2020
5099 Clouds 9 1028 66 10000 1.5 110 08:37 01.01.2020
5100 Clouds 9 1028 66 10000 1.5 110 08:37 01.01.2020
5101 Clouds 8 1028 66 10000 1 0 08:19 01.01.2020
5102 Clouds 8 1028 58 10000 2.6 330 07:55 01.01.2020
5103 Clouds 8 1028 66 10000 1 0 07:55 01.01.2020
5104 Clouds 8 1028 58 10000 2.6 330 07:37 01.01.2020
5105 Clouds 8 1028 58 10000 2.6 330 07:37 01.01.2020
5106 Clouds 8 1028 54 10000 3.6 360 06:45 01.01.2020
5107 Clouds 8 1028 54 10000 3.6 350 06:22 01.01.2020
5108 Clouds 8 1028 54 10000 4.6 340 05:45 01.01.2020
5109 Clouds 8 1028 58 10000 4.6 350 03:47 01.01.2020
5110 Clouds 7 1003 81 0 1.67 325 03:24 01.01.2020
5111 Clouds 7 1004 81 0 1.67 325 02:59 01.01.2020
5112 Clouds 7 1004 81 0 1.67 325 02:40 01.01.2020
5113 Clear 7 1004 80 0 0.81 310 02:21 01.01.2020
5114 Clear 7 1004 81 0 0.81 310 01:39 01.01.2020
5115 Clear 7 1004 81 0 0.81 310 01:39 01.01.2020
5116 Clear 6 1004 81 0 0.72 313 01:21 01.01.2020
5117 Clear 7 1004 80 0 0.72 313 00:44 01.01.2020
5118 Clear 7 1004 80 0 0.72 313 00:44 01.01.2020
5119 Clear 6 1004 79 0 0.72 313 00:26 01.01.2020
5120 Clouds 7 1029 57 10000 3.6 50 23:43 31.12.2019
5121 Clouds 7 1029 57 10000 3.6 50 23:24 31.12.2019
5122 Clouds 7 1029 57 10000 3.6 50 22:59 31.12.2019
5123 Clouds 7 1029 57 10000 4.1 50 22:39 31.12.2019
5124 Clouds 7 1030 57 10000 4.6 50 22:20 31.12.2019
5125 Clouds 7 1030 57 10000 4.6 50 21:59 31.12.2019
5126 Clouds 7 1030 58 10000 5.7 30 21:41 31.12.2019
5127 Clouds 7 1030 58 10000 5.1 30 21:23 31.12.2019
5128 Clouds 8 1030 58 10000 5.1 30 20:57 31.12.2019
5129 Clouds 8 1030 58 10000 5.1 30 20:37 31.12.2019
5130 Clouds 7 1030 58 10000 5.1 30 20:37 31.12.2019
5131 Clouds 7 1030 57 10000 2.6 60 20:19 31.12.2019
5132 Clouds 8 1030 57 10000 2.6 60 19:55 31.12.2019
5133 Clouds 8 1029 62 10000 3.6 40 19:37 31.12.2019
5134 Clouds 8 1030 54 10000 4.1 30 19:18 31.12.2019
5135 Clouds 8 1030 54 10000 4.1 30 18:54 31.12.2019
5136 Clouds 8 1030 54 10000 4.1 30 18:54 31.12.2019
5137 Clouds 8 1029 58 10000 5.1 30 18:36 31.12.2019
5138 Clouds 8 1029 62 10000 5.1 30 18:18 31.12.2019
5139 Clouds 8 1029 62 10000 5.1 30 17:55 31.12.2019
5140 Clouds 8 1029 58 10000 5.1 30 17:36 31.12.2019
5141 Clouds 8 1029 58 10000 5.1 30 17:36 31.12.2019
5142 Clouds 8 1029 58 10000 4.1 50 17:18 31.12.2019
5143 Clouds 9 1029 58 10000 4.1 50 16:55 31.12.2019
5144 Clouds 9 1029 62 10000 4.1 50 16:36 31.12.2019
5145 Clouds 9 1029 54 10000 4.6 30 16:18 31.12.2019
5146 Clouds 10 1029 54 10000 4.6 30 15:55 31.12.2019
5147 Clouds 10 1029 54 10000 4.6 30 15:55 31.12.2019
5148 Clouds 10 1029 54 10000 4.6 30 15:55 31.12.2019
5149 Clouds 10 1029 54 10000 5.1 30 15:37 31.12.2019
5150 Clouds 10 1029 54 10000 5.1 30 15:19 31.12.2019
5151 Clouds 11 1029 54 10000 5.1 30 14:55 31.12.2019
5152 Clouds 10 1029 58 10000 5.7 30 14:37 31.12.2019
5153 Clouds 10 1029 58 10000 6.2 30 14:18 31.12.2019
5154 Clouds 11 1029 58 10000 6.2 30 13:54 31.12.2019
5155 Clouds 11 1029 62 10000 7.2 30 13:36 31.12.2019
5156 Clouds 11 1029 54 10000 6.2 40 13:18 31.12.2019
5157 Clouds 11 1029 54 10000 6.2 40 12:54 31.12.2019
5158 Clouds 10 1029 54 10000 4.1 50 12:36 31.12.2019
5159 Clouds 10 1029 54 10000 4.1 50 12:36 31.12.2019
5160 Clouds 10 1029 54 10000 3.1 40 12:18 31.12.2019
5161 Clouds 10 1030 54 10000 3.1 50 11:54 31.12.2019
5162 Clouds 10 1030 54 10000 3.1 50 11:36 31.12.2019
5163 Clouds 10 1030 54 10000 2.6 70 11:18 31.12.2019
5164 Clear 9 1030 54 10000 2.6 70 10:54 31.12.2019
5165 Clear 9 1030 54 10000 2.6 70 10:36 31.12.2019
5166 Clear 9 1029 54 10000 2.1 70 10:18 31.12.2019
5167 Clear 8 1029 54 10000 2.1 70 09:54 31.12.2019
5168 Clear 8 1029 57 10000 1 0 09:36 31.12.2019
5169 Clear 7 1029 61 10000 2.1 60 09:18 31.12.2019
5170 Clear 6 1028 57 10000 2.1 70 08:42 31.12.2019
5171 Clouds 6 1028 61 10000 3.6 80 08:21 31.12.2019
5172 Clouds 6 1028 85 10000 5.1 70 07:44 31.12.2019
5173 Clouds 5 1028 85 10000 2.6 110 07:22 31.12.2019
5174 Clouds 6 1027 57 10000 4.6 90 06:51 31.12.2019
5175 Clouds 5 1027 57 10000 4.6 90 06:23 31.12.2019
5176 Clouds 6 1027 57 10000 5.7 90 04:54 31.12.2019
5177 Clouds 6 1027 53 10000 5.1 90 04:24 31.12.2019
5178 Clouds 5 1027 84 10000 6.2 90 02:57 31.12.2019
5179 Clouds 6 1027 83 10000 5.1 90 02:21 31.12.2019
5180 Clouds 7 1026 53 10000 7.2 90 01:50 31.12.2019
5181 Clouds 6 1026 57 10000 7.2 100 01:31 31.12.2019
5182 Clouds 6 1026 85 10000 6.2 90 00:49 31.12.2019
5183 Clouds 6 1026 53 10000 6.7 80 00:25 31.12.2019
5184 Clouds 5 1026 53 10000 6.7 80 23:58 30.12.2019
5185 Clouds 6 1026 61 10000 10.8 60 23:40 30.12.2019
5186 Clouds 6 1025 53 10000 11.3 70 23:22 30.12.2019
5187 Clouds 6 1025 53 10000 11.3 70 22:59 30.12.2019
5188 Clouds 6 1025 83 10000 11.3 70 22:41 30.12.2019
5189 Clouds 5 1025 83 10000 11.3 70 22:41 30.12.2019
5190 Clouds 6 1025 83 10000 10.8 70 22:21 30.12.2019
5191 Clouds 6 1025 83 10000 10.8 70 21:57 30.12.2019
5192 Clouds 6 1025 83 10000 10.8 70 21:57 30.12.2019
5193 Clouds 6 1025 83 10000 10.3 70 21:39 30.12.2019
5194 Clouds 6 1025 53 10000 9.8 60 21:20 30.12.2019
5195 Clouds 6 1025 53 10000 9.8 60 20:59 30.12.2019
5196 Clouds 6 1025 53 10000 10.3 70 20:40 30.12.2019
5197 Clouds 6 1025 46 10000 10.3 70 20:20 30.12.2019
5198 Clouds 6 1025 46 10000 10.3 70 19:59 30.12.2019
5199 Rain 6 1024 86 10000 9.8 70 19:39 30.12.2019
5200 Rain 6 1024 53 10000 9.8 60 19:19 30.12.2019
5201 Clouds 6 1024 53 10000 9.8 60 18:59 30.12.2019
5202 Thunderstorm 6 1024 86 9000 8.7 70 18:41 30.12.2019
5203 Clouds 6 1024 70 10000 4.1 60 18:20 30.12.2019
5204 Clouds 6 1024 70 10000 4.1 60 17:57 30.12.2019
5205 Clouds 5 1025 65 9000 6.7 80 17:39 30.12.2019
5206 Thunderstorm 5 1025 70 8000 6.7 80 17:19 30.12.2019
5207 Thunderstorm 5 1025 70 8000 6.7 80 16:58 30.12.2019
5208 Rain 5 1024 75 10000 12.3 80 16:37 30.12.2019
5209 Clouds 5 1024 70 10000 9.8 90 16:19 30.12.2019
5210 Rain 6 1024 66 9000 15.4 40 15:56 30.12.2019
5211 Rain 6 1024 66 9000 15.4 40 15:37 30.12.2019
5212 Rain 5 1024 53 10000 12.3 50 15:18 30.12.2019
5213 Rain 5 1000 81 0 4.79 55 14:43 30.12.2019
5214 Rain 5 1000 75 0 0.89 24 14:20 30.12.2019
5215 Rain 6 1026 73 0 4.92 135 13:58 30.12.2019
5216 Clouds 7 1024 58 10000 10.8 30 13:40 30.12.2019
5217 Clouds 7 1024 58 10000 10.8 30 13:40 30.12.2019
5218 Clouds 7 1024 58 10000 10.8 30 13:21 30.12.2019
5219 Rain 7 1024 62 10000 11.8 40 12:56 30.12.2019
5220 Rain 7 1025 61 10000 16.5 30 12:37 30.12.2019
5221 Clouds 8 1025 62 10000 13.4 40 12:18 30.12.2019
5222 Rain 7 1000 79 0 7.58 29 11:45 30.12.2019
5223 Rain 7 1001 76 0 8.31 31 11:20 30.12.2019
5224 Clouds 8 1025 58 10000 11.3 40 10:58 30.12.2019
5225 Clouds 8 1025 54 10000 10.3 40 10:40 30.12.2019
5226 Clouds 8 1025 58 10000 11.8 30 10:19 30.12.2019
5227 Rain 7 1025 66 10000 11.8 30 09:42 30.12.2019
5228 Drizzle 7 1025 57 10000 11.8 50 09:20 30.12.2019
5229 Drizzle 7 1025 57 10000 11.8 50 08:56 30.12.2019
5230 Clouds 7 1024 71 10000 13.9 30 08:38 30.12.2019
5231 Clouds 7 1024 57 10000 11.3 40 08:18 30.12.2019
5232 Clouds 7 1024 57 10000 11.3 50 07:42 30.12.2019
5233 Clouds 6 1024 66 10000 7.7 90 06:59 30.12.2019
5234 Clouds 6 1024 66 10000 7.7 90 06:29 30.12.2019
5235 Rain 5 1024 75 10000 7.7 100 04:29 30.12.2019
5236 Clouds 5 1024 66 10000 11.3 60 03:42 30.12.2019
5237 Clouds 6 1024 57 10000 8.2 60 02:41 30.12.2019
5238 Clouds 5 1024 66 10000 8.7 60 02:21 30.12.2019
5239 Clouds 5 1024 76 10000 7.7 70 01:27 30.12.2019
5240 Rain 5 1024 75 10000 4.1 50 00:51 30.12.2019
5241 Rain 5 1024 75 10000 4.1 50 00:28 30.12.2019
5242 Rain 5 1024 70 10000 10.8 70 23:40 29.12.2019
5243 Drizzle 5 1024 71 10000 14.4 40 23:22 29.12.2019
5244 Rain 6 1024 71 10000 10.3 10 22:57 29.12.2019
5245 Rain 6 1024 71 10000 10.3 10 22:38 29.12.2019
5246 Drizzle 6 1024 61 10000 7.7 10 22:20 29.12.2019
5247 Rain 6 1024 71 9000 11.8 40 21:55 29.12.2019
5248 Rain 6 1024 71 9000 11.8 40 21:36 29.12.2019
5249 Rain 5 1026 91 0 1.34 270 21:18 29.12.2019
5250 Clouds 6 1024 66 10000 9.3 20 20:55 29.12.2019
5251 Clouds 6 1024 66 10000 9.3 20 20:55 29.12.2019
5252 Clouds 6 1024 66 10000 9.3 10 20:37 29.12.2019
5253 Rain 7 1024 62 10000 9.8 20 20:18 29.12.2019
5254 Rain 7 1024 62 10000 9.8 20 19:55 29.12.2019
5255 Rain 7 1025 62 10000 9.3 10 19:37 29.12.2019
5256 Rain 7 1025 62 10000 9.3 10 19:37 29.12.2019
5257 Rain 7 1024 57 10000 8.7 360 19:18 29.12.2019
5258 Clouds 7 1024 57 10000 8.7 30 18:54 29.12.2019
5259 Clouds 7 1024 57 10000 8.7 30 18:36 29.12.2019
5260 Clouds 7 1024 71 10000 10.3 40 18:18 29.12.2019
5261 Clouds 7 1024 71 10000 10.3 40 17:54 29.12.2019
5262 Clouds 7 1024 62 10000 9.3 20 17:36 29.12.2019
5263 Clouds 7 1024 58 10000 8.2 20 17:18 29.12.2019
5264 Clouds 7 1024 58 10000 8.2 20 16:54 29.12.2019
5265 Clouds 7 1025 62 10000 8.2 20 16:36 29.12.2019
5266 Rain 7 1025 62 10000 10.3 30 16:18 29.12.2019
5267 Rain 7 1025 62 10000 10.3 30 15:54 29.12.2019
5268 Rain 8 1025 62 10000 8.7 20 15:36 29.12.2019
5269 Drizzle 8 1025 66 10000 8.7 360 15:18 29.12.2019
5270 Clouds 8 1025 66 10000 12.3 30 14:46 29.12.2019
5271 Clouds 9 1025 57 10000 8.2 20 14:19 29.12.2019
5272 Clouds 8 1025 57 10000 8.2 20 13:59 29.12.2019
5273 Clouds 8 1026 62 10000 9.3 40 13:40 29.12.2019
5274 Clouds 8 1026 62 10000 12.3 30 13:22 29.12.2019
5275 Clouds 8 1026 62 10000 9.3 40 13:22 29.12.2019
5276 Clouds 8 1026 62 10000 12.3 30 12:58 29.12.2019
5277 Clouds 9 1026 62 10000 9.3 10 12:39 29.12.2019
5278 Clouds 9 1026 54 10000 9.8 40 12:21 29.12.2019
5279 Clouds 9 1027 54 10000 9.8 30 11:43 29.12.2019
5280 Clouds 8 1027 54 10000 9.8 30 11:23 29.12.2019
5281 Clouds 8 1027 57 10000 9.8 40 10:59 29.12.2019
5282 Clouds 8 1027 54 10000 10.3 30 10:40 29.12.2019
5283 Rain 7 1029 68 0 3.58 135 10:18 29.12.2019
5284 Clouds 8 1026 53 10000 10.8 40 09:47 29.12.2019
5285 Clouds 9 1026 50 10000 9.8 60 09:28 29.12.2019
5286 Clouds 9 1026 53 10000 10.8 40 09:28 29.12.2019
5287 Clouds 8 1026 50 10000 9.8 60 08:59 29.12.2019
5288 Clouds 8 1026 53 10000 8.2 60 08:40 29.12.2019
5289 Clouds 8 1026 53 10000 8.2 60 08:40 29.12.2019
5290 Clouds 7 1025 53 10000 9.8 60 08:21 29.12.2019
5291 Clouds 7 1025 79 10000 10.3 50 07:45 29.12.2019
5292 Clouds 7 1025 53 10000 10.3 60 07:26 29.12.2019
5293 Clouds 7 1025 53 10000 11.3 50 06:42 29.12.2019
5294 Clouds 7 1025 57 10000 11.3 40 06:19 29.12.2019
5295 Clouds 7 1025 50 10000 12.3 50 05:44 29.12.2019
5296 Clouds 7 1025 74 10000 11.8 50 04:33 29.12.2019
5297 Clouds 7 1025 74 10000 11.3 50 03:36 29.12.2019
5298 Clouds 7 1025 74 10000 11.3 50 02:36 29.12.2019
5299 Clouds 7 1025 50 10000 13.4 40 02:18 29.12.2019
5300 Clouds 7 1024 50 10000 11.8 50 01:29 29.12.2019
5301 Clouds 7 1025 50 10000 10.8 50 00:47 29.12.2019
5302 Clouds 7 1025 50 10000 10.8 50 00:25 29.12.2019
5303 Clouds 7 1025 53 10000 11.3 50 23:56 28.12.2019
5304 Clouds 7 1025 50 10000 10.3 50 23:37 28.12.2019
5305 Clouds 7 1025 54 10000 11.3 40 23:18 28.12.2019
5306 Clouds 7 1025 54 10000 11.3 40 23:18 28.12.2019
5307 Clouds 7 1025 54 10000 11.3 40 23:18 28.12.2019
5308 Clouds 7 1025 54 10000 11.3 40 23:18 28.12.2019
5309 Clouds 7 1025 54 10000 11.3 40 23:18 28.12.2019
5310 Clouds 8 1025 50 10000 10.3 50 22:38 28.12.2019
5311 Clouds 8 1024 46 10000 12.9 40 22:19 28.12.2019
5312 Clouds 8 1024 46 10000 12.9 40 21:57 28.12.2019
5313 Clouds 8 1024 50 10000 11.8 50 21:38 28.12.2019
5314 Clouds 8 1024 50 10000 12.3 40 21:19 28.12.2019
5315 Clouds 8 1024 50 10000 12.3 40 20:55 28.12.2019
5316 Clouds 8 1024 50 10000 12.3 40 20:55 28.12.2019
5317 Clouds 8 1024 50 10000 11.3 50 20:36 28.12.2019
5318 Clouds 8 1023 50 10000 10.3 50 20:18 28.12.2019
5319 Clouds 8 1023 50 10000 10.8 60 19:54 28.12.2019
5320 Clouds 8 1023 50 10000 10.8 60 19:36 28.12.2019
5321 Clouds 8 1023 50 10000 10.3 50 19:18 28.12.2019
5322 Drizzle 9 1023 58 10000 9.8 50 18:43 28.12.2019
5323 Clouds 9 1023 54 10000 10.3 50 18:20 28.12.2019
5324 Clouds 9 1023 54 10000 10.3 50 17:59 28.12.2019
5325 Clouds 10 1023 54 10000 9.8 50 17:41 28.12.2019
5326 Clouds 9 1023 50 10000 9.8 40 17:21 28.12.2019
5327 Clouds 10 1023 50 10000 9.8 40 16:54 28.12.2019
5328 Clouds 10 1023 54 10000 8.7 50 16:36 28.12.2019
5329 Clouds 10 1023 50 10000 9.8 50 16:18 28.12.2019
5330 Clouds 11 1022 54 10000 10.8 50 15:41 28.12.2019
5331 Clouds 11 1022 54 10000 10.3 40 15:21 28.12.2019
5332 Clouds 12 1022 50 10000 11.3 40 14:48 28.12.2019
5333 Clouds 11 1022 50 10000 11.3 40 14:26 28.12.2019
5334 Rain 11 1022 58 10000 9.8 50 13:58 28.12.2019
5335 Clouds 11 1022 54 10000 9.8 50 13:39 28.12.2019
5336 Clouds 11 1022 62 10000 9.8 50 13:20 28.12.2019
5337 Clouds 11 1022 62 10000 9.8 50 12:57 28.12.2019
5338 Clouds 12 1022 62 10000 8.7 40 12:39 28.12.2019
5339 Clouds 12 1022 71 10000 4.1 60 12:20 28.12.2019
5340 Clouds 12 1023 71 10000 3.6 60 11:40 28.12.2019
5341 Clouds 11 1023 76 10000 3.6 60 11:21 28.12.2019
5342 Clouds 11 1023 76 10000 3.6 60 10:56 28.12.2019
5343 Clouds 11 1023 82 10000 5.7 60 10:37 28.12.2019
5344 Rain 11 1023 87 10000 4.1 90 10:18 28.12.2019
5345 Rain 11 1023 76 10000 7.2 50 09:45 28.12.2019
5346 Clouds 11 1022 71 10000 1 0 09:24 28.12.2019
5347 Clouds 11 1022 71 10000 1 0 08:58 28.12.2019
5348 Clouds 10 1022 71 10000 2.1 80 08:40 28.12.2019
5349 Clouds 9 1022 76 10000 2.6 70 08:22 28.12.2019
5350 Clouds 9 1021 71 10000 2.6 80 07:43 28.12.2019
5351 Clear 9 1021 71 10000 3.1 90 07:21 28.12.2019
5352 Clear 8 1021 76 10000 2.6 80 05:45 28.12.2019
5353 Clear 9 1022 76 10000 2.6 90 03:48 28.12.2019
5354 Clouds 9 1022 76 10000 3.1 80 02:50 28.12.2019
5355 Clouds 9 1021 76 10000 2.6 90 02:20 28.12.2019
5356 Clouds 9 1021 76 10000 2.6 90 01:54 28.12.2019
5357 Clouds 9 1021 76 10000 2.6 100 01:22 28.12.2019
5358 Clouds 9 1021 71 10000 2.6 90 00:44 28.12.2019
5359 Clouds 10 1021 71 10000 2.6 90 00:26 28.12.2019
5360 Clouds 10 1021 71 10000 3.1 80 23:57 27.12.2019
5361 Clouds 10 1021 71 10000 3.1 80 23:37 27.12.2019
5362 Clouds 10 1021 71 10000 4.1 50 23:18 27.12.2019
5363 Clouds 10 1021 62 10000 3.6 20 22:55 27.12.2019
5364 Clouds 10 996 86 0 0.7 224 22:37 27.12.2019
5365 Clouds 10 996 85 0 0.7 224 22:19 27.12.2019
5366 Clouds 10 1021 62 10000 2.6 20 21:41 27.12.2019
5367 Clouds 11 1021 62 10000 2.6 30 21:23 27.12.2019
5368 Clouds 11 1021 71 10000 1 130 20:44 27.12.2019
5369 Clouds 11 1021 71 10000 1 130 20:26 27.12.2019
5370 Clouds 11 1021 71 10000 1.5 140 19:59 27.12.2019
5371 Clouds 11 1021 71 10000 1.5 140 19:40 27.12.2019
5372 Clouds 11 1021 71 10000 0.5 0 19:19 27.12.2019
5373 Clouds 11 1020 67 10000 1 0 18:56 27.12.2019
5374 Clouds 11 1020 67 10000 1 0 18:37 27.12.2019
5375 Clouds 11 1020 62 10000 2.1 330 18:18 27.12.2019
5376 Clouds 12 1020 62 10000 2.1 330 17:55 27.12.2019
5377 Clouds 12 1020 62 10000 2.1 320 17:37 27.12.2019
5378 Clouds 12 1020 67 10000 2.6 320 17:18 27.12.2019
5379 Clouds 12 1020 67 10000 3.1 330 16:41 27.12.2019
5380 Clouds 12 1020 67 10000 3.1 330 16:23 27.12.2019
5381 Clouds 13 1020 67 10000 3.6 310 15:58 27.12.2019
5382 Clouds 14 1020 67 10000 3.1 310 15:37 27.12.2019
5383 Clouds 14 1020 67 10000 3.1 310 15:37 27.12.2019
5384 Clouds 14 1020 67 10000 3.1 310 15:37 27.12.2019
5385 Clouds 13 1020 72 10000 3.6 300 15:19 27.12.2019
5386 Clouds 13 1020 72 10000 3.6 300 14:56 27.12.2019
5387 Clouds 14 1020 67 10000 3.6 300 14:38 27.12.2019
5388 Clouds 14 1020 67 10000 3.6 290 14:19 27.12.2019
5389 Clouds 13 1021 72 10000 4.6 300 13:47 27.12.2019
5390 Clouds 14 1021 72 10000 4.6 300 13:24 27.12.2019
5391 Clouds 14 1021 72 10000 2.1 250 12:56 27.12.2019
5392 Clouds 14 1021 67 10000 2.1 240 12:37 27.12.2019
5393 Clouds 14 1021 67 10000 2.1 230 12:18 27.12.2019
5394 Clouds 14 1021 67 10000 1.5 220 11:42 27.12.2019
5395 Clouds 13 1022 67 10000 3.1 230 11:20 27.12.2019
5396 Clouds 13 1022 67 10000 2.6 230 10:47 27.12.2019
5397 Clouds 12 1022 67 10000 1.5 190 10:24 27.12.2019
5398 Clouds 12 1022 67 10000 1.5 190 09:59 27.12.2019
5399 Clouds 12 1022 71 10000 1.5 170 09:39 27.12.2019
5400 Clouds 11 1021 82 10000 2.6 210 09:21 27.12.2019
5401 Clouds 11 1021 82 10000 2.6 210 08:54 27.12.2019
5402 Clouds 11 1021 82 10000 2.6 190 08:34 27.12.2019
5403 Clouds 10 1021 82 10000 1.5 230 07:49 27.12.2019
5404 Clouds 10 1021 82 10000 1.5 230 07:28 27.12.2019
5405 Clouds 10 1021 82 10000 3.1 220 06:36 27.12.2019
5406 Clouds 10 1021 81 10000 1.5 170 04:58 27.12.2019
5407 Clouds 10 1021 81 10000 2.6 190 02:53 27.12.2019
5408 Clear 10 1021 81 10000 2.6 170 01:59 27.12.2019
5409 Clear 10 1021 81 10000 2.6 210 01:24 27.12.2019
5410 Clear 10 1021 81 10000 2.6 210 00:58 27.12.2019
5411 Clear 10 1021 81 10000 2.6 190 00:40 27.12.2019
5412 Clear 10 1021 71 10000 1 180 00:21 27.12.2019
5413 Clear 10 1021 81 10000 2.1 180 23:41 26.12.2019
5414 Clear 10 1021 87 10000 1.5 160 23:22 26.12.2019
5415 Clear 10 1021 81 10000 1 180 22:45 26.12.2019
5416 Clear 9 1021 81 10000 1 180 22:23 26.12.2019
5417 Clear 11 1021 81 10000 1.5 160 21:59 26.12.2019
5418 Clear 10 1021 76 10000 1 0 21:38 26.12.2019
5419 Clear 10 1021 76 10000 2.1 130 21:20 26.12.2019
5420 Clear 10 1021 76 10000 3.6 70 20:46 26.12.2019
5421 Clear 11 1021 76 10000 4.1 70 20:23 26.12.2019
5422 Clear 11 1021 76 10000 4.1 70 19:59 26.12.2019
5423 Clear 11 1021 81 10000 3.6 100 19:40 26.12.2019
5424 Clear 11 1021 87 10000 2.1 90 19:21 26.12.2019
5425 Clear 11 1021 87 10000 2.1 90 18:58 26.12.2019
5426 Clouds 12 1021 82 10000 2.6 100 18:39 26.12.2019
5427 Clouds 12 1021 76 10000 3.6 70 18:19 26.12.2019
5428 Clouds 12 1021 76 10000 3.6 70 17:55 26.12.2019
5429 Clouds 12 1020 76 10000 4.1 70 17:37 26.12.2019
5430 Clouds 13 1020 77 10000 3.1 50 17:18 26.12.2019
5431 Clouds 13 1020 72 10000 4.1 40 16:41 26.12.2019
5432 Clouds 14 1020 72 10000 4.1 40 16:22 26.12.2019
5433 Clouds 14 1020 72 10000 5.1 40 15:56 26.12.2019
5434 Clouds 15 1020 72 10000 5.1 40 15:37 26.12.2019
5435 Clouds 14 1020 72 10000 5.1 40 15:18 26.12.2019
5436 Clear 15 1019 72 10000 5.1 40 14:40 26.12.2019
5437 Clear 15 1019 72 10000 5.1 40 14:21 26.12.2019
5438 Clear 15 1019 72 10000 5.1 40 13:43 26.12.2019
5439 Clouds 15 1019 72 10000 4.6 40 13:21 26.12.2019
5440 Clouds 15 1019 72 10000 4.6 40 12:58 26.12.2019
5441 Clouds 15 1019 72 10000 4.6 40 12:58 26.12.2019
5442 Clouds 15 1019 72 10000 4.6 40 12:39 26.12.2019
5443 Clouds 15 1020 72 10000 4.1 40 12:20 26.12.2019
5444 Clouds 15 1020 72 10000 4.1 40 11:57 26.12.2019
5445 Clouds 15 1020 67 10000 4.1 60 11:39 26.12.2019
5446 Clouds 14 1020 67 10000 4.6 60 11:20 26.12.2019
5447 Clouds 14 1020 72 10000 4.1 60 10:49 26.12.2019
5448 Clouds 14 1019 77 10000 4.1 60 10:19 26.12.2019
5449 Clouds 14 1019 77 10000 4.1 60 10:19 26.12.2019
5450 Clouds 13 1019 77 10000 4.1 60 09:53 26.12.2019
5451 Clouds 13 1019 77 10000 4.1 60 09:32 26.12.2019
5452 Clouds 12 1019 82 10000 4.1 60 08:55 26.12.2019
5453 Clouds 13 1018 82 10000 3.6 60 08:37 26.12.2019
5454 Clouds 12 1018 82 10000 1.5 0 08:18 26.12.2019
5455 Clouds 11 1018 82 9000 1.5 0 07:31 26.12.2019
5456 Clouds 12 1017 82 10000 1.5 230 06:54 26.12.2019
5457 Clouds 12 1017 82 10000 1.5 230 06:54 26.12.2019
5458 Clouds 12 1017 82 10000 1.5 170 06:32 26.12.2019
5459 Clouds 12 1017 82 10000 2.6 210 05:46 26.12.2019
5460 Clouds 12 1016 82 10000 3.1 220 04:59 26.12.2019
5461 Clouds 12 1016 82 10000 3.1 230 04:32 26.12.2019
5462 Clouds 12 1017 72 10000 4.6 210 03:19 26.12.2019
5463 Clouds 12 1017 72 10000 4.1 200 02:40 26.12.2019
5464 Clear 12 1017 71 10000 5.1 210 02:19 26.12.2019
5465 Clear 12 1017 67 10000 4.1 200 01:41 26.12.2019
5466 Clear 12 1016 62 10000 5.7 190 01:22 26.12.2019
5467 Clear 12 1017 67 10000 4.6 210 00:41 26.12.2019
5468 Clear 12 1017 62 10000 4.1 170 00:22 26.12.2019
5469 Clear 12 1017 62 10000 4.1 180 23:42 25.12.2019
5470 Clear 12 1017 66 10000 3.6 180 23:21 25.12.2019
5471 Clear 12 1017 66 10000 3.6 180 22:59 25.12.2019
5472 Clear 12 1017 67 10000 3.6 170 22:40 25.12.2019
5473 Clear 11 1017 76 10000 4.1 180 22:22 25.12.2019
5474 Clear 11 1017 76 10000 4.1 180 21:59 25.12.2019
5475 Clear 12 1017 82 10000 3.1 180 21:40 25.12.2019
5476 Clear 12 1017 81 10000 4.1 190 21:21 25.12.2019
5477 Clear 13 1017 82 9000 3.1 190 20:57 25.12.2019
5478 Clear 12 1017 82 9000 3.1 190 20:39 25.12.2019
5479 Clear 13 1017 82 9000 5.1 250 20:18 25.12.2019
5480 Clear 13 1017 82 9000 5.1 250 19:44 25.12.2019
5481 Clear 13 1017 82 9000 5.1 250 19:25 25.12.2019
5482 Clear 13 1017 82 9000 6.2 250 18:59 25.12.2019
5483 Clear 13 1017 82 9000 5.1 260 18:39 25.12.2019
5484 Clear 13 1017 82 10000 5.1 260 18:20 25.12.2019
5485 Clear 14 1017 82 10000 5.1 260 17:43 25.12.2019
5486 Clear 13 1017 87 10000 6.2 260 17:21 25.12.2019
5487 Clear 14 1017 87 10000 6.2 260 16:59 25.12.2019
5488 Clouds 14 1017 87 9000 6.7 260 16:39 25.12.2019
5489 Clouds 14 1017 87 9000 6.7 260 16:39 25.12.2019
5490 Clouds 14 1017 87 9000 5.7 260 16:19 25.12.2019
5491 Clouds 15 1017 87 9000 5.7 260 15:57 25.12.2019
5492 Clouds 15 1017 87 9000 5.1 270 15:39 25.12.2019
5493 Clouds 15 1017 87 10000 5.7 280 15:20 25.12.2019
5494 Clouds 16 1017 87 10000 5.7 280 14:58 25.12.2019
5495 Clouds 16 1017 87 10000 5.1 270 14:39 25.12.2019
5496 Clouds 16 1016 82 10000 5.7 250 14:21 25.12.2019
5497 Clouds 16 1016 82 10000 5.7 250 13:55 25.12.2019
5498 Clouds 16 1017 82 10000 5.7 260 13:36 25.12.2019
5499 Clouds 16 1018 82 10000 5.7 270 13:18 25.12.2019
5500 Clouds 16 1018 82 10000 5.1 260 12:39 25.12.2019
5501 Clouds 15 1019 82 10000 6.2 260 12:20 25.12.2019
5502 Clouds 16 1019 82 10000 6.2 260 11:54 25.12.2019
5503 Clouds 16 1019 87 10000 5.7 250 11:36 25.12.2019
5504 Clouds 16 1019 87 10000 5.7 250 11:18 25.12.2019
5505 Clouds 15 1019 87 10000 6.2 260 10:38 25.12.2019
5506 Clouds 16 1019 87 10000 3.1 240 10:19 25.12.2019
5507 Clouds 15 1019 87 10000 3.6 230 09:49 25.12.2019
5508 Clouds 15 1019 87 10000 3.6 230 09:30 25.12.2019
5509 Clouds 14 1018 87 10000 2.6 190 08:47 25.12.2019
5510 Clouds 13 1018 87 10000 2.6 190 08:29 25.12.2019
5511 Clouds 13 1018 87 10000 5.1 230 07:50 25.12.2019
5512 Clouds 13 1018 87 10000 5.1 230 07:31 25.12.2019
5513 Clouds 13 1018 87 10000 5.1 230 06:50 25.12.2019
5514 Clouds 13 1018 87 10000 5.1 230 06:22 25.12.2019
5515 Clouds 13 1017 87 10000 5.7 270 05:18 25.12.2019
5516 Clouds 13 1018 87 10000 6.7 280 04:39 25.12.2019
5517 Clouds 13 1018 87 10000 6.7 270 04:20 25.12.2019
5518 Clouds 13 1018 87 10000 6.7 280 03:41 25.12.2019
5519 Clouds 14 1018 87 10000 8.7 270 02:51 25.12.2019
5520 Clear 13 1018 87 10000 7.7 270 02:20 25.12.2019
5521 Clear 13 1018 87 10000 7.2 250 01:25 25.12.2019
5522 Clouds 13 1019 82 10000 7.2 250 00:52 25.12.2019
5523 Clouds 13 1019 82 10000 7.2 250 00:29 25.12.2019
5524 Clouds 13 1019 77 10000 4.1 220 23:56 24.12.2019
5525 Clouds 12 1019 82 10000 4.6 210 23:38 24.12.2019
5526 Clouds 12 1020 77 10000 5.1 200 23:20 24.12.2019
5527 Clouds 12 1020 77 10000 5.1 220 22:40 24.12.2019
5528 Clouds 13 1020 72 10000 4.6 210 22:21 24.12.2019
5529 Clouds 12 1020 72 10000 4.1 200 21:43 24.12.2019
5530 Clouds 12 1020 72 10000 4.1 200 21:23 24.12.2019
5531 Clouds 12 1020 72 10000 4.1 200 21:23 24.12.2019
5532 Clouds 12 1020 71 10000 4.1 190 20:55 24.12.2019
5533 Clouds 12 1020 71 10000 5.7 200 20:36 24.12.2019
5534 Clouds 12 1020 77 10000 6.2 240 20:18 24.12.2019
5535 Clouds 12 1020 72 10000 6.7 260 19:43 24.12.2019
5536 Clouds 12 1021 63 10000 5.7 270 19:20 24.12.2019
5537 Clouds 12 1020 67 10000 5.7 270 18:43 24.12.2019
5538 Clouds 12 1020 67 10000 5.7 270 18:24 24.12.2019
5539 Clouds 12 1020 67 10000 5.7 290 17:59 24.12.2019
5540 Clouds 12 1020 67 10000 5.7 290 17:38 24.12.2019
5541 Clouds 12 1020 67 10000 5.7 290 17:20 24.12.2019
5542 Clouds 13 1020 67 10000 5.7 290 16:55 24.12.2019
5543 Clouds 13 1021 72 10000 5.7 290 16:37 24.12.2019
5544 Clouds 13 1021 72 10000 6.7 290 16:19 24.12.2019
5545 Clouds 14 1021 72 10000 6.7 290 15:55 24.12.2019
5546 Clouds 14 1020 67 10000 6.2 300 15:36 24.12.2019
5547 Clouds 14 1020 72 10000 5.7 300 15:18 24.12.2019
5548 Clouds 14 1020 72 10000 5.7 290 14:55 24.12.2019
5549 Clouds 15 1020 72 10000 5.7 290 14:36 24.12.2019
5550 Clouds 15 1020 67 10000 6.2 300 14:18 24.12.2019
5551 Clouds 14 1020 67 10000 6.2 300 13:55 24.12.2019
5552 Clouds 14 1021 67 10000 6.7 300 13:37 24.12.2019
5553 Clouds 14 1021 67 10000 6.2 300 13:18 24.12.2019
5554 Clouds 14 1021 67 10000 6.2 300 12:55 24.12.2019
5555 Clouds 14 1021 67 10000 5.7 290 12:36 24.12.2019
5556 Clouds 14 1021 72 10000 6.2 300 12:18 24.12.2019
5557 Clouds 14 1021 72 10000 6.2 300 11:54 24.12.2019
5558 Clouds 14 1021 72 10000 6.2 300 11:36 24.12.2019
5559 Clouds 14 1021 72 10000 6.2 300 11:36 24.12.2019
5560 Clouds 14 1021 72 10000 6.7 310 11:18 24.12.2019
5561 Clouds 14 1021 72 10000 6.7 310 10:55 24.12.2019
5562 Clouds 14 1021 72 10000 7.2 310 10:36 24.12.2019
5563 Clouds 13 1021 72 10000 7.2 310 10:18 24.12.2019
5564 Clouds 13 1021 72 10000 8.2 300 09:54 24.12.2019
5565 Clouds 13 1021 72 10000 8.2 300 09:36 24.12.2019
5566 Clouds 13 1020 72 10000 8.2 310 09:18 24.12.2019
5567 Clouds 12 1020 72 10000 8.2 310 08:42 24.12.2019
5568 Clouds 12 1019 72 10000 8.2 310 08:20 24.12.2019
5569 Clouds 12 1019 72 10000 8.2 310 07:45 24.12.2019
5570 Clouds 12 1019 72 10000 8.2 310 07:25 24.12.2019
5571 Clouds 12 1019 72 10000 7.7 310 06:57 24.12.2019
5572 Clouds 12 1019 72 10000 7.7 310 06:38 24.12.2019
5573 Clouds 12 1018 77 10000 7.7 310 06:18 24.12.2019
5574 Clouds 13 1018 77 10000 8.2 320 05:20 24.12.2019
5575 Clouds 13 1018 72 10000 7.7 320 04:44 24.12.2019
5576 Clouds 13 1018 72 10000 9.8 320 03:50 24.12.2019
5577 Clouds 14 1017 72 10000 9.8 320 02:59 24.12.2019
5578 Clouds 13 1017 67 10000 10.3 320 02:21 24.12.2019
5579 Clouds 13 1017 72 10000 9.8 310 01:50 24.12.2019
5580 Rain 13 1017 72 10000 11.3 310 01:21 24.12.2019
5581 Rain 12 1017 67 10000 12.3 320 00:45 24.12.2019
5582 Rain 12 1017 67 10000 12.3 320 00:23 24.12.2019
5583 Rain 13 1017 67 10000 12.3 320 23:56 23.12.2019
5584 Rain 13 1017 67 10000 12.3 320 23:56 23.12.2019
5585 Rain 13 1016 63 10000 12.9 310 23:37 23.12.2019
5586 Rain 13 1016 63 10000 12.3 310 23:19 23.12.2019
5587 Rain 13 1016 63 10000 13.4 310 22:56 23.12.2019
5588 Rain 12 1016 63 10000 13.4 310 22:36 23.12.2019
5589 Rain 13 1015 59 10000 13.9 310 22:18 23.12.2019
5590 Rain 12 1015 59 10000 13.9 310 21:55 23.12.2019
5591 Rain 12 1015 63 10000 13.9 310 21:36 23.12.2019
5592 Rain 12 1015 63 10000 13.9 310 21:36 23.12.2019
5593 Rain 13 1015 59 10000 13.9 310 21:18 23.12.2019
5594 Rain 13 1015 59 10000 13.9 310 20:56 23.12.2019
5595 Clouds 13 1015 59 10000 12.9 310 20:38 23.12.2019
5596 Rain 13 1015 59 10000 15.9 310 20:18 23.12.2019
5597 Rain 12 1014 59 10000 14.9 310 19:55 23.12.2019
5598 Rain 12 1014 59 10000 14.9 310 19:55 23.12.2019
5599 Clouds 12 1014 59 10000 14.9 310 19:37 23.12.2019
5600 Rain 12 1014 59 10000 14.9 310 19:19 23.12.2019
5601 Rain 12 1014 59 10000 14.9 310 18:55 23.12.2019
5602 Rain 12 1014 63 10000 13.9 300 18:37 23.12.2019
5603 Rain 12 1013 63 10000 14.9 310 18:19 23.12.2019
5604 Rain 12 1013 63 10000 13.4 310 17:55 23.12.2019
5605 Rain 12 1013 63 10000 13.4 310 17:37 23.12.2019
5606 Rain 12 1012 63 10000 13.4 300 17:18 23.12.2019
5607 Rain 13 1012 63 10000 12.9 300 16:42 23.12.2019
5608 Rain 13 1012 63 10000 13.9 300 16:19 23.12.2019
5609 Clouds 14 1012 63 10000 13.9 300 15:59 23.12.2019
5610 Rain 13 1012 72 10000 11.8 290 15:38 23.12.2019
5611 Rain 13 1012 72 10000 11.8 300 15:20 23.12.2019
5612 Rain 13 1012 72 10000 11.8 300 14:59 23.12.2019
5613 Rain 13 1011 67 9000 12.9 290 14:41 23.12.2019
5614 Rain 13 1011 67 9000 13.4 290 14:22 23.12.2019
5615 Rain 13 1011 67 9000 13.4 290 13:58 23.12.2019
5616 Rain 13 1011 67 9000 13.4 290 13:40 23.12.2019
5617 Rain 13 1011 67 10000 12.9 290 13:22 23.12.2019
5618 Rain 13 1011 67 10000 12.9 290 12:57 23.12.2019
5619 Rain 13 1012 67 10000 13.4 290 12:39 23.12.2019
5620 Rain 13 1011 59 10000 14.9 300 12:19 23.12.2019
5621 Rain 14 1012 63 10000 13.9 300 11:44 23.12.2019
5622 Rain 14 1012 63 10000 13.9 300 11:26 23.12.2019
5623 Rain 14 1011 63 10000 14.9 300 10:59 23.12.2019
5624 Clouds 14 1011 63 10000 14.4 300 10:40 23.12.2019
5625 Rain 14 1011 63 10000 14.4 300 10:21 23.12.2019
5626 Clouds 14 1011 67 10000 13.9 290 09:59 23.12.2019
5627 Rain 13 1010 63 10000 15.4 290 09:40 23.12.2019
5628 Rain 13 1010 59 10000 15.9 290 09:21 23.12.2019
5629 Rain 13 1010 59 10000 15.9 290 08:58 23.12.2019
5630 Rain 13 1009 63 10000 15.9 290 08:40 23.12.2019
5631 Rain 13 1009 67 10000 14.4 290 08:22 23.12.2019
5632 Rain 14 1008 63 10000 15.9 280 07:47 23.12.2019
5633 Rain 14 1007 67 10000 15.4 270 07:20 23.12.2019
5634 Clouds 14 1007 67 10000 14.9 270 06:53 23.12.2019
5635 Rain 14 1007 67 10000 14.9 270 06:53 23.12.2019
5636 Rain 15 1007 67 10000 14.9 270 06:26 23.12.2019
5637 Rain 14 1006 77 10000 14.4 270 05:53 23.12.2019
5638 Rain 14 1006 77 10000 14.4 270 05:29 23.12.2019
5639 Rain 15 1007 72 9000 15.9 270 04:31 23.12.2019
5640 Rain 15 1007 72 10000 7.7 250 03:24 23.12.2019
5641 Rain 15 1008 72 10000 8.7 250 02:41 23.12.2019
5642 Clouds 15 1008 67 10000 9.3 270 02:19 23.12.2019
5643 Clouds 14 1008 67 10000 11.8 270 01:42 23.12.2019
5644 Clouds 14 1008 67 10000 11.8 270 01:23 23.12.2019
5645 Clouds 14 1008 72 10000 10.8 250 00:43 23.12.2019
5646 Clouds 14 1008 72 10000 10.8 250 00:23 23.12.2019
5647 Clouds 14 1009 77 10000 10.8 260 23:40 22.12.2019
5648 Clouds 14 1009 77 10000 10.8 260 23:21 22.12.2019
5649 Rain 14 1009 77 10000 12.9 260 22:58 22.12.2019
5650 Rain 14 1009 77 10000 12.9 260 22:58 22.12.2019
5651 Rain 14 1009 72 10000 12.3 260 22:40 22.12.2019
5652 Rain 14 1009 67 10000 13.4 260 22:21 22.12.2019
5653 Clouds 14 1009 67 10000 13.4 260 21:58 22.12.2019
5654 Clouds 14 1009 67 10000 13.4 260 21:58 22.12.2019
5655 Clouds 14 1008 67 10000 13.4 260 21:40 22.12.2019
5656 Rain 14 1008 67 10000 13.4 260 21:21 22.12.2019
5657 Rain 14 1008 72 10000 15.9 260 20:58 22.12.2019
5658 Rain 15 1008 67 10000 15.9 260 20:39 22.12.2019
5659 Rain 14 1007 63 10000 16.5 260 20:19 22.12.2019
5660 Rain 14 1007 63 10000 16.5 260 20:19 22.12.2019
5661 Rain 14 1007 63 10000 16.5 260 19:57 22.12.2019
5662 Rain 14 1006 67 10000 14.4 260 19:38 22.12.2019
5663 Rain 14 1006 63 10000 14.4 280 19:19 22.12.2019
5664 Rain 14 1007 63 10000 12.9 270 18:42 22.12.2019
5665 Rain 14 1006 67 10000 14.9 270 18:23 22.12.2019
5666 Clouds 14 1006 67 10000 14.9 270 17:56 22.12.2019
5667 Clouds 14 1006 72 9000 13.9 270 17:38 22.12.2019
5668 Clouds 14 1006 72 9000 13.4 260 17:19 22.12.2019
5669 Clouds 14 1006 72 9000 13.4 260 16:57 22.12.2019
5670 Clouds 14 1005 72 9000 13.4 260 16:38 22.12.2019
5671 Clouds 15 1005 77 9000 13.9 270 16:20 22.12.2019
5672 Clouds 15 1005 77 9000 13.9 270 15:56 22.12.2019
5673 Clouds 16 1004 72 9000 15.9 260 15:38 22.12.2019
5674 Clouds 16 1004 72 10000 16.5 260 15:19 22.12.2019
5675 Clouds 16 1004 72 10000 16.5 260 14:55 22.12.2019
5676 Clouds 16 1004 72 10000 16.5 260 14:36 22.12.2019
5677 Rain 16 1004 72 10000 14.4 250 14:18 22.12.2019
5678 Rain 15 1004 72 10000 14.4 250 13:55 22.12.2019
5679 Rain 15 1004 68 10000 14.9 260 13:36 22.12.2019
5680 Rain 15 1004 68 9000 13.4 250 13:18 22.12.2019
5681 Rain 15 1004 68 9000 13.4 250 13:18 22.12.2019
5682 Rain 15 1004 68 9000 13.4 250 13:18 22.12.2019
5683 Rain 16 1005 68 10000 12.9 250 12:55 22.12.2019
5684 Rain 16 1005 68 10000 12.9 250 12:37 22.12.2019
5685 Rain 15 1005 68 8000 13.4 260 12:18 22.12.2019
5686 Rain 15 1005 68 8000 13.4 260 12:18 22.12.2019
5687 Clouds 15 1005 68 8000 13.4 260 11:55 22.12.2019
5688 Clouds 15 1005 72 9000 13.9 260 11:36 22.12.2019
5689 Clouds 15 1005 72 10000 12.3 250 11:18 22.12.2019
5690 Rain 15 1005 72 10000 12.3 250 10:54 22.12.2019
5691 Rain 15 1006 77 8000 13.4 260 10:36 22.12.2019
5692 Rain 15 1005 77 8000 15.9 260 10:18 22.12.2019
5693 Clouds 15 1005 77 8000 15.9 260 09:56 22.12.2019
5694 Rain 15 1005 77 8000 14.4 260 09:37 22.12.2019
5695 Rain 15 1005 77 10000 15.4 260 09:19 22.12.2019
5696 Rain 16 1004 68 10000 15.9 260 08:39 22.12.2019
5697 Rain 16 1004 68 10000 15.4 250 08:21 22.12.2019
5698 Clouds 16 1004 68 10000 11.8 220 07:40 22.12.2019
5699 Rain 16 1004 68 10000 10.8 190 07:21 22.12.2019
5700 Rain 15 1004 77 10000 11.3 190 06:41 22.12.2019
5701 Rain 16 1005 63 9000 10.8 190 05:56 22.12.2019
5702 Rain 16 1005 63 9000 10.8 190 05:24 22.12.2019
5703 Rain 16 1005 63 9000 10.8 190 04:31 22.12.2019
5704 Clouds 16 1006 63 10000 10.8 190 03:58 22.12.2019
5705 Clouds 16 1006 52 10000 12.9 190 02:43 22.12.2019
5706 Clouds 16 1008 68 10000 8.2 210 01:54 22.12.2019
5707 Clouds 17 1008 68 10000 8.2 210 01:31 22.12.2019
5708 Clouds 16 1009 68 10000 9.8 220 00:48 22.12.2019
5709 Clouds 16 1009 68 10000 9.8 220 00:26 22.12.2019
5710 Clouds 16 1009 68 10000 12.3 220 23:57 21.12.2019
5711 Clouds 16 1009 72 10000 14.4 230 23:38 21.12.2019
5712 Clouds 16 1009 77 10000 12.9 230 23:19 21.12.2019
5713 Clouds 16 1010 77 10000 11.8 230 22:45 21.12.2019
5714 Clouds 16 1010 77 10000 12.3 230 22:20 21.12.2019
5715 Clouds 16 1010 77 10000 12.3 230 21:58 21.12.2019
5716 Clouds 16 1010 77 10000 11.8 220 21:38 21.12.2019
5717 Clouds 16 1010 77 10000 10.8 220 21:20 21.12.2019
5718 Clouds 16 1010 77 10000 10.8 220 20:59 21.12.2019
5719 Clouds 16 1010 82 10000 10.8 220 20:40 21.12.2019
5720 Clouds 15 1010 82 10000 10.8 220 20:22 21.12.2019
5721 Clouds 15 1009 77 10000 11.3 210 19:58 21.12.2019
5722 Clouds 15 1009 77 10000 11.8 210 19:40 21.12.2019
5723 Clouds 15 1009 77 10000 11.8 210 19:40 21.12.2019
5724 Clouds 15 1009 72 10000 10.8 200 19:19 21.12.2019
5725 Clouds 15 1009 72 10000 10.8 200 19:19 21.12.2019
5726 Rain 16 1009 72 10000 10.8 200 18:55 21.12.2019
5727 Rain 15 1009 68 10000 12.9 210 18:37 21.12.2019
5728 Clouds 15 1009 68 10000 11.8 190 18:19 21.12.2019
5729 Clouds 15 1009 68 10000 11.8 190 17:55 21.12.2019
5730 Rain 15 1009 68 10000 11.8 200 17:36 21.12.2019
5731 Rain 15 1009 63 10000 10.8 200 17:18 21.12.2019
5732 Rain 15 1008 63 10000 12.3 200 16:41 21.12.2019
5733 Rain 15 1008 63 10000 12.3 200 16:41 21.12.2019
5734 Clouds 15 1008 68 10000 10.8 180 16:19 21.12.2019
5735 Rain 15 1008 68 10000 10.8 180 15:57 21.12.2019
5736 Rain 15 1009 72 10000 8.7 190 15:38 21.12.2019
5737 Rain 15 1009 72 10000 8.7 190 15:38 21.12.2019
5738 Rain 15 1008 72 10000 10.8 190 15:19 21.12.2019
5739 Clouds 15 1008 72 10000 10.8 190 14:57 21.12.2019
5740 Rain 15 983 68 0 0.89 203 14:38 21.12.2019
5741 Clouds 15 1009 72 10000 12.3 190 14:19 21.12.2019
5742 Rain 15 1009 72 10000 12.3 190 13:56 21.12.2019
5743 Rain 14 1009 72 10000 11.3 200 13:37 21.12.2019
5744 Rain 14 1009 72 10000 9.8 190 13:18 21.12.2019
5745 Rain 15 1009 72 10000 9.8 190 12:55 21.12.2019
5746 Rain 15 1010 77 10000 10.3 190 12:37 21.12.2019
5747 Rain 15 1010 72 8000 10.3 190 12:18 21.12.2019
5748 Rain 15 1011 72 9000 9.8 200 11:43 21.12.2019
5749 Rain 15 1011 72 9000 9.8 200 11:25 21.12.2019
5750 Rain 15 1011 63 8000 10.3 190 10:56 21.12.2019
5751 Rain 15 1011 63 10000 10.8 210 10:38 21.12.2019
5752 Clouds 15 1010 59 10000 13.9 200 10:19 21.12.2019
5753 Clouds 15 1010 59 10000 11.8 210 09:43 21.12.2019
5754 Clouds 15 1010 59 10000 11.8 210 09:22 21.12.2019
5755 Clouds 15 1010 59 10000 9.8 210 08:59 21.12.2019
5756 Clouds 15 1010 59 10000 11.8 210 08:39 21.12.2019
5757 Clouds 14 1010 63 10000 11.8 210 08:21 21.12.2019
5758 Clouds 14 1010 59 10000 11.8 210 07:44 21.12.2019
5759 Clouds 15 1009 59 10000 12.9 200 07:22 21.12.2019
5760 Clouds 14 1009 59 10000 11.3 210 06:45 21.12.2019
5761 Clouds 14 1009 59 10000 10.8 210 06:26 21.12.2019
5762 Clouds 14 1009 59 10000 13.9 200 05:51 21.12.2019
5763 Clouds 15 1010 59 10000 12.9 200 04:58 21.12.2019
5764 Clouds 15 1010 55 10000 10.8 210 03:59 21.12.2019
5765 Clouds 14 1011 51 10000 13.4 200 03:18 21.12.2019
5766 Clouds 14 1012 55 10000 11.3 180 02:18 21.12.2019
5767 Clouds 14 1012 55 10000 12.3 190 01:38 21.12.2019
5768 Clouds 15 1012 55 10000 13.4 190 01:20 21.12.2019
5769 Clouds 15 1012 55 10000 12.3 190 00:37 21.12.2019
5770 Clouds 15 1012 52 10000 12.9 200 00:18 21.12.2019
5771 Clouds 15 1013 48 10000 12.9 190 23:38 20.12.2019
5772 Clouds 15 1013 48 10000 13.4 190 23:19 20.12.2019
5773 Clouds 14 1013 52 10000 10.8 190 22:43 20.12.2019
5774 Clouds 15 1013 52 10000 10.8 190 22:21 20.12.2019
5775 Clouds 15 1013 52 10000 10.8 190 21:59 20.12.2019
5776 Clouds 15 1013 59 10000 10.8 200 21:40 20.12.2019
5777 Clouds 15 1013 59 10000 8.7 200 21:20 20.12.2019
5778 Clouds 15 1013 59 10000 8.7 200 21:20 20.12.2019
5779 Clouds 15 1013 59 10000 8.7 200 20:55 20.12.2019
5780 Clouds 15 1013 52 10000 10.8 190 20:36 20.12.2019
5781 Clear 14 1013 52 10000 10.3 190 20:18 20.12.2019
5782 Rain 14 1013 48 10000 11.3 200 19:41 20.12.2019
5783 Rain 15 1013 45 10000 11.3 200 19:20 20.12.2019
5784 Rain 15 1013 45 10000 11.3 200 18:58 20.12.2019
5785 Rain 15 1013 39 10000 9.8 190 18:38 20.12.2019
5786 Clear 15 1013 42 10000 9.8 190 18:20 20.12.2019
5787 Clear 15 1013 42 10000 9.8 190 17:54 20.12.2019
5788 Clear 15 1013 45 10000 12.9 190 17:36 20.12.2019
5789 Clear 15 1013 45 10000 12.9 190 17:18 20.12.2019
5790 Clear 15 1013 45 10000 12.9 190 17:18 20.12.2019
5791 Clear 15 1014 45 10000 8.7 190 16:40 20.12.2019
5792 Clear 15 1014 45 10000 8.7 190 16:20 20.12.2019
5793 Clear 16 1014 48 10000 12.3 200 15:57 20.12.2019
5794 Clear 16 1014 45 10000 9.3 200 15:39 20.12.2019
5795 Clear 16 1014 45 10000 9.3 200 15:20 20.12.2019
5796 Clear 17 1014 45 10000 8.7 190 14:59 20.12.2019
5797 Clear 16 1015 49 10000 8.7 190 14:40 20.12.2019
5798 Clouds 16 1015 49 10000 8.7 190 14:22 20.12.2019
5799 Clouds 17 1015 49 10000 9.3 190 13:55 20.12.2019
5800 Clouds 17 1016 52 10000 10.8 200 13:36 20.12.2019
5801 Clouds 17 1016 52 10000 10.8 200 13:18 20.12.2019
5802 Clouds 17 1016 55 10000 7.7 190 12:42 20.12.2019
5803 Clouds 17 1017 55 10000 10.3 200 12:20 20.12.2019
5804 Clouds 17 1018 55 10000 7.7 200 11:59 20.12.2019
5805 Clouds 16 1018 55 10000 7.7 200 11:40 20.12.2019
5806 Clouds 16 1018 59 10000 6.2 200 11:21 20.12.2019
5807 Clouds 15 1019 63 10000 7.7 190 10:59 20.12.2019
5808 Clouds 15 1019 63 10000 7.2 210 10:41 20.12.2019
5809 Clouds 15 1019 63 10000 7.2 210 10:21 20.12.2019
5810 Clouds 15 1018 63 10000 7.2 200 09:58 20.12.2019
5811 Clouds 15 1018 63 10000 7.2 200 09:40 20.12.2019
5812 Clouds 15 1018 67 10000 7.2 190 09:20 20.12.2019
5813 Clouds 14 1019 77 10000 5.7 190 08:44 20.12.2019
5814 Clouds 13 1019 77 10000 6.7 190 08:26 20.12.2019
5815 Clouds 14 1019 77 10000 6.7 190 07:59 20.12.2019
5816 Clouds 13 1019 77 10000 6.7 190 07:41 20.12.2019
5817 Clouds 13 1019 77 10000 7.2 200 07:20 20.12.2019
5818 Clouds 13 1018 77 10000 6.2 190 06:52 20.12.2019
5819 Clouds 13 1018 77 10000 6.2 200 06:33 20.12.2019
5820 Clouds 13 1018 82 10000 6.2 190 05:56 20.12.2019
5821 Clouds 13 1019 82 10000 5.1 200 05:37 20.12.2019
5822 Clouds 13 1019 82 10000 5.1 200 05:37 20.12.2019
5823 Clouds 13 1019 77 10000 5.7 210 04:34 20.12.2019
5824 Clouds 14 1019 82 10000 7.2 230 03:31 20.12.2019
5825 Clouds 14 1019 77 10000 6.2 230 02:45 20.12.2019
5826 Clouds 14 1018 82 10000 9.3 270 01:54 20.12.2019
5827 Clouds 14 1019 82 10000 9.8 270 01:34 20.12.2019
5828 Clouds 14 1019 87 10000 7.7 230 00:49 20.12.2019
5829 Clouds 14 1018 82 10000 9.8 220 00:30 20.12.2019
5830 Rain 14 1018 87 10000 8.7 210 23:57 19.12.2019
5831 Rain 14 1018 87 8000 7.2 200 23:38 19.12.2019
5832 Rain 14 1018 87 8000 7.2 200 23:19 19.12.2019
5833 Clouds 14 1018 77 9000 8.2 200 22:38 19.12.2019
5834 Clouds 14 1018 77 9000 8.2 200 22:20 19.12.2019
5835 Rain 14 1018 82 8000 7.2 180 21:56 19.12.2019
5836 Rain 14 1018 87 8000 7.7 190 21:38 19.12.2019
5837 Rain 14 1018 87 8000 7.7 190 21:19 19.12.2019
5838 Clouds 14 1017 77 10000 8.7 190 20:56 19.12.2019
5839 Clouds 14 1017 77 9000 9.3 190 20:37 19.12.2019
5840 Clouds 14 1017 77 9000 9.3 190 20:37 19.12.2019
5841 Clouds 14 1017 77 9000 9.3 190 20:18 19.12.2019
5842 Clouds 14 1017 77 9000 9.3 190 20:18 19.12.2019
5843 Clouds 14 1017 77 9000 8.7 200 19:57 19.12.2019
5844 Rain 13 1017 72 8000 5.7 190 19:39 19.12.2019
5845 Rain 14 1017 72 8000 5.7 190 19:19 19.12.2019
5846 Clouds 13 1017 72 7000 7.2 200 18:55 19.12.2019
5847 Clouds 13 1017 67 7000 5.1 190 18:37 19.12.2019
5848 Mist 13 1017 67 5000 6.7 190 18:18 19.12.2019
5849 Mist 13 1017 67 5000 6.7 190 17:54 19.12.2019
5850 Clouds 13 1017 59 8000 6.7 200 17:36 19.12.2019
5851 Clouds 14 1017 59 8000 6.7 200 17:18 19.12.2019
5852 Clouds 14 1017 63 9000 5.7 200 16:54 19.12.2019
5853 Clouds 14 1017 63 8000 6.2 210 16:36 19.12.2019
5854 Clouds 14 1017 63 8000 6.2 210 16:18 19.12.2019
5855 Clouds 14 1016 67 8000 2.1 240 15:54 19.12.2019
5856 Clouds 15 1016 67 10000 1 0 15:36 19.12.2019
5857 Clouds 15 1016 67 10000 1 0 15:18 19.12.2019
5858 Clouds 15 1017 77 9000 3.1 280 14:42 19.12.2019
5859 Clouds 16 1017 67 9000 1.5 350 14:20 19.12.2019
5860 Clouds 16 1016 67 9000 2.1 330 13:58 19.12.2019
5861 Clouds 16 1016 67 9000 2.6 30 13:38 19.12.2019
5862 Rain 15 1016 67 9000 2.6 30 13:19 19.12.2019
5863 Rain 16 1017 59 8000 1 350 12:57 19.12.2019
5864 Rain 16 1017 59 8000 0.5 0 12:38 19.12.2019
5865 Clouds 16 1017 59 8000 0.5 0 12:19 19.12.2019
5866 Clouds 16 1017 59 8000 0.5 0 12:19 19.12.2019
5867 Clouds 16 1017 59 8000 0.5 0 12:19 19.12.2019
5868 Clouds 16 1018 63 7000 1.5 220 11:58 19.12.2019
5869 Clouds 16 1018 72 7000 2.1 270 11:39 19.12.2019
5870 Clouds 16 1018 72 7000 2.1 270 11:18 19.12.2019
5871 Clouds 16 1018 72 7000 2.1 270 11:18 19.12.2019
5872 Clouds 16 1017 72 8000 2.1 30 10:56 19.12.2019
5873 Clouds 15 1017 67 8000 0.5 0 10:37 19.12.2019
5874 Clouds 15 1017 67 8000 1.5 180 10:19 19.12.2019
5875 Clouds 15 1017 67 8000 1.5 180 09:40 19.12.2019
5876 Clouds 15 1017 67 8000 1.5 180 09:40 19.12.2019
5877 Clouds 14 1017 67 8000 2.6 190 09:21 19.12.2019
5878 Clouds 13 1017 71 8000 1 170 08:58 19.12.2019
5879 Clouds 13 1017 67 8000 1.5 160 08:40 19.12.2019
5880 Clear 13 1017 67 8000 1.5 160 08:19 19.12.2019
5881 Clear 13 1017 72 10000 2.1 240 07:57 19.12.2019
5882 Clear 12 1016 63 10000 2.1 220 07:38 19.12.2019
5883 Clear 13 1016 63 10000 2.1 220 07:19 19.12.2019
5884 Clouds 13 1016 55 10000 1.5 0 06:50 19.12.2019
5885 Clouds 13 1016 55 10000 2.6 180 06:50 19.12.2019
5886 Clouds 13 1016 55 10000 2.6 180 06:29 19.12.2019
5887 Clouds 13 1016 59 10000 2.6 180 05:55 19.12.2019
5888 Clear 13 1020 68 0 0.89 270 05:36 19.12.2019
5889 Clouds 13 1016 59 10000 2.6 0 04:52 19.12.2019
5890 Clouds 14 1016 55 10000 3.1 170 03:23 19.12.2019
5891 Clouds 14 1016 59 10000 6.2 170 02:23 19.12.2019
5892 Rain 15 1015 59 10000 6.7 180 01:23 19.12.2019
5893 Clouds 15 1015 55 10000 2.1 150 00:43 19.12.2019
5894 Clouds 15 1015 55 10000 4.6 180 00:24 19.12.2019
5895 Clouds 15 1015 52 10000 5.7 160 23:57 18.12.2019
5896 Clouds 15 1015 52 10000 6.7 130 23:38 18.12.2019
5897 Clouds 15 1015 52 10000 6.7 130 23:18 18.12.2019
5898 Rain 15 1015 37 10000 13.9 140 22:55 18.12.2019
5899 Clouds 15 1015 45 10000 11.8 140 22:37 18.12.2019
5900 Clouds 15 1015 45 10000 11.8 140 22:19 18.12.2019
5901 Clouds 15 1014 45 10000 10.8 150 21:56 18.12.2019
5902 Clouds 16 1015 45 10000 6.7 170 21:38 18.12.2019
5903 Clouds 16 1015 45 10000 6.7 170 21:19 18.12.2019
5904 Clouds 15 1015 52 10000 2.6 100 20:55 18.12.2019
5905 Clouds 15 1015 48 10000 5.7 110 20:37 18.12.2019
5906 Clouds 15 1015 48 10000 5.7 110 20:19 18.12.2019
5907 Clouds 15 1016 48 10000 4.6 130 19:55 18.12.2019
5908 Clouds 15 1016 48 10000 5.1 150 19:37 18.12.2019
5909 Clouds 15 1016 48 10000 5.1 150 19:18 18.12.2019
5910 Clouds 15 1016 48 10000 5.1 150 19:18 18.12.2019
5911 Clouds 16 1015 48 10000 6.7 120 18:44 18.12.2019
5912 Clouds 16 1016 48 10000 7.7 120 18:25 18.12.2019
5913 Clouds 16 1015 42 10000 8.7 130 17:57 18.12.2019
5914 Clouds 16 1015 42 10000 8.7 130 17:39 18.12.2019
5915 Clouds 16 1015 42 10000 8.7 130 17:19 18.12.2019
5916 Clouds 16 1015 42 9000 8.2 120 16:56 18.12.2019
5917 Clouds 16 1015 42 9000 8.2 120 16:38 18.12.2019
5918 Clouds 16 1016 42 9000 8.2 120 16:20 18.12.2019
5919 Clouds 16 1016 42 9000 8.2 120 15:55 18.12.2019
5920 Clouds 17 1015 42 10000 6.7 140 15:37 18.12.2019
5921 Clouds 17 1015 45 10000 7.2 110 15:18 18.12.2019
5922 Clouds 17 1016 43 10000 5.7 110 14:42 18.12.2019
5923 Clouds 17 1016 43 10000 5.7 110 14:42 18.12.2019
5924 Clouds 17 1016 43 10000 5.7 110 14:22 18.12.2019
5925 Clouds 17 1016 46 10000 5.7 110 13:57 18.12.2019
5926 Clouds 17 1016 46 10000 5.1 120 13:38 18.12.2019
5927 Clouds 17 1017 49 10000 3.1 130 13:20 18.12.2019
5928 Clouds 17 1017 49 10000 3.1 130 12:57 18.12.2019
5929 Clouds 17 1017 52 10000 2.6 100 12:38 18.12.2019
5930 Clouds 17 1017 52 10000 5.1 70 12:19 18.12.2019
5931 Clouds 18 1018 52 10000 6.2 90 11:56 18.12.2019
5932 Clouds 17 1018 52 10000 6.2 90 11:38 18.12.2019
5933 Clouds 17 1018 59 10000 2.6 0 11:19 18.12.2019
5934 Clouds 17 1017 59 10000 3.6 80 10:55 18.12.2019
5935 Clouds 16 1017 59 10000 3.6 80 10:37 18.12.2019
5936 Clouds 17 1017 55 10000 2.6 110 10:19 18.12.2019
5937 Clouds 17 1017 59 10000 4.1 70 09:50 18.12.2019
5938 Clouds 17 1017 59 10000 4.1 70 09:50 18.12.2019
5939 Clouds 17 1017 55 10000 3.6 70 09:18 18.12.2019
5940 Clouds 16 1017 52 10000 3.1 90 08:41 18.12.2019
5941 Clouds 15 1017 52 10000 2.6 120 08:22 18.12.2019
5942 Clouds 15 1017 55 10000 3.1 110 07:45 18.12.2019
5943 Clouds 15 1017 55 10000 3.1 110 07:24 18.12.2019
5944 Clouds 15 1017 59 10000 4.1 90 06:57 18.12.2019
5945 Clouds 15 1017 59 10000 3.6 80 06:28 18.12.2019
5946 Clouds 15 1017 63 10000 2.1 90 05:57 18.12.2019
5947 Clouds 15 1017 72 10000 3.6 70 05:22 18.12.2019
5948 Clouds 15 1018 63 10000 0.5 0 03:31 18.12.2019
5949 Clouds 14 1018 67 10000 0.5 0 02:38 18.12.2019
5950 Clouds 15 1018 67 10000 2.1 140 02:20 18.12.2019
5951 Clouds 14 1018 67 10000 1 0 01:42 18.12.2019
5952 Clouds 14 1018 67 10000 0.5 0 01:23 18.12.2019
5953 Clouds 15 1018 63 10000 0.5 0 00:42 18.12.2019
5954 Clouds 15 1018 63 10000 1 0 00:23 18.12.2019
5955 Clouds 15 1018 63 10000 1 0 23:57 17.12.2019
5956 Clouds 15 1018 67 10000 2.1 70 23:39 17.12.2019
5957 Clouds 15 1018 59 10000 1 0 23:20 17.12.2019
5958 Clouds 15 1018 59 10000 1 0 22:56 17.12.2019
5959 Clouds 15 1018 59 10000 1 0 22:38 17.12.2019
5960 Clouds 15 1018 55 10000 1 0 22:19 17.12.2019
5961 Clouds 15 1018 55 10000 1 0 21:56 17.12.2019
5962 Clouds 15 1018 55 10000 1 0 21:56 17.12.2019
5963 Clouds 15 1018 55 10000 1 0 21:38 17.12.2019
5964 Clouds 15 1018 63 10000 1.5 150 21:19 17.12.2019
5965 Clouds 15 1018 63 10000 1.5 150 20:57 17.12.2019
5966 Clouds 15 1018 59 10000 2.1 150 20:38 17.12.2019
5967 Clouds 15 1019 63 10000 1.5 210 20:18 17.12.2019
5968 Clouds 15 1019 63 10000 1.5 210 19:56 17.12.2019
5969 Clouds 15 1018 59 10000 2.6 130 19:38 17.12.2019
5970 Clouds 15 1018 67 10000 1 0 19:18 17.12.2019
5971 Clouds 15 1018 72 10000 1.5 140 18:55 17.12.2019
5972 Clouds 15 1018 72 10000 1.5 140 18:37 17.12.2019
5973 Clouds 15 1018 77 10000 2.6 80 18:19 17.12.2019
5974 Clouds 15 1017 72 10000 3.1 20 17:42 17.12.2019
5975 Clouds 15 1017 72 10000 3.1 20 17:42 17.12.2019
5976 Clouds 15 1017 72 10000 3.1 20 17:42 17.12.2019
5977 Clouds 15 1017 77 10000 3.6 70 17:21 17.12.2019
5978 Clouds 15 1017 72 10000 2.6 90 16:57 17.12.2019
5979 Clouds 16 1017 72 10000 2.6 90 16:38 17.12.2019
5980 Clouds 16 1017 77 10000 3.1 20 16:19 17.12.2019
5981 Clouds 16 1017 77 10000 3.1 20 15:59 17.12.2019
5982 Clouds 16 1017 63 10000 4.1 80 15:38 17.12.2019
5983 Clouds 16 1017 59 10000 2.1 70 15:19 17.12.2019
5984 Clouds 16 1017 59 10000 2.1 70 14:56 17.12.2019
5985 Clouds 16 1017 63 10000 2.6 40 14:38 17.12.2019
5986 Clouds 16 1017 63 10000 2.6 50 14:19 17.12.2019
5987 Clouds 16 1017 63 10000 2.6 50 13:56 17.12.2019
5988 Clouds 16 1018 72 10000 3.6 60 13:38 17.12.2019
5989 Clouds 16 1018 72 10000 1.5 20 13:19 17.12.2019
5990 Clouds 16 1018 72 10000 1.5 20 12:58 17.12.2019
5991 Clouds 17 1018 72 10000 3.1 40 12:38 17.12.2019
5992 Clouds 17 1018 72 10000 3.1 40 12:38 17.12.2019
5993 Clouds 17 1018 68 10000 2.1 60 12:18 17.12.2019
5994 Clouds 16 1019 63 10000 3.1 40 11:56 17.12.2019
5995 Clouds 17 1019 63 10000 3.1 40 11:36 17.12.2019
5996 Clouds 17 1019 63 10000 3.1 40 11:36 17.12.2019
5997 Clouds 17 1019 72 10000 3.6 40 11:18 17.12.2019
5998 Clouds 16 1019 72 10000 3.6 40 10:57 17.12.2019
5999 Clouds 16 1019 59 10000 2.6 50 10:38 17.12.2019
6000 Clouds 15 1019 72 10000 4.1 50 10:19 17.12.2019
6001 Clouds 15 1019 67 10000 2.6 70 09:43 17.12.2019
6002 Clouds 15 1019 59 10000 2.6 180 09:22 17.12.2019
6003 Clouds 15 1019 59 10000 2.6 180 08:59 17.12.2019
6004 Clouds 14 1019 66 10000 1 0 08:40 17.12.2019
6005 Clear 13 1019 66 10000 1 0 08:22 17.12.2019
6006 Clear 13 1019 66 10000 1 0 08:22 17.12.2019
6007 Clear 13 1019 66 10000 1 0 07:59 17.12.2019
6008 Clear 13 1019 62 10000 0.5 0 07:41 17.12.2019
6009 Clear 12 1018 71 10000 2.6 140 07:22 17.12.2019
6010 Clear 12 1018 66 10000 1.5 130 06:42 17.12.2019
6011 Clear 12 1018 58 10000 3.6 200 06:24 17.12.2019
6012 Clear 12 1018 58 10000 3.6 200 06:24 17.12.2019
6013 Clear 12 1018 58 10000 2.1 150 05:41 17.12.2019
6014 Clear 13 1018 62 10000 5.1 200 04:53 17.12.2019
6015 Clear 13 1018 67 10000 5.7 220 03:55 17.12.2019
6016 Clear 13 1018 67 10000 8.7 230 02:26 17.12.2019
6017 Clear 13 1018 63 10000 7.2 230 01:22 17.12.2019
6018 Clear 13 994 78 0 4.84 179 00:47 17.12.2019
6019 Clear 13 994 77 0 4.84 179 00:22 17.12.2019
6020 Clear 13 994 75 0 4.84 179 23:58 16.12.2019
6021 Clear 14 994 74 0 4.84 179 23:40 16.12.2019
6022 Clear 14 995 73 0 4.55 181 23:18 16.12.2019
6023 Clear 14 995 73 0 4.55 181 22:54 16.12.2019
6024 Clear 14 1024 34 0 2.24 225 22:36 16.12.2019
6025 Clear 14 995 70 0 4.55 181 22:18 16.12.2019
6026 Clear 14 995 68 0 4.55 181 21:54 16.12.2019
6027 Clear 14 995 67 0 4.55 181 21:36 16.12.2019
6028 Clear 14 995 66 0 4.55 181 21:18 16.12.2019
6029 Clear 14 995 65 0 4.55 181 20:55 16.12.2019
6030 Clear 14 995 65 0 4.55 181 20:37 16.12.2019
6031 Clear 14 1024 48 0 0.89 315 20:18 16.12.2019
6032 Clear 14 1024 52 0 0.89 0 19:54 16.12.2019
6033 Clear 14 995 62 0 4.17 183 19:36 16.12.2019
6034 Clear 15 995 61 0 4.17 183 19:18 16.12.2019
6035 Clear 15 1024 54 0 0.89 315 18:54 16.12.2019
6036 Clear 15 995 59 0 4.17 183 18:36 16.12.2019
6037 Clear 16 1019 37 10000 5.7 160 18:18 16.12.2019
6038 Clear 16 1019 37 10000 6.2 170 17:55 16.12.2019
6039 Clear 16 1019 37 10000 6.2 170 17:36 16.12.2019
6040 Clear 16 1019 37 10000 6.2 170 17:18 16.12.2019
6041 Clear 16 1019 40 10000 5.7 160 16:54 16.12.2019
6042 Clear 17 1019 40 10000 5.7 160 16:36 16.12.2019
6043 Clear 17 1019 40 10000 5.1 170 16:18 16.12.2019
6044 Clear 17 1019 40 10000 5.1 170 15:54 16.12.2019
6045 Clear 18 1019 40 10000 4.6 170 15:36 16.12.2019
6046 Clear 17 1019 40 10000 5.7 170 15:18 16.12.2019
6047 Clear 18 1019 40 10000 7.2 180 14:54 16.12.2019
6048 Clear 18 1019 40 10000 7.2 180 14:36 16.12.2019
6049 Clear 18 1019 43 10000 7.2 180 14:18 16.12.2019
6050 Clear 18 1020 43 10000 6.2 190 13:38 16.12.2019
6051 Clear 18 1020 43 10000 5.1 180 13:20 16.12.2019
6052 Clear 18 1020 43 10000 5.1 180 12:58 16.12.2019
6053 Clear 18 1020 43 10000 7.7 180 12:40 16.12.2019
6054 Clear 18 1020 43 10000 6.2 180 12:20 16.12.2019
6055 Clear 18 1020 43 10000 6.2 180 11:59 16.12.2019
6056 Clear 18 1021 40 10000 6.7 180 11:41 16.12.2019
6057 Clear 17 1021 40 10000 4.6 180 11:21 16.12.2019
6058 Clear 17 1021 40 10000 4.6 180 10:58 16.12.2019
6059 Clear 16 1021 72 10000 2.1 0 10:40 16.12.2019
6060 Clear 16 1021 72 10000 2.1 0 10:40 16.12.2019
6061 Clear 16 1021 72 10000 2.1 0 10:40 16.12.2019
6062 Clear 16 1021 77 10000 3.1 30 10:20 16.12.2019
6063 Clear 15 1021 77 10000 3.1 40 09:46 16.12.2019
6064 Clear 15 1021 77 10000 3.1 40 09:28 16.12.2019
6065 Clear 14 1021 67 10000 3.1 50 08:58 16.12.2019
6066 Clear 14 1020 72 10000 2.6 0 08:38 16.12.2019
6067 Clouds 13 1021 72 10000 2.1 50 08:19 16.12.2019
6068 Clouds 14 1020 59 10000 3.6 0 07:49 16.12.2019
6069 Clouds 13 996 93 0 4.19 189 07:30 16.12.2019
6070 Clouds 13 1020 72 10000 2.1 0 06:46 16.12.2019
6071 Clouds 12 1020 82 10000 2.6 50 06:26 16.12.2019
6072 Clouds 13 1020 82 10000 2.1 0 05:56 16.12.2019
6073 Clouds 12 1020 82 10000 2.1 0 05:35 16.12.2019
6074 Clouds 12 1020 87 10000 1.5 60 04:33 16.12.2019
6075 Clouds 13 1021 82 10000 2.1 0 02:49 16.12.2019
6076 Clouds 12 1020 87 10000 1 0 01:45 16.12.2019
6077 Clouds 12 1020 87 10000 2.1 70 00:55 16.12.2019
6078 Clouds 12 1020 87 10000 2.1 70 00:36 16.12.2019
6079 Clouds 13 1020 77 10000 1 0 00:18 16.12.2019
6080 Clouds 13 1020 72 10000 1.5 0 23:40 15.12.2019
6081 Clouds 13 1020 76 10000 0.5 0 23:22 15.12.2019
6082 Clouds 13 1020 76 10000 0.5 0 22:56 15.12.2019
6083 Clouds 13 1020 82 10000 1.5 140 22:38 15.12.2019
6084 Clouds 13 1020 87 10000 0.5 0 22:19 15.12.2019
6085 Clouds 12 1020 87 10000 0.5 0 21:57 15.12.2019
6086 Clouds 12 1020 87 10000 2.1 180 21:38 15.12.2019
6087 Clouds 12 1020 87 10000 2.1 180 21:38 15.12.2019
6088 Clouds 13 1020 87 10000 0.5 0 21:19 15.12.2019
6089 Clouds 13 1020 87 10000 0.5 0 21:19 15.12.2019
6090 Clouds 13 1020 87 10000 0.5 0 20:57 15.12.2019
6091 Clouds 13 1020 82 10000 1 60 20:38 15.12.2019
6092 Clouds 13 1020 87 10000 1 0 20:20 15.12.2019
6093 Clouds 13 1020 87 10000 1 0 19:58 15.12.2019
6094 Clouds 13 1020 87 10000 0.5 0 19:39 15.12.2019
6095 Clouds 13 1020 87 10000 2.6 80 19:19 15.12.2019
6096 Clouds 13 1020 87 10000 2.6 90 18:57 15.12.2019
6097 Clouds 13 1020 87 10000 2.6 90 18:38 15.12.2019
6098 Clouds 13 1020 87 10000 2.6 90 18:18 15.12.2019
6099 Clouds 13 1020 87 10000 3.1 80 17:56 15.12.2019
6100 Clouds 13 1020 87 10000 3.1 80 17:56 15.12.2019
6101 Clouds 13 1020 87 10000 3.1 80 17:37 15.12.2019
6102 Clouds 13 1020 87 10000 3.1 80 17:37 15.12.2019
6103 Clouds 14 1020 87 10000 2.1 70 17:19 15.12.2019
6104 Clouds 14 1019 87 10000 1.5 50 16:57 15.12.2019
6105 Clouds 15 1019 87 10000 1.5 50 16:39 15.12.2019
6106 Clouds 15 1019 82 10000 2.1 10 16:20 15.12.2019
6107 Clouds 16 1019 82 10000 2.1 10 15:55 15.12.2019
6108 Clouds 16 1019 82 10000 2.1 10 15:55 15.12.2019
6109 Clouds 16 1019 88 10000 3.1 40 15:37 15.12.2019
6110 Clouds 16 1019 77 10000 3.1 40 15:18 15.12.2019
6111 Clouds 16 1019 77 10000 3.1 40 14:55 15.12.2019
6112 Clouds 16 1019 72 10000 1.5 40 14:36 15.12.2019
6113 Clouds 16 1019 77 10000 1 350 14:18 15.12.2019
6114 Clouds 17 1019 72 10000 2.1 30 13:55 15.12.2019
6115 Clouds 17 1019 72 10000 2.1 30 13:37 15.12.2019
6116 Clouds 17 1019 77 10000 1.5 320 13:18 15.12.2019
6117 Clouds 17 1019 77 10000 3.1 250 12:56 15.12.2019
6118 Clouds 17 1019 77 10000 3.1 250 12:38 15.12.2019
6119 Clouds 17 1019 77 10000 4.6 240 12:20 15.12.2019
6120 Clouds 16 1020 77 10000 5.7 230 11:39 15.12.2019
6121 Clouds 16 1020 82 10000 5.1 240 11:20 15.12.2019
6122 Clouds 16 1020 82 10000 5.1 240 11:20 15.12.2019
6123 Clouds 16 1020 82 10000 5.1 240 10:58 15.12.2019
6124 Clouds 15 1019 87 10000 3.6 240 10:40 15.12.2019
6125 Clouds 15 995 87 0 1.46 191 10:20 15.12.2019
6126 Clouds 15 1019 82 10000 3.1 220 09:59 15.12.2019
6127 Clouds 14 1019 82 10000 3.1 220 09:38 15.12.2019
6128 Clouds 14 1019 77 10000 3.6 210 09:20 15.12.2019
6129 Clouds 13 1019 77 10000 3.6 210 08:55 15.12.2019
6130 Clouds 13 1019 82 10000 4.1 190 08:37 15.12.2019
6131 Clouds 13 1019 82 10000 4.1 190 08:37 15.12.2019
6132 Clouds 12 1018 87 10000 4.6 210 08:19 15.12.2019
6133 Clouds 12 1019 87 10000 3.6 180 07:53 15.12.2019
6134 Clouds 12 1019 87 10000 3.6 180 07:32 15.12.2019
6135 Clouds 12 1018 87 10000 3.1 190 06:30 15.12.2019
6136 Clouds 13 1018 82 10000 3.6 190 05:51 15.12.2019
6137 Clouds 13 1017 82 10000 2.6 200 05:25 15.12.2019
6138 Clouds 13 1017 82 10000 3.1 190 04:24 15.12.2019
6139 Clouds 13 1017 87 10000 3.6 230 03:22 15.12.2019
6140 Clouds 13 1017 82 10000 2.1 210 02:32 15.12.2019
6141 Clouds 13 1016 77 10000 3.1 210 01:43 15.12.2019
6142 Clouds 13 1016 82 10000 3.1 190 01:20 15.12.2019
6143 Clouds 13 1016 82 9000 2.6 220 00:53 15.12.2019
6144 Clouds 13 1016 82 9000 2.6 220 00:34 15.12.2019
6145 Clouds 13 1016 87 9000 3.6 210 23:58 14.12.2019
6146 Clouds 13 1016 87 10000 3.6 200 23:38 14.12.2019
6147 Clouds 13 1016 87 10000 4.1 200 23:18 14.12.2019
6148 Clouds 13 1015 87 10000 3.6 220 22:56 14.12.2019
6149 Clouds 13 1015 87 10000 3.6 220 22:37 14.12.2019
6150 Clouds 13 1015 87 10000 4.1 210 22:19 14.12.2019
6151 Clouds 13 1015 87 10000 4.1 210 21:55 14.12.2019
6152 Clouds 14 1015 87 10000 3.6 190 21:37 14.12.2019
6153 Clouds 14 1015 93 10000 3.1 240 21:18 14.12.2019
6154 Clouds 14 1015 88 10000 5.7 270 20:43 14.12.2019
6155 Clouds 14 1014 88 10000 4.6 270 20:21 14.12.2019
6156 Clouds 14 1014 88 10000 4.6 270 19:59 14.12.2019
6157 Clouds 14 1014 82 10000 4.6 240 19:40 14.12.2019
6158 Clouds 14 1014 82 10000 6.2 260 19:21 14.12.2019
6159 Clouds 14 1014 88 10000 4.1 240 18:57 14.12.2019
6160 Clouds 14 1014 88 10000 4.1 240 18:39 14.12.2019
6161 Clouds 14 1013 82 10000 4.6 250 18:21 14.12.2019
6162 Clouds 14 1013 82 10000 4.6 250 17:58 14.12.2019
6163 Clouds 14 1013 88 10000 4.1 240 17:40 14.12.2019
6164 Clouds 14 1012 82 10000 3.1 230 17:21 14.12.2019
6165 Clouds 14 1012 82 10000 3.6 230 16:41 14.12.2019
6166 Clouds 14 1012 82 9000 4.6 240 16:19 14.12.2019
6167 Clouds 14 1012 82 9000 4.6 240 15:56 14.12.2019
6168 Clouds 14 1011 82 9000 7.2 260 15:38 14.12.2019
6169 Rain 15 1010 82 10000 7.2 260 15:19 14.12.2019
6170 Rain 15 1010 82 10000 7.2 260 14:56 14.12.2019
6171 Rain 14 1010 82 10000 7.2 270 14:37 14.12.2019
6172 Rain 15 1010 82 10000 4.6 270 14:18 14.12.2019
6173 Rain 14 1009 82 9000 4.6 260 13:44 14.12.2019
6174 Rain 14 1009 77 10000 4.6 280 13:19 14.12.2019
6175 Rain 14 1009 77 10000 4.6 280 12:58 14.12.2019
6176 Rain 14 1009 77 10000 5.7 300 12:39 14.12.2019
6177 Rain 14 1009 82 9000 5.1 290 12:20 14.12.2019
6178 Rain 14 1009 82 9000 5.1 290 11:58 14.12.2019
6179 Rain 14 1008 82 8000 5.7 290 11:39 14.12.2019
6180 Rain 14 1008 82 8000 7.2 300 11:19 14.12.2019
6181 Rain 14 1007 77 8000 7.2 340 10:56 14.12.2019
6182 Rain 14 1007 77 8000 7.2 340 10:38 14.12.2019
6183 Rain 14 1007 77 9000 8.2 320 10:20 14.12.2019
6184 Rain 14 1006 72 9000 9.3 320 09:43 14.12.2019
6185 Rain 13 1005 77 9000 7.7 320 09:23 14.12.2019
6186 Rain 14 1005 77 9000 7.7 320 08:59 14.12.2019
6187 Rain 14 1005 77 9000 7.7 320 08:59 14.12.2019
6188 Rain 13 1005 72 9000 11.3 320 08:40 14.12.2019
6189 Rain 13 1004 67 8000 12.3 320 08:19 14.12.2019
6190 Rain 13 1004 67 8000 9.8 320 07:41 14.12.2019
6191 Clouds 13 1003 72 10000 8.7 330 07:22 14.12.2019
6192 Clouds 14 1002 82 10000 8.7 310 06:55 14.12.2019
6193 Clouds 13 1002 82 10000 8.7 310 06:36 14.12.2019
6194 Clouds 14 1001 72 10000 10.3 320 05:56 14.12.2019
6195 Clouds 14 1001 72 10000 10.3 320 05:56 14.12.2019
6196 Rain 14 1000 67 10000 10.8 310 04:35 14.12.2019
6197 Rain 12 999 59 10000 12.9 300 02:25 14.12.2019
6198 Rain 11 999 72 7000 17.5 290 01:46 14.12.2019
6199 Rain 11 973 99 0 1.34 340 01:28 14.12.2019
6200 Rain 11 1000 78 0 12.06 289 00:44 14.12.2019
6201 Rain 12 998 71 0 12.06 289 00:26 14.12.2019
6202 Rain 13 997 63 10000 16.5 280 23:44 13.12.2019
6203 Rain 14 997 67 10000 17 270 23:22 13.12.2019
6204 Rain 14 997 67 10000 17 270 23:00 13.12.2019
6205 Rain 14 997 67 10000 18 270 22:40 13.12.2019
6206 Rain 14 996 72 10000 16.5 260 22:19 13.12.2019
6207 Rain 14 996 72 10000 16.5 260 21:55 13.12.2019
6208 Rain 14 997 72 10000 15.4 260 21:37 13.12.2019
6209 Clouds 14 997 82 10000 13.9 260 21:19 13.12.2019
6210 Rain 14 997 82 10000 14.4 260 20:40 13.12.2019
6211 Rain 14 998 77 10000 15.4 260 20:21 13.12.2019
6212 Rain 14 998 77 10000 15.4 260 19:59 13.12.2019
6213 Rain 14 998 77 10000 15.4 260 19:40 13.12.2019
6214 Rain 14 998 77 10000 13.9 260 19:22 13.12.2019
6215 Rain 14 998 82 10000 14.4 250 18:58 13.12.2019
6216 Rain 14 998 77 10000 13.9 260 18:40 13.12.2019
6217 Rain 14 998 77 10000 13.9 260 18:19 13.12.2019
6218 Drizzle 14 999 77 10000 11.8 250 17:43 13.12.2019
6219 Drizzle 14 999 77 10000 11.8 250 17:20 13.12.2019
6220 Rain 13 999 77 8000 13.4 250 16:59 13.12.2019
6221 Rain 13 1000 77 8000 12.9 250 16:39 13.12.2019
6222 Rain 13 1000 77 8000 12.9 250 16:20 13.12.2019
6223 Rain 13 1000 82 8000 11.3 250 15:58 13.12.2019
6224 Rain 13 1000 77 7000 11.8 260 15:37 13.12.2019
6225 Rain 12 1000 77 7000 11.8 260 15:18 13.12.2019
6226 Rain 12 1000 82 10000 7.7 220 14:41 13.12.2019
6227 Rain 12 1000 82 10000 10.3 220 14:21 13.12.2019
6228 Rain 12 1001 87 5000 9.3 220 13:57 13.12.2019
6229 Rain 12 1001 82 10000 8.2 200 13:38 13.12.2019
6230 Rain 12 1001 82 10000 8.2 200 13:19 13.12.2019
6231 Rain 11 1002 82 10000 8.7 190 12:42 13.12.2019
6232 Rain 11 1003 82 10000 8.7 210 12:20 13.12.2019
6233 Rain 11 1003 82 10000 8.7 210 11:57 13.12.2019
6234 Rain 11 1003 87 10000 8.2 190 11:39 13.12.2019
6235 Rain 11 1003 87 10000 8.2 190 11:21 13.12.2019
6236 Rain 11 1004 82 10000 7.2 200 10:43 13.12.2019
6237 Rain 11 1004 82 10000 7.2 200 10:23 13.12.2019
6238 Rain 11 1004 82 10000 8.7 210 09:59 13.12.2019
6239 Clouds 11 1004 82 10000 7.7 200 09:39 13.12.2019
6240 Clouds 11 1004 82 10000 7.7 200 09:19 13.12.2019
6241 Rain 11 1005 82 10000 8.7 210 08:41 13.12.2019
6242 Rain 10 1004 76 10000 6.2 210 08:23 13.12.2019
6243 Rain 10 1005 76 10000 6.7 200 07:46 13.12.2019
6244 Rain 10 1005 76 10000 5.1 200 07:23 13.12.2019
6245 Rain 10 1005 82 7000 5.7 210 06:55 13.12.2019
6246 Clouds 10 1005 76 10000 6.7 200 06:29 13.12.2019
6247 Clouds 10 1005 76 10000 5.7 190 05:47 13.12.2019
6248 Clouds 10 1005 71 10000 5.7 200 05:28 13.12.2019
6249 Rain 10 1006 72 10000 8.7 250 04:46 13.12.2019
6250 Rain 9 1006 81 7000 7.2 210 03:47 13.12.2019
6251 Clouds 10 1007 67 10000 5.7 210 02:34 13.12.2019
6252 Clouds 10 1007 67 10000 8.7 260 01:48 13.12.2019
6253 Clouds 10 1008 62 10000 9.3 270 00:57 13.12.2019
6254 Clouds 10 1008 62 10000 10.3 270 00:37 13.12.2019
6255 Clouds 10 1008 67 10000 10.3 280 23:59 12.12.2019
6256 Clouds 11 1008 62 10000 10.8 280 23:40 12.12.2019
6257 Clouds 11 1008 62 10000 10.8 280 23:22 12.12.2019
6258 Clouds 11 1008 62 10000 10.8 280 22:56 12.12.2019
6259 Clouds 11 1008 58 10000 11.3 280 22:37 12.12.2019
6260 Clouds 11 1008 58 10000 11.3 280 22:19 12.12.2019
6261 Clouds 11 1008 67 10000 11.3 270 21:55 12.12.2019
6262 Rain 10 983 67 0 1.79 340 21:37 12.12.2019
6263 Rain 10 983 67 0 0.89 327 21:18 12.12.2019
6264 Rain 10 983 66 0 0.45 355 20:56 12.12.2019
6265 Rain 10 983 69 0 1.34 349 20:38 12.12.2019
6266 Rain 10 983 72 0 0.89 3 20:20 12.12.2019
6267 Rain 10 983 69 0 0.89 304 19:43 12.12.2019
6268 Drizzle 11 1008 63 10000 11.8 280 19:23 12.12.2019
6269 Rain 11 1008 62 10000 11.8 270 18:58 12.12.2019
6270 Rain 11 1008 62 10000 11.8 270 18:40 12.12.2019
6271 Clouds 11 1008 67 10000 10.8 270 18:21 12.12.2019
6272 Clouds 11 1008 67 10000 10.8 270 18:21 12.12.2019
6273 Clouds 11 1008 67 10000 10.8 270 18:21 12.12.2019
6274 Clouds 10 1008 67 10000 11.3 270 17:59 12.12.2019
6275 Clouds 10 1009 62 10000 11.8 260 17:40 12.12.2019
6276 Clouds 10 1009 62 10000 11.8 260 17:21 12.12.2019
6277 Rain 10 1009 67 10000 10.8 310 16:59 12.12.2019
6278 Rain 10 1009 67 10000 10.8 310 16:41 12.12.2019
6279 Clouds 11 1008 62 10000 10.8 270 16:21 12.12.2019
6280 Clouds 11 1008 62 10000 10.3 290 15:58 12.12.2019
6281 Clouds 11 1008 62 10000 10.3 290 15:40 12.12.2019
6282 Clouds 11 1009 58 10000 10.8 290 15:19 12.12.2019
6283 Clouds 11 1009 62 10000 10.8 280 14:56 12.12.2019
6284 Clouds 11 1009 62 10000 10.8 280 14:56 12.12.2019
6285 Clouds 11 1009 58 10000 11.3 280 14:36 12.12.2019
6286 Clouds 11 1009 58 10000 11.3 280 14:18 12.12.2019
6287 Clouds 12 1009 62 10000 10.8 280 13:54 12.12.2019
6288 Clouds 11 1009 67 10000 6.2 270 13:36 12.12.2019
6289 Clouds 11 1009 67 10000 6.2 270 13:18 12.12.2019
6290 Clouds 12 1009 62 10000 10.3 290 12:41 12.12.2019
6291 Clouds 11 1009 62 10000 10.3 290 12:22 12.12.2019
6292 Clouds 11 1010 58 10000 10.3 300 11:59 12.12.2019
6293 Clouds 11 1010 58 10000 10.3 300 11:40 12.12.2019
6294 Rain 10 984 99 0 2.21 220 11:21 12.12.2019
6295 Rain 9 984 99 0 2.21 220 10:58 12.12.2019
6296 Rain 9 984 99 0 2.21 220 10:40 12.12.2019
6297 Rain 9 1010 76 7000 7.7 300 10:22 12.12.2019
6298 Rain 9 1009 81 6000 4.1 210 09:56 12.12.2019
6299 Rain 9 1009 81 2000 8.7 260 09:38 12.12.2019
6300 Rain 9 1009 81 2000 8.7 260 09:19 12.12.2019
6301 Rain 9 1008 71 7000 7.7 210 08:47 12.12.2019
6302 Clouds 9 1008 62 10000 6.7 200 08:28 12.12.2019
6303 Clouds 9 1008 62 10000 5.1 200 07:55 12.12.2019
6304 Clouds 9 1008 62 10000 3.6 180 07:36 12.12.2019
6305 Clouds 10 1008 62 10000 3.6 180 07:18 12.12.2019
6306 Clouds 9 1008 58 10000 4.6 210 06:41 12.12.2019
6307 Clouds 9 1008 58 10000 4.6 210 06:21 12.12.2019
6308 Clouds 8 1008 62 10000 4.6 200 05:28 12.12.2019
6309 Clouds 8 1008 66 10000 5.7 200 04:46 12.12.2019
6310 Clouds 9 1010 54 10000 6.2 290 02:42 12.12.2019
6311 Clouds 9 1010 50 10000 6.2 300 02:24 12.12.2019
6312 Clouds 9 1010 58 10000 5.1 300 01:59 12.12.2019
6313 Clouds 9 1011 54 10000 5.7 280 01:36 12.12.2019
6314 Clouds 9 1011 58 10000 6.2 290 00:49 12.12.2019
6315 Clouds 9 1011 54 10000 6.2 300 00:22 12.12.2019
6316 Clouds 9 1011 54 10000 7.7 290 23:58 11.12.2019
6317 Clouds 9 1011 54 10000 8.2 300 23:37 11.12.2019
6318 Clouds 9 1011 54 10000 8.2 300 23:18 11.12.2019
6319 Clouds 9 1011 58 10000 6.7 300 22:56 11.12.2019
6320 Clouds 9 1011 54 10000 7.2 320 22:38 11.12.2019
6321 Clouds 9 1011 54 10000 7.2 320 22:18 11.12.2019
6322 Clouds 9 1012 58 10000 7.7 310 21:54 11.12.2019
6323 Clouds 9 1012 58 10000 5.1 330 21:36 11.12.2019
6324 Clouds 10 1012 58 10000 5.1 330 21:18 11.12.2019
6325 Clouds 10 1012 62 10000 6.2 330 20:55 11.12.2019
6326 Clouds 10 1012 58 10000 7.2 320 20:36 11.12.2019
6327 Clouds 9 1012 58 10000 7.2 320 20:18 11.12.2019
6328 Clouds 9 1012 58 10000 8.2 330 19:42 11.12.2019
6329 Clouds 9 1012 58 10000 8.2 330 19:23 11.12.2019
6330 Clouds 10 1012 58 10000 8.2 330 19:23 11.12.2019
6331 Clouds 10 1012 58 10000 8.7 310 18:59 11.12.2019
6332 Clouds 10 1012 58 10000 8.7 310 18:40 11.12.2019
6333 Clouds 10 1011 62 10000 9.3 310 18:20 11.12.2019
6334 Clouds 10 1011 67 10000 9.3 310 17:56 11.12.2019
6335 Clouds 10 1011 67 10000 8.7 320 17:38 11.12.2019
6336 Clouds 10 1011 67 10000 8.7 320 17:18 11.12.2019
6337 Clouds 10 1011 62 10000 9.3 320 16:56 11.12.2019
6338 Clouds 10 1010 62 10000 8.7 330 16:37 11.12.2019
6339 Clouds 11 1010 62 10000 8.7 330 16:19 11.12.2019
6340 Clouds 11 1010 67 10000 9.3 320 15:57 11.12.2019
6341 Clouds 11 1010 67 10000 9.3 330 15:37 11.12.2019
6342 Clouds 11 1010 67 10000 9.3 330 15:19 11.12.2019
6343 Clouds 11 1010 67 10000 8.7 330 14:55 11.12.2019
6344 Clouds 11 1010 72 10000 8.2 330 14:37 11.12.2019
6345 Clouds 12 1010 72 10000 8.2 330 14:18 11.12.2019
6346 Clouds 12 1010 72 10000 9.3 330 13:44 11.12.2019
6347 Clouds 12 1010 72 10000 9.3 330 13:23 11.12.2019
6348 Clouds 12 1011 62 10000 5.7 350 12:59 11.12.2019
6349 Rain 12 1011 62 10000 5.7 10 12:39 11.12.2019
6350 Rain 12 1011 62 10000 5.7 10 12:21 11.12.2019
6351 Rain 12 1011 62 10000 5.7 10 11:58 11.12.2019
6352 Clouds 12 1011 62 10000 5.1 10 11:39 11.12.2019
6353 Clouds 13 1011 62 10000 5.1 10 11:19 11.12.2019
6354 Clouds 12 1011 58 10000 6.7 20 10:59 11.12.2019
6355 Clouds 12 1011 62 10000 8.7 10 10:39 11.12.2019
6356 Clouds 12 1011 62 10000 8.7 10 10:21 11.12.2019
6357 Clouds 12 1011 62 10000 9.3 360 09:56 11.12.2019
6358 Clouds 12 1011 67 10000 9.8 10 09:38 11.12.2019
6359 Clouds 11 1011 67 10000 9.8 10 09:19 11.12.2019
6360 Clouds 11 1011 67 10000 8.7 10 08:55 11.12.2019
6361 Clouds 11 1010 67 10000 8.7 20 08:36 11.12.2019
6362 Clouds 11 1010 67 10000 8.7 20 08:18 11.12.2019
6363 Clouds 10 1010 67 10000 9.8 20 07:43 11.12.2019
6364 Clouds 10 1010 67 10000 9.8 20 07:23 11.12.2019
6365 Rain 10 1009 71 9000 9.8 60 06:46 11.12.2019
6366 Clouds 10 1009 67 10000 10.3 40 06:25 11.12.2019
6367 Clouds 10 1009 67 10000 11.3 30 05:55 11.12.2019
6368 Clouds 10 1009 67 10000 11.3 40 05:35 11.12.2019
6369 Rain 9 985 91 0 1.34 349 04:51 11.12.2019
6370 Rain 9 985 91 0 1.34 349 04:51 11.12.2019
6371 Clouds 9 1010 81 10000 3.6 40 03:29 11.12.2019
6372 Rain 9 1009 81 10000 3.6 30 02:35 11.12.2019
6373 Rain 9 1009 82 10000 9.8 40 01:22 11.12.2019
6374 Rain 9 1013 95 0 0.89 225 00:43 11.12.2019
6375 Clouds 10 1009 76 10000 5.1 80 00:19 11.12.2019
6376 Rain 9 1012 89 0 1.34 270 23:45 10.12.2019
6377 Rain 9 984 99 0 1.84 318 23:26 10.12.2019
6378 Rain 9 984 99 0 1.69 309 22:57 10.12.2019
6379 Rain 10 984 97 0 1.69 309 22:39 10.12.2019
6380 Rain 10 984 96 0 1.69 309 22:20 10.12.2019
6381 Rain 9 984 93 0 1.69 309 21:54 10.12.2019
6382 Rain 9 1012 85 0 1.69 309 21:36 10.12.2019
6383 Rain 9 984 94 0 1.69 309 21:18 10.12.2019
6384 Clouds 9 1008 71 10000 3.1 60 20:55 10.12.2019
6385 Clouds 9 1008 76 10000 3.6 70 20:36 10.12.2019
6386 Clouds 9 1008 76 10000 3.6 70 20:18 10.12.2019
6387 Clouds 9 1008 76 10000 1 0 19:44 10.12.2019
6388 Clouds 9 1008 81 10000 2.1 140 19:26 10.12.2019
6389 Clouds 9 1008 87 10000 1.5 160 18:59 10.12.2019
6390 Clouds 9 1008 87 10000 1.5 160 18:39 10.12.2019
6391 Rain 9 1008 76 10000 1.5 120 18:20 10.12.2019
6392 Rain 9 1007 76 10000 1.5 140 17:55 10.12.2019
6393 Rain 9 1007 81 10000 1.5 70 17:37 10.12.2019
6394 Clouds 10 1007 81 10000 1.5 70 17:19 10.12.2019
6395 Clouds 10 1006 67 10000 2.1 70 16:43 10.12.2019
6396 Clouds 11 1006 67 10000 2.1 70 16:20 10.12.2019
6397 Clouds 11 1006 67 10000 2.1 70 16:20 10.12.2019
6398 Clouds 11 1006 67 10000 1 0 15:55 10.12.2019
6399 Clouds 11 1006 67 10000 2.6 90 15:37 10.12.2019
6400 Clouds 11 1006 67 10000 2.6 90 15:18 10.12.2019
6401 Clouds 11 1006 67 10000 2.6 90 15:18 10.12.2019
6402 Clouds 11 1006 67 10000 2.6 90 15:18 10.12.2019
6403 Clouds 11 1006 76 10000 2.1 150 14:55 10.12.2019
6404 Clouds 11 1006 71 10000 2.6 200 14:37 10.12.2019
6405 Clouds 12 1006 71 10000 2.6 200 14:19 10.12.2019
6406 Clouds 11 1007 71 10000 2.6 180 13:56 10.12.2019
6407 Clouds 12 1007 71 10000 3.6 190 13:37 10.12.2019
6408 Clouds 12 1007 71 10000 3.6 190 13:18 10.12.2019
6409 Clouds 12 1007 62 10000 2.1 130 12:40 10.12.2019
6410 Rain 11 1008 71 6000 3.1 20 12:22 10.12.2019
6411 Clouds 11 1008 62 10000 3.1 260 11:42 10.12.2019
6412 Clouds 11 1008 67 10000 6.2 280 11:24 10.12.2019
6413 Clouds 11 1009 76 10000 1 0 10:57 10.12.2019
6414 Clouds 11 1009 76 10000 1 0 10:38 10.12.2019
6415 Clouds 11 1008 66 10000 3.1 320 10:20 10.12.2019
6416 Clouds 11 1008 71 9000 6.2 290 09:56 10.12.2019
6417 Rain 11 1008 81 10000 3.6 170 09:38 10.12.2019
6418 Rain 11 1008 81 10000 3.6 170 09:19 10.12.2019
6419 Rain 9 984 98 0 1.79 243 08:55 10.12.2019
6420 Clouds 9 1008 71 10000 2.1 170 08:37 10.12.2019
6421 Rain 9 1008 71 10000 2.1 170 08:18 10.12.2019
6422 Rain 9 1008 58 7000 11.3 290 07:44 10.12.2019
6423 Rain 9 1008 71 10000 2.6 160 07:25 10.12.2019
6424 Rain 9 1008 81 10000 5.1 150 06:48 10.12.2019
6425 Rain 9 1008 82 10000 9.3 250 06:22 10.12.2019
6426 Rain 9 984 99 0 2.67 217 05:55 10.12.2019
6427 Rain 10 1009 72 10000 9.3 280 04:56 10.12.2019
6428 Rain 10 1009 77 10000 9.8 250 03:40 10.12.2019
6429 Rain 11 1010 67 10000 10.3 260 02:47 10.12.2019
6430 Clouds 11 1010 72 10000 12.3 260 01:50 10.12.2019
6431 Clouds 11 1010 72 10000 11.8 260 01:25 10.12.2019
6432 Clouds 11 1011 67 10000 11.3 260 00:43 10.12.2019
6433 Clouds 12 1011 72 10000 4.6 220 00:24 10.12.2019
6434 Clouds 12 1011 76 10000 5.7 210 23:43 09.12.2019
6435 Clouds 12 1011 76 10000 5.7 210 23:24 09.12.2019
6436 Clouds 11 1011 72 10000 5.1 200 22:58 09.12.2019
6437 Clouds 11 1011 72 10000 5.1 200 22:58 09.12.2019
6438 Clouds 12 1012 72 10000 5.1 210 22:40 09.12.2019
6439 Clouds 11 1012 72 10000 5.1 210 22:21 09.12.2019
6440 Clouds 11 1012 77 10000 5.1 240 21:57 09.12.2019
6441 Clouds 12 1013 77 10000 6.2 270 21:39 09.12.2019
6442 Clouds 12 1013 77 10000 6.2 270 21:19 09.12.2019
6443 Clouds 12 1013 82 10000 4.1 200 20:57 09.12.2019
6444 Clouds 12 1013 82 10000 3.6 200 20:39 09.12.2019
6445 Clouds 12 1013 82 10000 4.1 200 20:39 09.12.2019
6446 Clouds 12 1013 82 10000 3.6 200 20:20 09.12.2019
6447 Clouds 12 1013 82 10000 3.6 200 20:20 09.12.2019
6448 Clouds 12 1013 77 10000 5.7 250 19:56 09.12.2019
6449 Clouds 12 1013 82 10000 6.7 260 19:38 09.12.2019
6450 Clouds 12 1013 82 10000 6.7 260 19:20 09.12.2019
6451 Clouds 12 1012 77 10000 6.2 260 18:58 09.12.2019
6452 Clouds 12 1012 82 10000 5.7 270 18:39 09.12.2019
6453 Clouds 12 1012 82 10000 5.7 270 18:20 09.12.2019
6454 Clouds 12 1012 77 10000 6.2 270 17:59 09.12.2019
6455 Clouds 12 1012 77 10000 6.2 270 17:40 09.12.2019
6456 Clouds 12 1013 77 10000 5.1 270 17:21 09.12.2019
6457 Clouds 13 1013 72 10000 5.1 280 16:56 09.12.2019
6458 Clouds 13 1013 72 10000 6.2 290 16:38 09.12.2019
6459 Clouds 13 1013 72 10000 6.2 290 16:20 09.12.2019
6460 Clouds 13 1013 72 10000 6.2 280 15:56 09.12.2019
6461 Clouds 13 1013 72 10000 6.2 280 15:56 09.12.2019
6462 Clouds 13 1013 77 10000 5.7 280 15:37 09.12.2019
6463 Clouds 14 1013 77 10000 5.7 280 15:19 09.12.2019
6464 Clouds 14 1013 82 10000 6.2 280 14:58 09.12.2019
6465 Clouds 14 1013 77 10000 5.7 290 14:39 09.12.2019
6466 Clouds 14 1013 77 10000 5.7 290 14:18 09.12.2019
6467 Rain 14 1013 77 10000 6.7 290 13:55 09.12.2019
6468 Rain 14 1014 72 10000 4.1 230 13:36 09.12.2019
6469 Rain 14 1014 72 10000 4.1 230 13:18 09.12.2019
6470 Clouds 15 1014 67 10000 3.6 230 12:54 09.12.2019
6471 Clouds 14 1014 67 10000 4.1 220 12:36 09.12.2019
6472 Clouds 14 1015 63 10000 3.1 210 12:18 09.12.2019
6473 Clouds 14 1015 63 10000 3.1 210 11:40 09.12.2019
6474 Clouds 13 1015 72 10000 2.1 210 11:21 09.12.2019
6475 Clouds 13 1015 76 10000 2.6 200 10:57 09.12.2019
6476 Drizzle 13 1016 76 10000 3.6 150 10:38 09.12.2019
6477 Drizzle 12 1016 76 10000 3.6 150 10:19 09.12.2019
6478 Drizzle 12 1016 76 10000 3.6 150 10:19 09.12.2019
6479 Rain 11 1016 87 10000 3.1 180 09:44 09.12.2019
6480 Rain 11 1016 82 10000 4.6 200 09:24 09.12.2019
6481 Rain 11 1016 76 10000 5.1 210 08:57 09.12.2019
6482 Rain 11 1016 76 10000 5.1 210 08:38 09.12.2019
6483 Drizzle 11 1016 87 10000 3.6 210 08:20 09.12.2019
6484 Drizzle 11 1015 87 10000 3.1 210 07:49 09.12.2019
6485 Drizzle 11 1015 71 10000 1.5 220 07:30 09.12.2019
6486 Drizzle 11 1015 76 10000 2.1 170 06:55 09.12.2019
6487 Rain 11 1016 82 10000 2.1 180 06:30 09.12.2019
6488 Rain 12 1016 87 10000 2.1 150 05:42 09.12.2019
6489 Rain 12 1016 87 10000 2.1 150 05:20 09.12.2019
6490 Rain 11 1016 77 10000 0.5 120 04:27 09.12.2019
6491 Rain 11 1016 77 10000 0.5 120 04:27 09.12.2019
6492 Clouds 12 1017 71 10000 2.1 190 02:28 09.12.2019
6493 Clouds 12 1017 67 10000 3.6 160 01:46 09.12.2019
6494 Clouds 12 1018 71 10000 2.6 210 00:57 09.12.2019
6495 Clouds 12 1018 66 10000 1.5 170 00:33 09.12.2019
6496 Clouds 12 1018 62 10000 2.1 180 23:55 08.12.2019
6497 Clouds 12 1018 62 10000 2.1 180 23:55 08.12.2019
6498 Clouds 13 1018 76 10000 3.6 210 23:37 08.12.2019
6499 Clouds 12 1018 76 10000 3.6 210 23:18 08.12.2019
6500 Clouds 12 1018 82 10000 3.6 230 22:56 08.12.2019
6501 Clouds 12 1018 62 10000 2.1 190 22:38 08.12.2019
6502 Clouds 12 1018 62 10000 2.1 190 22:38 08.12.2019
6503 Clouds 12 1018 62 10000 2.1 190 22:18 08.12.2019
6504 Clouds 12 1018 71 10000 2.6 180 21:55 08.12.2019
6505 Clouds 12 1019 81 10000 3.1 200 21:37 08.12.2019
6506 Clouds 12 1019 76 10000 2.1 190 21:19 08.12.2019
6507 Clouds 12 1019 76 10000 2.1 190 20:55 08.12.2019
6508 Clear 12 1019 67 10000 1 210 20:37 08.12.2019
6509 Clouds 12 1019 67 10000 1 210 20:18 08.12.2019
6510 Clouds 12 1019 76 10000 2.6 170 19:55 08.12.2019
6511 Clouds 12 1019 82 10000 1.5 0 19:36 08.12.2019
6512 Clouds 12 1019 82 10000 1.5 0 19:18 08.12.2019
6513 Clouds 12 1019 76 10000 1.5 170 18:54 08.12.2019
6514 Clouds 12 1019 72 10000 1 0 18:36 08.12.2019
6515 Clouds 12 1019 72 10000 1 0 18:18 08.12.2019
6516 Clouds 12 1019 82 10000 2.1 100 17:54 08.12.2019
6517 Clouds 13 1019 77 10000 2.1 80 17:36 08.12.2019
6518 Clouds 13 1019 77 10000 2.1 80 17:18 08.12.2019
6519 Clouds 14 1020 77 10000 2.6 70 16:55 08.12.2019
6520 Clouds 15 1019 72 10000 4.6 60 16:37 08.12.2019
6521 Clouds 15 1019 72 10000 4.6 60 16:18 08.12.2019
6522 Clouds 16 1020 67 10000 5.1 50 15:37 08.12.2019
6523 Clouds 16 1020 67 10000 5.1 50 15:18 08.12.2019
6524 Clouds 16 1019 67 10000 5.7 50 14:57 08.12.2019
6525 Clouds 15 1019 77 10000 5.7 60 14:37 08.12.2019
6526 Clouds 15 1019 77 10000 5.7 60 14:19 08.12.2019
6527 Clouds 16 1020 77 10000 4.1 40 13:42 08.12.2019
6528 Clouds 15 1021 72 10000 1.5 10 13:23 08.12.2019
6529 Clouds 15 1022 72 10000 1 10 12:59 08.12.2019
6530 Clouds 15 1022 72 10000 1.5 360 12:41 08.12.2019
6531 Clouds 15 1022 72 10000 1 10 12:41 08.12.2019
6532 Clouds 16 1022 72 10000 1.5 360 12:22 08.12.2019
6533 Clouds 16 1022 67 10000 1.5 40 11:59 08.12.2019
6534 Clouds 16 1022 67 10000 1.5 20 11:38 08.12.2019
6535 Clouds 16 1022 67 10000 1.5 20 11:19 08.12.2019
6536 Clouds 16 1022 67 10000 1 250 10:57 08.12.2019
6537 Clouds 15 1022 67 10000 1 0 10:38 08.12.2019
6538 Clouds 15 1022 67 10000 1 0 10:38 08.12.2019
6539 Clouds 15 1022 67 10000 1 0 10:19 08.12.2019
6540 Clouds 15 1022 76 10000 2.1 210 09:55 08.12.2019
6541 Clouds 14 1022 71 10000 0.5 0 09:37 08.12.2019
6542 Clouds 14 1022 71 10000 0.5 0 09:19 08.12.2019
6543 Clouds 14 1022 71 10000 0.5 0 09:19 08.12.2019
6544 Clouds 13 1022 66 10000 1.5 100 08:57 08.12.2019
6545 Clouds 13 1022 71 10000 1.5 170 08:36 08.12.2019
6546 Clouds 12 1022 71 10000 1.5 170 08:18 08.12.2019
6547 Clouds 11 1022 76 10000 2.6 190 07:41 08.12.2019
6548 Clouds 11 1022 76 10000 2.6 190 07:19 08.12.2019
6549 Clouds 11 1021 66 10000 1.5 210 06:43 08.12.2019
6550 Clouds 11 1021 76 10000 1.5 210 06:21 08.12.2019
6551 Clouds 11 1021 76 10000 1.5 190 05:30 08.12.2019
6552 Clouds 11 1021 76 10000 2.1 180 04:58 08.12.2019
6553 Clouds 11 1021 71 10000 2.1 190 03:47 08.12.2019
6554 Clouds 11 1022 71 10000 1 210 03:20 08.12.2019
6555 Clouds 12 1021 71 10000 2.1 200 02:28 08.12.2019
6556 Clouds 12 1021 66 10000 1.5 180 01:48 08.12.2019
6557 Clouds 12 1022 76 10000 2.6 230 00:59 08.12.2019
6558 Clouds 12 1022 76 10000 2.6 230 00:39 08.12.2019
6559 Clouds 12 1022 76 10000 2.6 230 00:39 08.12.2019
6560 Clouds 12 1022 58 10000 1 150 00:19 08.12.2019
6561 Clouds 12 1022 58 10000 1 150 00:19 08.12.2019
6562 Clouds 12 1022 67 10000 1.5 200 23:40 07.12.2019
6563 Clouds 12 1022 67 10000 1.5 200 23:20 07.12.2019
6564 Clouds 12 1022 62 10000 2.6 170 22:56 07.12.2019
6565 Clouds 12 1022 67 10000 2.1 190 22:38 07.12.2019
6566 Clouds 12 1022 67 10000 2.1 190 22:20 07.12.2019
6567 Clouds 12 1022 71 10000 2.6 180 21:56 07.12.2019
6568 Clouds 12 1022 67 10000 2.6 170 21:38 07.12.2019
6569 Clouds 12 1022 67 10000 2.6 170 21:38 07.12.2019
6570 Clouds 12 1022 67 10000 2.6 170 21:19 07.12.2019
6571 Clouds 12 1022 82 10000 3.6 210 20:56 07.12.2019
6572 Clouds 12 1022 77 10000 2.6 190 20:36 07.12.2019
6573 Clouds 12 1022 77 10000 2.6 190 20:18 07.12.2019
6574 Clouds 12 1022 77 10000 3.1 180 19:56 07.12.2019
6575 Clouds 12 1022 82 10000 2.6 190 19:37 07.12.2019
6576 Clouds 12 1022 82 10000 2.6 190 19:19 07.12.2019
6577 Clouds 13 1022 82 10000 2.1 110 18:44 07.12.2019
6578 Clouds 13 1022 77 10000 1.5 80 18:19 07.12.2019
6579 -273 0 0 0 0 0 17:58 07.12.2019
6580 Clouds 13 1021 72 10000 1 110 17:40 07.12.2019
6581 Clouds 14 1021 72 10000 1 0 17:21 07.12.2019
6582 Clouds 14 1021 67 10000 1.5 60 16:56 07.12.2019
6583 Clouds 15 1021 68 10000 1.5 60 16:38 07.12.2019
6584 Clouds 15 1021 68 10000 1.5 60 16:19 07.12.2019
6585 Clouds 16 1020 68 10000 1 0 15:56 07.12.2019
6586 Clouds 16 1020 63 10000 1.5 20 15:38 07.12.2019
6587 Clouds 17 1020 63 10000 1.5 20 15:18 07.12.2019
6588 Clouds 17 1021 72 10000 1.5 20 14:42 07.12.2019
6589 Clouds 17 1021 59 10000 1 0 14:19 07.12.2019
6590 Clouds 18 1021 60 10000 2.6 220 13:55 07.12.2019
6591 Clouds 17 1021 59 10000 4.1 210 13:37 07.12.2019
6592 Clear 17 1021 59 10000 4.1 210 13:18 07.12.2019
6593 Clear 17 997 65 0 1.25 272 12:41 07.12.2019
6594 Clear 17 1022 55 10000 5.7 210 12:22 07.12.2019
6595 Clear 17 1022 52 10000 5.1 210 11:58 07.12.2019
6596 Clear 17 1022 52 10000 5.1 210 11:40 07.12.2019
6597 Clear 17 1023 55 10000 4.6 210 11:22 07.12.2019
6598 Clear 16 1023 67 10000 1 0 10:39 07.12.2019
6599 Clear 15 1022 59 10000 1.5 130 10:20 07.12.2019
6600 Clear 15 1022 59 10000 1.5 130 09:58 07.12.2019
6601 Clear 15 1022 59 10000 2.6 180 09:38 07.12.2019
6602 Clear 14 1022 59 10000 2.6 180 09:19 07.12.2019
6603 Clear 14 1022 71 10000 2.6 190 08:43 07.12.2019
6604 Clear 13 1022 76 10000 1.5 190 08:21 07.12.2019
6605 Clear 12 1022 67 10000 2.1 100 07:47 07.12.2019
6606 Clear 13 1022 62 10000 2.6 120 07:27 07.12.2019
6607 Clear 12 1022 62 10000 3.6 190 06:51 07.12.2019
6608 Clear 12 1022 62 10000 3.6 180 06:25 07.12.2019
6609 Clear 13 1022 62 10000 3.6 190 05:44 07.12.2019
6610 Clear 12 1022 62 10000 3.6 180 04:41 07.12.2019
6611 Clear 13 1022 71 10000 1 0 03:48 07.12.2019
6612 Clouds 12 1022 54 10000 2.1 170 02:22 07.12.2019
6613 Clouds 12 1022 66 10000 2.6 180 01:37 07.12.2019
6614 Clouds 12 1022 66 10000 2.6 180 01:18 07.12.2019
6615 Clouds 12 1023 62 10000 2.6 180 00:21 07.12.2019
6616 Clouds 12 1023 62 10000 3.1 180 23:57 06.12.2019
6617 Clouds 12 1023 62 10000 3.1 180 23:39 06.12.2019
6618 Clouds 12 1023 71 10000 2.6 170 23:39 06.12.2019
6619 Clouds 12 1023 71 10000 2.6 170 23:19 06.12.2019
6620 Clouds 12 1023 76 10000 3.1 170 22:39 06.12.2019
6621 Clouds 12 1023 76 10000 3.1 170 22:21 06.12.2019
6622 Clouds 12 1023 82 10000 2.6 180 21:59 06.12.2019
6623 Clouds 11 1023 82 10000 2.6 180 21:40 06.12.2019
6624 Clouds 11 1023 76 10000 2.6 180 21:20 06.12.2019
6625 Clouds 11 1023 87 10000 2.6 190 20:47 06.12.2019
6626 Clouds 12 1023 87 10000 3.1 150 20:27 06.12.2019
6627 Clouds 12 1023 87 10000 2.6 160 19:59 06.12.2019
6628 Clouds 12 1023 87 10000 2.6 160 19:41 06.12.2019
6629 Clouds 12 1023 93 10000 3.1 150 19:22 06.12.2019
6630 Clouds 12 1023 87 10000 2.1 160 18:59 06.12.2019
6631 Clouds 13 1023 87 10000 2.1 160 18:40 06.12.2019
6632 Clouds 13 1023 82 10000 1.5 190 18:21 06.12.2019
6633 Clouds 13 1023 82 10000 1.5 190 18:21 06.12.2019
6634 Clouds 13 1022 82 10000 2.1 280 17:58 06.12.2019
6635 Clouds 13 1022 82 10000 2.1 280 17:40 06.12.2019
6636 Clouds 14 1022 82 10000 3.1 300 17:21 06.12.2019
6637 Clouds 14 1022 82 10000 2.6 300 16:57 06.12.2019
6638 Clouds 15 1022 82 10000 2.6 290 16:37 06.12.2019
6639 Clouds 15 1022 82 10000 2.6 290 16:19 06.12.2019
6640 Clouds 16 1022 82 10000 3.1 290 15:41 06.12.2019
6641 Clouds 15 1022 82 10000 3.6 280 15:22 06.12.2019
6642 Clouds 16 1022 77 10000 2.1 280 14:58 06.12.2019
6643 Clouds 16 1022 77 10000 2.1 280 14:40 06.12.2019
6644 Clouds 16 1022 77 10000 2.1 280 14:19 06.12.2019
6645 Clouds 16 1023 82 10000 3.1 280 13:46 06.12.2019
6646 Clouds 16 1023 82 10000 3.6 270 13:26 06.12.2019
6647 Clouds 16 1023 77 10000 4.6 250 12:57 06.12.2019
6648 Clouds 16 1023 77 10000 3.1 250 12:39 06.12.2019
6649 Clouds 16 1023 77 10000 3.1 250 12:20 06.12.2019
6650 Clouds 16 1023 77 10000 3.1 250 11:42 06.12.2019
6651 Clouds 16 1024 82 10000 3.6 240 11:23 06.12.2019
6652 Clouds 15 1024 77 10000 3.6 240 10:56 06.12.2019
6653 Clouds 15 1024 77 10000 3.6 240 10:38 06.12.2019
6654 Clouds 15 1024 77 10000 4.1 240 10:20 06.12.2019
6655 Clouds 15 1023 82 10000 2.6 220 09:55 06.12.2019
6656 Clouds 14 1023 87 10000 3.1 200 09:36 06.12.2019
6657 Clouds 15 1023 87 10000 3.1 200 09:18 06.12.2019
6658 Clouds 13 1023 87 10000 4.1 210 08:42 06.12.2019
6659 Clouds 13 1023 87 10000 3.6 210 08:24 06.12.2019
6660 Clouds 13 1022 87 10000 3.6 230 07:42 06.12.2019
6661 Clouds 12 1022 87 10000 3.1 210 07:22 06.12.2019
6662 Clouds 12 1022 82 10000 2.1 210 06:48 06.12.2019
6663 Clouds 12 1022 93 10000 2.1 120 06:25 06.12.2019
6664 Clouds 12 1022 82 10000 1 0 05:49 06.12.2019
6665 Clouds 12 1022 93 10000 1.5 200 03:50 06.12.2019
6666 Clouds 12 1022 93 10000 1.5 160 01:46 06.12.2019
6667 Clouds 12 1022 93 10000 0.5 0 00:57 06.12.2019
6668 Clouds 12 1022 93 10000 1 160 00:24 06.12.2019
6669 Clouds 13 1022 87 10000 2.1 150 23:56 05.12.2019
6670 Clouds 13 1022 93 10000 2.1 130 23:21 05.12.2019
6671 Clouds 13 1022 87 10000 1 140 22:59 05.12.2019
6672 Clouds 13 1022 87 10000 1 140 22:39 05.12.2019
6673 Clouds 13 1022 93 10000 1.5 170 22:20 05.12.2019
6674 Clouds 13 1022 93 10000 1.5 170 22:20 05.12.2019
6675 Clouds 13 1022 87 10000 1 150 21:58 05.12.2019
6676 Clouds 13 1022 87 10000 1 150 21:40 05.12.2019
6677 Clouds 13 1022 93 10000 1 110 21:22 05.12.2019
6678 Clouds 13 1022 93 10000 0.5 0 20:58 05.12.2019
6679 Clouds 13 1022 93 10000 0.5 0 20:40 05.12.2019
6680 Rain 14 1022 93 10000 1 160 20:19 05.12.2019
6681 Rain 14 1022 93 10000 1 160 20:19 05.12.2019
6682 Rain 14 1022 87 10000 0.5 190 19:43 05.12.2019
6683 Rain 14 1022 87 9000 1 0 19:25 05.12.2019
6684 Rain 14 1022 87 9000 1 0 18:59 05.12.2019
6685 Rain 14 1021 87 10000 5.1 210 18:39 05.12.2019
6686 Rain 14 1021 77 10000 3.1 110 18:21 05.12.2019
6687 Rain 15 1021 77 10000 3.1 110 17:59 05.12.2019
6688 Rain 15 1020 77 10000 5.1 70 17:38 05.12.2019
6689 Rain 15 1020 72 10000 5.1 70 17:19 05.12.2019
6690 Rain 15 1020 72 10000 5.1 70 16:55 05.12.2019
6691 Clouds 15 1020 82 10000 5.1 60 16:37 05.12.2019
6692 Clouds 15 1020 82 10000 4.6 50 16:18 05.12.2019
6693 Clouds 16 1020 82 10000 4.6 50 15:55 05.12.2019
6694 Clouds 16 1020 88 10000 2.6 30 15:37 05.12.2019
6695 Clouds 16 1020 77 10000 3.1 40 15:18 05.12.2019